# Wetter Temperatur Luftdruck Luftfeuchtigkeit Sichtweite Windgeschwindigkeit Windrichtung Zeit
1 Rain 30 1009 75 0 2.39 177 09:57 29.01.2020
2 Rain 30 1009 75 0 2.39 177 09:38 29.01.2020
3 Clouds 33 1007 59 10000 5.1 150 09:18 29.01.2020
4 Clouds 33 1007 59 10000 5.1 150 09:18 29.01.2020
5 Clouds 33 1007 59 10000 5.1 150 08:41 29.01.2020
6 Clouds 33 1006 59 10000 7.7 180 08:22 29.01.2020
7 Clouds 33 1006 59 10000 7.7 180 07:45 29.01.2020
8 Clouds 33 1006 59 10000 7.7 180 07:45 29.01.2020
9 Clouds 34 1006 52 10000 5.1 200 07:26 29.01.2020
10 Clouds 34 1006 52 10000 5.1 200 06:55 29.01.2020
11 Clouds 34 1006 52 10000 5.1 200 06:37 29.01.2020
12 Clouds 34 1006 52 10000 5.1 200 06:37 29.01.2020
13 Clouds 30 1006 68 0 3.31 211 06:19 29.01.2020
14 Clouds 30 1006 68 0 3.31 211 05:47 29.01.2020
15 Clouds 33 1008 59 10000 7.7 220 05:29 29.01.2020
16 Clouds 33 1008 59 10000 7.7 220 04:38 29.01.2020
17 Clouds 32 1010 70 10000 5.1 330 03:55 29.01.2020
18 Clouds 30 1010 74 10000 5.1 360 02:33 29.01.2020
19 Clouds 28 1011 83 10000 5.7 330 00:57 29.01.2020
20 Clouds 28 1011 83 10000 5.7 330 00:36 29.01.2020
21 Haze 28 1009 78 10000 3.6 350 00:18 29.01.2020
22 Haze 28 1009 78 10000 3.6 350 23:38 28.01.2020
23 Haze 25 1008 94 10000 3.6 310 23:19 28.01.2020
24 Haze 25 1008 94 10000 3.6 310 22:44 28.01.2020
25 Clouds 24 1007 100 10000 3.6 320 22:26 28.01.2020
26 Clouds 24 1007 100 10000 3.6 320 21:54 28.01.2020
27 Clouds 24 1007 100 10000 3.6 320 21:36 28.01.2020
28 Clouds 26 1007 88 10000 5.1 320 21:18 28.01.2020
29 Clouds 26 1007 88 10000 5.1 320 21:18 28.01.2020
30 -273 0 0 0 0 0 21:18 28.01.2020
31 Clouds 26 1007 88 10000 5.1 320 20:45 28.01.2020
32 Clouds 26 1007 88 10000 5.1 320 20:25 28.01.2020
33 Clouds 26 1007 88 10000 5.1 320 19:55 28.01.2020
34 Clouds 26 1007 88 10000 5.1 320 19:36 28.01.2020
35 Clouds 26 1007 88 10000 2.6 320 19:18 28.01.2020
36 Clouds 26 1007 88 10000 2.6 320 18:41 28.01.2020
37 Clouds 26 1008 88 10000 2.6 360 18:22 28.01.2020
38 Clouds 26 1008 88 10000 2.6 360 17:59 28.01.2020
39 Clouds 26 1008 88 10000 2.6 360 17:38 28.01.2020
40 Clouds 26 1008 88 10000 2.6 360 17:38 28.01.2020
41 Clouds 26 1008 88 10000 2.6 360 17:19 28.01.2020
42 Clouds 26 1008 88 10000 2.6 360 16:55 28.01.2020
43 Clouds 26 1008 88 10000 2.6 360 16:37 28.01.2020
44 Clouds 29 1008 74 0 2.3 80 16:19 28.01.2020
45 Clouds 29 1008 74 0 2.3 80 15:44 28.01.2020
46 Clouds 29 1008 74 0 2.3 80 15:19 28.01.2020
47 Clouds 29 1008 74 0 2.3 80 14:55 28.01.2020
48 Clouds 29 1008 74 0 2.3 80 14:36 28.01.2020
49 Clouds 30 1010 74 0 1.45 102 14:18 28.01.2020
50 Clouds 30 1010 74 0 1.45 102 13:39 28.01.2020
51 Clouds 30 1009 75 0 1.43 59 13:21 28.01.2020
52 Clouds 30 1009 75 0 1.43 59 12:42 28.01.2020
53 Clouds 30 1009 75 0 1.43 59 12:23 28.01.2020
54 Clouds 30 1009 75 0 1.43 59 12:23 28.01.2020
55 Clouds 30 1009 75 0 1.43 59 11:48 28.01.2020
56 Clouds 30 1009 75 0 1.43 59 11:23 28.01.2020
57 Clouds 30 1007 67 0 1.25 186 10:59 28.01.2020
58 Clouds 30 1007 67 0 1.25 186 10:40 28.01.2020
59 Clouds 27 1007 78 10000 2.6 320 10:21 28.01.2020
60 Clouds 27 1007 78 10000 2.6 320 09:55 28.01.2020
61 Clouds 27 1007 78 10000 2.6 320 09:55 28.01.2020
62 Clouds 27 1007 78 10000 2.6 320 09:36 28.01.2020
63 Clouds 28 1006 74 10000 3.6 30 09:18 28.01.2020
64 Clouds 28 1006 74 10000 3.6 30 08:40 28.01.2020
65 Clouds 33 1005 63 10000 6.7 180 08:19 28.01.2020
66 Clouds 33 1005 63 10000 6.7 180 08:19 28.01.2020
67 Clouds 33 1005 63 10000 6.7 180 07:37 28.01.2020
68 Haze 33 1005 63 10000 5.1 220 06:50 28.01.2020
69 Haze 33 1006 63 10000 5.1 230 06:26 28.01.2020
70 Haze 33 1006 63 10000 5.1 230 05:54 28.01.2020
71 Haze 34 1006 63 10000 5.1 200 05:26 28.01.2020
72 Haze 34 1007 59 10000 6.2 160 04:28 28.01.2020
73 Haze 34 1008 59 10000 2.6 330 02:58 28.01.2020
74 Haze 32 1009 66 10000 2.6 330 02:25 28.01.2020
75 Haze 32 1009 66 10000 2.6 330 01:57 28.01.2020
76 Haze 32 1008 66 10000 2.6 350 01:24 28.01.2020
77 Haze 32 1008 66 10000 2.6 350 00:48 28.01.2020
78 Clear 28 1008 78 10000 1.5 320 00:28 28.01.2020
79 Clear 28 1008 78 10000 1.5 320 23:49 27.01.2020
80 Clear 26 1008 88 10000 2.1 320 23:30 27.01.2020
81 Clear 26 1008 88 10000 2.1 320 22:55 27.01.2020
82 Clear 26 1008 88 10000 2.1 320 22:36 27.01.2020
83 Clear 25 1007 94 10000 2.1 300 22:18 27.01.2020
84 Clear 25 1007 94 10000 2.1 300 22:18 27.01.2020
85 Clear 25 1007 94 10000 2.1 300 21:54 27.01.2020
86 Clear 25 1007 94 10000 2.1 300 21:36 27.01.2020
87 Clear 25 1007 100 10000 1.5 350 21:18 27.01.2020
88 Clear 25 1007 100 10000 1.5 350 20:42 27.01.2020
89 Clouds 28 1008 75 0 2.51 26 20:22 27.01.2020
90 Clouds 28 1007 76 0 1.51 30 19:59 27.01.2020
91 Clouds 28 1007 76 0 1.51 30 19:40 27.01.2020
92 Clouds 28 1007 76 0 1.51 30 19:22 27.01.2020
93 Clouds 28 1007 76 0 1.51 30 18:56 27.01.2020
94 Clouds 28 1007 76 0 1.51 30 18:37 27.01.2020
95 Clouds 28 1007 76 0 1.51 30 18:37 27.01.2020
96 Clouds 28 1007 76 0 1.51 30 18:19 27.01.2020
97 Clouds 28 1007 76 0 1.51 30 17:39 27.01.2020
98 Clouds 28 1008 78 0 2.29 44 17:19 27.01.2020
99 Clouds 28 1008 78 0 2.29 44 16:58 27.01.2020
100 Clouds 28 1008 78 0 2.29 44 16:58 27.01.2020
101 Clouds 28 1008 78 0 2.29 44 16:40 27.01.2020
102 Clouds 26 1009 88 10000 2.1 0 16:22 27.01.2020
103 -273 0 0 0 0 0 16:22 27.01.2020
104 Clouds 26 1009 88 10000 2.1 0 15:55 27.01.2020
105 Clouds 26 1009 88 10000 2.1 0 15:36 27.01.2020
106 Clouds 26 1009 88 10000 1.5 0 15:18 27.01.2020
107 Clouds 26 1009 88 10000 1.5 0 14:41 27.01.2020
108 Clouds 27 1009 83 10000 1.5 0 14:22 27.01.2020
109 Clouds 27 1009 83 10000 1.5 0 13:54 27.01.2020
110 Clouds 27 1009 83 10000 1.5 0 13:36 27.01.2020
111 Clouds 29 1009 71 0 0.47 47 13:18 27.01.2020
112 Clouds 29 1009 71 0 0.47 47 12:42 27.01.2020
113 Clouds 29 1009 71 0 0.47 47 12:22 27.01.2020
114 Clouds 29 1009 71 0 0.47 47 11:43 27.01.2020
115 Clouds 30 1007 74 10000 1.5 0 11:23 27.01.2020
116 Clouds 30 1007 74 10000 1.5 0 11:23 27.01.2020
117 Clouds 30 1007 74 10000 1.5 0 10:57 27.01.2020
118 Clouds 30 1007 74 10000 1.5 0 10:57 27.01.2020
119 Clouds 30 1007 74 10000 1.5 0 10:57 27.01.2020
120 Clouds 30 1007 74 10000 1.5 0 10:39 27.01.2020
121 Clouds 31 1006 70 10000 5.1 260 10:20 27.01.2020
122 Clouds 31 1006 70 10000 5.1 260 09:40 27.01.2020
123 Clouds 32 1006 62 10000 5.1 250 09:19 27.01.2020
124 Clouds 32 1006 62 10000 5.1 250 09:19 27.01.2020
125 Clouds 32 1006 62 10000 5.1 250 08:57 27.01.2020
126 Clouds 32 1006 62 10000 5.1 250 08:39 27.01.2020
127 Clouds 33 1006 55 10000 7.7 270 08:19 27.01.2020
128 Clouds 33 1006 55 10000 7.7 270 07:47 27.01.2020
129 Clouds 34 1006 56 10000 7.7 250 07:29 27.01.2020
130 Clouds 34 1006 56 10000 7.7 250 06:38 27.01.2020
131 Clouds 33 1007 59 10000 7.7 260 05:46 27.01.2020
132 Clouds 34 1007 56 10000 7.7 270 04:37 27.01.2020
133 Clouds 33 1009 63 10000 5.1 360 03:35 27.01.2020
134 Clouds 31 1010 70 10000 5.1 330 01:55 27.01.2020
135 Clouds 29 1010 79 10000 5.1 330 01:27 27.01.2020
136 Clouds 29 1010 79 10000 5.1 330 00:41 27.01.2020
137 Clouds 27 1009 88 10000 4.1 330 00:21 27.01.2020
138 Clouds 27 1009 88 10000 4.1 330 23:43 26.01.2020
139 Clouds 24 1009 100 10000 2.6 330 23:22 26.01.2020
140 Clouds 24 1009 100 10000 2.6 330 22:58 26.01.2020
141 Clouds 24 1009 100 10000 2.6 330 22:38 26.01.2020
142 Fog 24 1008 100 10000 4.1 310 22:20 26.01.2020
143 Fog 24 1008 100 10000 4.1 310 22:20 26.01.2020
144 Fog 24 1008 100 10000 4.1 310 21:58 26.01.2020
145 Fog 24 1008 100 10000 4.1 310 21:39 26.01.2020
146 Clouds 24 1007 100 10000 3.6 310 21:20 26.01.2020
147 Clouds 24 1007 100 10000 3.6 310 20:58 26.01.2020
148 Clouds 24 1007 100 10000 3.6 310 20:38 26.01.2020
149 Rain 27 1007 80 0 3.6 23 20:19 26.01.2020
150 Rain 27 1007 80 0 3.6 23 19:57 26.01.2020
151 Rain 27 1007 80 0 3.6 23 19:38 26.01.2020
152 Rain 27 1007 80 0 3.6 23 19:19 26.01.2020
153 Rain 27 1007 80 0 3.6 23 19:19 26.01.2020
154 Rain 27 1007 80 0 3.6 23 18:56 26.01.2020
155 Rain 27 1007 80 0 3.6 23 18:37 26.01.2020
156 Rain 27 1007 80 0 3.6 23 18:19 26.01.2020
157 Rain 27 1007 80 0 3.6 23 17:55 26.01.2020
158 Rain 27 1007 80 0 3.6 23 17:36 26.01.2020
159 Clouds 25 1009 100 10000 1.5 0 17:18 26.01.2020
160 Clouds 25 1009 100 10000 1.5 0 16:55 26.01.2020
161 Clouds 25 1009 100 10000 1.5 0 16:37 26.01.2020
162 Clouds 25 1009 100 10000 1.5 0 16:18 26.01.2020
163 Clouds 28 1009 77 0 2.33 21 15:42 26.01.2020
164 Clouds 26 1010 94 10000 1.5 0 15:19 26.01.2020
165 Clouds 26 1010 94 10000 1.5 0 14:41 26.01.2020
166 Clouds 26 1010 94 10000 1.5 0 14:23 26.01.2020
167 Clouds 26 1010 94 10000 1.5 0 13:59 26.01.2020
168 Clouds 26 1010 94 10000 1.5 0 13:38 26.01.2020
169 Clouds 27 1009 94 10000 1.5 0 13:18 26.01.2020
170 Clouds 27 1009 94 10000 1.5 0 12:43 26.01.2020
171 Clouds 27 1009 94 10000 1.5 0 12:24 26.01.2020
172 Clouds 29 1009 79 10000 1.5 200 11:59 26.01.2020
173 Clouds 29 1009 79 10000 1.5 200 11:40 26.01.2020
174 Clouds 29 1009 79 10000 1.5 200 11:19 26.01.2020
175 Clouds 29 1008 83 10000 1.5 190 10:59 26.01.2020
176 Clouds 29 1008 83 10000 1.5 190 10:39 26.01.2020
177 Clouds 29 1007 83 10000 3.1 190 10:21 26.01.2020
178 Clouds 29 1007 83 10000 3.1 190 09:58 26.01.2020
179 Clouds 29 1007 83 10000 3.1 190 09:40 26.01.2020
180 Clouds 29 1007 83 10000 3.1 190 09:40 26.01.2020
181 Clouds 30 1007 79 10000 3.6 190 09:21 26.01.2020
182 Clouds 30 1007 79 10000 3.6 190 08:45 26.01.2020
183 -273 0 0 0 0 0 08:23 26.01.2020
184 Clouds 31 1007 74 10000 5.1 180 07:58 26.01.2020
185 Clouds 31 1007 74 10000 5.1 180 07:40 26.01.2020
186 Clouds 32 1007 70 10000 7.7 210 07:21 26.01.2020
187 Clouds 32 1008 66 10000 7.7 220 06:31 26.01.2020
188 Clouds 32 1008 66 10000 7.7 220 05:32 26.01.2020
189 Clouds 31 1009 74 10000 5.1 250 04:45 26.01.2020
190 Clouds 31 1010 74 10000 2.6 320 02:58 26.01.2020
191 Haze 31 1011 74 10000 2.6 280 01:50 26.01.2020
192 Clouds 29 1010 71 0 2.23 338 01:25 26.01.2020
193 Clouds 29 1010 71 0 2.23 338 00:58 26.01.2020
194 Clouds 29 1010 71 0 2.23 338 00:37 26.01.2020
195 Haze 28 1010 78 10000 2.1 0 00:19 26.01.2020
196 Haze 28 1010 78 10000 2.1 0 23:37 25.01.2020
197 Clouds 24 1009 100 10000 2.6 320 23:18 25.01.2020
198 Clouds 27 1010 80 0 3.23 12 22:40 25.01.2020
199 Clouds 24 1008 100 10000 2.6 320 22:19 25.01.2020
200 Clouds 24 1008 100 10000 2.6 320 21:57 25.01.2020
201 Clouds 24 1008 100 10000 2.6 320 21:57 25.01.2020
202 Clouds 24 1008 100 10000 2.6 320 21:38 25.01.2020
203 Clouds 24 1008 100 10000 2.6 320 21:38 25.01.2020
204 Clouds 27 1010 80 0 3.23 12 21:20 25.01.2020
205 Clouds 27 1010 80 0 3.23 12 20:44 25.01.2020
206 Clouds 27 1010 80 0 3.23 12 20:44 25.01.2020
207 Clouds 27 1010 80 0 3.23 12 20:25 25.01.2020
208 Clouds 27 1010 80 0 3.23 12 20:25 25.01.2020
209 Clouds 24 1008 100 10000 2.6 330 19:55 25.01.2020
210 Clouds 27 1008 79 0 3.18 1 19:37 25.01.2020
211 Clouds 25 1008 94 10000 2.6 330 19:18 25.01.2020
212 Clouds 27 1008 79 0 3.18 1 18:42 25.01.2020
213 Clouds 25 1008 100 10000 2.6 330 18:21 25.01.2020
214 Clouds 25 1008 100 10000 2.6 330 17:58 25.01.2020
215 Clouds 27 1008 79 0 3.18 1 17:38 25.01.2020
216 Clouds 25 1009 100 10000 5.1 330 17:18 25.01.2020
217 Clouds 25 1009 100 10000 5.1 330 16:42 25.01.2020
218 Clouds 28 1009 78 0 2.84 17 16:23 25.01.2020
219 Clouds 28 1009 78 0 2.84 17 15:58 25.01.2020
220 Clouds 28 1009 78 0 2.84 17 15:39 25.01.2020
221 Clouds 28 1009 78 0 2.84 17 15:20 25.01.2020
222 Clouds 28 1009 78 0 2.84 17 15:20 25.01.2020
223 Clouds 28 1009 78 0 2.84 17 14:42 25.01.2020
224 Rain 29 1011 70 0 0.69 31 14:19 25.01.2020
225 Rain 29 1011 70 0 0.69 31 13:45 25.01.2020
226 Rain 29 1011 70 0 0.69 31 13:27 25.01.2020
227 Rain 29 1011 73 0 1.38 33 12:57 25.01.2020
228 Rain 29 1011 73 0 1.38 33 12:38 25.01.2020
229 Rain 29 1011 73 0 1.38 33 12:19 25.01.2020
230 Rain 29 1011 73 0 1.38 33 12:19 25.01.2020
231 Rain 29 1011 73 0 1.38 33 11:40 25.01.2020
232 Rain 29 1011 73 0 1.38 33 11:40 25.01.2020
233 Rain 29 1009 72 0 2.15 229 11:19 25.01.2020
234 Rain 29 1009 72 0 2.15 229 10:55 25.01.2020
235 Rain 29 1009 72 0 2.15 229 10:37 25.01.2020
236 Clouds 30 1009 74 10000 6.7 230 10:18 25.01.2020
237 Clouds 30 1009 74 10000 6.7 230 09:40 25.01.2020
238 Rain 29 1009 72 0 2.15 229 09:19 25.01.2020
239 Rain 29 1009 72 0 2.15 229 08:43 25.01.2020
240 Clouds 30 1007 67 0 3.75 234 07:57 25.01.2020
241 Clouds 33 1008 63 10000 5.1 240 07:28 25.01.2020
242 Clouds 33 1008 63 10000 5.1 240 06:33 25.01.2020
243 Clouds 33 1009 63 10000 5.1 240 05:57 25.01.2020
244 Clouds 33 1009 63 10000 5.1 240 05:38 25.01.2020
245 Clouds 33 1010 59 10000 6.7 230 03:58 25.01.2020
246 Clouds 33 1010 59 10000 6.7 230 03:39 25.01.2020
247 Clouds 33 1011 63 10000 7.2 220 02:36 25.01.2020
248 Clouds 32 1011 62 10000 5.1 320 01:57 25.01.2020
249 Clouds 30 1011 70 10000 2.6 25 01:21 25.01.2020
250 Clouds 30 1011 70 10000 2.6 25 00:37 25.01.2020
251 Clouds 29 1011 79 10000 2.6 340 00:18 25.01.2020
252 Clouds 29 1011 79 10000 2.6 340 23:41 24.01.2020
253 Clouds 29 1011 79 10000 2.6 340 23:41 24.01.2020
254 Clouds 26 1010 88 10000 2.6 300 23:23 24.01.2020
255 Clouds 26 1010 88 10000 2.6 300 22:46 24.01.2020
256 Clouds 25 1010 88 10000 2.6 320 22:27 24.01.2020
257 Clouds 25 1010 88 10000 2.6 320 21:57 24.01.2020
258 Clouds 25 1010 88 10000 2.6 320 21:39 24.01.2020
259 Clouds 27 1010 77 0 2.36 40 21:18 24.01.2020
260 Clouds 27 1010 77 0 2.36 40 20:43 24.01.2020
261 Clouds 27 1010 76 0 2.21 30 20:22 24.01.2020
262 Rain 27 1009 82 0 3.09 29 19:58 24.01.2020
263 Rain 27 1009 82 0 3.09 29 19:39 24.01.2020
264 Rain 27 1009 82 0 3.09 29 19:21 24.01.2020
265 Rain 27 1009 82 0 3.09 29 18:44 24.01.2020
266 Rain 27 1009 82 0 3.09 29 18:25 24.01.2020
267 Rain 27 1009 82 0 3.09 29 17:56 24.01.2020
268 Rain 27 1009 82 0 3.09 29 17:56 24.01.2020
269 Rain 27 1009 82 0 3.09 29 17:38 24.01.2020
270 Rain 29 1010 75 0 2.03 125 17:20 24.01.2020
271 Rain 29 1010 75 0 2.03 125 16:39 24.01.2020
272 Rain 29 1010 75 0 2.03 125 16:21 24.01.2020
273 Rain 29 1010 75 0 2.03 125 15:55 24.01.2020
274 Rain 29 1010 75 0 2.03 125 15:37 24.01.2020
275 Clouds 29 1011 83 10000 2.6 150 15:18 24.01.2020
276 Clouds 29 1011 83 10000 2.6 150 14:41 24.01.2020
277 Clouds 29 1011 83 10000 2.6 150 14:22 24.01.2020
278 Clouds 28 1010 88 10000 2.6 170 13:44 24.01.2020
279 Clouds 28 1010 88 10000 3.1 150 13:23 24.01.2020
280 Clouds 28 1010 88 10000 3.1 150 12:45 24.01.2020
281 Clouds 28 1010 88 10000 3.1 150 12:45 24.01.2020
282 Clouds 28 1010 88 10000 3.1 150 12:23 24.01.2020
283 Rain 29 1011 77 0 3.98 150 11:57 24.01.2020
284 Rain 29 1011 77 0 3.98 150 11:39 24.01.2020
285 Clouds 29 1008 83 10000 3.1 150 11:18 24.01.2020
286 Clouds 29 1008 83 10000 3.1 150 10:42 24.01.2020
287 Clouds 29 1008 83 10000 3.1 150 10:42 24.01.2020
288 Haze 30 1008 79 10000 5.1 180 10:21 24.01.2020
289 Haze 30 1008 79 10000 5.1 180 09:54 24.01.2020
290 Haze 30 1008 79 10000 5.1 180 09:36 24.01.2020
291 Haze 32 1007 66 10000 5.1 160 09:18 24.01.2020
292 Haze 32 1007 66 10000 5.1 160 08:39 24.01.2020
293 Haze 32 1007 66 10000 5.1 160 08:39 24.01.2020
294 Haze 32 1007 66 10000 5.1 200 08:19 24.01.2020
295 Haze 32 1007 66 10000 5.1 200 07:47 24.01.2020
296 Clouds 33 1007 63 10000 7.7 200 07:22 24.01.2020
297 Clouds 33 1007 63 10000 7.7 200 07:22 24.01.2020
298 Clouds 33 1007 63 10000 7.7 200 06:43 24.01.2020
299 Clouds 33 1008 63 10000 7.7 220 06:23 24.01.2020
300 Clouds 34 1008 59 10000 3.6 230 05:22 24.01.2020
301 Haze 34 1009 59 10000 5.1 220 03:34 24.01.2020
302 Haze 33 1010 59 10000 5.1 150 02:40 24.01.2020
303 Haze 32 1010 62 10000 5.1 150 02:20 24.01.2020
304 Haze 32 1010 62 10000 5.1 150 01:38 24.01.2020
305 Haze 31 1011 70 10000 5.1 160 00:42 24.01.2020
306 Haze 29 1011 79 10000 2.1 0 00:19 24.01.2020
307 Haze 29 1011 79 10000 2.1 0 23:41 23.01.2020
308 Haze 25 1010 100 10000 2.1 0 23:21 23.01.2020
309 Haze 25 1010 100 10000 2.1 0 22:58 23.01.2020
310 Haze 25 1010 100 10000 2.1 0 22:36 23.01.2020
311 Clouds 24 1010 100 10000 2.1 0 22:18 23.01.2020
312 Clouds 24 1010 100 10000 2.1 0 21:55 23.01.2020
313 Clouds 24 1010 100 10000 2.1 0 21:37 23.01.2020
314 Clouds 25 1010 94 10000 1.5 0 21:18 23.01.2020
315 Clouds 25 1010 94 10000 1.5 0 20:41 23.01.2020
316 Clouds 27 1011 75 0 1.44 46 20:22 23.01.2020
317 Clouds 28 1009 76 0 1.92 54 19:57 23.01.2020
318 Clouds 28 1009 76 0 1.92 54 19:39 23.01.2020
319 Clouds 25 1010 94 10000 1.5 0 19:21 23.01.2020
320 Clouds 25 1010 94 10000 1.5 0 18:56 23.01.2020
321 Clouds 25 1010 94 10000 1.5 0 18:37 23.01.2020
322 Clouds 26 1010 94 10000 1.5 0 18:19 23.01.2020
323 Clouds 26 1010 94 10000 1.5 0 18:19 23.01.2020
324 Clouds 26 1010 94 10000 1.5 0 17:44 23.01.2020
325 Clouds 29 1010 72 0 2.13 139 17:21 23.01.2020
326 Clouds 29 1010 72 0 2.13 139 16:58 23.01.2020
327 Clouds 29 1010 72 0 2.13 139 16:38 23.01.2020
328 Clouds 26 1011 94 10000 1.5 0 16:19 23.01.2020
329 Clouds 26 1011 94 10000 1.5 0 15:57 23.01.2020
330 Clouds 26 1011 94 10000 1.5 0 15:38 23.01.2020
331 Clouds 26 1011 94 10000 1.5 0 15:38 23.01.2020
332 Clouds 27 1011 88 10000 1.5 0 15:19 23.01.2020
333 Clouds 27 1011 88 10000 1.5 0 14:57 23.01.2020
334 Clouds 27 1011 88 10000 1.5 0 14:39 23.01.2020
335 Clouds 27 1010 88 10000 1.5 0 14:21 23.01.2020
336 Clouds 27 1010 88 10000 1.5 0 13:46 23.01.2020
337 Clouds 28 1010 83 10000 1.5 0 13:21 23.01.2020
338 Clouds 28 1010 83 10000 1.5 0 12:56 23.01.2020
339 Clouds 28 1010 83 10000 1.5 0 12:56 23.01.2020
340 Clouds 28 1010 83 10000 1.5 0 12:56 23.01.2020
341 Clouds 28 1010 83 10000 1.5 0 12:38 23.01.2020
342 Clouds 28 1009 83 10000 1.5 0 12:20 23.01.2020
343 Clouds 28 1009 83 10000 1.5 0 11:43 23.01.2020
344 Clouds 28 1010 83 10000 2.6 140 11:24 23.01.2020
345 Clouds 28 1010 83 10000 2.6 140 10:58 23.01.2020
346 Clouds 28 1010 83 10000 2.6 140 10:40 23.01.2020
347 Haze 29 1009 79 10000 5.1 180 10:19 23.01.2020
348 Haze 29 1009 79 10000 5.1 180 09:41 23.01.2020
349 Haze 29 1009 79 10000 5.1 180 09:41 23.01.2020
350 Haze 32 1008 62 10000 7.7 200 09:21 23.01.2020
351 Haze 32 1008 62 10000 7.7 200 08:56 23.01.2020
352 Haze 32 1008 62 10000 7.7 200 08:38 23.01.2020
353 Haze 32 1007 62 10000 7.7 220 08:18 23.01.2020
354 Haze 32 1007 62 10000 7.7 220 07:37 23.01.2020
355 Haze 33 1008 59 10000 7.7 220 07:18 23.01.2020
356 Haze 33 1008 59 10000 7.7 220 06:44 23.01.2020
357 Haze 33 1008 49 10000 5.1 280 06:18 23.01.2020
358 Haze 32 1010 66 10000 6.2 330 04:25 23.01.2020
359 Haze 32 1011 62 10000 5.1 330 03:23 23.01.2020
360 Haze 31 1012 66 10000 5.1 330 01:53 23.01.2020
361 Haze 30 1012 70 10000 5.1 350 00:44 23.01.2020
362 Haze 28 1012 78 10000 5.1 350 00:22 23.01.2020
363 Haze 28 1012 78 10000 5.1 350 23:46 22.01.2020
364 Clouds 25 1012 94 10000 5.1 300 23:28 22.01.2020
365 Clouds 25 1012 94 10000 5.1 300 22:43 22.01.2020
366 Clouds 24 1011 100 10000 2.6 320 22:25 22.01.2020
367 Clouds 24 1011 100 10000 2.6 320 21:58 22.01.2020
368 Clouds 24 1011 100 10000 2.6 320 21:36 22.01.2020
369 Clouds 24 1011 100 10000 2.6 320 21:36 22.01.2020
370 Clouds 24 1010 100 10000 2.1 320 21:18 22.01.2020
371 Clouds 24 1010 100 10000 2.1 320 20:41 22.01.2020
372 Clouds 24 1010 100 10000 2.1 320 20:41 22.01.2020
373 Clouds 25 1010 94 10000 3.6 310 20:23 22.01.2020
374 Clouds 25 1010 94 10000 3.6 310 19:58 22.01.2020
375 Clouds 25 1010 94 10000 3.6 310 19:58 22.01.2020
376 Clouds 25 1010 94 10000 3.6 310 19:40 22.01.2020
377 Rain 28 1010 77 0 6.51 327 19:20 22.01.2020
378 Rain 28 1010 77 0 6.51 327 18:58 22.01.2020
379 Rain 28 1010 77 0 6.51 327 18:39 22.01.2020
380 Clouds 25 1011 94 10000 2.6 320 18:20 22.01.2020
381 Clouds 25 1011 94 10000 2.6 320 17:56 22.01.2020
382 Clouds 25 1011 94 10000 2.6 320 17:38 22.01.2020
383 Rain 28 1010 77 0 6.47 330 17:19 22.01.2020
384 Rain 28 1010 77 0 6.47 330 16:44 22.01.2020
385 Clouds 25 1012 94 10000 2.1 340 16:24 22.01.2020
386 Clouds 25 1012 94 10000 2.1 340 15:59 22.01.2020
387 Clouds 25 1012 94 10000 2.1 340 15:41 22.01.2020
388 Rain 28 1010 77 0 6.47 330 15:22 22.01.2020
389 Rain 28 1010 77 0 6.47 330 14:58 22.01.2020
390 Rain 28 1010 77 0 6.47 330 14:37 22.01.2020
391 Rain 29 1012 76 0 6.14 320 14:19 22.01.2020
392 Rain 29 1012 76 0 6.14 320 13:55 22.01.2020
393 Rain 29 1012 76 0 6.14 320 13:36 22.01.2020
394 Rain 29 1012 76 0 6.14 320 13:36 22.01.2020
395 Rain 29 1012 76 0 6.14 320 13:36 22.01.2020
396 Rain 29 1012 76 0 5.33 319 13:18 22.01.2020
397 Rain 29 1012 76 0 5.33 319 12:55 22.01.2020
398 Rain 29 1012 76 0 5.33 319 12:37 22.01.2020
399 Rain 29 1012 76 0 5.33 319 12:18 22.01.2020
400 Rain 29 1012 76 0 5.33 319 11:56 22.01.2020
401 Rain 29 1012 76 0 5.33 319 11:56 22.01.2020
402 Rain 29 1012 76 0 5.33 319 11:37 22.01.2020
403 Rain 29 1010 75 0 5.56 302 11:18 22.01.2020
404 Rain 29 1010 75 0 5.56 302 10:44 22.01.2020
405 Clouds 29 1010 74 10000 7.7 310 10:20 22.01.2020
406 Clouds 29 1010 74 10000 7.7 310 09:44 22.01.2020
407 Clouds 30 1010 74 10000 7.7 270 09:25 22.01.2020
408 Clouds 30 1010 74 10000 7.7 270 08:58 22.01.2020
409 Clouds 30 1010 74 10000 7.7 270 08:40 22.01.2020
410 Clouds 30 1010 74 10000 10.3 300 08:21 22.01.2020
411 Clouds 30 1010 74 10000 10.3 300 07:54 22.01.2020
412 Clouds 30 1010 74 10000 10.3 300 07:36 22.01.2020
413 Clouds 32 1009 66 10000 10.3 300 07:18 22.01.2020
414 Clouds 33 1010 59 10000 10.3 290 06:30 22.01.2020
415 Clouds 33 1010 59 10000 10.3 290 05:41 22.01.2020
416 Clouds 32 1011 70 10000 6.2 350 04:18 22.01.2020
417 Clouds 31 1012 74 10000 9.3 280 03:22 22.01.2020
418 Clouds 29 1013 79 10000 10.3 270 01:44 22.01.2020
419 Clouds 30 1013 74 10000 5.1 330 00:44 22.01.2020
420 Clouds 29 1013 74 0 4.64 328 00:26 22.01.2020
421 Clouds 29 1013 74 0 4.64 328 23:38 21.01.2020
422 Clouds 29 1013 74 0 4.64 328 23:38 21.01.2020
423 Clouds 26 1012 94 10000 2.6 320 23:20 21.01.2020
424 Clouds 26 1012 94 10000 2.6 320 22:56 21.01.2020
425 Clouds 26 1012 94 10000 2.6 320 22:56 21.01.2020
426 Clouds 26 1012 94 10000 2.6 320 22:37 21.01.2020
427 Clouds 26 1012 94 10000 2.6 320 22:37 21.01.2020
428 Clouds 25 1012 100 10000 5.1 330 22:19 21.01.2020
429 Clouds 25 1012 100 10000 5.1 330 21:55 21.01.2020
430 Clouds 25 1012 100 10000 5.1 330 21:37 21.01.2020
431 Rain 28 1011 78 0 4.74 342 21:18 21.01.2020
432 Rain 28 1011 78 0 4.74 342 20:55 21.01.2020
433 Rain 28 1011 78 0 4.74 342 20:36 21.01.2020
434 Rain 28 1011 79 0 4.88 336 20:18 21.01.2020
435 Rain 28 1011 79 0 4.88 336 19:55 21.01.2020
436 Rain 28 1011 79 0 4.88 336 19:36 21.01.2020
437 Rain 28 1011 79 0 4.88 336 19:18 21.01.2020
438 Rain 28 1011 79 0 4.88 336 18:54 21.01.2020
439 Rain 28 1011 79 0 4.88 336 18:36 21.01.2020
440 Rain 28 1011 79 0 4.88 336 18:18 21.01.2020
441 Rain 28 1011 79 0 4.88 336 17:42 21.01.2020
442 Rain 28 1011 82 0 4.62 353 17:19 21.01.2020
443 Rain 28 1011 82 0 4.62 353 16:55 21.01.2020
444 Rain 28 1011 82 0 4.62 353 16:36 21.01.2020
445 Rain 28 1011 82 0 4.62 353 16:18 21.01.2020
446 Rain 28 1011 82 0 4.62 353 15:39 21.01.2020
447 Rain 28 1011 82 0 4.62 353 15:20 21.01.2020
448 Rain 28 1011 82 0 4.62 353 14:40 21.01.2020
449 Rain 28 1011 82 0 4.62 353 14:22 21.01.2020
450 Rain 29 1012 78 0 4.8 305 13:58 21.01.2020
451 Rain 29 1012 78 0 4.8 305 13:38 21.01.2020
452 Rain 29 1012 78 0 4.29 314 13:18 21.01.2020
453 Rain 29 1012 78 0 4.29 314 12:42 21.01.2020
454 Rain 29 1012 78 0 4.29 314 12:24 21.01.2020
455 Rain 29 1012 78 0 4.29 314 11:56 21.01.2020
456 Rain 29 1012 78 0 4.29 314 11:38 21.01.2020
457 Rain 29 1012 78 0 4.29 314 11:38 21.01.2020
458 Rain 29 1012 78 0 4.29 314 11:38 21.01.2020
459 Rain 29 1011 78 0 4.89 288 11:19 21.01.2020
460 Rain 29 1011 78 0 4.89 288 11:19 21.01.2020
461 Rain 29 1011 78 0 4.89 288 10:43 21.01.2020
462 Haze 31 1008 70 10000 5.1 280 10:23 21.01.2020
463 Haze 31 1008 70 10000 5.1 280 09:56 21.01.2020
464 Haze 31 1008 70 10000 5.1 280 09:56 21.01.2020
465 Haze 31 1008 70 10000 5.1 280 09:38 21.01.2020
466 Clouds 31 1008 70 10000 5.1 260 09:20 21.01.2020
467 Clouds 31 1008 70 10000 5.1 260 08:44 21.01.2020
468 Haze 31 1008 74 10000 5.1 270 08:26 21.01.2020
469 Haze 31 1008 74 10000 5.1 270 07:43 21.01.2020
470 Haze 32 1008 70 10000 7.7 250 07:24 21.01.2020
471 Haze 32 1008 70 10000 7.7 250 06:57 21.01.2020
472 Haze 32 1008 70 10000 7.7 250 06:38 21.01.2020
473 Clouds 30 1009 72 0 6.17 284 05:53 21.01.2020
474 Clouds 30 1009 72 0 6.17 284 05:32 21.01.2020
475 Clear 30 1010 71 0 5.09 292 04:37 21.01.2020
476 Clouds 31 1013 66 10000 3.1 340 02:27 21.01.2020
477 Clouds 31 1013 66 10000 3.1 340 01:36 21.01.2020
478 Clouds 30 1013 74 10000 3.1 340 00:45 21.01.2020
479 Rain 29 1012 72 0 3.38 328 00:25 21.01.2020
480 Rain 29 1012 72 0 3.38 328 23:56 20.01.2020
481 Rain 29 1012 72 0 3.38 328 23:36 20.01.2020
482 Clouds 25 1012 94 10000 2.6 340 23:18 20.01.2020
483 Clouds 25 1012 94 10000 2.6 340 22:40 20.01.2020
484 Rain 28 1012 78 0 3.54 346 22:21 20.01.2020
485 Rain 28 1012 78 0 3.54 346 21:58 20.01.2020
486 Rain 28 1012 78 0 3.54 346 21:58 20.01.2020
487 Rain 28 1012 78 0 3.54 346 21:38 20.01.2020
488 Clear 24 1010 100 10000 2.6 340 21:20 20.01.2020
489 Clear 24 1010 100 10000 2.6 340 20:58 20.01.2020
490 Clear 24 1010 100 10000 2.6 340 20:39 20.01.2020
491 Clouds 27 1010 79 0 3.03 348 20:20 20.01.2020
492 Clouds 27 1010 79 0 3.03 348 19:58 20.01.2020
493 Clouds 27 1010 79 0 3.03 348 19:40 20.01.2020
494 Clouds 27 1010 79 0 3.03 348 19:19 20.01.2020
495 Clouds 27 1010 79 0 3.03 348 18:45 20.01.2020
496 Clouds 27 1010 79 0 3.03 348 18:24 20.01.2020
497 Clouds 27 1010 79 0 3.03 348 17:59 20.01.2020
498 Clouds 27 1010 79 0 3.03 348 17:38 20.01.2020
499 Clouds 27 1010 83 0 3.64 3 17:18 20.01.2020
500 Clouds 27 1010 83 0 3.64 3 16:45 20.01.2020
501 Clouds 27 1010 83 0 3.64 3 16:25 20.01.2020
502 Clouds 27 1010 83 0 3.64 3 15:58 20.01.2020
503 Clouds 27 1010 83 0 3.64 3 15:58 20.01.2020
504 Clouds 27 1010 83 0 3.64 3 15:40 20.01.2020
505 Clouds 26 1011 94 10000 2.6 320 15:21 20.01.2020
506 Clouds 26 1011 94 10000 2.6 320 14:55 20.01.2020
507 Clouds 26 1011 94 10000 2.6 320 14:36 20.01.2020
508 Clouds 27 1010 83 10000 2.6 14 14:18 20.01.2020
509 Clouds 27 1010 83 10000 2.6 14 13:41 20.01.2020
510 Clouds 27 1010 83 10000 2.6 14 13:22 20.01.2020
511 Clouds 27 1010 83 10000 2.6 14 12:48 20.01.2020
512 Clouds 27 1010 88 10000 3.6 310 12:29 20.01.2020
513 Clouds 27 1010 88 10000 3.6 310 11:59 20.01.2020
514 Clouds 27 1010 88 10000 3.6 310 11:40 20.01.2020
515 Clouds 29 1009 70 10000 5.1 280 11:22 20.01.2020
516 Clouds 29 1009 70 10000 5.1 280 10:57 20.01.2020
517 Clouds 29 1009 70 10000 5.1 280 10:39 20.01.2020
518 Clouds 31 1008 62 10000 10.3 280 10:19 20.01.2020
519 Clouds 31 1008 62 10000 10.3 280 10:19 20.01.2020
520 Clouds 31 1008 62 10000 10.3 280 10:19 20.01.2020
521 Clouds 31 1008 62 10000 10.3 280 09:41 20.01.2020
522 Clouds 33 1007 63 10000 10.3 300 09:21 20.01.2020
523 Clouds 33 1007 63 10000 10.3 300 08:49 20.01.2020
524 Clouds 34 1007 59 10000 10.3 290 08:30 20.01.2020
525 Clouds 34 1007 59 10000 10.3 290 07:53 20.01.2020
526 Clouds 34 1007 59 10000 10.3 300 07:30 20.01.2020
527 Clouds 34 1007 59 10000 10.3 300 06:59 20.01.2020
528 Clouds 34 1008 59 10000 10.3 300 06:28 20.01.2020
529 Clouds 34 1008 59 10000 10.3 300 05:44 20.01.2020
530 Clouds 33 1009 63 10000 10.3 320 05:23 20.01.2020
531 Clouds 33 1009 63 10000 10.3 320 04:48 20.01.2020
532 Clouds 32 1011 66 10000 7.7 330 02:59 20.01.2020
533 Clouds 32 1011 66 10000 7.7 330 02:59 20.01.2020
534 Rain 28 1011 75 0 5.29 335 01:57 20.01.2020
535 Rain 28 1011 75 0 5.29 335 01:37 20.01.2020
536 Clouds 29 1012 79 10000 9.3 330 00:45 20.01.2020
537 Clouds 26 1011 94 10000 3.1 330 00:25 20.01.2020
538 Clouds 26 1011 94 10000 3.1 330 23:40 19.01.2020
539 Clouds 25 1010 94 10000 3.6 350 23:20 19.01.2020
540 Clouds 25 1010 94 10000 3.6 350 22:57 19.01.2020
541 Clouds 25 1010 94 10000 3.6 350 22:39 19.01.2020
542 Clouds 24 1009 100 10000 2.6 340 22:20 19.01.2020
543 Clouds 24 1009 100 10000 2.6 340 21:57 19.01.2020
544 Clouds 24 1009 100 10000 2.6 340 21:39 19.01.2020
545 Rain 27 1010 82 0 5.21 356 21:20 19.01.2020
546 Rain 27 1010 82 0 5.21 356 20:57 19.01.2020
547 Rain 27 1010 82 0 5.21 356 20:39 19.01.2020
548 Clouds 25 1008 94 10000 4.1 300 20:21 19.01.2020
549 Clouds 25 1008 94 10000 4.1 300 19:57 19.01.2020
550 Clouds 25 1008 94 10000 4.1 300 19:39 19.01.2020
551 Clouds 25 1008 94 10000 4.1 300 19:20 19.01.2020
552 Clouds 25 1008 94 10000 4.1 310 18:57 19.01.2020
553 Clouds 25 1008 94 10000 4.1 310 18:39 19.01.2020
554 Clouds 26 1008 88 10000 4.1 330 18:20 19.01.2020
555 Clouds 26 1008 88 10000 4.1 330 17:58 19.01.2020
556 Clouds 26 1008 88 10000 4.1 330 17:58 19.01.2020
557 Clouds 26 1008 88 10000 4.1 330 17:40 19.01.2020
558 Rain 27 1009 79 0 3.14 5 17:21 19.01.2020
559 Rain 27 1009 79 0 3.14 5 16:59 19.01.2020
560 Rain 27 1009 79 0 3.14 5 16:59 19.01.2020
561 Rain 27 1009 79 0 3.14 5 16:39 19.01.2020
562 Clouds 27 1010 83 10000 3.6 340 16:21 19.01.2020
563 Clouds 27 1010 83 10000 3.6 340 15:58 19.01.2020
564 Clouds 27 1010 83 10000 3.6 340 15:58 19.01.2020
565 Clouds 27 1010 83 10000 3.6 340 15:38 19.01.2020
566 Rain 27 1009 79 0 3.14 5 15:20 19.01.2020
567 Clouds 26 1010 88 10000 5.1 360 14:58 19.01.2020
568 Clouds 26 1010 88 10000 5.1 360 14:39 19.01.2020
569 Clouds 29 1010 74 10000 5.1 360 14:18 19.01.2020
570 Clouds 29 1010 74 10000 5.1 360 13:57 19.01.2020
571 Clouds 29 1010 74 10000 5.1 360 13:38 19.01.2020
572 Clouds 28 1010 78 10000 2.6 350 13:19 19.01.2020
573 Clouds 28 1010 78 10000 2.6 350 12:55 19.01.2020
574 Clouds 28 1010 78 10000 2.6 350 12:36 19.01.2020
575 Clouds 28 1009 74 10000 3.6 320 12:18 19.01.2020
576 Clouds 28 1009 74 10000 3.6 320 11:42 19.01.2020
577 Clouds 30 1008 66 10000 7.7 290 11:20 19.01.2020
578 Clouds 30 1008 66 10000 7.7 290 10:56 19.01.2020
579 Clouds 30 1008 66 10000 7.7 290 10:56 19.01.2020
580 Clouds 30 1008 66 10000 7.7 290 10:37 19.01.2020
581 Clouds 32 1008 59 10000 2.6 290 10:19 19.01.2020
582 Clouds 32 1008 59 10000 2.6 290 10:18 19.01.2020
583 -273 0 0 0 0 0 09:44 19.01.2020
584 Clouds 28 1008 82 0 5.95 298 09:25 19.01.2020
585 Clouds 28 1008 82 0 5.95 298 08:58 19.01.2020
586 Clouds 28 1008 82 0 5.95 298 08:39 19.01.2020
587 Clouds 33 1006 59 10000 5.1 270 08:20 19.01.2020
588 Clouds 33 1006 59 10000 5.1 270 07:42 19.01.2020
589 Clouds 34 1006 56 10000 5.1 280 07:21 19.01.2020
590 Clouds 34 1006 56 10000 5.1 280 06:50 19.01.2020
591 Clouds 32 1008 66 10000 5.1 340 05:21 19.01.2020
592 Clouds 32 1009 66 10000 7.7 320 02:43 19.01.2020
593 Clouds 31 1010 70 10000 10.3 330 02:21 19.01.2020
594 Clouds 27 1010 83 10000 5.7 330 01:24 19.01.2020
595 Clouds 27 1010 83 10000 5.7 330 01:24 19.01.2020
596 Clouds 27 1010 83 10000 5.7 330 00:45 19.01.2020
597 Clouds 26 1010 88 10000 3.6 340 00:27 19.01.2020
598 Clouds 26 1010 88 10000 3.6 340 23:55 18.01.2020
599 Clouds 26 1010 88 10000 3.6 340 23:36 18.01.2020
600 Clouds 26 1009 88 10000 3.6 340 23:18 18.01.2020
601 Clouds 26 1009 88 10000 3.6 340 22:54 18.01.2020
602 Clouds 26 1009 88 10000 3.6 340 22:54 18.01.2020
603 Clouds 26 1009 88 10000 3.6 340 22:54 18.01.2020
604 Clouds 26 1009 88 10000 3.6 340 22:36 18.01.2020
605 Clouds 26 1009 88 10000 3.6 340 22:36 18.01.2020
606 Clouds 25 1008 94 10000 5.1 340 22:18 18.01.2020
607 Clouds 25 1008 94 10000 5.1 340 21:55 18.01.2020
608 Clouds 25 1008 94 10000 5.1 340 21:36 18.01.2020
609 Clouds 26 1007 83 10000 3.6 350 21:18 18.01.2020
610 Clouds 26 1007 83 10000 3.6 350 21:18 18.01.2020
611 Clouds 26 1007 83 10000 3.6 350 20:41 18.01.2020
612 Clouds 25 1007 94 10000 5.1 330 20:19 18.01.2020
613 Clouds 25 1007 94 10000 5.1 330 19:44 18.01.2020
614 Clouds 25 1007 94 10000 5.1 330 19:44 18.01.2020
615 Clouds 25 1006 94 10000 3.1 330 19:25 18.01.2020
616 Clouds 25 1006 94 10000 3.1 330 19:25 18.01.2020
617 Clouds 25 1006 94 10000 3.1 330 18:56 18.01.2020
618 Clouds 25 1006 94 10000 3.1 330 18:37 18.01.2020
619 Clouds 26 1007 88 10000 3.1 340 18:19 18.01.2020
620 Clouds 26 1007 88 10000 3.1 340 17:41 18.01.2020
621 Clouds 26 1008 94 10000 3.1 290 17:21 18.01.2020
622 Clouds 26 1008 94 10000 3.1 290 16:57 18.01.2020
623 Clouds 26 1008 94 10000 3.1 290 16:38 18.01.2020
624 Rain 27 1007 81 0 3.88 355 16:20 18.01.2020
625 Rain 27 1007 81 0 3.88 355 15:56 18.01.2020
626 Rain 27 1007 81 0 3.88 355 15:38 18.01.2020
627 Rain 27 1007 81 0 3.88 355 15:20 18.01.2020
628 Rain 27 1007 81 0 3.88 355 14:41 18.01.2020
629 Clear 29 1009 79 0 4.37 308 14:20 18.01.2020
630 Clear 29 1009 79 0 4.37 308 13:57 18.01.2020
631 Clear 29 1009 79 0 4.37 308 13:36 18.01.2020
632 Clear 29 1009 79 0 4.37 308 13:18 18.01.2020
633 Clouds 29 1009 79 0 4.21 303 12:43 18.01.2020
634 Clouds 29 1009 79 0 4.21 303 12:22 18.01.2020
635 Clouds 29 1009 79 0 4.21 303 11:57 18.01.2020
636 Clouds 29 1009 79 0 4.21 303 11:38 18.01.2020
637 Clouds 29 1009 79 0 4.21 303 11:38 18.01.2020
638 Clouds 29 1007 76 0 7.45 301 11:19 18.01.2020
639 Clouds 29 1007 76 0 7.45 301 10:43 18.01.2020
640 Clouds 32 1006 55 10000 7.7 310 10:21 18.01.2020
641 Clouds 32 1006 55 10000 7.7 310 09:55 18.01.2020
642 Clouds 32 1006 55 10000 7.7 310 09:37 18.01.2020
643 Clouds 34 1005 52 10000 7.7 320 08:59 18.01.2020
644 Clouds 34 1005 52 10000 7.7 320 08:41 18.01.2020
645 Clouds 34 1005 52 10000 7.7 320 08:41 18.01.2020
646 Clouds 34 1004 56 10000 7.7 300 08:20 18.01.2020
647 Clouds 34 1004 56 10000 7.7 300 07:52 18.01.2020
648 Clouds 34 1004 56 10000 7.7 300 07:34 18.01.2020
649 Clouds 34 1004 56 10000 9.3 310 06:48 18.01.2020
650 Clouds 34 1005 59 10000 7.7 300 06:19 18.01.2020
651 Clouds 34 1005 59 10000 7.7 300 06:19 18.01.2020
652 Clouds 34 1006 63 10000 5.7 300 05:30 18.01.2020
653 Clouds 34 1007 59 10000 5.1 340 03:46 18.01.2020
654 Clouds 32 1009 70 10000 5.1 330 02:20 18.01.2020
655 Clouds 32 1009 70 10000 5.1 330 01:36 18.01.2020
656 Clouds 30 1009 79 10000 7.7 340 00:38 18.01.2020
657 Clouds 27 1009 88 10000 5.1 340 00:19 18.01.2020
658 Clouds 27 1009 88 10000 5.1 340 23:44 17.01.2020
659 Clouds 25 1008 94 10000 3.6 330 23:20 17.01.2020
660 Clouds 25 1008 94 10000 3.6 330 22:59 17.01.2020
661 Clouds 25 1008 94 10000 3.6 330 22:40 17.01.2020
662 Clouds 25 1008 94 10000 2.6 330 22:19 17.01.2020
663 Clouds 25 1008 94 10000 2.6 330 21:42 17.01.2020
664 Clouds 26 1008 80 0 7.74 5 21:24 17.01.2020
665 Clouds 26 1008 80 0 7.74 5 20:59 17.01.2020
666 Clouds 26 1008 80 0 7.74 5 20:40 17.01.2020
667 Rain 26 1007 82 0 6.94 6 20:20 17.01.2020
668 Rain 26 1007 82 0 6.94 6 19:57 17.01.2020
669 Rain 26 1007 82 0 6.94 6 19:38 17.01.2020
670 Rain 26 1007 82 0 6.94 6 19:19 17.01.2020
671 Rain 26 1007 82 0 6.94 6 18:57 17.01.2020
672 Rain 26 1007 82 0 6.94 6 18:36 17.01.2020
673 Rain 26 1007 82 0 6.94 6 18:18 17.01.2020
674 Rain 26 1007 82 0 6.94 6 17:39 17.01.2020
675 Rain 27 1008 82 0 5.72 7 17:21 17.01.2020
676 Rain 27 1008 82 0 5.72 7 16:44 17.01.2020
677 Rain 27 1008 82 0 5.72 7 16:21 17.01.2020
678 Rain 27 1008 82 0 5.72 7 16:21 17.01.2020
679 Rain 27 1008 82 0 5.72 7 15:58 17.01.2020
680 Rain 27 1008 82 0 5.72 7 15:58 17.01.2020
681 Rain 27 1008 82 0 5.72 7 15:39 17.01.2020
682 Rain 27 1008 82 0 5.72 7 15:20 17.01.2020
683 Rain 27 1008 82 0 5.72 7 14:43 17.01.2020
684 Rain 27 1008 82 0 5.72 7 14:24 17.01.2020
685 Rain 29 1009 76 0 5.75 311 13:43 17.01.2020
686 Rain 29 1009 76 0 5.63 310 13:23 17.01.2020
687 Rain 29 1009 76 0 5.63 310 12:47 17.01.2020
688 Rain 29 1009 76 0 5.63 310 12:23 17.01.2020
689 Rain 29 1009 76 0 5.63 310 11:43 17.01.2020
690 Clouds 30 1007 72 0 7.46 310 11:20 17.01.2020
691 Clouds 30 1007 72 0 7.46 310 10:57 17.01.2020
692 Clouds 30 1007 72 0 7.46 310 10:57 17.01.2020
693 Clouds 30 1007 72 0 7.46 310 10:39 17.01.2020
694 Clouds 31 1006 62 10000 5.1 330 10:20 17.01.2020
695 Clouds 31 1006 62 10000 5.1 330 09:44 17.01.2020
696 Clouds 33 1005 59 10000 6.7 300 09:22 17.01.2020
697 Clouds 33 1005 59 10000 6.7 300 08:58 17.01.2020
698 Clouds 33 1005 59 10000 6.7 300 08:40 17.01.2020
699 Clouds 33 1005 59 10000 7.7 300 08:21 17.01.2020
700 Clouds 33 1005 59 10000 7.7 300 07:48 17.01.2020
701 Clouds 33 1005 59 10000 6.7 300 07:29 17.01.2020
702 Clouds 33 1005 59 10000 6.7 300 06:56 17.01.2020
703 Clouds 33 1005 59 10000 6.7 300 06:36 17.01.2020
704 Clouds 31 1007 66 10000 7.7 330 05:19 17.01.2020
705 Clouds 31 1010 66 10000 7.7 330 03:38 17.01.2020
706 Rain 27 1010 83 10000 5.1 330 02:39 17.01.2020
707 Clouds 28 1010 78 10000 5.1 330 01:44 17.01.2020
708 Clouds 28 1010 78 10000 5.1 330 01:25 17.01.2020
709 Clouds 27 1010 78 10000 5.1 330 00:37 17.01.2020
710 Clouds 27 1010 78 10000 5.1 330 00:19 17.01.2020
711 Clouds 25 1010 94 10000 5.1 330 23:41 16.01.2020
712 Clouds 23 1009 100 10000 5.1 340 23:22 16.01.2020
713 Clouds 23 1009 100 10000 5.1 340 22:41 16.01.2020
714 Clouds 24 1006 78 10000 3.1 230 22:21 16.01.2020
715 Clouds 24 1006 78 10000 3.1 230 21:57 16.01.2020
716 Clouds 24 1006 78 10000 3.1 230 21:38 16.01.2020
717 Clouds 24 1006 78 10000 3.1 230 21:19 16.01.2020
718 Clouds 23 1006 100 10000 5.1 340 20:57 16.01.2020
719 Clouds 23 1006 100 10000 5.1 340 20:38 16.01.2020
720 Rain 23 1006 100 10000 5.1 320 20:19 16.01.2020
721 Rain 23 1006 100 10000 5.1 320 19:56 16.01.2020
722 Rain 23 1006 100 10000 5.1 320 19:37 16.01.2020
723 Rain 23 1007 100 10000 5.1 320 19:19 16.01.2020
724 Rain 23 1007 100 10000 5.1 320 19:19 16.01.2020
725 Rain 23 1007 100 10000 5.1 320 18:55 16.01.2020
726 Rain 23 1007 100 10000 5.1 320 18:36 16.01.2020
727 Rain 23 1007 100 10000 5.1 320 18:36 16.01.2020
728 Clouds 24 1009 94 10000 5.1 330 18:18 16.01.2020
729 Clouds 24 1009 94 10000 5.1 330 17:41 16.01.2020
730 Clouds 24 1009 94 10000 5.1 330 17:41 16.01.2020
731 Rain 26 1007 86 0 9.98 343 17:22 16.01.2020
732 Rain 28 1008 74 0 8.4 329 16:57 16.01.2020
733 Rain 28 1008 74 0 8.4 329 16:38 16.01.2020
734 Clouds 26 1009 88 10000 4.1 300 16:19 16.01.2020
735 Clouds 26 1009 88 10000 4.1 300 15:44 16.01.2020
736 Clouds 27 1009 88 10000 4.1 310 15:22 16.01.2020
737 Clouds 27 1009 88 10000 4.1 310 14:56 16.01.2020
738 Clouds 27 1009 88 10000 4.1 310 14:37 16.01.2020
739 Clouds 27 1009 88 10000 4.1 340 14:19 16.01.2020
740 Clouds 27 1009 88 10000 4.1 340 13:44 16.01.2020
741 Clouds 27 1009 88 10000 4.1 350 13:25 16.01.2020
742 Clouds 27 1009 88 10000 4.1 350 12:46 16.01.2020
743 Clouds 28 1009 78 10000 5.1 330 12:28 16.01.2020
744 Clouds 28 1009 78 10000 5.1 330 11:57 16.01.2020
745 Clouds 28 1009 78 10000 5.1 330 11:39 16.01.2020
746 Clouds 28 1008 74 10000 6.2 320 11:21 16.01.2020
747 Clouds 28 1008 74 10000 6.2 320 10:39 16.01.2020
748 Clouds 30 1007 66 10000 6.2 300 10:21 16.01.2020
749 Clouds 30 1007 66 10000 6.2 300 09:57 16.01.2020
750 Clouds 30 1007 66 10000 6.2 300 09:38 16.01.2020
751 Clouds 30 1006 70 10000 10.3 320 09:19 16.01.2020
752 Clouds 30 1006 70 10000 10.3 320 08:51 16.01.2020
753 Clouds 31 1006 66 10000 12.9 330 08:30 16.01.2020
754 Clouds 31 1006 66 10000 12.9 330 07:58 16.01.2020
755 Clouds 31 1006 66 10000 12.9 330 07:38 16.01.2020
756 Clouds 32 1006 62 10000 12.9 330 07:19 16.01.2020
757 Clouds 32 1006 62 10000 12.9 330 06:42 16.01.2020
758 Clouds 32 1006 66 10000 10.3 330 05:59 16.01.2020
759 Clouds 32 1006 66 10000 10.3 330 05:40 16.01.2020
760 Clouds 31 1007 70 10000 10.3 330 04:37 16.01.2020
761 Rain 26 1009 88 10000 7.7 330 03:28 16.01.2020
762 Rain 26 1009 88 10000 7.7 330 02:42 16.01.2020
763 Rain 28 1009 75 0 7.89 323 00:53 16.01.2020
764 Rain 28 1009 75 0 7.89 323 00:24 16.01.2020
765 Rain 28 1009 75 0 7.89 323 23:48 15.01.2020
766 Clouds 25 1009 100 10000 2.1 0 23:23 15.01.2020
767 Clouds 25 1009 100 10000 2.1 0 22:57 15.01.2020
768 Clouds 25 1009 100 10000 2.1 0 22:57 15.01.2020
769 Clouds 25 1009 100 10000 2.1 0 22:39 15.01.2020
770 Clouds 24 1008 100 10000 1.5 0 22:19 15.01.2020
771 Clouds 24 1008 100 10000 1.5 0 21:57 15.01.2020
772 Clouds 24 1008 100 10000 1.5 0 21:37 15.01.2020
773 Clouds 24 1007 100 10000 2.6 310 21:19 15.01.2020
774 Clouds 24 1007 100 10000 2.6 310 20:57 15.01.2020
775 Clouds 24 1007 100 10000 2.6 310 20:57 15.01.2020
776 Clouds 24 1007 100 10000 2.6 310 20:57 15.01.2020
777 Clouds 24 1007 100 10000 2.6 310 20:39 15.01.2020
778 Clouds 24 1007 100 10000 3.6 310 20:20 15.01.2020
779 Clouds 24 1007 100 10000 3.6 310 19:55 15.01.2020
780 Clouds 24 1007 100 10000 3.6 310 19:37 15.01.2020
781 Clouds 25 1007 100 10000 3.1 310 19:19 15.01.2020
782 Clouds 25 1007 100 10000 3.1 310 18:56 15.01.2020
783 Clouds 25 1007 100 10000 3.1 310 18:38 15.01.2020
784 Clouds 25 1007 100 10000 3.1 310 18:38 15.01.2020
785 Clouds 24 1007 100 10000 3.1 320 18:19 15.01.2020
786 Clouds 24 1007 100 10000 3.1 320 17:57 15.01.2020
787 Clouds 24 1007 100 10000 3.1 320 17:38 15.01.2020
788 Clouds 25 1008 100 10000 3.1 300 17:19 15.01.2020
789 Clouds 25 1008 100 10000 3.1 300 16:41 15.01.2020
790 Clouds 25 1008 100 10000 5.1 350 16:22 15.01.2020
791 Clouds 25 1008 100 10000 5.1 350 15:57 15.01.2020
792 Clouds 25 1008 100 10000 5.1 350 15:39 15.01.2020
793 Rain 27 1007 82 0 2.71 26 15:19 15.01.2020
794 Rain 27 1007 82 0 2.71 26 14:43 15.01.2020
795 Rain 28 1009 74 0 1.12 277 14:20 15.01.2020
796 Rain 28 1009 74 0 1.12 277 13:46 15.01.2020
797 Rain 28 1009 74 0 1.12 277 13:27 15.01.2020
798 Rain 28 1009 74 0 1.37 305 12:59 15.01.2020
799 Rain 28 1009 74 0 1.37 305 12:40 15.01.2020
800 Rain 28 1009 74 0 1.37 305 12:20 15.01.2020
801 Rain 28 1009 74 0 1.37 305 11:57 15.01.2020
802 Rain 28 1009 74 0 1.37 305 11:37 15.01.2020
803 Rain 29 1008 75 0 3.63 264 11:19 15.01.2020
804 Rain 29 1008 75 0 3.63 264 10:43 15.01.2020
805 Clouds 30 1007 74 10000 5.1 250 10:25 15.01.2020
806 Clouds 30 1007 74 10000 5.1 250 09:45 15.01.2020
807 Rain 29 1008 75 0 3.63 264 09:26 15.01.2020
808 Rain 29 1008 75 0 3.63 264 08:58 15.01.2020
809 Rain 29 1008 75 0 3.63 264 08:39 15.01.2020
810 Clouds 32 1005 66 10000 5.1 270 08:21 15.01.2020
811 Clouds 32 1005 66 10000 5.1 270 07:51 15.01.2020
812 Clouds 32 1005 70 10000 5.1 280 07:31 15.01.2020
813 Clouds 32 1005 70 10000 5.1 280 06:46 15.01.2020
814 Clouds 32 1007 66 10000 2.6 260 06:20 15.01.2020
815 Clouds 32 1007 62 10000 2.6 270 04:42 15.01.2020
816 Clouds 30 1009 74 10000 5.1 330 02:38 15.01.2020
817 Clouds 28 1010 78 10000 3.1 330 01:28 15.01.2020
818 Clouds 28 1010 78 10000 3.1 330 00:45 15.01.2020
819 Clouds 26 1010 83 10000 5.1 340 00:26 15.01.2020
820 Clouds 26 1010 83 10000 5.1 340 23:55 14.01.2020
821 Clouds 26 1010 83 10000 5.1 340 23:36 14.01.2020
822 Clouds 24 1009 94 10000 3.6 340 23:18 14.01.2020
823 Clouds 24 1009 94 10000 3.6 340 22:41 14.01.2020
824 Clouds 23 1008 100 10000 3.6 350 22:19 14.01.2020
825 Clouds 23 1008 100 10000 3.6 350 22:19 14.01.2020
826 Clouds 23 1008 100 10000 3.6 350 21:58 14.01.2020
827 Clouds 23 1008 100 10000 3.6 350 21:40 14.01.2020
828 Clouds 26 1010 75 0 5.23 353 21:21 14.01.2020
829 Clouds 26 1010 75 0 5.23 353 21:21 14.01.2020
830 Clouds 26 1010 75 0 5.23 353 20:58 14.01.2020
831 Clouds 26 1010 75 0 5.23 353 20:40 14.01.2020
832 Clouds 26 1007 77 0 5.18 347 20:19 14.01.2020
833 Clouds 26 1007 77 0 5.54 346 19:55 14.01.2020
834 Clouds 26 1007 77 0 5.54 346 19:37 14.01.2020
835 Clouds 26 1007 77 0 5.54 346 19:18 14.01.2020
836 Clouds 26 1007 77 0 5.54 346 18:41 14.01.2020
837 Clouds 26 1007 77 0 5.54 346 18:20 14.01.2020
838 Clouds 26 1007 77 0 5.54 346 17:59 14.01.2020
839 Clouds 26 1007 77 0 5.54 346 17:37 14.01.2020
840 Clouds 27 1009 74 0 6.06 336 17:18 14.01.2020
841 Clouds 27 1009 74 0 6.06 336 17:18 14.01.2020
842 Clouds 27 1009 74 0 6.06 336 16:55 14.01.2020
843 Clouds 27 1009 74 0 6.06 336 16:36 14.01.2020
844 Clouds 27 1009 74 0 6.06 336 16:18 14.01.2020
845 Clouds 27 1009 74 0 6.06 336 15:42 14.01.2020
846 Clouds 24 1009 100 10000 1.5 0 15:19 14.01.2020
847 Clouds 24 1009 100 10000 1.5 0 14:46 14.01.2020
848 Clouds 25 1009 94 10000 1.5 0 14:23 14.01.2020
849 Clouds 25 1009 94 10000 1.5 0 13:58 14.01.2020
850 Clouds 25 1009 94 10000 1.5 0 13:39 14.01.2020
851 Clouds 25 1009 94 10000 7.02 343 13:19 14.01.2020
852 Clouds 25 1009 94 10000 7.02 343 12:42 14.01.2020
853 Clouds 25 1009 94 10000 2.1 0 12:22 14.01.2020
854 Clouds 25 1009 94 10000 2.1 0 11:56 14.01.2020
855 Clouds 25 1009 94 10000 2.1 0 11:36 14.01.2020
856 Clouds 26 1009 88 10000 1.5 0 11:18 14.01.2020
857 Clouds 26 1009 88 10000 1.5 0 10:41 14.01.2020
858 Clouds 27 1008 83 10000 3.1 320 10:20 14.01.2020
859 Clouds 27 1008 83 10000 3.1 320 09:58 14.01.2020
860 Clouds 27 1008 83 10000 3.1 320 09:40 14.01.2020
861 Clouds 27 1008 83 10000 5.7 350 09:21 14.01.2020
862 Clouds 27 1008 83 10000 5.7 350 08:56 14.01.2020
863 Clouds 27 1008 83 10000 5.7 350 08:38 14.01.2020
864 Clouds 27 1007 83 10000 7.7 330 08:19 14.01.2020
865 Clouds 27 1007 83 10000 7.7 330 07:37 14.01.2020
866 Clouds 29 1008 74 10000 7.2 320 06:57 14.01.2020
867 Clouds 29 1008 74 10000 7.2 320 06:39 14.01.2020
868 Clouds 29 1008 74 10000 7.2 320 06:39 14.01.2020
869 Clouds 28 1008 83 10000 8.2 340 05:33 14.01.2020
870 Clouds 26 1009 88 10000 5.1 340 04:22 14.01.2020
871 Clouds 26 1009 88 10000 5.1 340 03:35 14.01.2020
872 Rain 24 1010 100 10000 7.7 340 02:26 14.01.2020
873 Rain 24 1010 100 0 7.7 340 01:18 14.01.2020
874 Rain 24 1010 100 0 7.7 340 00:38 14.01.2020
875 Rain 24 1010 100 0 7.7 340 23:59 13.01.2020
876 Rain 24 1010 100 0 7.7 340 23:37 13.01.2020
877 Rain 24 1010 100 0 7.7 340 23:18 13.01.2020
878 Rain 24 1010 94 4000 3.1 340 22:45 13.01.2020
879 Rain 24 1010 94 0 7.7 330 22:22 13.01.2020
880 Rain 24 1009 94 0 7.7 330 21:58 13.01.2020
881 Rain 24 1009 94 0 7.7 330 21:39 13.01.2020
882 Rain 24 1009 94 0 7.7 330 21:19 13.01.2020
883 Rain 26 1009 89 0 9.15 330 20:59 13.01.2020
884 Rain 26 1009 89 0 9.15 330 20:41 13.01.2020
885 Rain 24 1008 100 0 10.3 330 20:22 13.01.2020
886 Rain 24 1008 100 0 10.3 330 20:22 13.01.2020
887 Rain 24 1008 100 0 10.3 330 19:59 13.01.2020
888 Rain 24 1008 100 0 10.3 330 19:40 13.01.2020
889 Rain 24 1008 100 0 10.3 330 19:20 13.01.2020
890 Rain 24 1007 100 0 5.1 340 18:56 13.01.2020
891 Rain 24 1007 100 0 5.1 340 18:37 13.01.2020
892 Rain 24 1007 100 0 5.1 340 18:19 13.01.2020
893 Rain 24 1007 100 0 7.7 340 17:43 13.01.2020
894 Rain 24 1008 100 0 5.1 330 17:25 13.01.2020
895 Rain 24 1008 100 0 5.1 330 16:57 13.01.2020
896 Rain 24 1008 100 0 5.1 330 16:38 13.01.2020
897 Rain 24 1008 100 0 5.1 360 16:20 13.01.2020
898 Rain 27 1007 82 0 8.62 337 15:44 13.01.2020
899 Rain 27 1007 82 0 8.62 337 15:24 13.01.2020
900 Rain 27 1007 82 0 8.62 337 14:58 13.01.2020
901 Rain 27 1007 82 0 8.62 337 14:38 13.01.2020
902 Rain 24 1009 100 0 6.2 350 14:20 13.01.2020
903 Rain 24 1009 100 0 6.2 350 14:20 13.01.2020
904 Rain 24 1009 100 0 6.2 350 13:43 13.01.2020
905 Rain 24 1009 100 0 6.2 350 13:43 13.01.2020
906 Rain 24 1009 100 0 6.2 350 13:25 13.01.2020
907 Rain 27 1008 80 0 6.4 328 12:59 13.01.2020
908 Rain 27 1008 80 0 6.4 328 12:41 13.01.2020
909 Rain 24 1008 100 0 6.7 330 12:23 13.01.2020
910 Rain 24 1008 100 0 6.7 330 11:57 13.01.2020
911 Rain 24 1008 100 0 6.7 330 11:37 13.01.2020
912 Rain 24 1008 100 0 6.7 330 11:19 13.01.2020
913 Rain 24 1008 100 0 6.2 340 10:56 13.01.2020
914 Rain 24 1008 100 0 6.2 340 10:37 13.01.2020
915 Rain 24 1008 100 0 6.2 340 10:37 13.01.2020
916 Rain 24 1007 100 0 5.1 330 10:19 13.01.2020
917 Rain 24 1006 100 0 5.1 350 09:43 13.01.2020
918 Rain 25 1005 94 0 5.1 350 09:23 13.01.2020
919 Rain 25 1005 94 0 5.1 350 08:44 13.01.2020
920 Rain 25 1005 94 0 5.1 340 08:24 13.01.2020
921 Rain 25 1005 94 0 5.1 330 07:59 13.01.2020
922 Rain 25 1005 94 0 5.1 330 07:59 13.01.2020
923 Rain 25 1005 94 0 5.1 330 07:41 13.01.2020
924 Rain 25 1004 100 0 5.1 340 07:19 13.01.2020
925 Rain 25 1004 100 0 5.1 340 06:37 13.01.2020
926 Clouds 26 1005 94 0 2.6 320 05:37 13.01.2020
927 Rain 26 1006 88 0 5.1 300 04:26 13.01.2020
928 Rain 25 1006 100 0 9.3 310 03:35 13.01.2020
929 Rain 25 1006 100 0 4.1 330 02:49 13.01.2020
930 Rain 26 1006 90 0 7.21 340 02:29 13.01.2020
931 Rain 26 1007 89 0 9.64 337 01:33 13.01.2020
932 Rain 26 1007 89 0 9.64 337 00:43 13.01.2020
933 Rain 26 1007 89 0 9.64 337 00:24 13.01.2020
934 Rain 26 1007 89 0 9.64 337 23:57 12.01.2020
935 Rain 26 1007 89 0 9.64 337 23:37 12.01.2020
936 Rain 24 1006 100 10000 4.1 330 23:19 12.01.2020
937 Rain 24 1006 100 10000 4.1 330 22:42 12.01.2020
938 Rain 24 1006 100 10000 4.1 330 22:24 12.01.2020
939 Rain 25 1006 94 10000 2.6 350 21:57 12.01.2020
940 Rain 25 1006 94 10000 2.6 350 21:39 12.01.2020
941 Rain 25 1006 94 10000 2.6 350 21:20 12.01.2020
942 Rain 26 1006 84 0 7.7 358 20:57 12.01.2020
943 Rain 26 1006 84 0 7.7 358 20:38 12.01.2020
944 Fog 25 1004 100 10000 2.6 320 20:20 12.01.2020
945 Fog 25 1004 100 10000 2.6 320 19:56 12.01.2020
946 Fog 25 1004 100 10000 2.6 320 19:38 12.01.2020
947 Clouds 25 1004 94 10000 2.6 340 19:19 12.01.2020
948 Clouds 25 1004 94 10000 2.6 340 18:57 12.01.2020
949 Clouds 25 1004 94 10000 2.6 340 18:39 12.01.2020
950 Clouds 24 1004 100 10000 2.6 330 18:21 12.01.2020
951 Clouds 24 1004 100 10000 2.6 330 17:55 12.01.2020
952 Clouds 24 1004 100 10000 2.6 330 17:37 12.01.2020
953 Clouds 25 1005 94 10000 2.6 330 17:18 12.01.2020
954 Clouds 25 1005 94 10000 2.6 330 16:54 12.01.2020
955 Clouds 25 1005 94 10000 2.6 330 16:36 12.01.2020
956 Rain 27 1005 81 0 2.58 10 16:18 12.01.2020
957 Rain 27 1005 81 0 2.58 10 15:40 12.01.2020
958 Rain 27 1005 81 0 2.58 10 15:21 12.01.2020
959 Rain 27 1005 81 0 2.58 10 14:44 12.01.2020
960 Rain 27 1005 81 0 2.58 10 14:25 12.01.2020
961 Rain 27 1007 79 0 2.34 2 13:58 12.01.2020
962 Rain 27 1007 79 0 2.34 2 13:40 12.01.2020
963 Rain 27 1007 78 0 2.9 337 13:22 12.01.2020
964 Rain 27 1007 78 0 2.9 337 12:58 12.01.2020
965 Rain 27 1007 78 0 2.9 337 12:38 12.01.2020
966 Rain 27 1007 78 0 2.9 337 12:19 12.01.2020
967 Rain 27 1007 78 0 2.9 337 11:43 12.01.2020
968 Rain 27 1007 78 0 2.9 337 11:23 12.01.2020
969 Rain 27 1006 80 0 4.68 301 10:59 12.01.2020
970 Rain 27 1006 80 0 4.68 301 10:40 12.01.2020
971 Clouds 29 1003 74 10000 5.1 290 10:21 12.01.2020
972 Clouds 29 1003 74 10000 5.1 290 09:44 12.01.2020
973 Clouds 30 1003 74 10000 5.1 280 09:24 12.01.2020
974 Clouds 30 1003 74 10000 5.1 280 08:48 12.01.2020
975 Clouds 30 1003 74 10000 7.7 300 08:25 12.01.2020
976 Clouds 30 1003 74 10000 7.7 300 07:58 12.01.2020
977 Clouds 30 1003 74 10000 7.7 300 07:38 12.01.2020
978 Clouds 32 1003 70 10000 7.7 300 07:19 12.01.2020
979 Clouds 32 1003 70 10000 7.7 300 06:40 12.01.2020
980 Clouds 32 1004 66 10000 7.7 290 05:58 12.01.2020
981 Clouds 32 1005 66 10000 9.3 280 05:18 12.01.2020
982 Clouds 33 1005 63 10000 8.2 320 03:44 12.01.2020
983 Clouds 31 1006 66 10000 9.3 310 02:55 12.01.2020
984 Clouds 29 1007 74 10000 2.6 350 02:30 12.01.2020
985 Clouds 29 1007 74 10000 2.6 350 01:39 12.01.2020
986 Clouds 27 1006 83 10000 2.6 320 00:57 12.01.2020
987 Clouds 27 1006 83 10000 2.6 320 00:37 12.01.2020
988 Clouds 26 1006 88 10000 2.6 320 00:18 12.01.2020
989 Clouds 26 1006 88 10000 2.6 320 23:41 11.01.2020
990 Clouds 24 1006 100 10000 5.1 330 23:19 11.01.2020
991 Clouds 24 1006 100 10000 5.1 330 22:56 11.01.2020
992 Clouds 24 1006 100 10000 5.1 330 22:38 11.01.2020
993 Clouds 24 1006 94 10000 3.6 350 22:20 11.01.2020
994 Clouds 24 1006 94 10000 3.6 350 21:44 11.01.2020
995 Clouds 24 1006 94 10000 4.95 352 21:20 11.01.2020
996 Clouds 24 1006 94 10000 4.95 352 20:59 11.01.2020
997 Clouds 24 1006 94 10000 4.95 352 20:39 11.01.2020
998 Clouds 25 1006 94 10000 2.87 333 20:19 11.01.2020
999 Clouds 25 1006 94 10000 0.73 37 19:57 11.01.2020
1000 Clouds 25 1006 94 10000 0.73 37 19:38 11.01.2020
1001 Clouds 25 1006 94 10000 0.73 37 19:38 11.01.2020
1002 Clouds 25 1006 94 10000 0.73 37 19:38 11.01.2020
1003 Clouds 26 1004 81 0 0.73 37 19:20 11.01.2020
1004 Clouds 26 1004 81 0 0.73 37 18:55 11.01.2020
1005 Clouds 26 1004 81 0 0.73 37 18:37 11.01.2020
1006 Clouds 24 1005 100 10000 1.5 0 18:18 11.01.2020
1007 Clouds 24 1005 100 10000 1.5 0 17:57 11.01.2020
1008 Clouds 24 1005 100 10000 1.5 0 17:57 11.01.2020
1009 Clouds 24 1005 100 10000 1.5 0 17:39 11.01.2020
1010 Rain 26 1005 85 0 4.06 26 17:18 11.01.2020
1011 Rain 26 1005 85 0 4.06 26 16:44 11.01.2020
1012 Clouds 25 1007 100 10000 0.5 0 16:24 11.01.2020
1013 Clouds 25 1007 100 10000 0.5 0 15:56 11.01.2020
1014 Clouds 25 1007 100 10000 0.5 0 15:38 11.01.2020
1015 Clouds 25 1007 94 10000 1 0 15:19 11.01.2020
1016 Clouds 25 1007 94 10000 1 0 14:46 11.01.2020
1017 Rain 26 1005 85 0 4.06 26 14:25 11.01.2020
1018 Rain 27 1007 80 0 3.84 110 13:57 11.01.2020
1019 Rain 27 1007 80 0 3.84 110 13:37 11.01.2020
1020 Rain 26 1007 90 0 3.75 93 13:19 11.01.2020
1021 Rain 26 1007 90 0 3.75 93 12:44 11.01.2020
1022 Rain 25 1006 94 10000 1.5 0 12:26 11.01.2020
1023 Rain 25 1006 94 10000 1.5 0 11:56 11.01.2020
1024 Rain 25 1006 94 10000 1.5 0 11:37 11.01.2020
1025 Rain 27 1006 85 0 9.26 135 11:18 11.01.2020
1026 Rain 27 1006 85 0 9.26 135 10:44 11.01.2020
1027 Clouds 26 1005 94 10000 1.5 0 10:24 11.01.2020
1028 Clouds 26 1005 94 10000 1.5 0 09:42 11.01.2020
1029 Clouds 27 1004 88 10000 5.1 330 09:21 11.01.2020
1030 Clouds 27 1004 88 10000 5.1 330 08:43 11.01.2020
1031 Clouds 31 1004 70 10000 5.1 200 08:23 11.01.2020
1032 Clouds 31 1004 70 10000 5.1 200 07:45 11.01.2020
1033 Clouds 32 1003 70 10000 5.1 220 07:26 11.01.2020
1034 Clouds 32 1003 70 10000 5.1 220 07:26 11.01.2020
1035 Clouds 32 1003 70 10000 5.1 220 06:56 11.01.2020
1036 Clouds 31 1004 74 10000 3.1 200 06:28 11.01.2020
1037 Clouds 29 1005 79 10000 5.1 300 04:49 11.01.2020
1038 Rain 29 1005 73 0 3.55 263 04:30 11.01.2020
1039 Rain 29 1005 73 0 3.55 263 03:58 11.01.2020
1040 Rain 29 1005 73 0 3.55 263 02:43 11.01.2020
1041 Rain 29 1008 72 0 2.92 320 01:44 11.01.2020
1042 Clouds 28 1008 83 10000 1 0 01:21 11.01.2020
1043 Clouds 28 1008 83 10000 1 0 00:46 11.01.2020
1044 Clouds 26 1007 94 10000 1 0 00:20 11.01.2020
1045 Clouds 26 1007 94 10000 1 0 23:41 10.01.2020
1046 Haze 25 1007 100 10000 1 0 23:22 10.01.2020
1047 Haze 25 1007 100 10000 1 0 22:59 10.01.2020
1048 Haze 25 1007 100 10000 1 0 22:40 10.01.2020
1049 Clouds 25 1007 100 10000 2.1 310 22:21 10.01.2020
1050 Clouds 25 1007 100 10000 2.1 310 21:58 10.01.2020
1051 Clouds 25 1007 100 10000 2.1 310 21:39 10.01.2020
1052 Clouds 25 1006 100 10000 2.6 320 21:19 10.01.2020
1053 Clouds 25 1006 100 10000 2.6 320 20:55 10.01.2020
1054 Clouds 25 1006 100 10000 2.6 320 20:37 10.01.2020
1055 Clouds 25 1006 100 10000 2.6 320 20:18 10.01.2020
1056 Clouds 25 1006 100 10000 2.6 320 19:39 10.01.2020
1057 Clouds 25 1006 100 10000 2.6 0 19:20 10.01.2020
1058 Clouds 25 1006 100 10000 2.6 0 18:44 10.01.2020
1059 Clouds 25 1006 100 10000 1.5 0 18:20 10.01.2020
1060 Clouds 25 1006 100 10000 1.5 0 17:58 10.01.2020
1061 Clouds 25 1006 100 10000 1.5 0 17:39 10.01.2020
1062 Clouds 25 1007 100 10000 1 0 17:20 10.01.2020
1063 Clouds 25 1007 100 10000 1 0 16:59 10.01.2020
1064 Clouds 25 1007 100 10000 1 0 16:39 10.01.2020
1065 Clouds 26 1007 94 10000 0.83 37 16:20 10.01.2020
1066 Clouds 26 1007 94 10000 0.83 37 15:56 10.01.2020
1067 Clouds 26 1007 94 10000 0.83 37 15:37 10.01.2020
1068 Clouds 25 1008 100 10000 1.5 0 15:18 10.01.2020
1069 Clouds 25 1008 100 10000 1.5 0 14:55 10.01.2020
1070 Clouds 25 1008 100 10000 1.5 0 14:37 10.01.2020
1071 Clouds 26 1007 94 10000 0.2 161 14:18 10.01.2020
1072 Clouds 26 1007 94 10000 0.2 161 13:44 10.01.2020
1073 Clouds 26 1007 94 10000 0.2 161 13:44 10.01.2020
1074 Clouds 25 1007 100 10000 1 0 13:26 10.01.2020
1075 Clouds 25 1007 100 10000 1 0 12:59 10.01.2020
1076 Clouds 25 1007 100 10000 1 0 12:39 10.01.2020
1077 Clouds 26 1007 94 10000 1.5 330 12:21 10.01.2020
1078 Clouds 26 1007 94 10000 1.5 330 11:56 10.01.2020
1079 Clouds 26 1007 94 10000 1.5 330 11:38 10.01.2020
1080 Clouds 26 1007 94 10000 1.5 330 11:38 10.01.2020
1081 Clouds 26 1007 94 10000 1.5 330 11:38 10.01.2020
1082 Clouds 26 1007 94 10000 3.1 200 11:18 10.01.2020
1083 Clouds 26 1007 94 10000 3.1 200 10:58 10.01.2020
1084 Clouds 26 1007 94 10000 3.1 200 10:36 10.01.2020
1085 Clouds 28 1007 73 0 1.02 249 10:18 10.01.2020
1086 Clouds 28 1007 73 0 1.02 249 09:43 10.01.2020
1087 Clouds 29 1005 79 10000 5.1 210 09:24 10.01.2020
1088 Clouds 29 1005 79 10000 5.1 210 08:43 10.01.2020
1089 Clouds 30 1005 79 10000 6.2 220 08:24 10.01.2020
1090 Clouds 30 1005 79 10000 6.2 220 07:47 10.01.2020
1091 Clouds 28 1005 88 10000 5.1 130 07:28 10.01.2020
1092 Clouds 28 1005 88 10000 5.1 130 06:55 10.01.2020
1093 Rain 28 1005 77 0 5.21 273 06:27 10.01.2020
1094 Rain 28 1005 77 0 5.21 273 05:52 10.01.2020
1095 Clouds 31 1007 70 10000 5.1 320 03:47 10.01.2020
1096 Clouds 30 1008 70 10000 5.1 330 03:28 10.01.2020
1097 Clouds 30 1008 70 10000 5.1 330 02:51 10.01.2020
1098 Rain 28 1009 80 0 5.22 329 01:49 10.01.2020
1099 Clouds 28 1008 83 10000 5.1 320 01:28 10.01.2020
1100 Clouds 28 1008 83 10000 5.1 320 00:47 10.01.2020
1101 Clouds 28 1009 79 0 5.46 319 00:29 10.01.2020
1102 Clouds 28 1009 79 0 5.46 319 23:39 09.01.2020
1103 Clouds 28 1009 79 0 5.46 319 23:39 09.01.2020
1104 Clouds 28 1009 79 0 5.46 319 23:39 09.01.2020
1105 Clouds 28 1009 79 0 5.46 319 23:39 09.01.2020
1106 Clouds 24 1008 100 10000 2.6 320 23:20 09.01.2020
1107 Clouds 24 1008 100 10000 2.6 320 22:58 09.01.2020
1108 Clouds 24 1008 100 10000 2.6 320 22:58 09.01.2020
1109 Clouds 24 1008 100 10000 2.6 320 22:39 09.01.2020
1110 Clouds 24 1008 100 10000 2.6 320 22:39 09.01.2020
1111 Clouds 24 1007 100 10000 2.6 340 22:19 09.01.2020
1112 Clouds 24 1007 100 10000 2.6 340 21:57 09.01.2020
1113 Clouds 24 1007 100 10000 2.6 340 21:38 09.01.2020
1114 Clouds 24 1007 100 10000 2.6 330 21:19 09.01.2020
1115 Clouds 24 1007 100 10000 2.6 330 20:58 09.01.2020
1116 Clouds 24 1007 100 10000 2.6 330 20:39 09.01.2020
1117 Clouds 24 1007 100 10000 2.6 330 20:39 09.01.2020
1118 Clouds 24 1006 100 10000 2.6 320 20:20 09.01.2020
1119 Clouds 24 1006 100 10000 2.6 320 19:57 09.01.2020
1120 Clouds 24 1006 100 10000 2.6 320 19:38 09.01.2020
1121 Clouds 24 1006 100 10000 1.5 0 19:19 09.01.2020
1122 Clouds 24 1006 100 10000 1.5 0 18:55 09.01.2020
1123 Clouds 24 1006 100 10000 1.5 0 18:36 09.01.2020
1124 Clouds 24 1006 100 10000 1.5 0 18:18 09.01.2020
1125 Clouds 24 1006 100 10000 1.5 0 17:41 09.01.2020
1126 Clouds 24 1006 100 10000 1.5 0 17:18 09.01.2020
1127 Clouds 24 1006 100 10000 1.5 0 16:49 09.01.2020
1128 Clouds 24 1007 100 10000 3.1 330 16:25 09.01.2020
1129 Clouds 24 1007 100 10000 3.1 330 15:59 09.01.2020
1130 Clouds 24 1007 100 10000 3.1 330 15:40 09.01.2020
1131 Clouds 24 1008 100 10000 6.2 350 15:19 09.01.2020
1132 Clouds 24 1008 100 10000 6.2 350 14:43 09.01.2020
1133 Clouds 24 1008 94 10000 5.1 330 14:22 09.01.2020
1134 Rain 26 1009 88 0 5.25 14 13:57 09.01.2020
1135 Rain 26 1009 88 0 5.25 14 13:39 09.01.2020
1136 Clouds 24 1009 100 10000 6.2 350 13:20 09.01.2020
1137 Clouds 24 1009 100 10000 6.2 350 12:59 09.01.2020
1138 Clouds 24 1009 100 10000 6.2 350 12:40 09.01.2020
1139 Clouds 24 1009 100 10000 6.2 350 12:40 09.01.2020
1140 Rain 24 1009 100 0 7.7 360 12:20 09.01.2020
1141 Rain 24 1009 100 0 7.7 360 11:57 09.01.2020
1142 Rain 24 1009 100 0 7.7 360 11:38 09.01.2020
1143 Rain 27 1008 79 0 2.43 25 11:20 09.01.2020
1144 Rain 24 1009 100 0 2.1 0 10:43 09.01.2020
1145 Rain 24 1009 100 0 2.1 0 10:22 09.01.2020
1146 Rain 25 1008 100 1000 2.6 0 09:56 09.01.2020
1147 Rain 25 1008 100 1000 2.6 0 09:38 09.01.2020
1148 Rain 25 1008 100 1000 2.6 0 09:18 09.01.2020
1149 Rain 25 1008 100 1000 2.6 0 08:55 09.01.2020
1150 Rain 25 1008 100 1000 2.6 0 08:37 09.01.2020
1151 Rain 25 1007 100 1000 2.6 0 08:19 09.01.2020
1152 Clouds 26 1006 94 10000 2.6 0 07:42 09.01.2020
1153 Rain 28 1006 80 0 4.7 251 07:23 09.01.2020
1154 Rain 28 1006 80 0 4.7 251 06:38 09.01.2020
1155 Rain 28 1006 80 0 4.7 251 06:18 09.01.2020
1156 Rain 28 1006 80 0 4.7 251 05:43 09.01.2020
1157 Clouds 28 1007 88 10000 3.6 200 04:42 09.01.2020
1158 Clouds 31 1009 70 10000 6.7 320 03:30 09.01.2020
1159 Clouds 31 1009 70 10000 6.7 320 02:48 09.01.2020
1160 Clouds 30 1010 74 10000 5.7 310 01:56 09.01.2020
1161 Clouds 30 1010 74 10000 5.7 310 01:34 09.01.2020
1162 Clouds 28 1010 83 10000 5.7 340 00:40 09.01.2020
1163 Clouds 26 1010 94 10000 5.1 350 00:19 09.01.2020
1164 Clouds 26 1010 94 10000 5.1 350 23:41 08.01.2020
1165 Clouds 25 1009 100 10000 2.6 340 23:23 08.01.2020
1166 Clouds 25 1009 100 10000 2.6 340 22:56 08.01.2020
1167 Clouds 25 1009 100 10000 2.6 340 22:38 08.01.2020
1168 Clouds 24 1008 100 10000 2.6 320 22:19 08.01.2020
1169 Clouds 24 1008 100 10000 2.6 320 21:55 08.01.2020
1170 Clouds 24 1008 100 10000 2.6 320 21:37 08.01.2020
1171 Rain 27 1008 81 0 4.14 4 21:18 08.01.2020
1172 Rain 27 1008 81 0 4.14 4 20:55 08.01.2020
1173 Rain 27 1008 81 0 4.14 4 20:37 08.01.2020
1174 Rain 27 1008 81 0 4.14 4 20:37 08.01.2020
1175 Rain 27 1007 81 0 3.67 2 20:18 08.01.2020
1176 Rain 27 1007 81 0 3.67 2 19:39 08.01.2020
1177 Rain 27 1007 81 0 3.67 2 19:20 08.01.2020
1178 Rain 27 1007 81 0 3.67 2 18:58 08.01.2020
1179 Rain 27 1007 81 0 3.67 2 18:39 08.01.2020
1180 Rain 27 1007 81 0 3.67 2 18:39 08.01.2020
1181 Rain 27 1007 81 0 3.67 2 18:19 08.01.2020
1182 Rain 27 1007 81 0 3.67 2 17:57 08.01.2020
1183 Rain 27 1007 81 0 3.67 2 17:38 08.01.2020
1184 Rain 28 1007 77 0 2.24 26 17:19 08.01.2020
1185 Rain 28 1007 77 0 2.24 26 17:19 08.01.2020
1186 Rain 28 1007 77 0 2.24 26 16:56 08.01.2020
1187 Rain 28 1007 77 0 2.24 26 16:38 08.01.2020
1188 Rain 28 1007 77 0 2.24 26 16:19 08.01.2020
1189 Rain 28 1007 77 0 2.24 26 15:45 08.01.2020
1190 Clouds 25 1009 94 10000 5.1 310 15:22 08.01.2020
1191 Clouds 25 1009 94 10000 5.1 310 14:59 08.01.2020
1192 Clouds 25 1009 94 10000 5.1 310 14:40 08.01.2020
1193 Clouds 25 1009 94 10000 5.1 310 14:40 08.01.2020
1194 Clouds 25 1009 94 10000 5.1 310 14:40 08.01.2020
1195 Rain 25 1009 94 10000 5.1 320 14:21 08.01.2020
1196 Rain 25 1009 94 10000 5.1 320 13:41 08.01.2020
1197 Rain 29 1009 73 0 1.93 106 13:22 08.01.2020
1198 Rain 29 1008 77 0 3.27 111 12:55 08.01.2020
1199 Rain 29 1008 77 0 3.27 111 12:36 08.01.2020
1200 Rain 25 1010 94 10000 5.1 320 12:18 08.01.2020
1201 Rain 25 1010 94 10000 5.1 320 11:47 08.01.2020
1202 Rain 27 1009 88 10000 2.6 350 11:19 08.01.2020
1203 Rain 27 1009 88 10000 2.6 350 11:19 08.01.2020
1204 Rain 27 1009 88 10000 2.6 350 10:58 08.01.2020
1205 Rain 27 1009 88 10000 2.6 350 10:40 08.01.2020
1206 Rain 27 1009 88 10000 2.6 350 10:40 08.01.2020
1207 Clouds 27 1008 88 10000 7.7 120 10:20 08.01.2020
1208 Clouds 27 1008 88 10000 7.7 120 09:43 08.01.2020
1209 Clouds 30 1006 74 10000 7.7 180 09:20 08.01.2020
1210 Clouds 30 1006 74 10000 7.7 180 08:58 08.01.2020
1211 Clouds 30 1006 74 10000 7.7 180 08:38 08.01.2020
1212 Clouds 31 1006 70 10000 5.1 180 08:20 08.01.2020
1213 Clouds 31 1006 70 10000 5.1 180 07:51 08.01.2020
1214 Clouds 31 1006 70 10000 5.1 180 07:33 08.01.2020
1215 Clouds 31 1005 70 10000 6.7 180 06:50 08.01.2020
1216 Rain 29 1005 76 0 5.45 169 06:32 08.01.2020
1217 Rain 29 1006 79 10000 5.1 190 05:54 08.01.2020
1218 Clouds 32 1007 62 10000 6.2 210 05:18 08.01.2020
1219 Clouds 33 1009 63 10000 5.1 240 04:27 08.01.2020
1220 Clouds 33 1009 59 10000 2.6 0 02:45 08.01.2020
1221 Clouds 31 1009 66 10000 2.6 0 02:27 08.01.2020
1222 Clouds 31 1009 66 10000 2.6 0 01:50 08.01.2020
1223 Clouds 30 1009 70 10000 2.6 350 01:25 08.01.2020
1224 Clouds 30 1009 70 10000 2.6 350 00:40 08.01.2020
1225 Clouds 27 1009 88 10000 2.6 340 00:20 08.01.2020
1226 Clouds 27 1009 88 10000 2.6 340 23:44 07.01.2020
1227 Clouds 26 1009 94 10000 2.6 320 23:20 07.01.2020
1228 Clouds 26 1009 94 10000 2.6 320 22:40 07.01.2020
1229 Clouds 28 1008 76 0 3.11 119 22:20 07.01.2020
1230 Clouds 28 1008 76 0 3.11 119 21:57 07.01.2020
1231 Clouds 28 1008 76 0 3.11 119 21:38 07.01.2020
1232 Clouds 25 1008 100 10000 2.6 350 21:20 07.01.2020
1233 Clouds 25 1008 100 10000 2.6 350 20:56 07.01.2020
1234 Clouds 25 1008 100 10000 2.6 350 20:37 07.01.2020
1235 Clouds 28 1007 77 0 3.41 114 20:19 07.01.2020
1236 Clouds 28 1007 77 0 3.41 114 19:38 07.01.2020
1237 Clouds 25 1007 100 10000 2.6 350 19:20 07.01.2020
1238 Clouds 25 1007 100 10000 2.6 350 18:58 07.01.2020
1239 Clouds 25 1007 100 10000 2.6 350 18:40 07.01.2020
1240 Clouds 25 1007 100 10000 2.6 310 18:19 07.01.2020
1241 Clouds 28 1007 77 0 3.41 114 17:59 07.01.2020
1242 Clouds 28 1007 77 0 3.41 114 17:39 07.01.2020
1243 Clouds 26 1008 94 10000 2.6 300 17:21 07.01.2020
1244 Clouds 26 1008 94 10000 2.6 300 16:56 07.01.2020
1245 Clouds 26 1008 94 10000 2.6 300 16:37 07.01.2020
1246 Clouds 26 1008 94 10000 2.6 320 16:19 07.01.2020
1247 Clouds 26 1008 94 10000 2.6 320 15:57 07.01.2020
1248 Clouds 26 1008 94 10000 2.6 320 15:38 07.01.2020
1249 Clouds 26 1009 94 10000 2.6 320 15:19 07.01.2020
1250 Clouds 26 1009 94 10000 2.6 320 14:42 07.01.2020
1251 Clouds 25 1010 100 10000 2.6 320 14:24 07.01.2020
1252 Clouds 25 1010 100 10000 2.6 320 13:57 07.01.2020
1253 Clouds 25 1010 100 10000 2.6 320 13:39 07.01.2020
1254 Clouds 25 1009 100 10000 3.6 320 13:18 07.01.2020
1255 Clouds 25 1009 100 10000 3.6 320 12:41 07.01.2020
1256 Clouds 25 1008 100 10000 3.1 310 12:19 07.01.2020
1257 Clouds 25 1008 100 10000 3.1 310 11:45 07.01.2020
1258 Clouds 26 1008 94 10000 5.1 330 11:23 07.01.2020
1259 Clouds 26 1008 94 10000 5.1 330 10:59 07.01.2020
1260 Clouds 26 1008 94 10000 5.1 330 10:40 07.01.2020
1261 Clouds 27 1007 88 10000 5.1 330 10:22 07.01.2020
1262 Clouds 27 1007 88 10000 5.1 330 09:56 07.01.2020
1263 Clouds 27 1007 88 10000 5.1 330 09:37 07.01.2020
1264 Clouds 30 1006 74 10000 5.1 340 09:19 07.01.2020
1265 Clouds 30 1006 74 10000 5.1 340 08:42 07.01.2020
1266 Clouds 33 1005 63 10000 7.7 200 08:21 07.01.2020
1267 Clouds 33 1005 63 10000 7.7 200 07:51 07.01.2020
1268 Clouds 32 1006 66 10000 5.1 200 07:26 07.01.2020
1269 Clouds 32 1006 66 10000 5.1 200 06:53 07.01.2020
1270 Clouds 29 1005 71 0 4.81 189 06:32 07.01.2020
1271 Clouds 32 1006 66 10000 2.6 210 05:46 07.01.2020
1272 Haze 33 1008 63 10000 5.1 200 04:31 07.01.2020
1273 Clouds 33 1009 59 10000 4.6 250 03:25 07.01.2020
1274 Haze 31 1010 66 10000 4.1 340 02:21 07.01.2020
1275 Haze 31 1010 66 10000 4.1 340 01:51 07.01.2020
1276 Haze 30 1010 74 10000 2.6 340 01:21 07.01.2020
1277 Clear 27 1009 83 10000 2.6 340 00:22 07.01.2020
1278 Clear 27 1009 83 10000 2.6 340 23:58 06.01.2020
1279 Clear 27 1009 83 10000 2.6 340 23:39 06.01.2020
1280 Clouds 25 1009 94 10000 2.6 330 23:21 06.01.2020
1281 Clouds 25 1009 94 10000 2.6 330 22:56 06.01.2020
1282 Clouds 25 1009 94 10000 2.6 330 22:37 06.01.2020
1283 Clouds 24 1009 100 10000 2.6 330 22:19 06.01.2020
1284 Clouds 24 1009 100 10000 2.6 330 21:55 06.01.2020
1285 Clouds 24 1009 100 10000 2.6 330 21:36 06.01.2020
1286 Clouds 24 1009 100 10000 2.6 330 21:36 06.01.2020
1287 Clouds 24 1008 100 10000 2.6 330 21:18 06.01.2020
1288 Clouds 24 1008 100 10000 2.6 330 20:54 06.01.2020
1289 Clouds 24 1008 100 10000 2.6 330 20:54 06.01.2020
1290 Clouds 24 1008 100 10000 2.6 330 20:36 06.01.2020
1291 Clouds 24 1008 100 10000 2.6 320 20:18 06.01.2020
1292 Clouds 24 1008 100 10000 2.6 320 19:55 06.01.2020
1293 Clouds 24 1008 100 10000 2.6 320 19:36 06.01.2020
1294 Rain 27 1008 78 0 2.39 33 19:18 06.01.2020
1295 Rain 27 1008 78 0 2.39 33 18:43 06.01.2020
1296 Rain 25 1009 100 10000 4.1 320 18:20 06.01.2020
1297 Rain 25 1009 100 10000 4.1 320 17:39 06.01.2020
1298 Rain 24 1009 100 10000 4.1 320 17:20 06.01.2020
1299 Rain 24 1009 100 10000 4.1 320 16:55 06.01.2020
1300 Rain 24 1009 100 10000 4.1 320 16:37 06.01.2020
1301 Rain 24 1010 100 10000 1.5 0 16:18 06.01.2020
1302 Rain 24 1010 100 10000 1.5 0 15:43 06.01.2020
1303 Rain 25 1011 94 10000 1.5 0 15:21 06.01.2020
1304 Rain 25 1011 94 10000 1.5 0 14:59 06.01.2020
1305 Rain 25 1011 94 10000 1.5 0 14:41 06.01.2020
1306 Rain 25 1011 94 10000 2.6 0 14:21 06.01.2020
1307 Rain 25 1011 94 10000 2.6 0 13:58 06.01.2020
1308 Rain 25 1011 94 10000 2.6 0 13:38 06.01.2020
1309 Rain 27 1010 88 10000 4.1 110 13:19 06.01.2020
1310 Rain 27 1010 88 10000 4.1 110 12:43 06.01.2020
1311 Clouds 28 1009 83 10000 3.1 0 12:21 06.01.2020
1312 Clouds 28 1009 83 10000 3.1 0 11:59 06.01.2020
1313 Clouds 28 1009 83 10000 3.1 0 11:39 06.01.2020
1314 Clouds 30 1008 74 10000 4.1 200 11:21 06.01.2020
1315 Clouds 30 1008 74 10000 4.1 200 10:57 06.01.2020
1316 Clouds 30 1008 74 10000 4.1 200 10:39 06.01.2020
1317 Clouds 31 1007 70 10000 4.1 200 10:20 06.01.2020
1318 Clouds 31 1007 70 10000 4.1 200 09:38 06.01.2020
1319 Clouds 32 1006 62 10000 2.6 200 09:19 06.01.2020
1320 Clouds 32 1006 62 10000 2.6 200 08:46 06.01.2020
1321 Clouds 33 1006 59 10000 4.1 200 08:26 06.01.2020
1322 Rain 29 1006 72 0 3.8 223 07:53 06.01.2020
1323 Clouds 33 1006 59 10000 2.6 200 07:28 06.01.2020
1324 Clouds 33 1006 59 10000 2.6 200 06:45 06.01.2020
1325 Clouds 33 1007 59 10000 2.6 230 06:19 06.01.2020
1326 Clouds 33 1007 59 10000 2.6 230 05:42 06.01.2020
1327 Clouds 29 1007 70 0 3.88 206 04:33 06.01.2020
1328 Clouds 33 1008 55 10000 2.6 220 03:59 06.01.2020
1329 Clouds 29 1007 70 0 3.88 206 02:46 06.01.2020
1330 Clouds 33 1009 55 10000 5.1 170 02:23 06.01.2020
1331 Clouds 33 1009 55 10000 5.1 170 01:43 06.01.2020
1332 Clouds 32 1010 59 10000 3.1 160 01:21 06.01.2020
1333 Clouds 32 1010 59 10000 3.1 160 00:41 06.01.2020
1334 Clouds 30 1009 66 10000 1.5 0 00:20 06.01.2020
1335 Clouds 30 1009 66 10000 1.5 0 23:41 05.01.2020
1336 Clouds 27 1009 78 0 1.5 36 23:22 05.01.2020
1337 Clouds 27 1009 78 0 1.5 36 22:55 05.01.2020
1338 Clouds 27 1009 78 0 1.5 36 22:37 05.01.2020
1339 Clouds 25 1008 88 10000 2.1 330 22:18 05.01.2020
1340 Clouds 25 1008 88 10000 2.1 330 21:41 05.01.2020
1341 Clouds 25 1007 94 10000 2.6 320 21:21 05.01.2020
1342 Clouds 25 1007 94 10000 2.6 320 20:59 05.01.2020
1343 Clouds 25 1007 94 10000 2.6 320 20:39 05.01.2020
1344 Clouds 25 1007 94 10000 2.6 350 20:20 05.01.2020
1345 Clouds 25 1007 94 10000 2.6 350 20:20 05.01.2020
1346 Clouds 25 1007 94 10000 2.6 350 19:59 05.01.2020
1347 Clouds 25 1007 94 10000 2.6 350 19:40 05.01.2020
1348 Clouds 25 1008 88 10000 4.1 350 19:21 05.01.2020
1349 Clouds 25 1008 88 10000 4.1 350 18:56 05.01.2020
1350 Clouds 25 1008 88 10000 4.1 350 18:38 05.01.2020
1351 Clouds 26 1008 83 10000 4.1 350 18:19 05.01.2020
1352 Clouds 26 1008 83 10000 4.1 350 17:59 05.01.2020
1353 Clouds 26 1008 83 10000 4.1 350 17:39 05.01.2020
1354 Clouds 27 1008 78 10000 3.6 350 17:20 05.01.2020
1355 Clouds 28 1008 77 0 2.66 121 16:57 05.01.2020
1356 Clouds 28 1008 77 0 2.66 121 16:39 05.01.2020
1357 Clouds 27 1009 78 10000 3.6 340 16:20 05.01.2020
1358 Clouds 27 1009 78 10000 3.6 340 15:40 05.01.2020
1359 Clouds 27 1009 78 10000 3.6 340 15:21 05.01.2020
1360 Clouds 26 1009 94 10000 3.1 320 14:57 05.01.2020
1361 Clouds 26 1009 94 10000 3.1 320 14:38 05.01.2020
1362 Clouds 26 1009 94 10000 3.1 320 14:20 05.01.2020
1363 Clouds 29 1010 75 0 3.58 127 13:57 05.01.2020
1364 Clouds 29 1010 75 0 3.58 127 13:38 05.01.2020
1365 Clouds 29 1010 75 0 3.58 127 13:38 05.01.2020
1366 Clouds 26 1009 94 10000 3.6 320 13:19 05.01.2020
1367 Clouds 26 1009 94 10000 3.6 320 12:56 05.01.2020
1368 Clouds 26 1009 94 10000 3.6 320 12:56 05.01.2020
1369 Clouds 26 1009 94 10000 3.6 320 12:37 05.01.2020
1370 Clouds 29 1010 75 0 3.33 130 12:19 05.01.2020
1371 Clouds 29 1010 75 0 3.33 130 11:44 05.01.2020
1372 Clouds 29 1008 73 0 3.25 140 11:20 05.01.2020
1373 Clouds 29 1008 73 0 3.25 140 10:59 05.01.2020
1374 Clouds 29 1008 73 0 3.25 140 10:40 05.01.2020
1375 Clouds 30 1008 70 10000 5.1 160 10:19 05.01.2020
1376 Clouds 30 1008 70 10000 5.1 160 09:42 05.01.2020
1377 Clouds 31 1007 66 10000 5.1 190 09:22 05.01.2020
1378 Clouds 31 1007 66 10000 5.1 190 08:52 05.01.2020
1379 Clouds 29 1008 73 0 3.25 140 08:32 05.01.2020
1380 Haze 30 1006 74 10000 7.7 180 07:59 05.01.2020
1381 Haze 30 1006 74 10000 7.7 180 07:39 05.01.2020
1382 Haze 30 1006 74 10000 7.7 180 07:39 05.01.2020
1383 Clouds 31 1006 70 10000 7.7 180 07:20 05.01.2020
1384 Clouds 31 1006 70 10000 7.7 180 06:40 05.01.2020
1385 Clouds 34 1006 59 10000 5.1 190 05:34 05.01.2020
1386 Clouds 34 1006 59 10000 5.1 190 05:34 05.01.2020
1387 Haze 33 1008 63 10000 7.7 200 04:49 05.01.2020
1388 Haze 32 1009 66 10000 7.7 220 04:18 05.01.2020
1389 Haze 33 1009 59 10000 3.1 350 02:50 05.01.2020
1390 Haze 32 1010 62 10000 2.6 350 02:32 05.01.2020
1391 Haze 32 1010 62 10000 2.6 350 01:49 05.01.2020
1392 Haze 30 1010 70 10000 2.6 350 01:19 05.01.2020
1393 Haze 30 1010 70 10000 2.6 350 00:55 05.01.2020
1394 Haze 30 1010 70 10000 2.6 350 00:36 05.01.2020
1395 Haze 27 1010 88 10000 2.1 320 00:18 05.01.2020
1396 Haze 27 1010 88 10000 2.1 320 23:40 04.01.2020
1397 Clouds 25 1009 100 10000 2.6 310 23:20 04.01.2020
1398 Clouds 25 1009 100 10000 2.6 310 22:40 04.01.2020
1399 Clear 27 1009 80 0 1.77 58 22:22 04.01.2020
1400 Clear 27 1009 80 0 1.77 58 22:22 04.01.2020
1401 Clear 27 1009 80 0 1.77 58 21:58 04.01.2020
1402 Clear 27 1009 80 0 1.77 58 21:40 04.01.2020
1403 Clouds 24 1008 100 10000 5.1 300 21:20 04.01.2020
1404 Clouds 24 1008 100 10000 5.1 300 20:59 04.01.2020
1405 Clouds 24 1008 100 10000 5.1 300 20:40 04.01.2020
1406 Clouds 25 1007 94 10000 2.6 340 20:21 04.01.2020
1407 Clouds 25 1007 94 10000 2.6 340 19:57 04.01.2020
1408 Clouds 25 1007 94 10000 2.6 340 19:57 04.01.2020
1409 Clouds 25 1007 94 10000 2.6 340 19:38 04.01.2020
1410 Clouds 25 1007 94 10000 2.6 350 19:20 04.01.2020
1411 Clouds 25 1007 94 10000 2.6 350 18:55 04.01.2020
1412 Clouds 25 1007 94 10000 2.6 350 18:36 04.01.2020
1413 Clouds 25 1007 94 10000 2.6 310 18:18 04.01.2020
1414 Clouds 25 1007 94 10000 2.6 310 18:18 04.01.2020
1415 Clouds 25 1007 94 10000 2.6 310 17:41 04.01.2020
1416 Clouds 25 1007 94 10000 2.6 350 17:23 04.01.2020
1417 Clouds 25 1007 94 10000 2.6 350 16:57 04.01.2020
1418 Clouds 25 1007 94 10000 2.6 350 16:39 04.01.2020
1419 Clouds 25 1007 94 10000 2.6 350 16:39 04.01.2020
1420 Clouds 25 1007 94 10000 2.6 350 16:39 04.01.2020
1421 Clear 26 1008 94 10000 1.5 0 16:21 04.01.2020
1422 Clear 26 1008 94 10000 1.5 0 15:43 04.01.2020
1423 Clear 26 1008 94 10000 1.5 0 15:43 04.01.2020
1424 Clouds 27 1008 94 10000 1 0 15:20 04.01.2020
1425 Clouds 27 1008 94 10000 1 0 14:59 04.01.2020
1426 Clouds 27 1008 94 10000 1 0 14:41 04.01.2020
1427 Clouds 28 1008 83 10000 1.5 0 14:20 04.01.2020
1428 Clouds 28 1008 83 10000 1.5 0 13:58 04.01.2020
1429 Clouds 28 1008 83 10000 1.5 0 13:37 04.01.2020
1430 Clouds 28 1008 83 10000 2.6 150 13:19 04.01.2020
1431 Clouds 28 1008 83 10000 2.6 150 12:56 04.01.2020
1432 Clouds 28 1008 83 10000 2.6 150 12:38 04.01.2020
1433 Clouds 28 1008 83 10000 2.6 140 12:18 04.01.2020
1434 Clouds 28 1008 83 10000 2.6 140 11:55 04.01.2020
1435 Clouds 28 1008 83 10000 2.6 140 11:36 04.01.2020
1436 Clouds 29 1007 71 0 2.71 140 11:18 04.01.2020
1437 Clouds 29 1007 71 0 2.71 140 10:40 04.01.2020
1438 Haze 31 1006 62 10000 5.1 190 10:21 04.01.2020
1439 Haze 31 1006 62 10000 5.1 190 09:44 04.01.2020
1440 Haze 32 1005 59 10000 5.1 190 09:25 04.01.2020
1441 Haze 32 1005 59 10000 5.1 190 08:49 04.01.2020
1442 Haze 32 1005 59 10000 2.6 190 08:29 04.01.2020
1443 Haze 32 1005 59 10000 2.6 190 07:56 04.01.2020
1444 Haze 32 1005 59 10000 2.6 190 07:56 04.01.2020
1445 Haze 32 1005 59 10000 2.6 190 07:37 04.01.2020
1446 Haze 32 1005 59 10000 5.1 200 06:43 04.01.2020
1447 Haze 32 1006 59 10000 7.7 200 05:59 04.01.2020
1448 Clouds 33 1007 55 10000 5.7 200 04:51 04.01.2020
1449 Clouds 33 1007 59 10000 7.7 170 04:30 04.01.2020
1450 Clouds 32 1009 62 10000 5.1 320 03:28 04.01.2020
1451 Clouds 32 1009 62 10000 5.1 320 02:46 04.01.2020
1452 Clouds 30 1009 74 10000 5.1 320 02:18 04.01.2020
1453 Clouds 30 1009 74 10000 5.1 320 01:37 04.01.2020
1454 Clouds 28 1009 74 0 0.15 214 01:19 04.01.2020
1455 Clouds 26 1009 88 10000 5.1 340 00:29 04.01.2020
1456 Clouds 26 1009 88 10000 5.1 340 23:57 03.01.2020
1457 Clouds 25 1009 94 10000 2.6 320 23:29 03.01.2020
1458 Clouds 25 1009 94 10000 2.6 320 22:57 03.01.2020
1459 Clouds 25 1009 94 10000 2.6 320 22:57 03.01.2020
1460 Clouds 25 1009 94 10000 2.6 320 22:39 03.01.2020
1461 Clouds 26 1008 82 0 1.94 39 22:19 03.01.2020
1462 Clouds 26 1008 82 0 1.94 39 21:57 03.01.2020
1463 Clouds 26 1008 82 0 1.94 39 21:37 03.01.2020
1464 Clouds 24 1007 100 10000 2.6 360 21:18 03.01.2020
1465 Clouds 24 1007 100 10000 2.6 360 20:54 03.01.2020
1466 Clouds 24 1007 100 10000 2.6 360 20:54 03.01.2020
1467 Clouds 24 1007 100 10000 2.6 360 20:36 03.01.2020
1468 Clouds 24 1006 100 10000 3.1 310 20:18 03.01.2020
1469 Clouds 24 1006 100 10000 3.1 310 19:42 03.01.2020
1470 Clouds 24 1006 100 10000 2.6 310 19:23 03.01.2020
1471 Clouds 24 1006 100 10000 2.6 310 18:54 03.01.2020
1472 Clouds 24 1006 100 10000 2.6 310 18:36 03.01.2020
1473 Clouds 24 1006 100 10000 2.6 360 18:18 03.01.2020
1474 Clouds 24 1006 100 10000 2.6 360 17:41 03.01.2020
1475 Clouds 25 1007 100 10000 2.6 300 17:21 03.01.2020
1476 Clouds 25 1007 100 10000 2.6 300 16:44 03.01.2020
1477 Clouds 25 1008 100 10000 2.6 300 16:25 03.01.2020
1478 Clouds 25 1008 100 10000 2.6 300 16:00 03.01.2020
1479 Clouds 25 1008 100 10000 2.6 300 15:41 03.01.2020
1480 Clouds 25 1008 94 10000 2.6 300 15:19 03.01.2020
1481 Clouds 25 1008 94 10000 2.6 300 14:40 03.01.2020
1482 Clouds 25 1009 100 10000 2.6 310 14:20 03.01.2020
1483 Clouds 25 1009 100 10000 2.6 310 13:57 03.01.2020
1484 Clouds 25 1009 100 10000 2.6 310 13:38 03.01.2020
1485 Clouds 25 1009 100 10000 4.1 310 13:20 03.01.2020
1486 Clouds 25 1009 100 10000 4.1 310 12:41 03.01.2020
1487 Clouds 28 1008 83 10000 5.1 150 12:22 03.01.2020
1488 Clouds 28 1008 83 10000 5.1 150 11:49 03.01.2020
1489 Clouds 28 1008 83 10000 5.1 150 11:49 03.01.2020
1490 Clouds 28 1008 78 10000 5.1 190 11:31 03.01.2020
1491 Clouds 28 1008 78 10000 5.1 190 10:57 03.01.2020
1492 Clouds 28 1008 78 10000 5.1 190 10:38 03.01.2020
1493 Clouds 29 1007 79 10000 3.1 170 10:20 03.01.2020
1494 Clouds 29 1007 79 10000 3.1 170 09:41 03.01.2020
1495 Clouds 29 1006 79 10000 3.6 200 09:23 03.01.2020
1496 Clouds 29 1006 79 10000 3.6 200 08:57 03.01.2020
1497 Clouds 29 1006 79 10000 3.6 200 08:39 03.01.2020
1498 Clouds 30 1005 74 10000 7.7 200 08:21 03.01.2020
1499 Clouds 30 1005 74 10000 7.7 200 07:42 03.01.2020
1500 Clouds 30 1006 74 10000 5.1 180 07:19 03.01.2020
1501 Clouds 30 1006 74 10000 5.1 180 06:56 03.01.2020
1502 Clouds 30 1006 74 10000 5.1 180 06:37 03.01.2020
1503 Clouds 31 1006 70 10000 5.1 200 06:18 03.01.2020
1504 Clouds 31 1007 74 10000 2.1 220 04:42 03.01.2020
1505 Clouds 30 1008 79 10000 5.1 200 03:34 03.01.2020
1506 Clouds 30 1009 79 10000 4.1 130 02:47 03.01.2020
1507 Clouds 28 1010 88 10000 4.1 140 01:47 03.01.2020
1508 Clouds 28 1010 88 10000 1.5 0 00:57 03.01.2020
1509 Rain 28 1010 78 0 3.28 311 00:32 03.01.2020
1510 Rain 28 1010 78 0 3.28 311 23:58 02.01.2020
1511 Rain 28 1010 78 0 3.28 311 23:39 02.01.2020
1512 Clouds 25 1010 100 10000 2.6 320 23:19 02.01.2020
1513 Clouds 25 1010 100 10000 2.6 320 22:57 02.01.2020
1514 Clouds 25 1010 100 10000 2.6 320 22:39 02.01.2020
1515 Clouds 25 1009 100 10000 2.6 320 22:18 02.01.2020
1516 Clouds 25 1009 100 10000 2.6 320 21:42 02.01.2020
1517 Clouds 25 1008 100 10000 1.5 0 21:23 02.01.2020
1518 Clouds 25 1008 100 10000 1.5 0 21:00 02.01.2020
1519 Clouds 25 1008 100 10000 1.5 0 21:00 02.01.2020
1520 Clouds 25 1008 100 10000 1.5 0 20:39 02.01.2020
1521 Clouds 25 1007 100 10000 1.5 0 20:21 02.01.2020
1522 Clouds 25 1007 100 10000 1.5 0 20:21 02.01.2020
1523 Clouds 25 1007 100 10000 1.5 0 19:56 02.01.2020
1524 Clouds 25 1007 100 10000 1.5 0 19:38 02.01.2020
1525 Clouds 25 1007 100 10000 2.1 0 19:19 02.01.2020
1526 Clouds 25 1007 100 10000 2.1 0 18:58 02.01.2020
1527 Clouds 25 1007 100 10000 2.1 0 18:58 02.01.2020
1528 Clouds 25 1007 100 10000 2.1 0 18:39 02.01.2020
1529 Clouds 25 1008 100 10000 1.5 0 18:21 02.01.2020
1530 Clouds 25 1008 100 10000 1.5 0 17:56 02.01.2020
1531 Clouds 25 1008 100 10000 1.5 0 17:37 02.01.2020
1532 Clouds 25 1009 100 10000 2.1 0 17:19 02.01.2020
1533 Clouds 25 1009 100 10000 2.1 0 16:56 02.01.2020
1534 Clouds 25 1009 100 10000 2.1 0 16:38 02.01.2020
1535 Clouds 25 1010 100 10000 2.1 0 16:20 02.01.2020
1536 Clouds 25 1010 100 10000 2.1 0 15:45 02.01.2020
1537 Clouds 26 1010 100 10000 2.1 0 15:24 02.01.2020
1538 Clouds 26 1010 100 10000 2.1 0 14:58 02.01.2020
1539 Clouds 26 1010 100 10000 2.1 0 14:39 02.01.2020
1540 Rain 26 1010 100 10000 3.6 130 14:20 02.01.2020
1541 Rain 26 1010 100 10000 3.6 130 13:58 02.01.2020
1542 Rain 26 1010 100 10000 3.6 130 13:40 02.01.2020
1543 Rain 26 1010 94 10000 3.6 130 13:19 02.01.2020
1544 Rain 26 1010 94 10000 3.6 130 12:42 02.01.2020
1545 Rain 25 1009 100 10000 3.1 160 12:21 02.01.2020
1546 Rain 28 1011 77 0 0.9 101 11:42 02.01.2020
1547 Rain 26 1009 94 10000 5.1 180 11:22 02.01.2020
1548 Rain 26 1009 94 10000 5.1 180 10:46 02.01.2020
1549 Clouds 29 1008 83 10000 5.1 180 10:28 02.01.2020
1550 Clouds 29 1008 83 10000 5.1 180 09:58 02.01.2020
1551 Clouds 29 1008 83 10000 5.1 180 09:35 02.01.2020
1552 Rain 28 1009 76 0 1.57 223 08:59 02.01.2020
1553 Rain 28 1009 76 0 1.57 223 08:39 02.01.2020
1554 Clouds 30 1008 79 10000 7.7 190 08:19 02.01.2020
1555 Clouds 30 1008 79 10000 7.7 190 07:47 02.01.2020
1556 Clouds 31 1008 74 10000 7.7 210 07:26 02.01.2020
1557 Clouds 31 1008 74 10000 7.7 210 06:41 02.01.2020
1558 Clouds 30 1008 79 10000 7.7 220 05:40 02.01.2020
1559 Clouds 30 1009 84 10000 5.1 250 04:34 02.01.2020
1560 Clouds 29 1009 74 0 3.34 204 03:29 02.01.2020
1561 Clouds 29 1009 74 0 3.34 204 03:29 02.01.2020
1562 Haze 32 1012 66 10000 5.1 330 02:21 02.01.2020
1563 Haze 32 1012 66 10000 5.1 330 01:49 02.01.2020
1564 Haze 30 1012 74 10000 5.1 300 01:25 02.01.2020
1565 Haze 30 1012 74 10000 5.1 300 00:38 02.01.2020
1566 Haze 29 1012 79 10000 3.6 340 00:20 02.01.2020
1567 Haze 29 1012 79 10000 3.6 340 23:42 01.01.2020
1568 Haze 26 1011 94 10000 2.6 0 23:21 01.01.2020
1569 Haze 26 1011 94 10000 2.6 0 22:39 01.01.2020
1570 Clouds 26 1011 88 10000 1.5 0 22:20 01.01.2020
1571 Clouds 26 1011 88 10000 1.5 0 21:58 01.01.2020
1572 Clouds 26 1011 88 10000 1.5 0 21:39 01.01.2020
1573 Rain 27 1011 80 0 1.54 70 21:20 01.01.2020
1574 Rain 27 1011 80 0 1.54 70 20:56 01.01.2020
1575 Rain 27 1011 80 0 1.54 70 20:38 01.01.2020
1576 Rain 28 1010 79 0 2.66 123 20:19 01.01.2020
1577 Rain 27 1010 80 0 2.26 62 19:55 01.01.2020
1578 Rain 27 1010 80 0 2.26 62 19:37 01.01.2020
1579 Rain 27 1010 80 0 2.26 62 19:19 01.01.2020
1580 Rain 27 1010 80 0 2.26 62 18:56 01.01.2020
1581 Rain 27 1010 80 0 2.26 62 18:36 01.01.2020
1582 Rain 27 1010 80 0 2.26 62 18:18 01.01.2020
1583 Rain 27 1010 80 0 2.26 62 17:56 01.01.2020
1584 Rain 27 1010 80 0 2.26 62 17:38 01.01.2020
1585 Rain 28 1011 79 0 3.63 112 17:19 01.01.2020
1586 Rain 28 1011 79 0 3.63 112 16:42 01.01.2020
1587 Rain 28 1011 79 0 3.63 112 16:24 01.01.2020
1588 Rain 28 1011 79 0 3.63 112 15:58 01.01.2020
1589 Rain 28 1011 79 0 3.63 112 15:40 01.01.2020
1590 Rain 28 1011 79 0 3.63 112 15:40 01.01.2020
1591 Clouds 27 1011 88 10000 2.6 140 15:22 01.01.2020
1592 Clouds 27 1011 88 10000 2.6 140 14:59 01.01.2020
1593 Clouds 27 1011 88 10000 2.6 140 14:40 01.01.2020
1594 Clouds 27 1011 88 10000 5.1 140 14:22 01.01.2020
1595 Clouds 27 1011 88 10000 5.1 140 13:56 01.01.2020
1596 Clouds 27 1011 88 10000 5.1 140 13:37 01.01.2020
1597 Clouds 27 1011 88 10000 5.1 140 13:37 01.01.2020
1598 Clouds 28 1011 83 10000 5.1 100 13:18 01.01.2020
1599 Clouds 28 1011 83 10000 5.1 100 12:56 01.01.2020
1600 Clouds 28 1011 83 10000 5.1 100 12:56 01.01.2020
1601 Clouds 28 1011 83 10000 5.1 100 12:38 01.01.2020
1602 Clouds 28 1012 79 0 5.58 136 12:18 01.01.2020
1603 Clouds 28 1012 79 0 5.58 136 11:43 01.01.2020
1604 Haze 29 1009 79 10000 7.7 160 11:22 01.01.2020
1605 Haze 29 1009 79 10000 7.7 160 10:59 01.01.2020
1606 Haze 29 1009 79 10000 7.7 160 10:40 01.01.2020
1607 Haze 30 1008 74 10000 7.7 160 10:20 01.01.2020
1608 Haze 30 1008 74 10000 7.7 160 10:20 01.01.2020
1609 Haze 30 1008 74 10000 7.7 160 09:56 01.01.2020
1610 Haze 30 1008 74 10000 7.7 160 09:37 01.01.2020
1611 Haze 32 1008 66 10000 7.2 180 09:18 01.01.2020
1612 Haze 32 1008 66 10000 7.2 180 08:55 01.01.2020
1613 Haze 32 1008 66 10000 7.2 180 08:36 01.01.2020
1614 Haze 32 1008 66 10000 7.2 180 08:36 01.01.2020
1615 Haze 32 1008 66 10000 7.2 180 08:36 01.01.2020
1616 Clouds 29 1008 73 0 4.93 179 08:18 01.01.2020
1617 Clouds 29 1008 73 0 4.93 179 07:48 01.01.2020
1618 Haze 33 1008 59 10000 8.2 200 07:30 01.01.2020
1619 Haze 33 1008 59 10000 8.2 200 06:44 01.01.2020
1620 Haze 34 1008 56 10000 8.2 190 06:20 01.01.2020
1621 Haze 34 1009 56 10000 9.3 190 04:44 01.01.2020
1622 Haze 34 1010 56 10000 5.1 200 03:43 01.01.2020
1623 Haze 34 1010 56 10000 4.1 210 03:22 01.01.2020
1624 Haze 34 1010 56 10000 4.1 210 02:55 01.01.2020
1625 Clouds 29 1009 74 0 4.53 183 02:32 01.01.2020
1626 Smoke 33 1011 55 10000 2.6 170 01:45 01.01.2020
1627 Haze 32 1011 59 10000 2.6 130 01:24 01.01.2020
1628 Haze 32 1011 59 10000 2.6 130 00:56 01.01.2020
1629 Haze 32 1011 59 10000 2.6 130 00:37 01.01.2020
1630 Smoke 30 1011 74 10000 2.1 0 00:18 01.01.2020
1631 Smoke 30 1011 74 10000 2.1 0 23:39 31.12.2019
1632 Clouds 27 1011 77 0 2.06 104 23:19 31.12.2019
1633 Clouds 27 1011 77 0 2.06 104 22:57 31.12.2019
1634 Clouds 27 1011 77 0 2.06 104 22:38 31.12.2019
1635 Smoke 24 1010 100 10000 1.5 0 22:18 31.12.2019
1636 Smoke 24 1010 100 10000 1.5 0 21:54 31.12.2019
1637 Smoke 24 1010 100 10000 1.5 0 21:36 31.12.2019
1638 Haze 24 1009 94 10000 1.5 0 21:18 31.12.2019
1639 Haze 24 1009 94 10000 1.5 0 21:18 31.12.2019
1640 Haze 24 1009 94 10000 1.5 0 20:40 31.12.2019
1641 Haze 25 1009 94 10000 1.5 0 20:21 31.12.2019
1642 Haze 25 1009 94 10000 1.5 0 19:59 31.12.2019
1643 Haze 25 1009 94 10000 1.5 0 19:40 31.12.2019
1644 Haze 25 1009 94 10000 1.5 0 19:22 31.12.2019
1645 Haze 25 1009 94 10000 1.5 0 18:57 31.12.2019
1646 Haze 25 1009 94 10000 1.5 0 18:39 31.12.2019
1647 Haze 27 1009 88 10000 2.6 120 18:19 31.12.2019
1648 Haze 27 1009 88 10000 2.6 120 17:56 31.12.2019
1649 Haze 27 1009 88 10000 2.6 120 17:37 31.12.2019
1650 Haze 27 1010 88 10000 2.6 150 17:18 31.12.2019
1651 Haze 27 1010 88 10000 2.6 150 16:56 31.12.2019
1652 Haze 27 1010 88 10000 2.6 150 16:37 31.12.2019
1653 Haze 27 1010 88 10000 2.6 140 16:18 31.12.2019
1654 Haze 27 1010 88 10000 2.6 140 15:56 31.12.2019
1655 Haze 27 1010 88 10000 2.6 140 15:38 31.12.2019
1656 Haze 27 1010 88 10000 3.6 130 15:19 31.12.2019
1657 Haze 27 1010 88 10000 3.6 130 14:55 31.12.2019
1658 Haze 27 1010 88 10000 3.6 130 14:37 31.12.2019
1659 Haze 28 1010 83 10000 3.1 120 14:18 31.12.2019
1660 Haze 28 1010 83 10000 3.1 120 13:56 31.12.2019
1661 Haze 28 1010 83 10000 3.1 120 13:38 31.12.2019
1662 Haze 28 1010 83 10000 2.6 140 13:19 31.12.2019
1663 Haze 28 1010 83 10000 2.6 140 12:55 31.12.2019
1664 Haze 28 1010 83 10000 2.6 140 12:55 31.12.2019
1665 Haze 28 1010 83 10000 2.6 140 12:37 31.12.2019
1666 Haze 28 1010 83 10000 2.6 140 12:37 31.12.2019
1667 Haze 28 1010 83 10000 4.1 150 12:18 31.12.2019
1668 Haze 28 1010 83 10000 4.1 150 11:55 31.12.2019
1669 Haze 28 1010 83 10000 4.1 150 11:36 31.12.2019
1670 Haze 29 1009 79 10000 5.1 160 11:18 31.12.2019
1671 Haze 29 1009 79 10000 5.1 160 10:55 31.12.2019
1672 Haze 29 1009 79 10000 5.1 160 10:37 31.12.2019
1673 Haze 30 1009 70 10000 4.1 160 10:19 31.12.2019
1674 Haze 30 1009 70 10000 4.1 160 09:55 31.12.2019
1675 Haze 30 1009 70 10000 4.1 160 09:37 31.12.2019
1676 Haze 30 1009 70 10000 4.1 160 09:37 31.12.2019
1677 Haze 32 1008 62 10000 5.7 160 09:18 31.12.2019
1678 Haze 32 1008 62 10000 5.7 160 08:42 31.12.2019
1679 Haze 32 1008 62 10000 6.2 180 08:22 31.12.2019
1680 Haze 32 1008 62 10000 6.2 180 07:45 31.12.2019
1681 Haze 33 1008 59 10000 5.1 180 07:22 31.12.2019
1682 Haze 33 1008 59 10000 5.1 180 06:51 31.12.2019
1683 Clear 29 1008 74 0 5.01 168 06:27 31.12.2019
1684 Haze 33 1008 59 10000 3.6 200 04:55 31.12.2019
1685 Haze 34 1009 56 10000 3.6 220 04:25 31.12.2019
1686 Haze 34 1010 56 10000 5.1 200 02:57 31.12.2019
1687 Haze 33 1010 52 10000 4.1 280 02:20 31.12.2019
1688 Haze 33 1010 52 10000 4.1 280 01:49 31.12.2019
1689 Haze 31 1010 62 10000 1.5 0 01:31 31.12.2019
1690 Haze 31 1010 62 10000 1.5 0 00:48 31.12.2019
1691 Haze 28 1010 74 10000 1.5 0 00:24 31.12.2019
1692 Haze 28 1010 74 10000 1.5 0 23:58 30.12.2019
1693 Haze 28 1010 74 10000 1.5 0 23:39 30.12.2019
1694 Haze 24 1010 100 10000 2.1 320 23:21 30.12.2019
1695 Haze 24 1010 100 10000 2.1 320 22:59 30.12.2019
1696 Haze 24 1010 100 10000 2.1 320 22:41 30.12.2019
1697 Clouds 24 1009 94 10000 5.1 310 22:21 30.12.2019
1698 Clouds 24 1009 94 10000 5.1 310 21:57 30.12.2019
1699 Clouds 24 1009 94 10000 5.1 310 21:39 30.12.2019
1700 Clouds 24 1009 94 10000 2.1 300 21:20 30.12.2019
1701 Clouds 24 1009 94 10000 2.1 300 20:58 30.12.2019
1702 Clouds 24 1009 94 10000 2.1 300 20:40 30.12.2019
1703 Clouds 24 1009 94 10000 2.1 20 20:20 30.12.2019
1704 Clouds 27 1009 76 0 3.38 108 19:58 30.12.2019
1705 Clouds 27 1009 76 0 3.38 108 19:38 30.12.2019
1706 Clouds 24 1009 100 10000 2.1 330 19:19 30.12.2019
1707 Clouds 27 1009 76 0 3.38 108 18:58 30.12.2019
1708 Clouds 27 1009 76 0 3.38 108 18:38 30.12.2019
1709 Clouds 24 1009 100 10000 2.6 320 18:20 30.12.2019
1710 Clouds 24 1009 100 10000 2.6 320 17:55 30.12.2019
1711 Clouds 24 1009 100 10000 2.6 320 17:37 30.12.2019
1712 Clouds 25 1009 94 10000 2.6 320 17:18 30.12.2019
1713 Clouds 25 1009 94 10000 2.6 320 16:57 30.12.2019
1714 Clouds 25 1009 94 10000 2.6 320 16:37 30.12.2019
1715 Clouds 28 1010 77 0 4.62 122 16:18 30.12.2019
1716 Clouds 28 1010 77 0 4.62 122 15:55 30.12.2019
1717 Clouds 28 1010 77 0 4.62 122 15:36 30.12.2019
1718 Clouds 28 1010 77 0 4.62 122 15:18 30.12.2019
1719 Clouds 28 1010 77 0 4.62 122 14:42 30.12.2019
1720 Rain 28 1012 76 0 5.47 133 14:19 30.12.2019
1721 Rain 28 1012 76 0 5.47 133 13:56 30.12.2019
1722 Rain 28 1012 76 0 5.47 133 13:37 30.12.2019
1723 Clouds 28 1011 77 0 5.96 134 13:19 30.12.2019
1724 Clouds 28 1011 77 0 5.96 134 12:43 30.12.2019
1725 Clouds 28 1011 77 0 5.96 134 12:20 30.12.2019
1726 Clouds 28 1011 77 0 5.96 134 11:59 30.12.2019
1727 Clouds 28 1011 77 0 5.96 134 11:40 30.12.2019
1728 Clouds 28 1010 77 0 5.32 145 11:19 30.12.2019
1729 Clouds 28 1010 77 0 5.32 145 10:44 30.12.2019
1730 Clouds 30 1009 74 10000 5.7 170 10:22 30.12.2019
1731 Clouds 30 1009 74 10000 5.7 170 10:22 30.12.2019
1732 Clouds 30 1009 74 10000 5.7 170 09:58 30.12.2019
1733 Clouds 30 1009 74 10000 5.7 170 09:40 30.12.2019
1734 Clouds 30 1008 74 10000 5.7 210 09:20 30.12.2019
1735 Clouds 30 1008 74 10000 5.7 210 08:50 30.12.2019
1736 Haze 32 1008 66 10000 10.3 200 08:23 30.12.2019
1737 Haze 32 1008 66 10000 10.3 200 07:56 30.12.2019
1738 Haze 32 1008 66 10000 10.3 200 07:37 30.12.2019
1739 Clouds 32 1008 66 10000 6.2 250 06:52 30.12.2019
1740 Clouds 32 1009 66 10000 2.6 240 04:58 30.12.2019
1741 Clouds 28 1009 74 0 4.11 183 03:57 30.12.2019
1742 Clouds 33 1010 59 10000 3.6 300 02:58 30.12.2019
1743 Clouds 33 1010 59 10000 3.6 300 02:40 30.12.2019
1744 Clouds 32 1011 62 10000 5.1 330 01:50 30.12.2019
1745 Clouds 30 1011 74 10000 5.1 300 01:21 30.12.2019
1746 Clouds 30 1011 74 10000 5.1 300 00:45 30.12.2019
1747 Clouds 30 1011 70 10000 2.6 340 00:19 30.12.2019
1748 Clouds 30 1011 70 10000 2.6 340 23:39 29.12.2019
1749 Clouds 27 1011 83 10000 2.6 300 23:21 29.12.2019
1750 Clouds 27 1011 83 10000 2.6 300 22:54 29.12.2019
1751 Clouds 27 1011 83 10000 2.6 300 22:36 29.12.2019
1752 Clouds 27 1011 83 10000 2.6 300 22:36 29.12.2019
1753 Clouds 24 1010 100 10000 2.6 300 22:18 29.12.2019
1754 Clouds 24 1010 100 10000 2.6 300 21:42 29.12.2019
1755 Rain 27 1012 81 0 2.08 55 21:21 29.12.2019
1756 Rain 27 1012 81 0 2.08 55 20:57 29.12.2019
1757 Rain 27 1012 81 0 2.08 55 20:39 29.12.2019
1758 Clouds 25 1009 94 10000 2.6 320 20:20 29.12.2019
1759 Clouds 25 1009 94 10000 2.6 320 20:20 29.12.2019
1760 Clouds 25 1009 94 10000 2.6 320 20:20 29.12.2019
1761 Clouds 25 1009 94 10000 2.6 320 19:59 29.12.2019
1762 Clouds 25 1009 94 10000 2.6 320 19:40 29.12.2019
1763 Clouds 25 1008 100 10000 1.5 0 19:21 29.12.2019
1764 Clouds 25 1008 100 10000 1.5 0 18:57 29.12.2019
1765 Clouds 25 1008 100 10000 1.5 0 18:38 29.12.2019
1766 Clouds 27 1009 88 10000 1.5 0 18:19 29.12.2019
1767 Clouds 27 1009 88 10000 1.5 0 17:57 29.12.2019
1768 Clouds 27 1009 88 10000 1.5 0 17:39 29.12.2019
1769 Clouds 27 1010 88 10000 1.5 0 17:20 29.12.2019
1770 Clouds 27 1010 88 10000 1.5 0 16:56 29.12.2019
1771 Clouds 27 1010 88 10000 1.5 0 16:37 29.12.2019
1772 Clouds 27 1010 88 10000 1.5 0 16:37 29.12.2019
1773 Clouds 27 1011 88 10000 2.1 140 16:19 29.12.2019
1774 Clouds 27 1011 88 10000 2.1 140 15:56 29.12.2019
1775 Clouds 27 1011 88 10000 2.1 140 15:38 29.12.2019
1776 Clear 28 1011 79 0 4.11 129 15:19 29.12.2019
1777 Clear 28 1011 79 0 4.11 129 14:56 29.12.2019
1778 Clear 28 1011 79 0 4.11 129 14:37 29.12.2019
1779 Rain 28 1012 79 0 4.25 131 14:18 29.12.2019
1780 Rain 28 1012 79 0 4.25 131 13:55 29.12.2019
1781 Rain 28 1012 79 0 4.25 131 13:55 29.12.2019
1782 Rain 28 1012 79 0 4.25 131 13:37 29.12.2019
1783 Rain 28 1011 80 0 5.14 133 13:18 29.12.2019
1784 Rain 28 1011 80 0 5.14 133 12:43 29.12.2019
1785 Rain 28 1011 80 0 5.14 133 12:25 29.12.2019
1786 Rain 28 1011 80 0 5.14 133 11:56 29.12.2019
1787 Rain 28 1011 80 0 5.14 133 11:37 29.12.2019
1788 Rain 28 1011 80 0 5.14 133 11:37 29.12.2019
1789 Rain 28 1011 80 0 5.14 133 11:37 29.12.2019
1790 Rain 28 1010 80 0 5.44 147 11:19 29.12.2019
1791 Rain 28 1010 80 0 5.44 147 10:42 29.12.2019
1792 Smoke 29 1009 79 10000 7.7 170 10:22 29.12.2019
1793 Smoke 29 1009 79 10000 7.7 170 09:56 29.12.2019
1794 Smoke 29 1009 79 10000 7.7 170 09:38 29.12.2019
1795 Smoke 31 1008 70 10000 7.7 180 09:19 29.12.2019
1796 Smoke 31 1008 70 10000 7.7 180 08:46 29.12.2019
1797 Smoke 31 1008 66 10000 7.7 180 08:24 29.12.2019
1798 Smoke 31 1008 66 10000 7.7 180 07:54 29.12.2019
1799 Smoke 32 1008 59 10000 7.7 180 07:28 29.12.2019
1800 Smoke 32 1008 59 10000 7.7 180 06:53 29.12.2019
1801 Smoke 34 1008 52 10000 7.7 160 06:23 29.12.2019
1802 Smoke 34 1008 52 10000 7.7 160 05:50 29.12.2019
1803 Smoke 33 1008 55 10000 7.7 180 04:35 29.12.2019
1804 Clouds 34 1009 56 10000 5.1 230 03:40 29.12.2019
1805 Clouds 32 1010 59 10000 5.1 200 03:19 29.12.2019
1806 Clouds 32 1011 62 10000 5.1 210 02:19 29.12.2019
1807 Clouds 31 1011 66 10000 2.6 150 01:31 29.12.2019
1808 Clouds 31 1011 66 10000 2.6 150 01:31 29.12.2019
1809 Clouds 31 1011 66 10000 2.6 150 00:51 29.12.2019
1810 Clouds 30 1011 70 10000 1.5 0 00:27 29.12.2019
1811 Clouds 30 1011 70 10000 1.5 0 23:57 28.12.2019
1812 Clouds 30 1011 70 10000 1.5 0 23:39 28.12.2019
1813 Clouds 26 1010 88 10000 2.1 0 23:18 28.12.2019
1814 Clouds 26 1010 88 10000 2.1 0 22:39 28.12.2019
1815 Clouds 24 1010 100 10000 2.1 0 22:19 28.12.2019
1816 Clouds 24 1010 100 10000 2.1 0 21:57 28.12.2019
1817 Clouds 24 1010 100 10000 2.1 0 21:38 28.12.2019
1818 Clouds 25 1009 94 10000 3.1 340 21:20 28.12.2019
1819 Clouds 25 1009 94 10000 3.1 340 20:55 28.12.2019
1820 Clouds 25 1009 94 10000 3.1 340 20:36 28.12.2019
1821 Clouds 25 1009 94 10000 2.6 340 20:18 28.12.2019
1822 Clouds 25 1009 94 10000 2.6 340 19:54 28.12.2019
1823 Clouds 25 1009 94 10000 2.6 340 19:36 28.12.2019
1824 Clouds 25 1009 94 10000 2.6 340 19:18 28.12.2019
1825 Clouds 25 1009 94 10000 2.6 340 18:43 28.12.2019
1826 Clouds 25 1010 94 10000 1.5 0 18:20 28.12.2019
1827 Clouds 25 1010 94 10000 1.5 0 17:59 28.12.2019
1828 Clouds 25 1010 94 10000 1.5 0 17:41 28.12.2019
1829 Clouds 27 1010 83 10000 1.5 0 17:21 28.12.2019
1830 Clouds 27 1010 83 10000 1.5 0 16:55 28.12.2019
1831 Clouds 27 1010 83 10000 1.5 0 16:36 28.12.2019
1832 Clouds 27 1010 83 10000 1.5 0 16:36 28.12.2019
1833 Clouds 27 1011 88 10000 2.6 160 16:18 28.12.2019
1834 Clouds 27 1011 88 10000 2.6 160 15:41 28.12.2019
1835 Clouds 28 1011 88 10000 5.1 170 15:21 28.12.2019
1836 Clouds 28 1011 88 10000 5.1 170 15:21 28.12.2019
1837 Clouds 28 1011 88 10000 5.1 170 14:48 28.12.2019
1838 Clouds 28 1011 83 10000 5.1 160 14:26 28.12.2019
1839 Clouds 28 1011 83 10000 5.1 160 13:58 28.12.2019
1840 Clouds 28 1011 83 10000 5.1 160 13:39 28.12.2019
1841 Clouds 28 1010 83 10000 5.1 160 13:20 28.12.2019
1842 Clouds 28 1010 83 10000 5.1 160 12:56 28.12.2019
1843 Clouds 28 1010 83 10000 5.1 160 12:37 28.12.2019
1844 Clouds 28 1010 83 10000 5.1 160 12:19 28.12.2019
1845 Clouds 28 1010 83 10000 5.1 160 11:40 28.12.2019
1846 Clouds 28 1009 78 10000 5.1 160 11:21 28.12.2019
1847 Clouds 28 1009 78 10000 5.1 160 10:55 28.12.2019
1848 Clouds 28 1009 78 10000 5.1 160 10:36 28.12.2019
1849 Smoke 29 1008 70 10000 4.1 160 10:18 28.12.2019
1850 Smoke 29 1008 70 10000 4.1 160 10:18 28.12.2019
1851 Smoke 29 1008 70 10000 4.1 160 09:45 28.12.2019
1852 Rain 28 1010 78 0 4.08 153 09:23 28.12.2019
1853 Rain 28 1010 78 0 4.08 153 08:57 28.12.2019
1854 Rain 28 1010 78 0 4.08 153 08:38 28.12.2019
1855 Clouds 32 1007 66 10000 7.7 210 08:19 28.12.2019
1856 Clouds 32 1007 66 10000 7.7 210 07:41 28.12.2019
1857 Clouds 33 1007 52 10000 7.7 230 06:55 28.12.2019
1858 Clouds 33 1008 52 10000 7.7 240 05:40 28.12.2019
1859 Haze 34 1009 52 10000 9.3 240 03:48 28.12.2019
1860 Smoke 33 1009 52 10000 2.1 0 02:50 28.12.2019
1861 Smoke 32 1010 59 10000 2.6 350 02:19 28.12.2019
1862 Smoke 32 1010 59 10000 2.6 350 01:50 28.12.2019
1863 Haze 30 1011 66 10000 1.5 0 01:21 28.12.2019
1864 Haze 30 1011 66 10000 1.5 0 00:42 28.12.2019
1865 Haze 27 1010 74 10000 4.1 13 00:23 28.12.2019
1866 Haze 27 1010 74 10000 4.1 13 00:23 28.12.2019
1867 Haze 27 1010 74 10000 4.1 13 23:46 27.12.2019
1868 Haze 25 1009 88 10000 4.1 18 23:21 27.12.2019
1869 Haze 25 1009 88 10000 4.1 18 22:59 27.12.2019
1870 Haze 25 1009 88 10000 4.1 18 22:40 27.12.2019
1871 Haze 25 1009 88 10000 4.1 18 22:39 27.12.2019
1872 Clear 27 1010 74 0 2.12 78 22:21 27.12.2019
1873 Clear 27 1010 74 0 2.12 78 21:59 27.12.2019
1874 Clear 27 1010 74 0 2.12 78 21:40 27.12.2019
1875 Clouds 23 1008 100 10000 1.5 0 21:22 27.12.2019
1876 Clouds 23 1008 100 10000 1.5 0 20:42 27.12.2019
1877 Clouds 24 1008 94 10000 1.5 0 20:24 27.12.2019
1878 Clouds 24 1008 94 10000 1.5 0 19:55 27.12.2019
1879 Clouds 24 1008 94 10000 1.5 0 19:36 27.12.2019
1880 Clouds 25 1008 94 10000 1.5 0 19:18 27.12.2019
1881 Clouds 25 1008 94 10000 1.5 0 18:42 27.12.2019
1882 Clouds 25 1009 94 10000 3.1 320 18:24 27.12.2019
1883 Clouds 25 1009 94 10000 3.1 320 17:59 27.12.2019
1884 Clouds 25 1009 94 10000 3.1 320 17:41 27.12.2019
1885 Clouds 25 1009 94 10000 3.1 320 17:20 27.12.2019
1886 Clouds 25 1009 94 10000 3.1 320 16:59 27.12.2019
1887 Clouds 25 1009 94 10000 3.1 320 16:59 27.12.2019
1888 Clouds 25 1009 94 10000 3.1 320 16:39 27.12.2019
1889 Clouds 27 1010 83 10000 1.5 0 16:21 27.12.2019
1890 Clouds 27 1010 83 10000 1.5 0 15:46 27.12.2019
1891 Clouds 27 1010 83 10000 1.5 0 15:24 27.12.2019
1892 Clouds 27 1010 83 10000 1.5 0 14:58 27.12.2019
1893 Clouds 27 1010 83 10000 1.5 0 14:40 27.12.2019
1894 Clouds 27 1010 88 10000 1.5 0 14:21 27.12.2019
1895 Clouds 27 1010 88 10000 1.5 0 13:57 27.12.2019
1896 Clouds 27 1010 88 10000 1.5 0 13:39 27.12.2019
1897 Clouds 27 1010 88 10000 1.5 0 13:39 27.12.2019
1898 Clouds 27 1010 88 10000 1.5 0 13:39 27.12.2019
1899 Clouds 28 1010 83 10000 3.6 150 13:21 27.12.2019
1900 Clouds 28 1010 83 10000 3.6 150 12:44 27.12.2019
1901 Clouds 28 1009 83 10000 3.6 150 12:25 27.12.2019
1902 Clouds 28 1009 83 10000 3.6 150 11:55 27.12.2019
1903 Clouds 28 1009 83 10000 3.6 150 11:37 27.12.2019
1904 Clouds 28 1009 83 10000 3.6 160 11:18 27.12.2019
1905 Clouds 28 1009 83 10000 3.6 160 10:41 27.12.2019
1906 Haze 29 1007 74 10000 7.7 190 10:23 27.12.2019
1907 Haze 29 1007 74 10000 7.7 190 09:49 27.12.2019
1908 Haze 31 1007 70 10000 7.7 190 09:22 27.12.2019
1909 Haze 31 1007 70 10000 7.7 190 08:59 27.12.2019
1910 Haze 31 1007 70 10000 7.7 190 08:38 27.12.2019
1911 Haze 32 1006 66 10000 7.7 190 07:57 27.12.2019
1912 Haze 32 1006 66 10000 7.7 190 07:38 27.12.2019
1913 Haze 33 1006 59 10000 10.3 180 06:39 27.12.2019
1914 Haze 33 1006 52 10000 10.3 220 06:18 27.12.2019
1915 Haze 33 1008 59 10000 7.7 220 04:20 27.12.2019
1916 Haze 32 1009 59 10000 4.1 300 02:25 27.12.2019
1917 Haze 32 1009 59 10000 4.1 300 01:42 27.12.2019
1918 Haze 31 1010 70 10000 4.1 360 01:20 27.12.2019
1919 Haze 31 1010 70 10000 4.1 360 00:46 27.12.2019
1920 Haze 28 1010 83 10000 4.1 360 00:24 27.12.2019
1921 Haze 28 1010 83 10000 4.1 360 00:24 27.12.2019
1922 Haze 28 1010 83 10000 4.1 360 23:42 26.12.2019
1923 Haze 26 1009 94 10000 4.1 320 23:23 26.12.2019
1924 Haze 26 1009 94 10000 4.1 320 22:57 26.12.2019
1925 Haze 26 1009 94 10000 4.1 320 22:37 26.12.2019
1926 Haze 25 1009 94 10000 1.02 23 22:18 26.12.2019
1927 Haze 25 1009 94 10000 1.02 23 21:39 26.12.2019
1928 Haze 25 1009 94 10000 1.02 23 21:39 26.12.2019
1929 Clouds 25 1008 94 10000 1.02 23 21:21 26.12.2019
1930 Clouds 25 1008 94 10000 1.02 23 21:21 26.12.2019
1931 Clouds 25 1008 94 10000 1.02 23 20:47 26.12.2019
1932 Clouds 27 1010 77 0 1.15 29 20:23 26.12.2019
1933 Clouds 27 1009 79 0 0.42 144 19:59 26.12.2019
1934 Clouds 27 1009 79 0 0.42 144 19:40 26.12.2019
1935 Clouds 27 1009 79 0 0.42 144 19:22 26.12.2019
1936 Clouds 27 1009 79 0 0.42 144 18:58 26.12.2019
1937 Clouds 27 1009 79 0 0.42 144 18:40 26.12.2019
1938 Clouds 27 1009 79 0 0.42 144 18:19 26.12.2019
1939 Clouds 27 1009 79 0 0.42 144 17:57 26.12.2019
1940 Clouds 27 1009 79 0 0.42 144 17:38 26.12.2019
1941 Clouds 27 1009 79 0 0.42 144 17:38 26.12.2019
1942 Clouds 27 1009 77 0 1.56 52 17:18 26.12.2019
1943 Clouds 27 1009 77 0 1.56 52 16:43 26.12.2019
1944 Clouds 27 1009 77 0 1.56 52 16:23 26.12.2019
1945 Clouds 27 1009 77 0 1.56 52 15:56 26.12.2019
1946 Clouds 27 1009 77 0 1.56 52 15:37 26.12.2019
1947 Clouds 27 1009 77 0 1.56 52 15:18 26.12.2019
1948 Clouds 27 1009 77 0 1.56 52 14:40 26.12.2019
1949 Clouds 28 1010 70 0 1.05 159 14:21 26.12.2019
1950 Clouds 28 1010 70 0 1.05 159 13:43 26.12.2019
1951 Clouds 28 1010 75 0 2.23 171 13:21 26.12.2019
1952 Clouds 28 1010 75 0 2.23 171 12:58 26.12.2019
1953 Clouds 28 1010 75 0 2.23 171 12:58 26.12.2019
1954 Clouds 28 1010 75 0 2.23 171 12:39 26.12.2019
1955 Clouds 28 1010 75 0 2.23 171 12:20 26.12.2019
1956 Clouds 28 1010 75 0 2.23 171 11:57 26.12.2019
1957 Clouds 28 1010 75 0 2.23 171 11:38 26.12.2019
1958 Clouds 28 1008 74 0 1.85 191 11:20 26.12.2019
1959 Clouds 28 1008 74 0 1.85 191 10:47 26.12.2019
1960 Haze 29 1007 79 10000 5.1 200 10:19 26.12.2019
1961 Haze 29 1007 79 10000 5.1 200 09:50 26.12.2019
1962 Haze 30 1007 74 10000 7.7 200 09:31 26.12.2019
1963 Haze 30 1007 74 10000 7.7 200 08:43 26.12.2019
1964 Haze 31 1006 70 10000 7.7 180 08:24 26.12.2019
1965 Haze 31 1006 70 10000 7.7 180 07:53 26.12.2019
1966 Haze 32 1007 66 10000 9.3 190 07:28 26.12.2019
1967 Haze 32 1007 66 10000 9.3 190 06:53 26.12.2019
1968 Haze 32 1007 66 10000 9.3 200 06:32 26.12.2019
1969 Haze 32 1007 66 10000 9.3 200 05:45 26.12.2019
1970 Haze 33 1008 63 10000 11.3 210 04:57 26.12.2019
1971 Haze 34 1008 59 10000 8.2 210 04:30 26.12.2019
1972 Haze 33 1009 63 10000 7.7 220 02:58 26.12.2019
1973 Haze 33 1009 63 10000 7.7 220 02:34 26.12.2019
1974 Haze 32 1010 66 10000 5.7 350 01:50 26.12.2019
1975 Haze 31 1010 74 10000 3.6 330 01:32 26.12.2019
1976 Haze 31 1010 74 10000 3.6 330 00:50 26.12.2019
1977 Smoke 29 1010 83 10000 3.6 330 00:27 26.12.2019
1978 Smoke 29 1010 83 10000 3.6 330 23:58 25.12.2019
1979 Smoke 29 1010 83 10000 3.6 330 23:39 25.12.2019
1980 Smoke 26 1010 94 10000 2.6 340 23:21 25.12.2019
1981 Smoke 26 1010 94 10000 2.6 340 22:59 25.12.2019
1982 Smoke 26 1010 94 10000 2.6 340 22:39 25.12.2019
1983 Clouds 25 1009 100 10000 1.5 0 22:21 25.12.2019
1984 Clouds 25 1009 100 10000 1.5 0 21:58 25.12.2019
1985 Clouds 25 1009 100 10000 1.5 0 21:39 25.12.2019
1986 Clear 27 1010 83 0 3.89 90 21:20 25.12.2019
1987 Clear 27 1010 83 0 3.89 90 20:56 25.12.2019
1988 Clear 27 1010 83 0 3.89 90 20:38 25.12.2019
1989 Clouds 25 1007 100 10000 2.1 0 20:18 25.12.2019
1990 Clouds 25 1007 100 10000 2.1 0 20:18 25.12.2019
1991 Clouds 25 1007 100 10000 2.1 0 20:18 25.12.2019
1992 Clouds 25 1007 100 10000 2.1 0 19:43 25.12.2019
1993 Clouds 27 1008 83 0 3.69 144 19:24 25.12.2019
1994 Clouds 27 1008 83 0 3.69 144 18:58 25.12.2019
1995 Clouds 27 1008 83 0 3.69 144 18:36 25.12.2019
1996 Clouds 25 1007 100 10000 1.5 280 18:18 25.12.2019
1997 Clouds 25 1007 100 10000 1.5 280 17:41 25.12.2019
1998 Clouds 26 1007 94 10000 2.6 320 17:19 25.12.2019
1999 Clouds 26 1007 94 10000 2.6 320 16:57 25.12.2019
2000 Clouds 26 1007 94 10000 2.6 320 16:37 25.12.2019
2001 Haze 26 1008 100 10000 3.1 0 16:18 25.12.2019
2002 Haze 26 1008 100 10000 3.1 0 15:56 25.12.2019
2003 Haze 26 1008 100 10000 3.1 0 15:38 25.12.2019
2004 Haze 26 1008 100 10000 3.1 0 15:38 25.12.2019
2005 Haze 26 1008 100 10000 3.1 0 15:38 25.12.2019
2006 Clouds 28 1008 80 0 2 106 15:19 25.12.2019
2007 Clouds 28 1008 80 0 2 106 15:19 25.12.2019
2008 Clouds 28 1008 80 0 2 106 14:56 25.12.2019
2009 Clouds 28 1008 80 0 2 106 14:37 25.12.2019
2010 Haze 27 1009 94 10000 2.1 120 14:19 25.12.2019
2011 Haze 27 1009 94 10000 2.1 120 13:42 25.12.2019
2012 Haze 28 1009 88 10000 2.1 160 13:21 25.12.2019
2013 Haze 28 1009 88 10000 2.1 160 12:55 25.12.2019
2014 Haze 28 1009 88 10000 2.1 160 12:36 25.12.2019
2015 Haze 28 1008 88 10000 4.6 170 12:18 25.12.2019
2016 Haze 28 1008 88 10000 4.6 170 11:42 25.12.2019
2017 Clouds 28 1008 81 0 5.87 151 11:22 25.12.2019
2018 Clouds 28 1008 81 0 5.87 151 10:41 25.12.2019
2019 Haze 29 1007 79 10000 7.7 160 10:22 25.12.2019
2020 Haze 29 1007 79 10000 7.7 160 09:59 25.12.2019
2021 Haze 29 1007 79 10000 7.7 160 09:41 25.12.2019
2022 Haze 30 1006 74 10000 7.7 160 09:23 25.12.2019
2023 Haze 30 1006 74 10000 7.7 160 08:44 25.12.2019
2024 Haze 32 1005 70 10000 10.3 140 08:24 25.12.2019
2025 Haze 32 1005 70 10000 10.3 140 07:44 25.12.2019
2026 Haze 32 1006 66 10000 10.3 150 07:23 25.12.2019
2027 Haze 32 1006 70 10000 7.7 200 06:24 25.12.2019
2028 Haze 32 1006 70 10000 7.7 200 05:51 25.12.2019
2029 Haze 32 1007 70 10000 7.7 210 04:46 25.12.2019
2030 Haze 32 1007 70 10000 7.7 210 04:24 25.12.2019
2031 Haze 32 1007 70 10000 7.7 210 03:44 25.12.2019
2032 Haze 32 1007 70 10000 7.7 210 03:44 25.12.2019
2033 Haze 32 1008 75 10000 4.6 250 03:18 25.12.2019
2034 Haze 30 1009 79 10000 5.1 220 02:30 25.12.2019
2035 Haze 30 1009 79 10000 5.1 220 01:53 25.12.2019
2036 Haze 31 1010 74 10000 5.1 310 01:22 25.12.2019
2037 Haze 31 1010 74 10000 5.1 310 00:42 25.12.2019
2038 Haze 30 1010 79 10000 4.1 300 00:23 25.12.2019
2039 Haze 30 1010 79 10000 4.1 300 23:40 24.12.2019
2040 Haze 27 1010 94 10000 1.5 0 23:20 24.12.2019
2041 Haze 27 1010 94 10000 1.5 0 22:42 24.12.2019
2042 Haze 25 1009 100 10000 1.5 0 22:24 24.12.2019
2043 Haze 25 1009 100 10000 1.5 0 21:59 24.12.2019
2044 Haze 25 1009 100 10000 1.5 0 21:41 24.12.2019
2045 Haze 25 1009 100 10000 1.5 0 21:41 24.12.2019
2046 Clouds 26 1008 94 10000 2.6 320 21:20 24.12.2019
2047 Clouds 26 1008 94 10000 2.6 320 20:42 24.12.2019
2048 Clouds 25 1008 100 10000 2.6 320 20:23 24.12.2019
2049 Clouds 25 1008 100 10000 2.6 320 19:55 24.12.2019
2050 Clouds 25 1008 100 10000 2.6 320 19:37 24.12.2019
2051 Clouds 25 1008 100 10000 2.6 320 19:18 24.12.2019
2052 Clouds 25 1008 100 10000 2.6 320 19:18 24.12.2019
2053 Clouds 25 1008 100 10000 2.6 320 18:42 24.12.2019
2054 Clouds 26 1008 94 10000 5.1 320 18:18 24.12.2019
2055 Clouds 26 1008 94 10000 5.1 320 17:44 24.12.2019
2056 Clouds 27 1009 88 10000 1 0 17:22 24.12.2019
2057 Clouds 27 1009 88 10000 1 0 16:58 24.12.2019
2058 Clouds 27 1009 88 10000 1 0 16:39 24.12.2019
2059 Clouds 27 1009 88 10000 2.6 190 16:21 24.12.2019
2060 Clouds 27 1009 88 10000 2.6 190 15:57 24.12.2019
2061 Clouds 27 1009 88 10000 2.6 190 15:37 24.12.2019
2062 Clouds 27 1009 88 10000 5.1 140 15:19 24.12.2019
2063 Clouds 27 1009 88 10000 5.1 140 14:58 24.12.2019
2064 Clouds 27 1009 88 10000 5.1 140 14:39 24.12.2019
2065 Clouds 28 1009 83 10000 6.2 160 14:21 24.12.2019
2066 Clouds 28 1009 83 10000 6.2 160 14:21 24.12.2019
2067 Clouds 28 1009 83 10000 6.2 160 13:56 24.12.2019
2068 Clouds 28 1009 83 10000 6.2 160 13:37 24.12.2019
2069 Clouds 28 1009 83 10000 6.2 160 13:37 24.12.2019
2070 Clouds 28 1009 88 10000 7.7 160 13:19 24.12.2019
2071 Clouds 28 1009 88 10000 7.7 160 13:19 24.12.2019
2072 Clouds 28 1009 88 10000 7.7 160 12:56 24.12.2019
2073 Clouds 28 1009 88 10000 7.7 160 12:56 24.12.2019
2074 Clouds 28 1009 88 10000 7.7 160 12:37 24.12.2019
2075 Clouds 28 1009 88 10000 7.7 150 12:19 24.12.2019
2076 Clouds 28 1009 88 10000 7.7 150 11:55 24.12.2019
2077 Clouds 28 1009 88 10000 7.7 150 11:37 24.12.2019
2078 Clouds 28 1008 88 10000 10.3 160 11:18 24.12.2019
2079 Clouds 28 1008 88 10000 10.3 160 10:56 24.12.2019
2080 Clouds 28 1008 88 10000 10.3 160 10:37 24.12.2019
2081 Clouds 28 1008 88 10000 10.3 160 10:37 24.12.2019
2082 Clouds 28 1008 83 10000 5.1 170 10:19 24.12.2019
2083 Clouds 28 1008 83 10000 5.1 170 09:55 24.12.2019
2084 Clouds 28 1008 83 10000 5.1 170 09:37 24.12.2019
2085 Haze 30 1007 74 10000 5.1 150 09:18 24.12.2019
2086 Haze 30 1007 74 10000 5.1 150 08:44 24.12.2019
2087 Haze 31 1006 70 10000 10.8 170 08:20 24.12.2019
2088 Haze 31 1006 70 10000 10.8 170 07:46 24.12.2019
2089 Haze 33 1006 59 10000 5.1 150 07:25 24.12.2019
2090 Haze 33 1006 59 10000 5.1 150 06:58 24.12.2019
2091 Haze 33 1006 59 10000 5.1 150 06:38 24.12.2019
2092 Haze 32 1007 66 10000 5.1 160 06:18 24.12.2019
2093 Haze 33 1008 63 10000 2.6 150 05:20 24.12.2019
2094 Haze 33 1008 63 10000 2.6 150 04:44 24.12.2019
2095 Haze 33 1008 63 10000 7.7 170 03:50 24.12.2019
2096 Haze 33 1008 63 10000 6.7 210 02:59 24.12.2019
2097 Haze 32 1009 62 10000 4.1 200 02:21 24.12.2019
2098 Haze 32 1009 62 10000 4.1 200 01:50 24.12.2019
2099 Haze 30 1009 66 10000 4.1 320 01:20 24.12.2019
2100 Haze 30 1009 66 10000 4.1 320 00:43 24.12.2019
2101 Haze 27 1009 78 10000 2.6 350 00:23 24.12.2019
2102 Haze 27 1009 78 10000 2.6 350 23:55 23.12.2019
2103 Haze 27 1009 78 10000 2.6 350 23:37 23.12.2019
2104 Clouds 25 1009 94 10000 5.1 310 23:19 23.12.2019
2105 Clouds 25 1009 94 10000 5.1 310 22:54 23.12.2019
2106 Clouds 25 1009 94 10000 5.1 310 22:36 23.12.2019
2107 Clouds 25 1008 94 10000 5.1 330 22:18 23.12.2019
2108 Clouds 25 1008 94 10000 5.1 330 22:18 23.12.2019
2109 Clouds 25 1008 94 10000 5.1 330 21:54 23.12.2019
2110 Clouds 25 1008 94 10000 5.1 330 21:36 23.12.2019
2111 Clouds 27 1009 78 0 5 119 21:18 23.12.2019
2112 Clouds 27 1009 78 0 5 119 21:18 23.12.2019
2113 Clouds 27 1009 78 0 5 119 20:55 23.12.2019
2114 Clouds 27 1009 78 0 5 119 20:37 23.12.2019
2115 Clouds 27 1009 80 0 5.55 123 20:18 23.12.2019
2116 Clouds 27 1009 80 0 5.55 123 20:18 23.12.2019
2117 Rain 27 1009 79 0 4.17 117 19:54 23.12.2019
2118 Rain 27 1009 79 0 4.17 117 19:36 23.12.2019
2119 Rain 27 1009 79 0 4.17 117 19:18 23.12.2019
2120 Rain 27 1009 79 0 4.17 117 18:54 23.12.2019
2121 Rain 27 1009 79 0 4.17 117 18:36 23.12.2019
2122 Rain 27 1009 79 0 4.17 117 18:18 23.12.2019
2123 Rain 27 1009 79 0 4.17 117 17:41 23.12.2019
2124 Clear 28 1009 81 0 6.27 127 17:20 23.12.2019
2125 Clear 28 1009 81 0 6.27 127 16:59 23.12.2019
2126 Clear 28 1009 81 0 6.27 127 16:40 23.12.2019
2127 Clear 28 1009 81 0 6.27 127 16:19 23.12.2019
2128 Clear 28 1009 81 0 6.27 127 15:58 23.12.2019
2129 Clear 28 1009 81 0 6.27 127 15:37 23.12.2019
2130 Clear 28 1009 81 0 6.27 127 15:19 23.12.2019
2131 Clear 28 1009 81 0 6.27 127 14:57 23.12.2019
2132 Clear 28 1009 81 0 6.27 127 14:39 23.12.2019
2133 Clear 28 1009 81 0 6.27 127 14:39 23.12.2019
2134 Rain 28 1011 80 0 8.68 134 14:19 23.12.2019
2135 Rain 28 1011 80 0 8.68 134 14:19 23.12.2019
2136 Rain 28 1011 80 0 8.68 134 13:57 23.12.2019
2137 Rain 28 1011 80 0 8.68 134 13:39 23.12.2019
2138 Rain 28 1011 80 0 8.68 134 13:39 23.12.2019
2139 Clear 28 1011 80 0 8.68 134 13:20 23.12.2019
2140 Clear 28 1011 80 0 8.68 134 13:20 23.12.2019
2141 Clear 28 1011 80 0 8.68 134 12:55 23.12.2019
2142 Clear 28 1011 80 0 8.68 134 12:36 23.12.2019
2143 Clear 28 1011 80 0 8.68 134 12:18 23.12.2019
2144 Clear 28 1011 80 0 8.68 134 12:18 23.12.2019
2145 Clear 28 1011 80 0 8.68 134 11:42 23.12.2019
2146 Clear 28 1011 80 0 8.68 134 11:42 23.12.2019
2147 Clear 28 1011 80 0 8.68 134 11:42 23.12.2019
2148 Clear 28 1011 80 0 8.68 134 11:24 23.12.2019
2149 Clear 28 1009 81 0 9.45 145 10:56 23.12.2019
2150 Clear 28 1009 81 0 9.45 145 10:38 23.12.2019
2151 Haze 29 1007 79 10000 10.3 160 10:20 23.12.2019
2152 Haze 29 1007 79 10000 10.3 160 09:58 23.12.2019
2153 Haze 29 1007 79 10000 10.3 160 09:39 23.12.2019
2154 Haze 29 1007 79 10000 10.3 160 09:39 23.12.2019
2155 Haze 29 1006 74 10000 12.9 140 09:19 23.12.2019
2156 Haze 29 1006 74 10000 12.9 140 08:55 23.12.2019
2157 Haze 29 1006 74 10000 12.9 140 08:37 23.12.2019
2158 Haze 30 1006 70 10000 14.4 150 08:18 23.12.2019
2159 Haze 30 1006 70 10000 14.4 150 07:42 23.12.2019
2160 Clear 28 1006 81 0 9.2 149 07:19 23.12.2019
2161 Clear 28 1006 81 0 9.2 149 06:43 23.12.2019
2162 Haze 33 1007 63 10000 11.3 170 06:22 23.12.2019
2163 Haze 33 1007 63 10000 11.3 170 05:46 23.12.2019
2164 Haze 33 1008 59 10000 9.3 150 04:55 23.12.2019
2165 Haze 32 1008 66 10000 7.7 160 03:59 23.12.2019
2166 Clouds 32 1009 66 10000 7.7 180 02:48 23.12.2019
2167 Clouds 32 1009 62 10000 5.7 160 02:20 23.12.2019
2168 Clouds 32 1009 62 10000 5.7 160 01:51 23.12.2019
2169 Clouds 30 1009 66 10000 1.5 0 01:32 23.12.2019
2170 Clouds 30 1009 66 10000 1.5 0 00:49 23.12.2019
2171 Clouds 28 1010 76 0 5.67 138 00:30 23.12.2019
2172 Clouds 28 1010 76 0 5.67 138 23:57 22.12.2019
2173 Clouds 28 1010 76 0 5.67 138 23:57 22.12.2019
2174 Clouds 28 1010 76 0 5.67 138 23:37 22.12.2019
2175 Clouds 27 1009 78 0 5.51 118 23:19 22.12.2019
2176 Clouds 27 1009 78 0 5.51 118 22:55 22.12.2019
2177 Clouds 27 1009 78 0 5.51 118 22:37 22.12.2019
2178 Clouds 27 1009 78 0 5.51 118 22:18 22.12.2019
2179 Clouds 27 1009 78 0 5.51 118 21:54 22.12.2019
2180 Clouds 27 1009 78 0 5.51 118 21:36 22.12.2019
2181 Clouds 24 1007 94 10000 1.5 0 21:18 22.12.2019
2182 Clouds 24 1007 94 10000 1.5 0 20:40 22.12.2019
2183 Clouds 27 1008 81 0 7.27 124 20:19 22.12.2019
2184 Clouds 27 1008 81 0 7.27 124 19:57 22.12.2019
2185 Clouds 27 1008 81 0 7.27 124 19:39 22.12.2019
2186 Clouds 24 1007 94 10000 2.6 350 19:20 22.12.2019
2187 Clouds 24 1007 94 10000 2.6 350 18:44 22.12.2019
2188 Clouds 27 1008 81 0 7.27 124 18:25 22.12.2019
2189 Clouds 27 1008 81 0 7.27 124 17:58 22.12.2019
2190 Clouds 27 1008 81 0 7.27 124 17:39 22.12.2019
2191 Clouds 28 1008 80 0 7.38 127 17:19 22.12.2019
2192 Clouds 28 1008 80 0 7.38 127 16:59 22.12.2019
2193 Clouds 28 1008 80 0 7.38 127 16:41 22.12.2019
2194 Clouds 26 1008 88 10000 1.5 0 16:22 22.12.2019
2195 Clouds 26 1008 88 10000 1.5 0 16:22 22.12.2019
2196 Clouds 26 1008 88 10000 1.5 0 15:57 22.12.2019
2197 Clouds 26 1008 88 10000 1.5 0 15:39 22.12.2019
2198 Clouds 26 1008 88 10000 1.5 0 15:39 22.12.2019
2199 Clouds 27 1009 83 10000 1.5 0 15:20 22.12.2019
2200 Clouds 28 1008 80 0 7.38 127 14:56 22.12.2019
2201 Clouds 28 1008 80 0 7.38 127 14:38 22.12.2019
2202 Clouds 28 1009 83 10000 6.2 160 14:19 22.12.2019
2203 Clouds 28 1009 83 10000 6.2 160 13:55 22.12.2019
2204 Clouds 28 1009 83 10000 6.2 160 13:37 22.12.2019
2205 Clouds 28 1009 83 10000 4.1 140 13:19 22.12.2019
2206 Clouds 28 1009 83 10000 4.1 140 13:19 22.12.2019
2207 Clouds 28 1009 83 10000 4.1 140 13:19 22.12.2019
2208 Clouds 28 1009 83 10000 4.1 140 12:56 22.12.2019
2209 Clouds 28 1009 83 10000 4.1 140 12:38 22.12.2019
2210 Clouds 28 1009 88 10000 2.6 100 12:19 22.12.2019
2211 Clouds 28 1010 80 0 8.25 130 11:56 22.12.2019
2212 Clouds 28 1010 80 0 8.25 130 11:56 22.12.2019
2213 Clouds 28 1010 80 0 8.25 130 11:38 22.12.2019
2214 Clouds 28 1008 83 10000 7.7 150 11:19 22.12.2019
2215 Clouds 28 1008 83 10000 7.7 150 10:55 22.12.2019
2216 Clouds 28 1008 83 10000 7.7 150 10:37 22.12.2019
2217 Clouds 28 1008 83 10000 7.7 150 10:18 22.12.2019
2218 Clouds 28 1008 79 0 7.9 138 09:57 22.12.2019
2219 Clouds 28 1008 79 0 7.9 138 09:38 22.12.2019
2220 Haze 30 1007 70 10000 10.3 180 09:20 22.12.2019
2221 Haze 30 1007 70 10000 10.3 180 08:42 22.12.2019
2222 Clouds 28 1006 79 0 6.16 153 08:21 22.12.2019
2223 Clouds 28 1006 79 0 6.16 153 07:40 22.12.2019
2224 Haze 32 1006 62 10000 10.3 190 07:21 22.12.2019
2225 Haze 32 1006 62 10000 10.3 190 06:42 22.12.2019
2226 Clouds 28 1006 79 0 6.16 153 06:21 22.12.2019
2227 Clouds 32 1007 62 10000 9.3 210 05:29 22.12.2019
2228 Clouds 33 1008 59 10000 7.7 210 04:31 22.12.2019
2229 Clouds 33 1008 59 10000 7.7 210 03:58 22.12.2019
2230 Clouds 32 1008 66 10000 7.7 200 02:43 22.12.2019
2231 Clouds 32 1008 66 10000 7.7 200 02:43 22.12.2019
2232 Haze 32 1009 55 10000 3.6 180 01:54 22.12.2019
2233 Haze 31 1009 62 10000 3.6 280 01:31 22.12.2019
2234 Haze 31 1009 62 10000 3.6 280 00:48 22.12.2019
2235 Clouds 28 1009 78 10000 1.5 0 00:26 22.12.2019
2236 Clouds 28 1009 78 10000 1.5 0 23:57 21.12.2019
2237 Clouds 28 1009 78 10000 1.5 0 23:38 21.12.2019
2238 Clouds 26 1009 88 10000 1 300 23:19 21.12.2019
2239 Clouds 26 1009 88 10000 1 300 22:45 21.12.2019
2240 Clouds 24 1008 94 10000 1 0 22:20 21.12.2019
2241 Clouds 24 1008 94 10000 1 0 21:57 21.12.2019
2242 Clouds 24 1008 94 10000 1 0 21:38 21.12.2019
2243 Rain 27 1010 79 0 4.05 107 21:20 21.12.2019
2244 Rain 27 1010 79 0 4.05 107 20:59 21.12.2019
2245 Rain 27 1010 79 0 4.05 107 20:39 21.12.2019
2246 Rain 27 1008 81 0 5.82 116 20:21 21.12.2019
2247 Rain 27 1008 81 0 5.82 116 19:58 21.12.2019
2248 Rain 27 1008 81 0 5.82 116 19:40 21.12.2019
2249 Rain 27 1008 81 0 5.82 116 19:40 21.12.2019
2250 Rain 27 1008 81 0 5.82 116 19:19 21.12.2019
2251 Rain 27 1008 81 0 5.82 116 18:45 21.12.2019
2252 Rain 27 1008 81 0 5.82 116 18:24 21.12.2019
2253 Rain 27 1008 81 0 5.82 116 17:58 21.12.2019
2254 Rain 27 1008 81 0 5.82 116 17:39 21.12.2019
2255 Rain 27 1009 79 0 5.81 108 17:21 21.12.2019
2256 Rain 27 1009 79 0 5.81 108 16:59 21.12.2019
2257 Rain 27 1009 79 0 5.81 108 16:41 21.12.2019
2258 Clouds 25 1009 88 10000 1.5 0 16:19 21.12.2019
2259 Clouds 25 1009 88 10000 1.5 0 15:57 21.12.2019
2260 Clouds 25 1009 88 10000 1.5 0 15:38 21.12.2019
2261 Clouds 26 1009 88 10000 2.6 150 15:19 21.12.2019
2262 Clouds 26 1009 88 10000 2.6 150 15:19 21.12.2019
2263 Clouds 26 1009 88 10000 2.6 150 14:56 21.12.2019
2264 Clouds 26 1009 88 10000 2.6 150 14:37 21.12.2019
2265 Haze 27 1009 88 10000 2.6 150 14:18 21.12.2019
2266 Haze 27 1009 88 10000 2.6 150 13:55 21.12.2019
2267 Haze 27 1009 88 10000 2.6 150 13:37 21.12.2019
2268 Haze 27 1009 94 10000 5.1 180 13:18 21.12.2019
2269 Haze 27 1009 94 10000 5.1 180 12:54 21.12.2019
2270 Haze 27 1009 94 10000 5.1 180 12:36 21.12.2019
2271 Haze 28 1009 83 10000 5.1 180 12:18 21.12.2019
2272 Haze 28 1009 83 10000 5.1 180 11:41 21.12.2019
2273 Haze 28 1008 83 10000 5.1 180 11:23 21.12.2019
2274 Haze 28 1008 83 10000 5.1 180 10:54 21.12.2019
2275 Haze 28 1008 83 10000 5.1 180 10:36 21.12.2019
2276 Haze 29 1008 79 10000 7.7 170 10:18 21.12.2019
2277 Haze 29 1008 79 10000 7.7 170 09:42 21.12.2019
2278 Clouds 31 1007 70 10000 9.3 170 09:20 21.12.2019
2279 Clouds 31 1007 70 10000 9.3 170 08:56 21.12.2019
2280 Clouds 31 1007 70 10000 9.3 170 08:37 21.12.2019
2281 Clear 28 1006 77 0 5.97 162 08:18 21.12.2019
2282 Clear 28 1006 77 0 5.97 162 07:41 21.12.2019
2283 Clouds 31 1006 70 10000 9.3 170 07:21 21.12.2019
2284 Clouds 31 1006 70 10000 9.3 170 06:43 21.12.2019
2285 Clouds 32 1007 62 10000 7.7 180 06:25 21.12.2019
2286 Clouds 32 1007 62 10000 7.7 180 05:47 21.12.2019
2287 Clouds 33 1007 63 10000 7.7 200 04:57 21.12.2019
2288 Smoke 33 1008 63 10000 5.1 200 03:56 21.12.2019
2289 Smoke 32 1009 62 10000 4.6 200 02:40 21.12.2019
2290 Smoke 31 1009 62 10000 2.1 0 01:53 21.12.2019
2291 Smoke 30 1009 70 10000 2.1 0 01:27 21.12.2019
2292 Smoke 30 1009 70 10000 2.1 0 00:50 21.12.2019
2293 Smoke 28 1009 74 10000 2.1 0 00:28 21.12.2019
2294 Smoke 28 1009 74 10000 2.1 0 23:55 20.12.2019
2295 Smoke 28 1009 74 10000 2.1 0 23:36 20.12.2019
2296 Smoke 24 1009 94 10000 2.6 320 23:18 20.12.2019
2297 Smoke 24 1009 94 10000 2.6 320 22:40 20.12.2019
2298 Smoke 23 1008 100 10000 2.6 340 22:20 20.12.2019
2299 Smoke 23 1008 100 10000 2.6 340 21:56 20.12.2019
2300 Smoke 23 1008 100 10000 2.6 340 21:38 20.12.2019
2301 Haze 23 1008 100 10000 2.6 310 21:18 20.12.2019
2302 Haze 23 1008 100 10000 2.6 310 20:39 20.12.2019
2303 Haze 23 1008 100 10000 2.6 310 20:39 20.12.2019
2304 Haze 23 1007 94 10000 2.6 330 20:19 20.12.2019
2305 Haze 23 1007 94 10000 2.6 330 19:57 20.12.2019
2306 Haze 23 1007 94 10000 2.6 330 19:38 20.12.2019
2307 Haze 23 1007 94 10000 1.5 330 19:19 20.12.2019
2308 Haze 23 1007 94 10000 1.5 330 18:42 20.12.2019
2309 Haze 23 1007 100 10000 1.5 0 18:23 20.12.2019
2310 Haze 23 1007 100 10000 1.5 0 17:58 20.12.2019
2311 Haze 23 1007 100 10000 1.5 0 17:40 20.12.2019
2312 Haze 25 1007 88 10000 2.6 140 17:20 20.12.2019
2313 Haze 25 1007 88 10000 2.6 140 16:57 20.12.2019
2314 Haze 25 1007 88 10000 2.6 140 16:38 20.12.2019
2315 Clouds 27 1008 76 0 7.7 128 16:19 20.12.2019
2316 Clouds 27 1008 76 0 7.7 128 15:55 20.12.2019
2317 Clouds 27 1008 76 0 7.7 128 15:37 20.12.2019
2318 Clouds 26 1008 83 10000 2.6 130 15:18 20.12.2019
2319 Clouds 26 1008 83 10000 2.6 130 14:42 20.12.2019
2320 Clouds 26 1009 88 10000 7.7 150 14:24 20.12.2019
2321 Clouds 26 1009 88 10000 7.7 150 13:57 20.12.2019
2322 Clouds 26 1009 88 10000 7.7 150 13:37 20.12.2019
2323 Clouds 27 1008 83 10000 7.7 150 13:19 20.12.2019
2324 Clouds 27 1008 83 10000 7.7 150 12:55 20.12.2019
2325 Clouds 27 1008 83 10000 7.7 150 12:36 20.12.2019
2326 Clouds 27 1008 83 10000 7.7 150 12:18 20.12.2019
2327 Clouds 27 1008 83 10000 7.7 150 11:57 20.12.2019
2328 Clouds 27 1008 83 10000 7.7 150 11:38 20.12.2019
2329 Clouds 28 1008 77 0 8.6 145 11:18 20.12.2019
2330 Clouds 28 1008 77 0 8.6 145 10:55 20.12.2019
2331 Clouds 28 1008 77 0 8.6 145 10:37 20.12.2019
2332 Clouds 28 1006 78 10000 10.3 150 10:19 20.12.2019
2333 Clouds 28 1006 78 10000 10.3 150 09:42 20.12.2019
2334 Haze 30 1006 70 10000 10.3 150 09:21 20.12.2019
2335 Haze 30 1006 70 10000 10.3 150 08:54 20.12.2019
2336 Haze 30 1006 70 10000 10.3 150 08:54 20.12.2019
2337 Haze 30 1006 70 10000 10.3 150 08:36 20.12.2019
2338 Haze 31 1005 66 10000 10.3 160 08:18 20.12.2019
2339 Haze 31 1005 66 10000 10.3 160 07:42 20.12.2019
2340 Haze 32 1005 55 10000 10.3 160 07:23 20.12.2019
2341 Haze 32 1005 55 10000 10.3 160 06:55 20.12.2019
2342 Haze 32 1005 55 10000 10.3 160 06:36 20.12.2019
2343 Smoke 32 1006 59 10000 10.3 140 06:18 20.12.2019
2344 Smoke 32 1006 59 10000 10.3 140 05:45 20.12.2019
2345 Clouds 28 1008 74 0 5.25 174 04:57 20.12.2019
2346 Smoke 33 1008 52 10000 5.1 140 03:48 20.12.2019
2347 Smoke 33 1008 55 10000 5.1 140 02:45 20.12.2019
2348 Smoke 33 1009 59 10000 3.6 220 01:55 20.12.2019
2349 Smoke 33 1009 59 10000 3.6 220 01:35 20.12.2019
2350 Smoke 30 1010 70 10000 3.6 310 00:53 20.12.2019
2351 Smoke 30 1010 70 10000 3.6 310 00:34 20.12.2019
2352 Smoke 28 1010 78 10000 1.5 0 23:57 19.12.2019
2353 Smoke 28 1010 78 10000 1.5 0 23:39 19.12.2019
2354 Smoke 28 1010 78 10000 1.5 0 23:39 19.12.2019
2355 Smoke 25 1010 88 10000 2.1 0 23:19 19.12.2019
2356 Smoke 25 1010 88 10000 2.1 0 22:38 19.12.2019
2357 Smoke 24 1009 94 10000 1.5 0 22:20 19.12.2019
2358 Smoke 24 1009 94 10000 1.5 0 21:56 19.12.2019
2359 Smoke 24 1009 94 10000 1.5 0 21:56 19.12.2019
2360 Smoke 24 1009 94 10000 1.5 0 21:38 19.12.2019
2361 Clouds 26 1010 79 0 5.26 118 21:19 19.12.2019
2362 Clouds 26 1010 79 0 5.26 118 20:56 19.12.2019
2363 Clouds 26 1010 79 0 5.26 118 20:56 19.12.2019
2364 Clouds 26 1010 79 0 5.26 118 20:37 19.12.2019
2365 Clouds 26 1010 79 0 5.26 118 20:37 19.12.2019
2366 Clouds 26 1008 80 0 7.15 122 20:19 19.12.2019
2367 Clouds 26 1008 80 0 7.15 122 20:18 19.12.2019
2368 Clouds 26 1008 81 0 7.14 125 19:57 19.12.2019
2369 Clouds 26 1008 81 0 7.14 125 19:39 19.12.2019
2370 Clouds 26 1008 81 0 7.14 125 19:19 19.12.2019
2371 Clouds 26 1008 81 0 7.14 125 18:55 19.12.2019
2372 Clouds 26 1008 81 0 7.14 125 18:37 19.12.2019
2373 Clouds 26 1008 81 0 7.14 125 18:18 19.12.2019
2374 Clouds 26 1008 81 0 7.14 125 17:54 19.12.2019
2375 Clouds 26 1008 81 0 7.14 125 17:36 19.12.2019
2376 Clouds 27 1009 81 0 9.32 131 17:18 19.12.2019
2377 Clouds 27 1009 81 0 9.32 131 16:54 19.12.2019
2378 Clouds 27 1009 81 0 9.32 131 16:36 19.12.2019
2379 Clouds 27 1009 81 0 9.32 131 16:18 19.12.2019
2380 Clouds 27 1009 81 0 9.32 131 15:54 19.12.2019
2381 Clouds 27 1009 81 0 9.32 131 15:36 19.12.2019
2382 Clouds 27 1009 78 10000 5.1 120 15:18 19.12.2019
2383 Clouds 27 1009 78 10000 5.1 120 14:41 19.12.2019
2384 Clouds 27 1009 78 10000 7.7 150 14:20 19.12.2019
2385 Clouds 27 1009 78 10000 7.7 150 13:57 19.12.2019
2386 Clouds 27 1009 78 10000 7.7 150 13:38 19.12.2019
2387 Clouds 27 1010 81 0 10.39 136 13:19 19.12.2019
2388 Clouds 27 1010 81 0 10.39 136 12:55 19.12.2019
2389 Clouds 27 1010 81 0 10.39 136 12:37 19.12.2019
2390 Clouds 28 1008 78 10000 7.7 150 12:18 19.12.2019
2391 Clouds 28 1008 78 10000 7.7 150 11:57 19.12.2019
2392 Clouds 28 1008 78 10000 7.7 150 11:39 19.12.2019
2393 Clouds 28 1008 81 0 9.8 146 11:18 19.12.2019
2394 Clouds 28 1008 81 0 9.8 146 10:55 19.12.2019
2395 Clouds 28 1008 81 0 9.8 146 10:36 19.12.2019
2396 Haze 28 1007 74 10000 7.7 150 10:18 19.12.2019
2397 Haze 28 1007 74 10000 7.7 150 10:18 19.12.2019
2398 Haze 28 1007 74 10000 7.7 150 10:18 19.12.2019
2399 Haze 28 1007 74 10000 7.7 150 09:38 19.12.2019
2400 Haze 29 1006 70 10000 7.7 150 09:20 19.12.2019
2401 Haze 29 1006 70 10000 7.7 150 09:20 19.12.2019
2402 Haze 29 1006 70 10000 7.7 150 09:20 19.12.2019
2403 Haze 29 1006 70 10000 7.7 150 09:20 19.12.2019
2404 Haze 29 1006 70 10000 7.7 150 08:58 19.12.2019
2405 Haze 29 1006 70 10000 7.7 150 08:39 19.12.2019
2406 Haze 32 1006 59 10000 7.7 160 08:19 19.12.2019
2407 Haze 32 1006 59 10000 7.7 160 07:56 19.12.2019
2408 Haze 32 1006 59 10000 7.7 160 07:37 19.12.2019
2409 Haze 32 1006 66 10000 7.7 140 07:19 19.12.2019
2410 Haze 32 1006 66 10000 7.7 140 06:46 19.12.2019
2411 Smoke 32 1006 62 10000 5.1 170 06:27 19.12.2019
2412 Smoke 32 1006 62 10000 5.1 170 05:52 19.12.2019
2413 Clouds 28 1006 80 0 8.42 150 05:32 19.12.2019
2414 Smoke 32 1007 62 10000 5.1 170 04:43 19.12.2019
2415 Haze 33 1008 52 10000 5.1 140 02:48 19.12.2019
2416 Smoke 32 1009 55 10000 5.1 160 01:46 19.12.2019
2417 Smoke 31 1009 58 10000 1.5 0 01:21 19.12.2019
2418 Smoke 31 1009 58 10000 1.5 0 00:39 19.12.2019
2419 Smoke 31 1009 58 10000 1.5 0 00:39 19.12.2019
2420 Smoke 31 1009 58 10000 1.5 0 00:39 19.12.2019
2421 Smoke 31 1009 58 10000 1.5 0 00:39 19.12.2019
2422 Smoke 31 1009 58 10000 1.5 0 00:39 19.12.2019
2423 Smoke 29 1008 70 10000 1.5 0 00:20 19.12.2019
2424 Smoke 29 1008 70 10000 1.5 0 23:45 18.12.2019
2425 Smoke 29 1008 70 10000 1.5 0 23:45 18.12.2019
2426 Smoke 25 1008 88 10000 1.5 0 23:19 18.12.2019
2427 Smoke 25 1008 88 10000 1.5 0 22:58 18.12.2019
2428 Smoke 25 1008 88 10000 1.5 0 22:40 18.12.2019
2429 Haze 23 1007 94 10000 1 0 22:22 18.12.2019
2430 Haze 23 1007 94 10000 1 0 21:59 18.12.2019
2431 Haze 23 1007 94 10000 1 0 21:41 18.12.2019
2432 Clouds 23 1007 94 10000 1.5 0 21:21 18.12.2019
2433 Clouds 23 1007 94 10000 1.5 0 20:58 18.12.2019
2434 Clouds 23 1007 94 10000 1.5 0 20:39 18.12.2019
2435 Clouds 24 1007 88 10000 2.6 190 20:20 18.12.2019
2436 Clouds 24 1007 88 10000 2.6 190 19:57 18.12.2019
2437 Clouds 24 1007 88 10000 2.6 190 19:39 18.12.2019
2438 Clouds 26 1007 80 0 6.64 122 19:19 18.12.2019
2439 Clouds 26 1007 80 0 6.64 122 18:56 18.12.2019
2440 Clouds 26 1007 80 0 6.64 122 18:38 18.12.2019
2441 Clouds 26 1007 80 0 6.64 122 18:20 18.12.2019
2442 Clouds 26 1007 80 0 6.64 122 17:55 18.12.2019
2443 Clouds 26 1007 80 0 6.64 122 17:55 18.12.2019
2444 Clouds 26 1007 80 0 6.64 122 17:55 18.12.2019
2445 Clouds 26 1007 80 0 6.64 122 17:37 18.12.2019
2446 Clouds 27 1008 79 0 7.52 127 17:19 18.12.2019
2447 Clouds 27 1008 79 0 7.52 127 16:42 18.12.2019
2448 Clouds 25 1008 83 10000 3.6 140 16:24 18.12.2019
2449 Clouds 25 1008 83 10000 3.6 140 15:59 18.12.2019
2450 Clouds 25 1008 83 10000 3.6 140 15:39 18.12.2019
2451 Clouds 27 1008 78 10000 4.1 120 15:21 18.12.2019
2452 Clouds 27 1008 78 10000 4.1 120 14:57 18.12.2019
2453 Clouds 27 1008 78 10000 4.1 120 14:39 18.12.2019
2454 Clouds 27 1008 78 10000 6.2 150 14:19 18.12.2019
2455 Clouds 27 1008 78 10000 6.2 150 13:55 18.12.2019
2456 Clouds 27 1008 78 10000 6.2 150 13:37 18.12.2019
2457 Haze 28 1008 74 10000 10.3 150 13:19 18.12.2019
2458 Haze 28 1008 74 10000 10.3 150 12:54 18.12.2019
2459 Haze 28 1008 74 10000 10.3 150 12:54 18.12.2019
2460 Haze 28 1008 74 10000 10.3 150 12:36 18.12.2019
2461 Smoke 29 1007 70 10000 10.3 150 12:18 18.12.2019
2462 Smoke 29 1007 70 10000 10.3 150 11:54 18.12.2019
2463 Smoke 29 1007 70 10000 10.3 150 11:36 18.12.2019
2464 Smoke 28 1007 78 10000 9.3 160 11:18 18.12.2019
2465 Smoke 28 1007 78 10000 9.3 160 10:54 18.12.2019
2466 Smoke 28 1007 78 10000 9.3 160 10:54 18.12.2019
2467 Smoke 28 1007 78 10000 9.3 160 10:36 18.12.2019
2468 Smoke 29 1006 74 10000 7.7 150 10:18 18.12.2019
2469 Smoke 30 1006 66 10000 5.1 150 09:21 18.12.2019
2470 Smoke 30 1006 66 10000 5.1 150 08:57 18.12.2019
2471 Smoke 30 1006 66 10000 5.1 150 08:57 18.12.2019
2472 Smoke 30 1006 66 10000 5.1 150 08:57 18.12.2019
2473 Smoke 30 1006 66 10000 5.1 150 08:39 18.12.2019
2474 Smoke 30 1005 70 10000 5.1 140 08:20 18.12.2019
2475 Smoke 30 1005 70 10000 5.1 140 07:42 18.12.2019
2476 Smoke 32 1005 55 10000 8.7 130 07:21 18.12.2019
2477 Smoke 32 1005 55 10000 8.7 130 06:53 18.12.2019
2478 Clouds 34 1006 49 10000 6.2 170 06:26 18.12.2019
2479 Clouds 34 1006 49 10000 6.2 170 05:39 18.12.2019
2480 Clouds 27 1007 75 0 8.01 158 04:35 18.12.2019
2481 Haze 33 1008 49 10000 6.7 160 02:50 18.12.2019
2482 Haze 33 1009 49 10000 5.1 160 02:30 18.12.2019
2483 Haze 33 1009 49 10000 5.1 160 01:47 18.12.2019
2484 Smoke 30 1009 62 10000 1.5 0 01:28 18.12.2019
2485 Smoke 30 1009 62 10000 1.5 0 00:59 18.12.2019
2486 Smoke 30 1009 62 10000 1.5 0 00:39 18.12.2019
2487 Haze 29 1009 66 10000 1.5 0 00:21 18.12.2019
2488 Haze 29 1009 66 10000 1.5 0 23:44 17.12.2019
2489 Clouds 26 1009 83 10000 1.5 0 23:24 17.12.2019
2490 Clouds 26 1009 83 10000 1.5 0 22:57 17.12.2019
2491 Clouds 26 1009 83 10000 1.5 0 22:39 17.12.2019
2492 Clear 26 1010 78 0 6.77 124 22:20 17.12.2019
2493 Clear 26 1010 78 0 6.77 124 21:57 17.12.2019
2494 Clear 26 1010 78 0 6.77 124 21:39 17.12.2019
2495 Clouds 22 1007 100 10000 1.5 0 21:20 17.12.2019
2496 Clouds 22 1007 100 10000 1.5 0 20:59 17.12.2019
2497 Clouds 22 1007 100 10000 1.5 0 20:40 17.12.2019
2498 Clouds 22 1007 100 10000 1.5 0 20:19 17.12.2019
2499 Clouds 22 1007 100 10000 1.5 0 19:59 17.12.2019
2500 Clouds 22 1007 100 10000 1.5 0 19:41 17.12.2019
2501 Clouds 23 1007 94 10000 1.5 0 19:20 17.12.2019
2502 Clouds 23 1007 94 10000 1.5 0 18:57 17.12.2019
2503 Clouds 23 1007 94 10000 1.5 0 18:38 17.12.2019
2504 Clouds 24 1007 88 10000 1.5 0 18:20 17.12.2019
2505 Clouds 24 1007 88 10000 1.5 0 17:55 17.12.2019
2506 Clouds 24 1007 88 10000 1.5 0 17:37 17.12.2019
2507 Clouds 24 1007 88 10000 1.5 0 17:18 17.12.2019
2508 Clouds 24 1007 88 10000 1.5 0 16:55 17.12.2019
2509 Clouds 24 1007 88 10000 1.5 0 16:36 17.12.2019
2510 Clear 27 1008 79 0 7.02 120 16:18 17.12.2019
2511 Clear 27 1008 79 0 7.02 120 16:18 17.12.2019
2512 Clear 27 1008 79 0 7.02 120 16:18 17.12.2019
2513 Clear 27 1008 79 0 7.02 120 15:38 17.12.2019
2514 Clear 27 1008 79 0 7.02 120 15:20 17.12.2019
2515 Clear 27 1008 79 0 7.02 120 14:57 17.12.2019
2516 Clear 27 1008 79 0 7.02 120 14:38 17.12.2019
2517 Rain 27 1010 80 0 8.21 134 14:19 17.12.2019
2518 Rain 27 1010 80 0 8.21 134 13:58 17.12.2019
2519 Rain 27 1010 80 0 8.21 134 13:39 17.12.2019
2520 Rain 27 1010 80 0 8.22 135 13:19 17.12.2019
2521 Rain 27 1010 80 0 8.22 135 12:59 17.12.2019
2522 Rain 27 1010 80 0 8.22 135 12:38 17.12.2019
2523 Rain 27 1010 80 0 8.22 135 12:38 17.12.2019
2524 Rain 27 1010 80 0 8.22 135 12:18 17.12.2019
2525 Rain 27 1010 80 0 8.22 135 12:18 17.12.2019
2526 Rain 27 1010 80 0 8.22 135 11:56 17.12.2019
2527 Rain 27 1010 80 0 8.22 135 11:37 17.12.2019
2528 Clear 27 1008 78 0 6.47 140 11:18 17.12.2019
2529 Clear 27 1008 78 0 6.47 140 10:57 17.12.2019
2530 Clear 27 1008 78 0 6.47 140 10:38 17.12.2019
2531 Haze 29 1007 74 10000 8.2 140 10:19 17.12.2019
2532 Haze 29 1007 74 10000 8.2 140 09:43 17.12.2019
2533 Haze 30 1006 74 10000 5.1 140 09:22 17.12.2019
2534 Haze 30 1006 74 10000 5.1 140 08:59 17.12.2019
2535 Haze 30 1006 74 10000 5.1 140 08:40 17.12.2019
2536 Haze 31 1006 66 10000 5.1 180 08:22 17.12.2019
2537 Haze 31 1006 66 10000 5.1 180 08:22 17.12.2019
2538 Haze 31 1006 66 10000 5.1 180 07:58 17.12.2019
2539 Haze 31 1006 66 10000 5.1 180 07:39 17.12.2019
2540 Haze 32 1006 59 10000 7.7 170 07:21 17.12.2019
2541 Haze 32 1006 59 10000 7.7 170 06:42 17.12.2019
2542 Haze 33 1006 55 10000 2.6 170 06:24 17.12.2019
2543 Haze 33 1006 55 10000 2.6 170 06:24 17.12.2019
2544 Haze 33 1006 55 10000 2.6 170 06:24 17.12.2019
2545 Haze 33 1006 55 10000 2.6 170 05:41 17.12.2019
2546 Haze 32 1007 59 10000 9.3 200 04:53 17.12.2019
2547 Haze 33 1007 59 10000 5.1 220 03:50 17.12.2019
2548 Haze 32 1009 59 10000 2.1 0 02:25 17.12.2019
2549 Haze 32 1009 59 10000 2.1 0 01:21 17.12.2019
2550 Haze 30 1010 66 10000 5.1 360 00:45 17.12.2019
2551 Haze 28 1009 74 10000 3.1 310 00:21 17.12.2019
2552 Haze 28 1009 74 10000 3.1 310 23:43 16.12.2019
2553 Haze 25 1009 88 10000 3.1 310 23:20 16.12.2019
2554 Haze 25 1009 88 10000 3.1 310 22:58 16.12.2019
2555 Haze 25 1009 88 10000 3.1 310 22:38 16.12.2019
2556 Haze 24 1008 94 10000 3.1 310 22:20 16.12.2019
2557 Haze 24 1008 94 10000 3.1 310 21:57 16.12.2019
2558 Haze 24 1008 94 10000 3.1 310 21:57 16.12.2019
2559 Haze 24 1008 94 10000 3.1 310 21:38 16.12.2019
2560 Clouds 24 1008 94 10000 2.6 310 21:20 16.12.2019
2561 Clouds 24 1008 94 10000 2.6 310 20:58 16.12.2019
2562 Clouds 24 1008 94 10000 2.6 310 20:39 16.12.2019
2563 Clouds 23 1007 100 10000 2.6 350 20:19 16.12.2019
2564 Clouds 23 1007 100 10000 2.6 350 19:56 16.12.2019
2565 Clouds 23 1007 100 10000 2.6 350 19:37 16.12.2019
2566 Clouds 26 1008 84 0 4.33 115 19:19 16.12.2019
2567 Clouds 26 1008 84 0 4.33 115 18:58 16.12.2019
2568 Clouds 26 1008 84 0 4.33 115 18:58 16.12.2019
2569 Clouds 26 1008 84 0 4.33 115 18:40 16.12.2019
2570 Clouds 24 1007 94 10000 2.6 300 18:20 16.12.2019
2571 Clouds 24 1007 94 10000 2.6 300 17:57 16.12.2019
2572 Clouds 24 1007 94 10000 2.6 300 17:57 16.12.2019
2573 Clouds 24 1007 94 10000 2.6 300 17:38 16.12.2019
2574 Clouds 27 1009 84 0 5.22 123 17:20 16.12.2019
2575 Clouds 27 1009 84 0 5.22 123 16:57 16.12.2019
2576 Clouds 27 1009 84 0 5.22 123 16:38 16.12.2019
2577 Clouds 27 1009 84 0 5.22 123 16:19 16.12.2019
2578 Clouds 27 1009 84 0 5.22 123 15:57 16.12.2019
2579 Clouds 27 1009 84 0 5.22 123 15:38 16.12.2019
2580 Clouds 27 1009 84 0 5.22 123 15:20 16.12.2019
2581 Clouds 27 1009 84 0 5.22 123 14:55 16.12.2019
2582 Clouds 27 1009 84 0 5.22 123 14:37 16.12.2019
2583 Clouds 27 1008 88 10000 2.6 120 14:18 16.12.2019
2584 Clouds 27 1008 88 10000 2.6 120 14:18 16.12.2019
2585 Clouds 27 1008 88 10000 2.6 120 13:56 16.12.2019
2586 Clouds 27 1008 88 10000 2.6 120 13:37 16.12.2019
2587 Clouds 27 1008 88 10000 2.6 120 13:19 16.12.2019
2588 Clouds 27 1008 88 10000 4.1 140 12:56 16.12.2019
2589 Clouds 27 1008 88 10000 4.1 140 12:38 16.12.2019
2590 Clouds 27 1008 88 10000 4.1 140 12:18 16.12.2019
2591 Clouds 27 1010 83 0 6.95 135 11:57 16.12.2019
2592 Clouds 27 1010 83 0 6.95 135 11:38 16.12.2019
2593 Clouds 27 1008 82 0 5.36 137 11:19 16.12.2019
2594 Clouds 27 1008 82 0 6.38 140 10:54 16.12.2019
2595 Clouds 27 1008 82 0 6.38 140 10:36 16.12.2019
2596 Clouds 28 1007 83 10000 5.1 150 10:18 16.12.2019
2597 Clouds 28 1007 83 10000 5.1 150 09:43 16.12.2019
2598 Clouds 30 1006 70 10000 7.7 150 09:24 16.12.2019
2599 Clouds 30 1006 70 10000 7.7 150 08:40 16.12.2019
2600 Clouds 28 1007 79 0 5.75 156 08:20 16.12.2019
2601 Clouds 28 1007 79 0 5.75 156 08:20 16.12.2019
2602 Clouds 28 1007 79 0 5.75 156 07:53 16.12.2019
2603 Clouds 32 1006 59 10000 7.7 180 07:31 16.12.2019
2604 Clouds 32 1006 59 10000 7.7 180 07:31 16.12.2019
2605 Clouds 32 1006 59 10000 7.7 180 06:57 16.12.2019
2606 Clouds 32 1006 59 10000 7.7 180 06:39 16.12.2019
2607 Clouds 33 1007 59 10000 7.7 180 06:18 16.12.2019
2608 Clouds 33 1007 59 10000 7.7 180 05:41 16.12.2019
2609 Clouds 33 1007 59 10000 7.7 200 05:22 16.12.2019
2610 Clouds 33 1008 59 10000 7.7 220 03:28 16.12.2019
2611 Haze 32 1008 59 10000 2.6 330 01:46 16.12.2019
2612 Haze 30 1009 66 10000 3.1 340 00:57 16.12.2019
2613 Haze 30 1009 66 10000 3.1 340 00:38 16.12.2019
2614 Haze 28 1009 74 10000 3.1 360 00:19 16.12.2019
2615 Haze 28 1009 74 10000 3.1 360 23:43 15.12.2019
2616 Haze 26 1009 83 10000 2.6 360 23:25 15.12.2019
2617 Haze 26 1009 83 10000 2.6 360 22:57 15.12.2019
2618 Haze 26 1009 83 10000 2.6 360 22:38 15.12.2019
2619 Haze 24 1008 94 10000 2.6 350 22:19 15.12.2019
2620 Haze 24 1008 94 10000 2.6 350 21:58 15.12.2019
2621 Haze 24 1008 94 10000 2.6 350 21:38 15.12.2019
2622 Haze 24 1008 94 10000 2.6 350 21:38 15.12.2019
2623 Clouds 24 1008 94 10000 1.5 0 21:19 15.12.2019
2624 Clouds 24 1008 94 10000 1.5 0 20:58 15.12.2019
2625 Clouds 24 1008 94 10000 1.5 0 20:39 15.12.2019
2626 Clouds 24 1008 94 10000 1.5 0 20:39 15.12.2019
2627 Clouds 24 1007 94 10000 1.5 0 20:20 15.12.2019
2628 Clouds 24 1007 94 10000 1.5 0 19:58 15.12.2019
2629 Clouds 24 1007 94 10000 1.5 0 19:39 15.12.2019
2630 Clouds 25 1008 94 10000 1.5 0 19:19 15.12.2019
2631 Clouds 25 1008 94 10000 1.5 0 18:57 15.12.2019
2632 Clouds 25 1008 94 10000 1.5 0 18:38 15.12.2019
2633 Clouds 25 1008 94 10000 1.5 0 18:38 15.12.2019
2634 Clouds 26 1008 83 0 1.54 89 18:18 15.12.2019
2635 Clear 26 1008 82 0 1.43 76 17:56 15.12.2019
2636 Clear 26 1008 82 0 1.43 76 17:37 15.12.2019
2637 Clouds 25 1008 94 10000 1.5 0 17:19 15.12.2019
2638 Clouds 25 1008 94 10000 1.5 0 16:56 15.12.2019
2639 Clouds 25 1008 94 10000 1.5 0 16:38 15.12.2019
2640 Haze 25 1009 94 10000 1 0 16:20 15.12.2019
2641 Haze 25 1009 94 10000 1 0 15:55 15.12.2019
2642 Haze 25 1009 94 10000 1 0 15:55 15.12.2019
2643 Haze 25 1009 94 10000 1 0 15:36 15.12.2019
2644 Haze 24 1010 100 10000 2.6 140 15:18 15.12.2019
2645 Haze 24 1010 100 10000 2.6 140 14:55 15.12.2019
2646 Haze 24 1010 100 10000 2.6 140 14:36 15.12.2019
2647 Haze 26 1009 88 10000 1.5 0 14:18 15.12.2019
2648 Haze 26 1009 88 10000 1.5 0 13:54 15.12.2019
2649 Haze 26 1009 88 10000 1.5 0 13:36 15.12.2019
2650 Haze 27 1009 83 10000 1.5 0 13:18 15.12.2019
2651 Haze 27 1009 83 10000 1.5 0 13:18 15.12.2019
2652 Haze 27 1009 83 10000 1.5 0 12:55 15.12.2019
2653 Haze 27 1009 83 10000 1.5 0 12:37 15.12.2019
2654 Haze 27 1009 83 10000 1.5 0 12:37 15.12.2019
2655 Haze 27 1009 83 10000 1.5 0 12:37 15.12.2019
2656 Haze 27 1008 88 10000 2.6 180 12:19 15.12.2019
2657 Haze 27 1008 88 10000 2.6 180 11:38 15.12.2019
2658 Haze 27 1008 83 10000 5.1 150 11:19 15.12.2019
2659 Haze 27 1008 83 10000 5.1 150 10:56 15.12.2019
2660 Haze 27 1008 83 10000 5.1 150 10:38 15.12.2019
2661 Haze 29 1007 74 10000 5.1 160 10:19 15.12.2019
2662 Haze 29 1007 74 10000 5.1 160 09:58 15.12.2019
2663 Haze 29 1007 74 10000 5.1 160 09:37 15.12.2019
2664 Clear 28 1009 77 0 2.64 134 09:19 15.12.2019
2665 Clear 28 1009 77 0 2.64 134 08:54 15.12.2019
2666 Clear 28 1009 77 0 2.64 134 08:36 15.12.2019
2667 Haze 31 1007 62 10000 7.7 210 08:18 15.12.2019
2668 Haze 31 1007 62 10000 7.7 210 07:43 15.12.2019
2669 Haze 33 1006 59 10000 7.7 210 07:25 15.12.2019
2670 Haze 33 1007 59 10000 7.7 210 06:26 15.12.2019
2671 Haze 33 1007 59 10000 7.7 210 05:42 15.12.2019
2672 Haze 32 1008 62 10000 7.7 210 05:21 15.12.2019
2673 Clouds 31 1009 66 10000 5.1 190 04:20 15.12.2019
2674 Haze 31 1009 62 10000 5.1 210 02:50 15.12.2019
2675 Clouds 31 1009 62 10000 1.5 0 02:31 15.12.2019
2676 Clouds 31 1009 62 10000 1.5 0 01:40 15.12.2019
2677 Haze 28 1009 78 10000 2.6 340 01:18 15.12.2019
2678 Haze 28 1009 78 10000 2.6 340 00:49 15.12.2019
2679 Haze 26 1009 83 10000 2.6 340 00:31 15.12.2019
2680 Haze 26 1009 83 10000 2.6 340 23:41 14.12.2019
2681 Clear 26 1009 79 0 2.26 19 23:22 14.12.2019
2682 Clear 26 1009 79 0 2.26 19 22:59 14.12.2019
2683 Clear 26 1009 79 0 2.26 19 22:41 14.12.2019
2684 Clouds 23 1008 100 10000 1.5 0 22:22 14.12.2019
2685 Clouds 23 1008 100 10000 1.5 0 21:56 14.12.2019
2686 Clouds 23 1008 100 10000 1.5 0 21:38 14.12.2019
2687 Clouds 23 1007 100 10000 2.6 300 21:19 14.12.2019
2688 Clouds 23 1007 100 10000 2.6 300 20:58 14.12.2019
2689 Clouds 23 1007 100 10000 2.6 300 20:39 14.12.2019
2690 Clouds 23 1007 94 10000 3.6 320 20:19 14.12.2019
2691 Clouds 23 1007 94 10000 3.6 320 19:57 14.12.2019
2692 Clouds 23 1007 94 10000 3.6 320 19:37 14.12.2019
2693 Clouds 24 1007 94 10000 3.6 340 19:19 14.12.2019
2694 Clouds 24 1007 94 10000 3.6 340 18:56 14.12.2019
2695 Clouds 24 1007 94 10000 3.6 340 18:37 14.12.2019
2696 Clouds 24 1007 94 10000 1.5 340 18:19 14.12.2019
2697 Clouds 24 1007 94 10000 1.5 340 17:43 14.12.2019
2698 Clouds 24 1008 100 10000 1.5 350 17:24 14.12.2019
2699 Clouds 24 1008 100 10000 1.5 350 16:58 14.12.2019
2700 Clouds 24 1008 100 10000 1.5 350 16:38 14.12.2019
2701 Clouds 24 1008 100 10000 1.5 350 16:38 14.12.2019
2702 Clouds 27 1009 81 0 2.71 66 16:18 14.12.2019
2703 Clouds 27 1009 81 0 2.71 66 15:43 14.12.2019
2704 Clouds 27 1009 81 0 2.71 66 15:21 14.12.2019
2705 Clouds 27 1009 81 0 2.71 66 14:58 14.12.2019
2706 Clouds 27 1009 81 0 2.71 66 14:38 14.12.2019
2707 Rain 28 1011 78 0 2.85 125 14:19 14.12.2019
2708 Rain 28 1011 78 0 2.85 125 13:45 14.12.2019
2709 Rain 28 1011 78 0 2.85 125 13:21 14.12.2019
2710 Rain 28 1010 80 0 3.48 134 13:21 14.12.2019
2711 Rain 28 1010 80 0 3.48 134 12:59 14.12.2019
2712 Rain 28 1010 80 0 3.48 134 12:41 14.12.2019
2713 Rain 27 1010 81 0 4.29 119 12:21 14.12.2019
2714 Rain 27 1010 81 0 4.29 119 12:21 14.12.2019
2715 Rain 27 1010 81 0 4.29 119 12:21 14.12.2019
2716 Rain 27 1010 81 0 4.29 119 11:59 14.12.2019
2717 Rain 28 1010 80 0 3.48 134 11:39 14.12.2019
2718 Rain 28 1009 79 0 3.23 158 11:20 14.12.2019
2719 Rain 28 1009 79 0 3.23 158 10:59 14.12.2019
2720 Rain 28 1009 79 0 3.23 158 10:40 14.12.2019
2721 Clouds 29 1008 79 10000 5.1 230 10:22 14.12.2019
2722 Clouds 29 1008 79 10000 5.1 230 09:57 14.12.2019
2723 Clouds 29 1008 79 10000 5.1 230 09:39 14.12.2019
2724 Clouds 29 1008 79 10000 7.7 220 09:19 14.12.2019
2725 Clouds 29 1008 79 10000 7.7 220 08:43 14.12.2019
2726 Clouds 30 1007 74 10000 10.3 240 08:20 14.12.2019
2727 Clouds 30 1007 74 10000 10.3 240 07:44 14.12.2019
2728 Rain 29 1007 74 10000 10.3 270 07:23 14.12.2019
2729 Rain 29 1007 74 10000 10.3 270 06:57 14.12.2019
2730 Rain 29 1007 74 10000 10.3 270 06:37 14.12.2019
2731 Rain 32 1008 66 10000 12.9 250 05:59 14.12.2019
2732 Rain 31 1008 66 10000 12.9 250 04:48 14.12.2019
2733 Smoke 31 1010 66 10000 5.1 330 02:35 14.12.2019
2734 Smoke 31 1011 70 10000 5.1 320 01:56 14.12.2019
2735 Smoke 31 1011 70 10000 5.1 320 01:56 14.12.2019
2736 Smoke 31 1011 70 10000 5.1 320 01:37 14.12.2019
2737 Clouds 29 1011 74 10000 4.1 340 00:47 14.12.2019
2738 Smoke 29 1011 74 10000 3.1 340 00:27 14.12.2019
2739 Smoke 29 1011 74 10000 3.1 340 23:56 13.12.2019
2740 Smoke 29 1011 74 10000 3.1 340 23:37 13.12.2019
2741 Smoke 25 1011 94 10000 3.6 310 23:18 13.12.2019
2742 Smoke 25 1011 94 10000 3.6 310 22:40 13.12.2019
2743 Haze 24 1010 94 10000 3.6 310 22:19 13.12.2019
2744 Haze 24 1010 94 10000 3.6 310 21:56 13.12.2019
2745 Haze 24 1010 94 10000 3.6 310 21:37 13.12.2019
2746 Clouds 23 1009 100 10000 2.6 320 21:19 13.12.2019
2747 Clouds 23 1009 100 10000 2.6 320 20:41 13.12.2019
2748 Clouds 26 1009 83 0 2.69 6 20:22 13.12.2019
2749 Clouds 26 1009 83 0 2.69 6 19:59 13.12.2019
2750 Clouds 26 1009 83 0 2.69 6 19:40 13.12.2019
2751 Clouds 26 1009 83 0 2.69 6 19:22 13.12.2019
2752 Clouds 26 1009 83 0 2.69 6 18:59 13.12.2019
2753 Clouds 26 1009 83 0 2.69 6 18:40 13.12.2019
2754 Clouds 26 1009 83 0 2.69 6 18:19 13.12.2019
2755 Clouds 26 1009 83 0 2.69 6 17:43 13.12.2019
2756 Clouds 27 1009 82 0 2.75 359 17:20 13.12.2019
2757 Clouds 27 1009 82 0 2.75 359 17:20 13.12.2019
2758 Clouds 27 1009 82 0 2.75 359 16:59 13.12.2019
2759 Clouds 27 1009 82 0 2.75 359 16:39 13.12.2019
2760 Clouds 25 1010 88 10000 2.6 320 16:20 13.12.2019
2761 Clouds 25 1010 88 10000 2.6 320 15:43 13.12.2019
2762 Clouds 25 1010 88 10000 2.6 330 15:23 13.12.2019
2763 Clouds 25 1010 88 10000 2.6 330 15:23 13.12.2019
2764 Clouds 25 1010 88 10000 2.6 330 14:59 13.12.2019
2765 Clouds 25 1010 88 10000 2.6 330 14:41 13.12.2019
2766 Rain 28 1011 82 0 0.34 286 14:20 13.12.2019
2767 Rain 28 1011 82 0 0.34 286 13:57 13.12.2019
2768 Rain 28 1011 82 0 0.34 286 13:37 13.12.2019
2769 Clouds 26 1010 83 10000 5.1 350 13:19 13.12.2019
2770 Clouds 26 1010 83 10000 5.1 350 12:42 13.12.2019
2771 Clouds 27 1010 78 10000 5.1 350 12:20 13.12.2019
2772 Clouds 27 1010 78 10000 5.1 350 11:57 13.12.2019
2773 Clouds 27 1010 78 10000 5.1 350 11:57 13.12.2019
2774 Clouds 27 1010 78 10000 5.1 350 11:39 13.12.2019
2775 Clouds 27 1010 78 10000 5.1 350 11:39 13.12.2019
2776 Clouds 28 1010 74 10000 5.1 320 11:20 13.12.2019
2777 Clouds 28 1010 74 10000 5.1 320 10:42 13.12.2019
2778 Clouds 28 1010 74 10000 5.1 320 10:42 13.12.2019
2779 Clouds 28 1009 78 10000 5.1 290 10:23 13.12.2019
2780 Clouds 28 1009 78 10000 5.1 290 09:55 13.12.2019
2781 Clouds 28 1009 78 10000 5.1 290 09:36 13.12.2019
2782 Clouds 30 1008 79 10000 5.1 150 09:18 13.12.2019
2783 Clouds 30 1008 79 10000 5.1 150 09:18 13.12.2019
2784 Clouds 30 1008 79 10000 5.1 150 08:40 13.12.2019
2785 Clouds 31 1008 70 10000 5.1 270 08:22 13.12.2019
2786 Clouds 31 1008 70 10000 5.1 270 07:44 13.12.2019
2787 Clouds 33 1007 63 10000 5.1 250 07:20 13.12.2019
2788 Clouds 33 1007 63 10000 5.1 250 06:50 13.12.2019
2789 Clouds 34 1008 56 10000 7.2 280 06:28 13.12.2019
2790 Clouds 34 1008 56 10000 7.2 280 05:44 13.12.2019
2791 Haze 34 1008 59 10000 2.6 260 05:24 13.12.2019
2792 Haze 34 1008 59 10000 2.6 260 04:35 13.12.2019
2793 Haze 33 1009 59 10000 2.6 360 03:30 13.12.2019
2794 Haze 32 1010 62 10000 2.6 350 02:32 13.12.2019
2795 Haze 32 1010 62 10000 2.6 350 02:32 13.12.2019
2796 Haze 32 1010 62 10000 2.6 350 01:40 13.12.2019
2797 Smoke 30 1010 70 10000 2.6 330 00:51 13.12.2019
2798 Smoke 27 1010 83 10000 2.6 330 00:32 13.12.2019
2799 Smoke 27 1010 83 10000 2.6 330 23:47 12.12.2019
2800 Smoke 27 1010 83 10000 2.6 330 23:47 12.12.2019
2801 Smoke 25 1009 100 10000 2.6 340 23:27 12.12.2019
2802 Smoke 25 1009 100 10000 2.6 340 22:59 12.12.2019
2803 Smoke 25 1009 100 10000 2.6 340 22:41 12.12.2019
2804 Smoke 25 1009 100 10000 2.6 340 22:41 12.12.2019
2805 Smoke 24 1008 100 10000 3.6 320 22:22 12.12.2019
2806 Smoke 24 1008 100 10000 3.6 320 21:56 12.12.2019
2807 Smoke 24 1008 100 10000 3.6 320 21:38 12.12.2019
2808 Clouds 24 1008 100 10000 4.1 340 21:20 12.12.2019
2809 Clouds 24 1008 100 10000 4.1 340 21:20 12.12.2019
2810 Clouds 24 1008 100 10000 4.1 340 20:59 12.12.2019
2811 Clouds 24 1008 100 10000 4.1 340 20:40 12.12.2019
2812 Clouds 24 1008 100 10000 2.1 0 20:22 12.12.2019
2813 Clouds 24 1008 100 10000 2.1 0 19:56 12.12.2019
2814 Clouds 24 1008 100 10000 2.1 0 19:38 12.12.2019
2815 Clouds 25 1008 94 10000 1.5 0 19:20 12.12.2019
2816 Clouds 25 1008 94 10000 1.5 0 18:56 12.12.2019
2817 Clouds 25 1008 94 10000 1.5 0 18:56 12.12.2019
2818 Clouds 25 1008 94 10000 1.5 0 18:38 12.12.2019
2819 Clouds 25 1009 94 10000 1.5 0 18:19 12.12.2019
2820 Clouds 25 1009 94 10000 1.5 0 17:57 12.12.2019
2821 Clouds 25 1009 94 10000 1.5 0 17:38 12.12.2019
2822 Clouds 27 1009 84 0 4.29 353 17:19 12.12.2019
2823 Clouds 27 1009 84 0 4.29 353 16:55 12.12.2019
2824 Clouds 27 1009 84 0 4.29 353 16:36 12.12.2019
2825 Clouds 27 1010 88 10000 1 0 16:18 12.12.2019
2826 Clouds 27 1010 88 10000 1 0 15:42 12.12.2019
2827 Clouds 27 1010 88 10000 2.1 330 15:20 12.12.2019
2828 Clouds 27 1010 88 10000 2.1 330 14:59 12.12.2019
2829 Clouds 27 1010 88 10000 2.1 330 14:38 12.12.2019
2830 Clouds 27 1010 88 10000 2.6 330 14:19 12.12.2019
2831 Clouds 27 1010 88 10000 2.6 330 13:56 12.12.2019
2832 Clouds 27 1010 88 10000 2.6 330 13:38 12.12.2019
2833 Clouds 27 1010 88 10000 1.5 300 13:20 12.12.2019
2834 Clouds 27 1010 88 10000 1.5 300 12:56 12.12.2019
2835 Clouds 27 1010 88 10000 1.5 300 12:38 12.12.2019
2836 Clouds 28 1009 83 10000 2.6 320 12:18 12.12.2019
2837 Clouds 28 1009 83 10000 2.6 320 11:43 12.12.2019
2838 Clouds 29 1008 79 10000 3.1 320 11:22 12.12.2019
2839 Clouds 29 1008 79 10000 3.1 320 10:59 12.12.2019
2840 Clouds 29 1008 79 10000 3.1 320 10:41 12.12.2019
2841 Smoke 30 1007 66 10000 6.7 300 10:23 12.12.2019
2842 Smoke 30 1007 66 10000 6.7 300 09:58 12.12.2019
2843 Smoke 30 1007 66 10000 6.7 300 09:39 12.12.2019
2844 Smoke 31 1006 62 10000 6.7 320 09:21 12.12.2019
2845 Smoke 31 1006 62 10000 6.7 320 08:50 12.12.2019
2846 Smoke 32 1006 59 10000 6.7 280 08:29 12.12.2019
2847 Smoke 32 1006 59 10000 6.7 280 07:59 12.12.2019
2848 Smoke 32 1006 59 10000 6.7 280 07:39 12.12.2019
2849 Smoke 32 1006 62 10000 5.1 260 07:21 12.12.2019
2850 Smoke 32 1006 62 10000 5.1 260 06:42 12.12.2019
2851 Smoke 32 1006 66 10000 5.1 260 06:23 12.12.2019
2852 Smoke 32 1006 66 10000 5.1 260 05:34 12.12.2019
2853 Haze 32 1009 62 10000 7.7 260 04:48 12.12.2019
2854 Haze 32 1009 62 10000 7.7 300 02:44 12.12.2019
2855 Haze 32 1009 62 10000 9.3 360 02:25 12.12.2019
2856 Haze 32 1009 62 10000 9.3 360 01:59 12.12.2019
2857 Haze 32 1009 62 10000 9.3 360 01:36 12.12.2019
2858 Haze 30 1009 70 10000 6.2 360 00:50 12.12.2019
2859 Haze 29 1009 70 10000 6.2 360 00:22 12.12.2019
2860 Haze 29 1009 70 10000 6.2 360 23:58 11.12.2019
2861 Haze 29 1009 70 10000 6.2 360 23:38 11.12.2019
2862 Haze 26 1009 83 10000 4.1 310 23:18 11.12.2019
2863 Haze 26 1009 83 10000 4.1 310 22:56 11.12.2019
2864 Haze 26 1009 83 10000 4.1 310 22:56 11.12.2019
2865 Haze 26 1009 83 10000 4.1 310 22:38 11.12.2019
2866 Clouds 25 1008 88 10000 4.1 310 22:18 11.12.2019
2867 Clouds 25 1008 88 10000 4.1 310 22:18 11.12.2019
2868 Clouds 25 1008 88 10000 4.1 310 21:54 11.12.2019
2869 Clouds 25 1008 88 10000 4.1 310 21:54 11.12.2019
2870 Clouds 25 1008 88 10000 4.1 310 21:36 11.12.2019
2871 Clouds 27 1009 85 0 4.39 351 21:18 11.12.2019
2872 Clouds 27 1009 85 0 4.39 351 20:54 11.12.2019
2873 Clouds 27 1009 85 0 4.39 351 20:36 11.12.2019
2874 Clouds 24 1007 94 10000 1.5 0 20:18 11.12.2019
2875 Clouds 24 1007 94 10000 1.5 0 19:41 11.12.2019
2876 Clouds 24 1007 94 10000 1.5 0 19:23 11.12.2019
2877 Clouds 24 1007 94 10000 1.5 0 18:59 11.12.2019
2878 Clouds 24 1007 94 10000 1.5 0 18:39 11.12.2019
2879 Clear 24 1007 94 10000 1 0 18:19 11.12.2019
2880 Clear 24 1007 94 10000 1 0 17:56 11.12.2019
2881 Clear 24 1007 94 10000 1 0 17:37 11.12.2019
2882 Haze 24 1007 94 10000 5.1 310 17:18 11.12.2019
2883 Clouds 27 1007 79 0 1.32 36 16:55 11.12.2019
2884 Clouds 27 1007 79 0 1.32 36 16:37 11.12.2019
2885 Haze 24 1007 94 10000 5.1 320 16:18 11.12.2019
2886 Haze 24 1007 94 10000 5.1 320 15:55 11.12.2019
2887 Haze 24 1007 94 10000 5.1 320 15:37 11.12.2019
2888 Haze 26 1008 83 10000 5.1 350 15:18 11.12.2019
2889 Haze 26 1008 83 10000 5.1 350 14:54 11.12.2019
2890 Haze 26 1008 83 10000 5.1 350 14:36 11.12.2019
2891 Haze 26 1008 83 10000 4.1 340 14:18 11.12.2019
2892 Haze 26 1008 83 10000 4.1 340 13:42 11.12.2019
2893 Haze 26 1008 83 10000 4.1 340 13:42 11.12.2019
2894 Haze 27 1008 78 10000 3.6 330 13:21 11.12.2019
2895 Haze 27 1008 78 10000 3.6 330 12:57 11.12.2019
2896 Haze 27 1008 78 10000 3.6 330 12:38 11.12.2019
2897 Haze 27 1008 83 10000 3.6 10 12:20 11.12.2019
2898 Haze 27 1008 83 10000 3.6 10 11:58 11.12.2019
2899 Haze 27 1008 83 10000 3.6 10 11:38 11.12.2019
2900 Haze 28 1008 78 10000 5.1 40 11:19 11.12.2019
2901 Haze 28 1008 78 10000 5.1 40 10:57 11.12.2019
2902 Haze 28 1008 78 10000 5.1 40 10:38 11.12.2019
2903 Haze 29 1007 74 10000 2.6 150 10:19 11.12.2019
2904 Haze 29 1007 74 10000 2.6 150 09:43 11.12.2019
2905 Haze 30 1006 74 10000 7.7 140 09:21 11.12.2019
2906 Haze 30 1006 74 10000 7.7 140 08:58 11.12.2019
2907 Haze 30 1006 74 10000 7.7 140 08:38 11.12.2019
2908 Haze 31 1006 70 10000 2.6 200 08:19 11.12.2019
2909 Haze 31 1006 70 10000 2.6 200 07:56 11.12.2019
2910 Haze 31 1006 70 10000 2.6 200 07:38 11.12.2019
2911 Haze 32 1005 70 10000 2.6 180 07:19 11.12.2019
2912 Haze 32 1005 70 10000 2.6 180 06:44 11.12.2019
2913 Haze 32 1005 70 10000 2.6 180 06:44 11.12.2019
2914 Haze 32 1005 75 10000 7.7 210 06:22 11.12.2019
2915 Haze 32 1005 75 10000 7.7 210 05:45 11.12.2019
2916 Haze 33 1005 66 10000 7.7 230 05:21 11.12.2019
2917 Haze 33 1005 66 10000 7.7 230 04:38 11.12.2019
2918 Haze 34 1008 49 10000 7.7 320 02:49 11.12.2019
2919 Haze 31 1008 70 10000 5.1 320 01:26 11.12.2019
2920 Haze 31 1008 70 10000 5.1 320 00:49 11.12.2019
2921 Haze 29 1008 79 10000 6.2 360 00:22 11.12.2019
2922 Haze 29 1008 79 10000 6.2 360 23:58 10.12.2019
2923 Haze 29 1008 79 10000 6.2 360 23:39 10.12.2019
2924 Clouds 26 1008 100 10000 5.1 320 23:21 10.12.2019
2925 Clouds 26 1008 100 10000 5.1 320 22:40 10.12.2019
2926 Clouds 26 1008 100 10000 5.1 320 22:40 10.12.2019
2927 Clouds 25 1008 100 10000 5.1 320 22:22 10.12.2019
2928 Clouds 25 1008 100 10000 5.1 320 21:57 10.12.2019
2929 Clouds 25 1008 100 10000 5.1 320 21:39 10.12.2019
2930 Clouds 26 1009 84 0 2.31 17 21:21 10.12.2019
2931 Clouds 26 1009 84 0 2.31 17 20:57 10.12.2019
2932 -273 0 0 0 0 0 20:38 10.12.2019
2933 Clouds 26 1009 84 0 2.31 17 20:38 10.12.2019
2934 Clouds 26 1007 83 0 1.91 16 20:19 10.12.2019
2935 Clouds 26 1007 83 0 1.91 16 19:55 10.12.2019
2936 Clouds 26 1007 83 0 1.91 16 19:37 10.12.2019
2937 Clouds 26 1007 83 0 1.91 16 19:18 10.12.2019
2938 Clouds 26 1007 83 0 1.91 16 18:40 10.12.2019
2939 Clouds 26 1007 83 0 1.91 16 18:20 10.12.2019
2940 Clouds 26 1007 83 0 1.91 16 17:58 10.12.2019
2941 Clouds 26 1007 83 0 1.91 16 17:40 10.12.2019
2942 Clouds 28 1007 88 10000 2.6 220 17:20 10.12.2019
2943 Clouds 28 1007 88 10000 2.6 220 16:54 10.12.2019
2944 Clouds 28 1007 88 10000 2.6 220 16:36 10.12.2019
2945 Clouds 28 1008 88 10000 2.6 220 16:18 10.12.2019
2946 Clouds 28 1008 88 10000 2.6 220 16:18 10.12.2019
2947 Clouds 28 1008 88 10000 2.6 220 16:18 10.12.2019
2948 Clouds 28 1008 88 10000 2.6 220 15:38 10.12.2019
2949 Clouds 27 1008 79 0 0.64 129 15:18 10.12.2019
2950 Clouds 27 1008 79 0 0.64 129 15:18 10.12.2019
2951 Clouds 27 1008 79 0 0.64 129 14:56 10.12.2019
2952 Clouds 27 1008 79 0 0.64 129 14:37 10.12.2019
2953 Clouds 28 1010 80 0 2.67 117 14:19 10.12.2019
2954 Clouds 28 1010 80 0 2.67 117 13:56 10.12.2019
2955 Clouds 28 1010 80 0 2.67 117 13:38 10.12.2019
2956 Clouds 27 1010 80 0 1.33 119 13:19 10.12.2019
2957 Clouds 27 1010 80 0 1.33 119 12:45 10.12.2019
2958 Clouds 27 1010 80 0 1.33 119 12:45 10.12.2019
2959 Clouds 27 1010 80 0 1.33 119 12:25 10.12.2019
2960 Clouds 27 1010 80 0 1.33 119 11:45 10.12.2019
2961 Clouds 27 1010 80 0 1.33 119 11:25 10.12.2019
2962 Clouds 28 1008 79 0 2.47 154 10:57 10.12.2019
2963 Clouds 28 1008 79 0 2.47 154 10:39 10.12.2019
2964 Clouds 28 1008 79 0 2.47 154 10:39 10.12.2019
2965 Haze 29 1007 79 10000 6.7 190 10:21 10.12.2019
2966 Haze 29 1007 79 10000 6.7 190 09:56 10.12.2019
2967 Haze 29 1007 79 10000 6.7 190 09:56 10.12.2019
2968 Haze 29 1007 79 10000 6.7 190 09:38 10.12.2019
2969 Haze 29 1007 79 10000 6.7 190 09:38 10.12.2019
2970 Haze 29 1007 79 10000 6.7 190 09:38 10.12.2019
2971 Haze 29 1006 79 10000 6.7 180 09:20 10.12.2019
2972 Haze 29 1006 79 10000 6.7 180 08:55 10.12.2019
2973 Haze 29 1006 79 10000 6.7 180 08:37 10.12.2019
2974 Smoke 31 1005 66 10000 7.7 170 08:18 10.12.2019
2975 Smoke 31 1005 66 10000 7.7 170 07:44 10.12.2019
2976 Smoke 31 1005 70 10000 7.7 220 07:25 10.12.2019
2977 Smoke 31 1005 70 10000 7.7 220 06:48 10.12.2019
2978 Clouds 28 1006 74 0 4.01 178 06:22 10.12.2019
2979 Clouds 28 1006 74 0 4.01 178 05:55 10.12.2019
2980 Clouds 28 1007 76 0 4.36 190 04:56 10.12.2019
2981 Smoke 33 1007 66 10000 5.1 190 03:40 10.12.2019
2982 Smoke 32 1009 66 10000 3.6 210 02:47 10.12.2019
2983 Smoke 30 1009 74 10000 5.1 190 01:50 10.12.2019
2984 Smoke 30 1009 70 10000 2.6 150 01:25 10.12.2019
2985 Smoke 30 1009 70 10000 2.6 150 00:43 10.12.2019
2986 Smoke 29 1009 74 10000 1.5 0 00:24 10.12.2019
2987 Smoke 29 1009 74 10000 1.5 0 23:43 09.12.2019
2988 Smoke 25 1008 94 10000 1.5 0 23:24 09.12.2019
2989 Smoke 25 1008 94 10000 1.5 0 22:58 09.12.2019
2990 Smoke 25 1008 94 10000 1.5 0 22:58 09.12.2019
2991 Smoke 25 1008 94 10000 1.5 0 22:40 09.12.2019
2992 Smoke 23 1008 100 10000 2.1 0 22:20 09.12.2019
2993 Smoke 23 1008 100 10000 2.1 0 21:57 09.12.2019
2994 Smoke 23 1008 100 10000 2.1 0 21:39 09.12.2019
2995 Smoke 23 1008 100 10000 2.1 0 21:39 09.12.2019
2996 Clouds 24 1008 100 10000 2.6 340 21:19 09.12.2019
2997 Clouds 24 1008 100 10000 2.6 340 20:57 09.12.2019
2998 Clouds 24 1008 100 10000 2.6 340 20:39 09.12.2019
2999 Clouds 24 1008 100 10000 2.6 310 20:20 09.12.2019
3000 Clouds 24 1008 100 10000 2.6 310 19:56 09.12.2019
3001 Clouds 24 1008 100 10000 2.6 310 19:38 09.12.2019
3002 Clouds 25 1008 94 10000 2.1 0 19:19 09.12.2019
3003 Clouds 25 1008 94 10000 2.1 0 18:56 09.12.2019
3004 Clouds 25 1008 94 10000 2.1 0 18:38 09.12.2019
3005 Clouds 27 1008 82 0 4.89 118 18:19 09.12.2019
3006 Clouds 27 1008 82 0 4.89 118 17:58 09.12.2019
3007 Clouds 27 1008 82 0 4.89 118 17:39 09.12.2019
3008 Clouds 25 1008 94 10000 1.5 0 17:20 09.12.2019
3009 Clouds 25 1008 94 10000 1.5 0 16:56 09.12.2019
3010 Clouds 25 1008 94 10000 1.5 0 16:37 09.12.2019
3011 Clouds 25 1009 94 10000 5.1 320 16:19 09.12.2019
3012 Clouds 25 1009 94 10000 5.1 320 15:55 09.12.2019
3013 Clouds 25 1009 94 10000 5.1 320 15:37 09.12.2019
3014 Clouds 26 1010 88 10000 2.6 320 15:19 09.12.2019
3015 Rain 27 1009 83 0 6.25 132 14:42 09.12.2019
3016 Rain 27 1011 83 0 9.27 141 14:19 09.12.2019
3017 Rain 27 1011 83 0 9.27 141 13:59 09.12.2019
3018 Rain 27 1011 83 0 9.27 141 13:39 09.12.2019
3019 Clear 27 1011 81 0 8.93 137 13:19 09.12.2019
3020 Clear 27 1011 81 0 8.93 137 12:57 09.12.2019
3021 Clear 27 1011 81 0 8.93 137 12:38 09.12.2019
3022 Clouds 28 1010 83 10000 9.3 160 12:20 09.12.2019
3023 Clouds 28 1010 83 10000 9.3 160 11:58 09.12.2019
3024 Clouds 28 1010 83 10000 9.3 160 11:39 09.12.2019
3025 Clear 27 1010 82 0 9.12 146 11:21 09.12.2019
3026 Clear 27 1010 82 0 9.12 146 10:54 09.12.2019
3027 Clear 27 1010 82 0 9.12 146 10:36 09.12.2019
3028 Smoke 29 1009 74 10000 7.7 160 10:18 09.12.2019
3029 Smoke 29 1009 74 10000 7.7 160 09:41 09.12.2019
3030 Smoke 29 1008 79 10000 7.7 160 09:21 09.12.2019
3031 Smoke 29 1008 79 10000 7.7 160 08:55 09.12.2019
3032 Smoke 29 1008 79 10000 7.7 160 08:36 09.12.2019
3033 Smoke 30 1008 70 10000 7.7 160 08:18 09.12.2019
3034 Smoke 30 1008 70 10000 7.7 160 07:42 09.12.2019
3035 Smoke 32 1008 62 10000 7.7 190 07:23 09.12.2019
3036 Smoke 32 1008 62 10000 7.7 190 06:49 09.12.2019
3037 Smoke 32 1008 62 10000 7.7 180 06:26 09.12.2019
3038 Smoke 31 1009 66 10000 7.7 190 05:29 09.12.2019
3039 Smoke 31 1009 66 10000 7.7 190 04:49 09.12.2019
3040 Smoke 32 1009 52 10000 7.7 190 03:45 09.12.2019
3041 Smoke 31 1011 55 10000 2.6 340 02:24 09.12.2019
3042 Smoke 31 1011 55 10000 2.6 340 01:42 09.12.2019
3043 Smoke 30 1011 66 10000 2.6 340 00:51 09.12.2019
3044 Clouds 27 1011 78 10000 2.6 340 00:31 09.12.2019
3045 Clouds 27 1011 78 10000 2.6 340 23:43 08.12.2019
3046 Smoke 24 1010 94 10000 2.6 310 23:24 08.12.2019
3047 Smoke 24 1010 94 10000 2.6 310 22:57 08.12.2019
3048 Smoke 24 1010 94 10000 2.6 310 22:39 08.12.2019
3049 Smoke 24 1010 94 10000 2.6 310 22:39 08.12.2019
3050 Smoke 23 1010 100 10000 1.5 0 22:19 08.12.2019
3051 Smoke 23 1010 100 10000 1.5 0 21:58 08.12.2019
3052 Smoke 23 1010 100 10000 1.5 0 21:40 08.12.2019
3053 Clouds 23 1009 94 10000 1.5 0 21:20 08.12.2019
3054 Clouds 23 1009 94 10000 1.5 0 20:57 08.12.2019
3055 Clouds 23 1009 94 10000 1.5 0 20:38 08.12.2019
3056 Clouds 23 1009 94 10000 1.5 0 20:20 08.12.2019
3057 Clouds 23 1009 94 10000 1.5 0 19:59 08.12.2019
3058 Clouds 23 1009 94 10000 1.5 0 19:41 08.12.2019
3059 Clouds 24 1009 94 10000 1.5 0 19:22 08.12.2019
3060 Clouds 24 1009 94 10000 1.5 0 18:55 08.12.2019
3061 Clouds 24 1009 94 10000 1.5 0 18:55 08.12.2019
3062 Clouds 24 1009 94 10000 1.5 0 18:37 08.12.2019
3063 Clouds 24 1009 94 10000 1.5 0 18:19 08.12.2019
3064 Clouds 24 1009 94 10000 1.5 0 17:56 08.12.2019
3065 Clouds 24 1009 94 10000 1.5 0 17:38 08.12.2019
3066 Clouds 25 1009 88 10000 1.5 0 17:19 08.12.2019
3067 Clouds 25 1009 88 10000 1.5 0 16:56 08.12.2019
3068 Clouds 25 1009 88 10000 1.5 0 16:38 08.12.2019
3069 Clouds 26 1010 83 10000 1.5 0 16:20 08.12.2019
3070 Clouds 26 1010 83 10000 1.5 0 15:54 08.12.2019
3071 Clouds 26 1010 83 10000 1.5 0 15:36 08.12.2019
3072 Clouds 26 1010 83 10000 4.1 140 15:18 08.12.2019
3073 Clouds 26 1010 83 10000 4.1 140 14:41 08.12.2019
3074 Clouds 27 1011 83 10000 4.1 140 14:22 08.12.2019
3075 Clouds 27 1011 83 10000 4.1 140 13:57 08.12.2019
3076 Clouds 27 1011 83 10000 4.1 140 13:38 08.12.2019
3077 Clouds 28 1011 78 10000 7.7 150 13:20 08.12.2019
3078 Clouds 28 1011 78 10000 7.7 150 12:54 08.12.2019
3079 Clouds 28 1011 78 10000 7.7 150 12:36 08.12.2019
3080 Clouds 28 1010 83 10000 9.3 150 12:18 08.12.2019
3081 Clouds 28 1010 83 10000 9.3 150 11:39 08.12.2019
3082 Clouds 28 1010 78 10000 9.3 160 11:21 08.12.2019
3083 Clouds 28 1010 78 10000 9.3 160 10:59 08.12.2019
3084 Clouds 28 1010 78 10000 9.3 160 10:38 08.12.2019
3085 Haze 28 1009 78 10000 7.7 160 10:20 08.12.2019
3086 Haze 28 1009 78 10000 7.7 160 09:57 08.12.2019
3087 Haze 28 1009 78 10000 7.7 160 09:57 08.12.2019
3088 Haze 28 1009 78 10000 7.7 160 09:38 08.12.2019
3089 Haze 29 1008 74 10000 7.7 160 09:19 08.12.2019
3090 Haze 29 1008 74 10000 7.7 160 08:58 08.12.2019
3091 Haze 29 1008 74 10000 7.7 160 08:37 08.12.2019
3092 Haze 30 1008 70 10000 5.7 160 08:19 08.12.2019
3093 Haze 30 1008 70 10000 5.7 160 07:43 08.12.2019
3094 Smoke 32 1008 59 10000 7.7 160 07:20 08.12.2019
3095 Smoke 32 1008 59 10000 7.7 160 06:50 08.12.2019
3096 Smoke 32 1008 59 10000 7.7 190 06:22 08.12.2019
3097 Smoke 32 1008 59 10000 7.7 190 05:48 08.12.2019
3098 Smoke 32 1009 59 10000 7.7 190 05:18 08.12.2019
3099 Smoke 32 1009 59 10000 7.7 210 03:50 08.12.2019
3100 Smoke 32 1010 59 10000 7.7 210 03:22 08.12.2019
3101 Smoke 32 1010 59 10000 7.7 210 02:38 08.12.2019
3102 Smoke 31 1010 62 10000 3.1 190 01:55 08.12.2019
3103 Smoke 30 1010 62 10000 1.5 0 01:19 08.12.2019
3104 Smoke 30 1010 62 10000 1.5 0 00:40 08.12.2019
3105 Smoke 27 1011 74 10000 1.5 0 00:20 08.12.2019
3106 Smoke 27 1011 74 10000 1.5 0 23:40 07.12.2019
3107 Smoke 24 1010 88 10000 1.5 0 23:21 07.12.2019
3108 Smoke 24 1010 88 10000 1.5 0 22:56 07.12.2019
3109 Smoke 24 1010 88 10000 1.5 0 22:38 07.12.2019
3110 Smoke 21 1010 100 10000 1.5 0 22:20 07.12.2019
3111 Smoke 21 1010 100 10000 1.5 0 21:56 07.12.2019
3112 Smoke 21 1010 100 10000 1.5 0 21:38 07.12.2019
3113 Smoke 21 1010 100 10000 1.5 0 21:38 07.12.2019
3114 Clear 21 1009 100 10000 3.1 330 21:19 07.12.2019
3115 Clear 21 1009 100 10000 3.1 330 20:56 07.12.2019
3116 Clear 21 1009 100 10000 3.1 330 20:36 07.12.2019
3117 Clear 21 1009 100 10000 1.5 0 20:18 07.12.2019
3118 Clear 21 1009 100 10000 1.5 0 19:56 07.12.2019
3119 Clear 21 1009 100 10000 1.5 0 19:37 07.12.2019
3120 Clear 22 1009 100 10000 1.5 0 19:19 07.12.2019
3121 Clear 22 1009 100 10000 1.5 0 18:44 07.12.2019
3122 Clouds 22 1009 94 10000 1 0 18:19 07.12.2019
3123 Clouds 22 1009 94 10000 1 0 17:58 07.12.2019
3124 Clouds 22 1009 94 10000 1 0 17:39 07.12.2019
3125 Clouds 23 1010 88 10000 1.5 0 17:21 07.12.2019
3126 Clouds 23 1010 88 10000 1.5 0 16:56 07.12.2019
3127 Clouds 23 1010 88 10000 1.5 0 16:38 07.12.2019
3128 Clouds 23 1010 94 10000 1.5 0 16:19 07.12.2019
3129 Clouds 23 1010 94 10000 1.5 0 15:42 07.12.2019
3130 Clouds 25 1011 88 10000 5.1 130 15:24 07.12.2019
3131 Clouds 25 1011 88 10000 5.1 130 14:58 07.12.2019
3132 Clouds 25 1011 88 10000 5.1 130 14:40 07.12.2019
3133 Clouds 26 1011 83 10000 5.1 120 14:18 07.12.2019
3134 Clouds 26 1011 83 10000 5.1 120 13:41 07.12.2019
3135 Clouds 26 1011 83 10000 5.1 120 13:41 07.12.2019
3136 Clouds 27 1011 83 10000 3.6 130 13:21 07.12.2019
3137 Clouds 27 1011 83 10000 3.6 130 12:59 07.12.2019
3138 Clouds 27 1011 83 10000 3.6 130 12:40 07.12.2019
3139 Clouds 27 1010 83 10000 5.1 160 12:22 07.12.2019
3140 Clouds 27 1010 83 10000 5.1 160 11:57 07.12.2019
3141 Clouds 27 1010 83 10000 5.1 160 11:39 07.12.2019
3142 Haze 27 1010 83 10000 4.1 150 11:20 07.12.2019
3143 Haze 27 1010 83 10000 4.1 150 10:38 07.12.2019
3144 Haze 28 1009 74 10000 7.7 160 10:19 07.12.2019
3145 Haze 28 1009 74 10000 7.7 160 09:41 07.12.2019
3146 Haze 30 1008 66 10000 6.2 160 09:22 07.12.2019
3147 Haze 30 1008 66 10000 6.2 160 08:56 07.12.2019
3148 Haze 30 1008 66 10000 6.2 160 08:37 07.12.2019
3149 Haze 31 1007 58 10000 5.1 140 08:19 07.12.2019
3150 Haze 31 1007 58 10000 5.1 140 07:44 07.12.2019
3151 Haze 33 1007 52 10000 5.1 140 07:23 07.12.2019
3152 Haze 33 1007 52 10000 5.1 140 06:45 07.12.2019
3153 Haze 32 1008 55 10000 5.1 190 06:24 07.12.2019
3154 Haze 33 1009 59 10000 5.1 130 05:19 07.12.2019
3155 Haze 32 1009 62 10000 5.7 150 03:55 07.12.2019
3156 Haze 32 1010 59 10000 5.1 140 02:59 07.12.2019
3157 Haze 32 1011 55 10000 1 0 02:21 07.12.2019
3158 Haze 32 1011 55 10000 1 0 01:34 07.12.2019
3159 Haze 30 1011 66 10000 1 0 00:52 07.12.2019
3160 Smoke 28 1011 74 10000 1.5 0 00:19 07.12.2019
3161 Smoke 28 1011 74 10000 1.5 0 23:49 06.12.2019
3162 Smoke 25 1011 88 10000 1.5 0 23:25 06.12.2019
3163 Smoke 25 1011 88 10000 1.5 0 22:59 06.12.2019
3164 Smoke 25 1011 88 10000 1.5 0 22:37 06.12.2019
3165 Smoke 22 1010 100 10000 1.5 0 22:19 06.12.2019
3166 Smoke 22 1010 100 10000 1.5 0 21:57 06.12.2019
3167 Smoke 22 1010 100 10000 1.5 0 21:38 06.12.2019
3168 Clouds 26 1012 77 0 3.08 104 21:19 06.12.2019
3169 Clouds 26 1012 77 0 3.08 104 20:42 06.12.2019
3170 Clear 26 1012 78 0 3.15 107 20:23 06.12.2019
3171 Clouds 26 1011 80 0 5.45 118 19:58 06.12.2019
3172 Clouds 26 1011 80 0 5.45 118 19:39 06.12.2019
3173 Clouds 26 1011 80 0 5.45 118 19:21 06.12.2019
3174 Clouds 26 1011 80 0 5.45 118 18:55 06.12.2019
3175 Clouds 26 1011 80 0 5.45 118 18:55 06.12.2019
3176 Clouds 26 1011 80 0 5.45 118 18:36 06.12.2019
3177 Clouds 26 1011 80 0 5.45 118 18:18 06.12.2019
3178 Clouds 26 1011 80 0 5.45 118 17:55 06.12.2019
3179 Clouds 26 1011 80 0 5.45 118 17:37 06.12.2019
3180 Clear 26 1011 81 0 6.73 123 17:19 06.12.2019
3181 Clear 26 1011 81 0 6.73 123 16:42 06.12.2019
3182 Clear 26 1011 81 0 6.73 123 16:23 06.12.2019
3183 Clear 26 1011 81 0 6.73 123 15:56 06.12.2019
3184 Clear 26 1011 81 0 6.73 123 15:38 06.12.2019
3185 Clouds 26 1011 88 10000 3.1 110 15:18 06.12.2019
3186 Clouds 26 1011 88 10000 3.1 110 14:41 06.12.2019
3187 Clouds 26 1012 88 10000 4.1 100 14:20 06.12.2019
3188 Clouds 26 1012 88 10000 4.1 100 13:59 06.12.2019
3189 Clouds 26 1012 88 10000 4.1 100 13:40 06.12.2019
3190 Clouds 27 1011 83 10000 6.7 150 13:22 06.12.2019
3191 Clouds 27 1011 83 10000 6.7 150 12:41 06.12.2019
3192 Clouds 27 1012 80 0 7.03 134 12:22 06.12.2019
3193 Clouds 27 1012 80 0 7.03 134 11:55 06.12.2019
3194 Clouds 27 1012 80 0 7.03 134 11:37 06.12.2019
3195 Clouds 27 1010 83 10000 7.7 160 11:19 06.12.2019
3196 Clouds 27 1010 83 10000 7.7 160 10:42 06.12.2019
3197 Haze 29 1009 74 10000 5.1 150 10:21 06.12.2019
3198 Haze 29 1009 74 10000 5.1 150 09:56 06.12.2019
3199 Haze 29 1009 74 10000 5.1 150 09:37 06.12.2019
3200 Haze 30 1009 70 10000 5.1 170 09:19 06.12.2019
3201 Haze 30 1009 70 10000 5.1 170 08:44 06.12.2019
3202 Haze 30 1009 70 10000 5.1 170 08:44 06.12.2019
3203 Haze 30 1009 70 10000 5.1 170 08:44 06.12.2019
3204 Haze 31 1008 62 10000 5.1 190 08:25 06.12.2019
3205 Haze 31 1008 62 10000 5.1 190 07:44 06.12.2019
3206 Smoke 32 1008 59 10000 5.1 200 07:23 06.12.2019
3207 Smoke 32 1008 59 10000 5.1 200 07:23 06.12.2019
3208 Smoke 32 1008 59 10000 5.1 200 07:23 06.12.2019
3209 -273 0 0 0 0 0 07:23 06.12.2019
3210 Smoke 32 1008 59 10000 5.1 200 07:23 06.12.2019
3211 Smoke 32 1008 59 10000 5.1 200 06:53 06.12.2019
3212 Smoke 32 1008 66 10000 7.7 210 06:26 06.12.2019
3213 Smoke 32 1008 66 10000 7.7 210 05:51 06.12.2019
3214 Smoke 33 1009 63 10000 5.1 190 03:57 06.12.2019
3215 Smoke 31 1010 70 10000 4.1 260 01:48 06.12.2019
3216 Smoke 30 1011 70 10000 4.1 340 00:57 06.12.2019
3217 Smoke 28 1010 74 10000 1.5 0 00:24 06.12.2019
3218 Smoke 28 1010 74 10000 1.5 0 23:56 05.12.2019
3219 Smoke 28 1010 74 10000 1.5 0 23:21 05.12.2019
3220 Smoke 26 1010 83 10000 1.5 350 22:59 05.12.2019
3221 Smoke 26 1010 83 10000 1.5 350 22:39 05.12.2019
3222 Smoke 26 1010 83 10000 1.5 350 22:39 05.12.2019
3223 Smoke 26 1010 83 10000 1.5 350 22:20 05.12.2019
3224 Smoke 24 1009 94 10000 1.5 350 21:58 05.12.2019
3225 Smoke 24 1009 94 10000 1.5 350 21:58 05.12.2019
3226 Smoke 24 1009 94 10000 1.5 350 21:58 05.12.2019
3227 Smoke 24 1009 94 10000 1.5 350 21:40 05.12.2019
3228 Clouds 26 1010 82 0 3.61 117 21:22 05.12.2019
3229 Clouds 26 1010 82 0 3.61 117 20:58 05.12.2019
3230 Clouds 26 1010 82 0 3.61 117 20:39 05.12.2019
3231 Clouds 24 1008 100 10000 1.5 0 20:19 05.12.2019
3232 Clouds 24 1008 100 10000 1.5 0 19:43 05.12.2019
3233 Clouds 24 1008 94 10000 1 0 19:25 05.12.2019
3234 Clouds 24 1008 94 10000 1 0 18:59 05.12.2019
3235 Clouds 24 1008 94 10000 1 0 18:39 05.12.2019
3236 Clouds 24 1009 100 10000 1.5 190 18:21 05.12.2019
3237 Clouds 24 1009 100 10000 1.5 190 18:20 05.12.2019
3238 Clouds 24 1009 100 10000 1.5 190 17:57 05.12.2019
3239 Clouds 24 1009 100 10000 1.5 190 17:38 05.12.2019
3240 Clouds 25 1010 94 10000 1.5 140 17:18 05.12.2019
3241 Clouds 25 1010 94 10000 1.5 140 16:54 05.12.2019
3242 Clouds 25 1010 94 10000 1.5 140 16:36 05.12.2019
3243 Clouds 26 1010 88 10000 2.6 0 16:18 05.12.2019
3244 Clouds 26 1010 88 10000 2.6 0 15:40 05.12.2019
3245 Clouds 27 1011 83 10000 2.6 0 15:21 05.12.2019
3246 Clouds 27 1011 83 10000 2.6 0 14:57 05.12.2019
3247 Clouds 27 1011 83 10000 2.6 0 14:39 05.12.2019
3248 Clouds 27 1010 88 10000 5.1 140 14:20 05.12.2019
3249 Clouds 27 1010 88 10000 5.1 140 13:59 05.12.2019
3250 Clouds 27 1010 88 10000 5.1 140 13:40 05.12.2019
3251 Clouds 27 1010 88 10000 5.1 140 13:40 05.12.2019
3252 Clouds 28 1010 83 10000 5.1 150 13:21 05.12.2019
3253 Clouds 28 1010 83 10000 5.1 150 12:59 05.12.2019
3254 Clouds 28 1010 83 10000 5.1 150 12:40 05.12.2019
3255 Clouds 28 1010 83 10000 8.7 133 12:22 05.12.2019
3256 Clouds 28 1010 83 10000 8.7 133 11:55 05.12.2019
3257 Clouds 28 1010 83 10000 8.7 133 11:36 05.12.2019
3258 Rain 27 1010 86 0 7.26 141 11:18 05.12.2019
3259 Rain 27 1010 86 0 7.26 141 10:54 05.12.2019
3260 Rain 27 1010 86 0 7.26 141 10:36 05.12.2019
3261 Haze 29 1009 79 10000 5.1 150 10:18 05.12.2019
3262 Haze 29 1009 79 10000 5.1 150 09:42 05.12.2019
3263 Haze 31 1008 70 10000 2.6 160 09:20 05.12.2019
3264 Haze 31 1008 70 10000 2.6 160 08:57 05.12.2019
3265 Haze 31 1008 70 10000 2.6 160 08:37 05.12.2019
3266 Haze 31 1008 74 10000 5.1 170 08:19 05.12.2019
3267 Haze 31 1008 74 10000 5.1 170 08:19 05.12.2019
3268 Haze 31 1008 74 10000 5.1 170 07:41 05.12.2019
3269 Clouds 28 1008 79 0 4.87 168 07:23 05.12.2019
3270 Clouds 28 1008 79 0 4.87 168 06:48 05.12.2019
3271 Haze 34 1008 52 10000 7.7 210 06:24 05.12.2019
3272 Haze 34 1008 52 10000 7.7 210 05:56 05.12.2019
3273 Haze 33 1009 59 10000 7.7 230 05:24 05.12.2019
3274 Haze 33 1009 59 10000 7.7 230 04:59 05.12.2019
3275 Clouds 32 1010 66 10000 3.1 230 03:41 05.12.2019
3276 Clouds 31 1010 74 10000 7.7 190 02:42 05.12.2019
3277 Clouds 30 1011 79 10000 5.1 210 02:22 05.12.2019
3278 Clouds 30 1011 79 10000 5.1 210 01:51 05.12.2019
3279 Clouds 32 1011 62 10000 5.1 150 01:23 05.12.2019
3280 Clouds 32 1011 62 10000 5.1 150 00:44 05.12.2019
3281 Clouds 29 1010 74 10000 2.6 320 00:21 05.12.2019
3282 Clouds 29 1010 74 10000 2.6 320 23:55 04.12.2019
3283 Clouds 29 1010 74 10000 2.6 320 23:37 04.12.2019
3284 Clouds 26 1010 94 10000 2.6 310 23:18 04.12.2019
3285 Clouds 26 1010 94 10000 2.6 310 22:39 04.12.2019
3286 Clouds 25 1010 94 10000 2.6 330 22:20 04.12.2019
3287 Clouds 25 1010 94 10000 2.6 330 21:58 04.12.2019
3288 Clouds 25 1010 94 10000 2.6 330 21:38 04.12.2019
3289 Clouds 24 1009 100 10000 2.6 350 21:19 04.12.2019
3290 Clouds 24 1009 100 10000 2.6 350 20:57 04.12.2019
3291 Clouds 24 1009 100 10000 2.6 350 20:39 04.12.2019
3292 Clouds 25 1009 94 10000 1.5 0 20:21 04.12.2019
3293 Clouds 25 1009 94 10000 1.5 0 19:55 04.12.2019
3294 Clouds 25 1009 94 10000 1.5 0 19:55 04.12.2019
3295 Clouds 25 1009 94 10000 1.5 0 19:37 04.12.2019
3296 Clouds 25 1009 94 10000 1.5 0 19:19 04.12.2019
3297 Clouds 25 1009 94 10000 1.5 0 18:42 04.12.2019
3298 Clouds 26 1009 88 10000 3.1 340 18:24 04.12.2019
3299 Clouds 26 1009 88 10000 3.1 340 17:58 04.12.2019
3300 Clouds 26 1009 88 10000 3.1 340 17:39 04.12.2019
3301 Clouds 26 1009 88 10000 1.5 0 17:20 04.12.2019
3302 Clouds 26 1009 88 10000 1.5 0 16:56 04.12.2019
3303 Clouds 26 1009 88 10000 1.5 0 16:38 04.12.2019
3304 Clouds 27 1010 83 10000 1.5 0 16:19 04.12.2019
3305 Clouds 27 1010 83 10000 1.5 0 16:19 04.12.2019
3306 Clouds 27 1010 83 10000 1.5 0 15:55 04.12.2019
3307 Clouds 27 1010 83 10000 1.5 0 15:36 04.12.2019
3308 Clouds 28 1010 84 0 4.9 136 15:18 04.12.2019
3309 Clouds 28 1010 84 0 4.9 136 14:42 04.12.2019
3310 Clouds 28 1010 84 0 4.9 136 14:23 04.12.2019
3311 Clouds 28 1010 84 0 4.9 136 14:23 04.12.2019
3312 Clouds 28 1011 84 0 5.12 148 13:57 04.12.2019
3313 Clouds 28 1011 84 0 5.12 148 13:37 04.12.2019
3314 Rain 28 1011 84 0 5.55 152 13:19 04.12.2019
3315 Rain 28 1011 84 0 5.55 152 12:44 04.12.2019
3316 Rain 28 1011 84 0 5.55 152 12:24 04.12.2019
3317 Rain 28 1011 84 0 5.55 152 11:45 04.12.2019
3318 Rain 28 1011 84 0 5.55 152 11:27 04.12.2019
3319 Clouds 28 1010 85 0 5 162 10:59 04.12.2019
3320 Clouds 28 1010 85 0 5 162 10:41 04.12.2019
3321 Clouds 28 1009 88 10000 6.2 140 10:22 04.12.2019
3322 Clouds 28 1009 88 10000 6.2 140 09:46 04.12.2019
3323 Haze 30 1007 74 10000 7.7 170 09:25 04.12.2019
3324 Haze 30 1007 74 10000 7.7 170 08:59 04.12.2019
3325 Haze 30 1007 74 10000 7.7 170 08:38 04.12.2019
3326 Haze 31 1007 74 10000 5.1 150 08:19 04.12.2019
3327 Haze 31 1007 74 10000 5.1 150 07:42 04.12.2019
3328 Haze 31 1007 74 10000 10.3 190 07:23 04.12.2019
3329 Clouds 28 1007 80 0 5.01 189 06:33 04.12.2019
3330 Haze 33 1007 66 10000 7.7 190 05:48 04.12.2019
3331 Haze 34 1008 63 10000 6.2 200 04:58 04.12.2019
3332 Smoke 34 1008 59 10000 5.1 310 03:54 04.12.2019
3333 Smoke 34 1008 59 10000 5.1 310 03:54 04.12.2019
3334 Haze 31 1010 74 10000 4.1 360 02:21 04.12.2019
3335 Haze 29 1010 83 10000 4.1 320 00:50 04.12.2019
3336 Haze 28 1010 88 10000 1.5 0 00:23 04.12.2019
3337 Haze 28 1010 88 10000 1.5 0 23:56 03.12.2019
3338 Haze 28 1010 88 10000 1.5 0 23:37 03.12.2019
3339 Haze 27 1009 88 10000 1.5 0 23:18 03.12.2019
3340 Haze 27 1009 88 10000 1.5 0 23:18 03.12.2019
3341 Haze 27 1009 88 10000 1.5 0 22:40 03.12.2019
3342 Haze 27 1009 88 10000 1.5 0 22:40 03.12.2019
3343 Smoke 26 1009 94 10000 1.5 0 22:19 03.12.2019
3344 Smoke 26 1009 94 10000 1.5 0 21:57 03.12.2019
3345 Smoke 26 1009 94 10000 1.5 0 21:37 03.12.2019
3346 Clouds 26 1008 94 10000 2.1 0 21:19 03.12.2019
3347 Clouds 26 1008 94 10000 2.1 0 20:56 03.12.2019
3348 Clouds 26 1008 94 10000 2.1 0 20:38 03.12.2019
3349 Clouds 27 1008 83 0 4.05 114 20:18 03.12.2019
3350 Clouds 27 1008 83 0 4.05 114 20:18 03.12.2019
3351 Clouds 27 1008 83 0 4.05 114 19:54 03.12.2019
3352 Clouds 27 1008 83 0 4.05 114 19:36 03.12.2019
3353 Clouds 27 1008 83 0 4.05 114 19:18 03.12.2019
3354 Clouds 27 1008 83 0 4.05 114 18:55 03.12.2019
3355 Clouds 27 1008 83 0 4.05 114 18:37 03.12.2019
3356 Clouds 27 1008 83 0 4.05 114 18:18 03.12.2019
3357 Clouds 27 1008 83 0 4.05 114 17:40 03.12.2019
3358 Clouds 28 1009 84 0 5.97 133 17:19 03.12.2019
3359 Clouds 28 1009 84 0 5.97 133 16:59 03.12.2019
3360 Clouds 28 1009 84 0 5.97 133 16:59 03.12.2019
3361 Clouds 28 1009 84 0 5.97 133 16:40 03.12.2019
3362 Clouds 28 1009 84 0 5.97 133 16:40 03.12.2019
3363 Clouds 28 1009 84 0 5.97 133 16:21 03.12.2019
3364 Clouds 28 1009 84 0 5.97 133 15:59 03.12.2019
3365 Clouds 28 1009 84 0 5.97 133 15:38 03.12.2019
3366 Clouds 28 1009 88 10000 3.1 130 15:19 03.12.2019
3367 Clouds 28 1009 88 10000 3.1 130 14:44 03.12.2019
3368 Clouds 28 1010 94 10000 6.2 160 14:21 03.12.2019
3369 Clouds 28 1010 94 10000 6.2 160 13:59 03.12.2019
3370 Clouds 28 1010 94 10000 6.2 160 13:38 03.12.2019
3371 Clouds 28 1009 88 10000 6.2 160 13:20 03.12.2019
3372 Clouds 28 1009 88 10000 6.2 160 12:57 03.12.2019
3373 Clouds 28 1009 88 10000 6.2 160 12:37 03.12.2019
3374 Clouds 28 1008 88 10000 5.1 160 12:18 03.12.2019
3375 Clouds 28 1008 88 10000 5.1 160 11:55 03.12.2019
3376 Clouds 28 1008 88 10000 5.1 160 11:37 03.12.2019
3377 Clouds 28 1008 88 10000 7.7 160 11:18 03.12.2019
3378 Clouds 28 1008 88 10000 7.7 160 10:43 03.12.2019
3379 Clouds 29 1007 79 10000 7.7 150 10:21 03.12.2019
3380 Clouds 29 1007 79 10000 7.7 150 09:59 03.12.2019
3381 Clouds 29 1007 79 10000 7.7 150 09:40 03.12.2019
3382 Clouds 31 1006 70 10000 7.7 150 09:21 03.12.2019
3383 Clouds 31 1006 70 10000 7.7 150 08:55 03.12.2019
3384 Clouds 31 1006 70 10000 7.7 150 08:37 03.12.2019
3385 Clouds 32 1006 66 10000 7.7 180 08:18 03.12.2019
3386 Clouds 32 1006 66 10000 7.7 180 07:49 03.12.2019
3387 Clouds 32 1006 62 10000 7.7 180 07:24 03.12.2019
3388 Clouds 33 1006 63 10000 5.1 200 06:23 03.12.2019
3389 Clouds 33 1006 63 10000 5.1 200 05:59 03.12.2019
3390 Haze 33 1007 66 10000 7.7 200 04:50 03.12.2019
3391 Haze 34 1008 59 10000 5.1 190 03:40 03.12.2019
3392 Haze 34 1008 59 10000 2.1 310 03:20 03.12.2019
3393 Haze 34 1008 59 10000 2.1 310 02:48 03.12.2019
3394 Haze 32 1009 66 10000 1.5 0 02:27 03.12.2019
3395 Haze 32 1009 66 10000 1.5 0 01:43 03.12.2019
3396 Haze 30 1009 74 10000 1.5 0 01:24 03.12.2019
3397 Haze 30 1009 74 10000 1.5 0 00:56 03.12.2019
3398 Haze 30 1009 74 10000 1.5 0 00:37 03.12.2019
3399 Haze 30 1009 79 10000 2.1 0 00:19 03.12.2019
3400 Haze 30 1009 79 10000 2.1 0 23:43 02.12.2019
3401 Clouds 26 1008 88 10000 2.1 0 23:20 02.12.2019
3402 Clouds 26 1008 88 10000 2.1 0 22:42 02.12.2019
3403 Clouds 26 1007 88 10000 2.1 0 22:22 02.12.2019
3404 Clouds 26 1007 88 10000 2.1 0 21:58 02.12.2019
3405 Clouds 26 1007 88 10000 2.1 0 21:37 02.12.2019
3406 Clear 27 1009 80 0 0.5 132 21:19 02.12.2019
3407 Clear 27 1009 80 0 0.5 132 20:56 02.12.2019
3408 Clear 27 1009 80 0 0.5 132 20:38 02.12.2019
3409 Clear 27 1007 84 0 1.4 78 20:19 02.12.2019
3410 Clear 27 1007 84 0 1.4 78 19:43 02.12.2019
3411 -273 0 0 0 0 0 19:23 02.12.2019
3412 Clear 27 1007 84 0 1.4 78 18:59 02.12.2019
3413 Clear 27 1007 84 0 1.4 78 18:59 02.12.2019
3414 Clear 27 1007 84 0 1.4 78 18:41 02.12.2019
3415 Clear 27 1007 84 0 1.4 78 18:19 02.12.2019
3416 Clear 27 1007 84 0 1.4 78 17:58 02.12.2019
3417 Clear 27 1007 84 0 1.4 78 17:39 02.12.2019
3418 Clear 27 1008 84 0 2.33 124 17:19 02.12.2019
3419 Clear 27 1008 84 0 2.33 124 16:40 02.12.2019
3420 Clear 27 1008 84 0 2.33 124 16:19 02.12.2019
3421 Clear 27 1008 84 0 2.33 124 15:58 02.12.2019
3422 Clear 27 1008 84 0 2.33 124 15:40 02.12.2019
3423 Clear 27 1008 84 0 2.33 124 15:22 02.12.2019
3424 Clear 27 1008 84 0 2.33 124 14:59 02.12.2019
3425 Clear 27 1008 84 0 2.33 124 14:38 02.12.2019
3426 Clouds 28 1009 82 0 2.09 98 14:20 02.12.2019
3427 Clouds 28 1009 82 0 2.09 98 13:57 02.12.2019
3428 Clouds 28 1009 82 0 2.09 98 13:39 02.12.2019
3429 Clouds 28 1009 82 0 2.09 98 13:39 02.12.2019
3430 Clouds 28 1009 84 0 2.5 113 13:19 02.12.2019
3431 Clouds 28 1009 84 0 2.5 113 12:55 02.12.2019
3432 Clouds 28 1009 84 0 2.5 113 12:37 02.12.2019
3433 Clouds 28 1009 84 0 2.5 113 12:18 02.12.2019
3434 Clouds 28 1009 84 0 2.5 113 11:38 02.12.2019
3435 Clouds 28 1007 83 0 3.49 149 11:20 02.12.2019
3436 Clouds 28 1007 83 0 3.49 149 10:58 02.12.2019
3437 Clouds 28 1007 83 0 3.49 149 10:40 02.12.2019
3438 Clouds 28 1007 83 0 3.49 149 10:21 02.12.2019
3439 Clouds 28 1007 83 0 3.49 149 09:56 02.12.2019
3440 Clouds 28 1007 83 0 3.49 149 09:38 02.12.2019
3441 Haze 28 1006 83 10000 2.6 150 09:18 02.12.2019
3442 Haze 28 1006 83 10000 2.6 150 08:55 02.12.2019
3443 Haze 28 1006 83 10000 2.6 150 08:36 02.12.2019
3444 Haze 30 1005 74 10000 5.1 150 08:18 02.12.2019
3445 Haze 30 1005 74 10000 5.1 150 07:39 02.12.2019
3446 Haze 30 1005 74 10000 6.2 190 07:20 02.12.2019
3447 Haze 30 1005 74 10000 6.2 190 06:42 02.12.2019
3448 Haze 30 1005 74 10000 7.7 210 05:49 02.12.2019
3449 Clear 29 1006 75 0 4.11 216 05:19 02.12.2019
3450 Haze 34 1005 63 10000 7.7 210 03:35 02.12.2019
3451 Clouds 33 1006 59 10000 5.1 350 02:50 02.12.2019
3452 Clear 32 1006 62 10000 2.6 330 01:49 02.12.2019
3453 Clear 31 1007 70 10000 3.1 320 01:21 02.12.2019
3454 Clear 31 1007 70 10000 3.1 320 00:39 02.12.2019
3455 Clouds 29 1008 79 10000 3.1 350 00:21 02.12.2019
3456 Clouds 29 1008 79 10000 3.1 350 23:43 01.12.2019
3457 Clouds 27 1007 83 10000 3.1 24 23:22 01.12.2019
3458 Clouds 27 1007 83 10000 3.1 24 22:56 01.12.2019
3459 Clouds 27 1007 83 10000 3.1 24 22:38 01.12.2019
3460 Clouds 25 1007 94 10000 1.5 0 22:19 01.12.2019
3461 Clouds 25 1007 94 10000 1.5 0 21:56 01.12.2019
3462 Clouds 25 1007 94 10000 1.5 0 21:56 01.12.2019
3463 Clouds 25 1007 94 10000 1.5 0 21:38 01.12.2019
3464 Clouds 25 1007 94 10000 1.5 0 21:38 01.12.2019
3465 Clouds 24 1006 100 10000 2.1 0 21:19 01.12.2019
3466 Clouds 24 1006 100 10000 2.1 0 20:58 01.12.2019
3467 Clouds 24 1006 100 10000 2.1 0 20:39 01.12.2019
3468 Clouds 25 1006 100 10000 1.5 0 20:21 01.12.2019
3469 Clouds 25 1006 100 10000 1.5 0 19:57 01.12.2019
3470 Clouds 25 1006 100 10000 1.5 0 19:38 01.12.2019
3471 Clouds 26 1006 94 10000 1.5 0 19:20 01.12.2019
3472 Clouds 26 1006 94 10000 1.5 0 18:55 01.12.2019
3473 Clouds 26 1006 94 10000 1.5 0 18:37 01.12.2019
3474 Clouds 26 1006 94 10000 1.5 0 18:37 01.12.2019
3475 Clouds 26 1007 94 10000 1 0 18:18 01.12.2019
3476 Clouds 26 1007 94 10000 1 0 17:56 01.12.2019
3477 Clouds 26 1007 94 10000 1 0 17:38 01.12.2019
3478 Clouds 26 1007 94 10000 2.1 0 17:19 01.12.2019
3479 Clouds 26 1007 94 10000 2.1 0 16:44 01.12.2019
3480 Clouds 26 1008 94 10000 1.5 0 16:24 01.12.2019
3481 Clouds 26 1008 94 10000 1.5 0 15:54 01.12.2019
3482 Clouds 26 1008 94 10000 1.5 0 15:34 01.12.2019
3483 Clouds 27 1008 94 10000 1.5 0 14:59 01.12.2019
3484 Clouds 27 1008 94 10000 1.5 0 14:38 01.12.2019
3485 Clouds 27 1008 94 10000 1.5 0 14:19 01.12.2019
3486 Clouds 27 1008 94 10000 1.5 0 13:40 01.12.2019
3487 Clouds 27 1008 94 10000 2.1 150 13:21 01.12.2019
3488 Clouds 27 1008 94 10000 2.1 150 13:21 01.12.2019
3489 Clouds 27 1008 94 10000 2.1 150 12:47 01.12.2019
3490 Clouds 27 1008 94 10000 2.1 160 12:19 01.12.2019
3491 Clouds 27 1008 94 10000 2.1 160 11:44 01.12.2019
3492 Rain 27 1009 87 0 4.81 133 11:24 01.12.2019
3493 Clear 28 1007 84 0 4.52 156 10:55 01.12.2019
3494 Clear 28 1007 84 0 4.52 156 10:37 01.12.2019
3495 Clear 28 1007 84 0 4.52 156 10:18 01.12.2019
3496 Clear 28 1007 84 0 4.52 156 09:41 01.12.2019
3497 Clouds 30 1006 79 10000 7.7 180 09:21 01.12.2019
3498 Clouds 30 1006 79 10000 7.7 180 08:49 01.12.2019
3499 Clouds 30 1005 79 10000 7.7 200 08:22 01.12.2019
3500 Clouds 30 1005 79 10000 7.7 200 07:52 01.12.2019
3501 Clouds 32 1004 70 10000 7.7 200 07:32 01.12.2019
3502 Clouds 32 1004 70 10000 7.7 200 07:32 01.12.2019
3503 Clouds 32 1004 70 10000 7.7 200 06:58 01.12.2019
3504 Clouds 32 1004 70 10000 7.7 200 06:36 01.12.2019
3505 Clouds 32 1006 75 10000 7.7 180 05:50 01.12.2019
3506 Clouds 32 1006 75 10000 7.7 230 04:53 01.12.2019
3507 Clouds 32 1006 75 10000 7.7 200 03:39 01.12.2019
3508 Haze 32 1007 70 10000 5.1 210 02:38 01.12.2019
3509 Haze 31 1008 70 10000 5.1 280 02:19 01.12.2019
3510 Haze 31 1008 70 10000 5.1 280 01:52 01.12.2019
3511 Haze 30 1008 70 10000 5.1 310 01:26 01.12.2019
3512 Haze 30 1008 70 10000 5.1 310 00:43 01.12.2019
3513 Smoke 27 1009 94 10000 2.1 0 00:24 01.12.2019
3514 Smoke 27 1009 94 10000 2.1 0 23:44 30.11.2019
3515 Clouds 26 1008 94 10000 2.1 0 23:24 30.11.2019
3516 Clouds 26 1008 94 10000 2.1 0 23:24 30.11.2019
3517 Clouds 26 1008 94 10000 2.1 0 22:57 30.11.2019
3518 Clouds 26 1008 94 10000 2.1 0 22:38 30.11.2019
3519 Clouds 25 1008 100 10000 1.5 0 22:20 30.11.2019
3520 Clouds 25 1008 100 10000 1.5 0 21:44 30.11.2019
3521 Clouds 24 1007 100 10000 2.6 330 21:25 30.11.2019
3522 Clouds 24 1007 100 10000 2.6 330 20:56 30.11.2019
3523 Clouds 24 1007 100 10000 2.6 330 20:38 30.11.2019
3524 Clouds 24 1007 100 10000 2.6 330 20:38 30.11.2019
3525 Rain 26 1007 88 0 2.42 53 20:19 30.11.2019
3526 Rain 26 1007 88 0 2.42 53 20:19 30.11.2019
3527 Rain 26 1007 88 0 2.42 53 19:55 30.11.2019
3528 Rain 26 1007 88 0 2.42 53 19:37 30.11.2019
3529 Rain 26 1007 88 0 2.42 53 19:19 30.11.2019
3530 Rain 26 1007 88 0 2.42 53 18:56 30.11.2019
3531 Rain 26 1007 88 0 2.42 53 18:37 30.11.2019
3532 Rain 26 1007 88 0 2.42 53 18:18 30.11.2019
3533 Rain 26 1007 88 0 2.42 53 17:56 30.11.2019
3534 Rain 26 1007 88 0 2.42 53 17:56 30.11.2019
3535 Rain 26 1007 88 0 2.42 53 17:37 30.11.2019
3536 Rain 27 1008 87 0 6.2 123 17:19 30.11.2019
3537 Rain 27 1008 87 0 6.2 123 16:55 30.11.2019
3538 Rain 27 1008 87 0 6.2 123 16:37 30.11.2019
3539 Rain 27 1008 87 0 6.2 123 16:18 30.11.2019
3540 Rain 27 1008 87 0 6.2 123 15:41 30.11.2019
3541 Rain 27 1008 87 0 6.2 123 15:19 30.11.2019
3542 Rain 27 1008 87 0 6.2 123 14:56 30.11.2019
3543 Rain 27 1008 87 0 6.2 123 14:37 30.11.2019
3544 Rain 27 1009 86 0 7.97 137 14:18 30.11.2019
3545 Rain 27 1009 86 0 7.97 137 13:56 30.11.2019
3546 Rain 27 1009 86 0 7.97 137 13:36 30.11.2019
3547 Rain 27 1009 87 0 8.25 136 13:18 30.11.2019
3548 Rain 27 1009 87 0 8.25 136 13:18 30.11.2019
3549 Rain 27 1009 87 0 8.25 136 12:42 30.11.2019
3550 Rain 27 1009 87 0 8.25 136 12:24 30.11.2019
3551 Rain 27 1009 87 0 8.25 136 11:43 30.11.2019
3552 Clear 27 1008 86 0 8.51 146 11:20 30.11.2019
3553 Clear 27 1008 86 0 8.51 146 10:56 30.11.2019
3554 Clear 27 1008 86 0 8.51 146 10:38 30.11.2019
3555 Haze 28 1007 83 10000 5.7 150 10:19 30.11.2019
3556 Haze 28 1007 83 10000 5.7 150 09:46 30.11.2019
3557 Haze 29 1006 79 10000 5.1 140 09:27 30.11.2019
3558 Haze 29 1006 79 10000 5.1 140 08:44 30.11.2019
3559 Haze 30 1006 79 10000 6.7 140 08:22 30.11.2019
3560 Haze 30 1006 79 10000 6.7 140 07:58 30.11.2019
3561 Haze 30 1006 79 10000 6.7 140 07:39 30.11.2019
3562 Haze 31 1006 74 10000 5.1 140 07:20 30.11.2019
3563 Haze 31 1006 70 10000 7.7 130 06:30 30.11.2019
3564 Haze 31 1006 70 10000 7.7 130 05:53 30.11.2019
3565 Smoke 32 1007 66 10000 5.7 170 03:54 30.11.2019
3566 Smoke 32 1008 59 10000 5.1 170 02:53 30.11.2019
3567 Smoke 31 1009 66 10000 5.1 140 02:22 30.11.2019
3568 Smoke 31 1009 66 10000 5.1 140 01:38 30.11.2019
3569 Smoke 31 1009 66 10000 5.1 140 01:38 30.11.2019
3570 Smoke 30 1009 66 10000 1.5 0 01:19 30.11.2019
3571 Smoke 30 1009 66 10000 1.5 0 00:36 30.11.2019
3572 Smoke 28 1010 78 10000 1.5 0 00:18 30.11.2019
3573 Smoke 28 1010 78 10000 1.5 0 23:41 29.11.2019
3574 Smoke 24 1010 94 10000 1.5 0 23:23 29.11.2019
3575 Smoke 24 1010 94 10000 1.5 0 22:46 29.11.2019
3576 Smoke 24 1010 94 10000 1.5 0 22:46 29.11.2019
3577 Clouds 22 1009 100 10000 1.5 0 22:26 29.11.2019
3578 Clouds 22 1009 100 10000 1.5 0 21:45 29.11.2019
3579 Clouds 26 1010 77 0 2.16 22 21:25 29.11.2019
3580 Clouds 26 1010 77 0 2.16 22 20:59 29.11.2019
3581 Clouds 26 1010 77 0 2.16 22 20:39 29.11.2019
3582 Clouds 23 1008 100 10000 1.5 0 20:20 29.11.2019
3583 Clouds 23 1008 100 10000 1.5 0 19:58 29.11.2019
3584 Clouds 23 1008 100 10000 1.5 0 19:39 29.11.2019
3585 Clouds 26 1008 78 0 1.16 86 19:20 29.11.2019
3586 Clouds 26 1008 78 0 1.16 86 19:20 29.11.2019
3587 Clouds 26 1008 78 0 1.16 86 18:58 29.11.2019
3588 Clouds 26 1008 78 0 1.16 86 18:39 29.11.2019
3589 Clouds 26 1008 78 0 1.16 86 18:20 29.11.2019
3590 Clouds 26 1008 78 0 1.16 86 17:44 29.11.2019
3591 Clouds 23 1008 100 10000 1.5 0 17:25 29.11.2019
3592 Clouds 23 1008 100 10000 1.5 0 16:57 29.11.2019
3593 Clouds 23 1008 100 10000 1.5 0 16:57 29.11.2019
3594 Clouds 23 1008 100 10000 1.5 0 16:38 29.11.2019
3595 Clouds 24 1009 100 10000 3.1 140 16:18 29.11.2019
3596 Clouds 24 1009 100 10000 3.1 140 15:41 29.11.2019
3597 Clouds 25 1009 94 10000 4.6 130 15:23 29.11.2019
3598 Clouds 25 1009 94 10000 4.6 130 14:56 29.11.2019
3599 Clouds 25 1009 94 10000 4.6 130 14:38 29.11.2019
3600 Clouds 26 1009 88 10000 5.1 140 14:19 29.11.2019
3601 Clouds 26 1009 88 10000 5.1 140 13:41 29.11.2019
3602 Clouds 27 1009 88 10000 5.1 150 13:21 29.11.2019
3603 Clouds 27 1009 88 10000 5.1 150 12:56 29.11.2019
3604 Clouds 27 1009 88 10000 5.1 150 12:37 29.11.2019
3605 Clouds 27 1009 88 10000 7.7 140 12:19 29.11.2019
3606 Clouds 27 1009 88 10000 7.7 140 11:41 29.11.2019
3607 Clouds 27 1008 88 10000 3.1 150 11:19 29.11.2019
3608 Clouds 27 1008 88 10000 3.1 150 10:59 29.11.2019
3609 Clouds 27 1008 88 10000 3.1 150 10:40 29.11.2019
3610 Haze 28 1007 83 10000 7.7 160 10:22 29.11.2019
3611 Haze 28 1007 83 10000 7.7 160 09:59 29.11.2019
3612 Haze 28 1007 83 10000 7.7 160 09:40 29.11.2019
3613 Haze 29 1007 79 10000 5.1 150 09:22 29.11.2019
3614 Haze 29 1007 79 10000 5.1 150 08:58 29.11.2019
3615 Haze 29 1007 79 10000 5.1 150 08:38 29.11.2019
3616 Haze 30 1007 74 10000 5.1 140 08:20 29.11.2019
3617 Haze 30 1007 74 10000 5.1 140 07:42 29.11.2019
3618 Haze 30 1007 74 10000 5.1 140 07:23 29.11.2019
3619 Smoke 30 1007 66 10000 10.3 170 06:55 29.11.2019
3620 Smoke 30 1007 66 10000 10.3 170 06:36 29.11.2019
3621 Smoke 31 1007 66 10000 10.3 160 05:47 29.11.2019
3622 Haze 32 1008 59 10000 2.6 160 05:23 29.11.2019
3623 Haze 32 1008 59 10000 7.7 140 03:43 29.11.2019
3624 Haze 32 1009 59 10000 7.7 190 03:19 29.11.2019
3625 Haze 32 1009 59 10000 7.7 190 02:25 29.11.2019
3626 Haze 31 1010 58 10000 2.6 130 01:49 29.11.2019
3627 Haze 31 1010 58 10000 2.6 130 01:23 29.11.2019
3628 Haze 30 1011 62 10000 5.1 150 00:41 29.11.2019
3629 Haze 28 1011 74 10000 2.6 270 00:20 29.11.2019
3630 Haze 28 1011 74 10000 2.6 270 23:44 28.11.2019
3631 Haze 25 1010 88 10000 2.6 320 23:21 28.11.2019
3632 Haze 25 1010 88 10000 2.6 320 23:21 28.11.2019
3633 Haze 25 1010 88 10000 2.6 320 22:57 28.11.2019
3634 Haze 25 1010 88 10000 2.6 320 22:37 28.11.2019
3635 Haze 25 1010 88 10000 2.6 320 22:19 28.11.2019
3636 Haze 23 1010 100 10000 1.5 0 21:55 28.11.2019
3637 Haze 23 1010 100 10000 1.5 0 21:36 28.11.2019
3638 Clouds 24 1009 94 10000 1.5 0 21:18 28.11.2019
3639 Clouds 24 1009 94 10000 1.5 0 20:42 28.11.2019
3640 Clouds 24 1008 88 10000 1.5 0 20:22 28.11.2019
3641 Clouds 24 1008 88 10000 1.5 0 19:58 28.11.2019
3642 Clouds 24 1008 88 10000 1.5 0 19:40 28.11.2019
3643 Clouds 26 1010 77 0 6.77 132 19:21 28.11.2019
3644 Clouds 26 1010 77 0 6.77 132 18:58 28.11.2019
3645 -273 0 0 0 0 0 18:39 28.11.2019
3646 Clouds 25 1008 83 10000 2.6 140 18:18 28.11.2019
3647 Clouds 25 1008 83 10000 2.6 140 17:58 28.11.2019
3648 Clouds 25 1008 83 10000 2.6 140 17:58 28.11.2019
3649 Clouds 25 1008 83 10000 2.6 140 17:40 28.11.2019
3650 Clouds 26 1009 83 10000 4.1 130 17:20 28.11.2019
3651 Clouds 26 1009 83 10000 4.1 130 16:41 28.11.2019
3652 Clouds 26 1010 76 0 7.26 128 16:19 28.11.2019
3653 Clouds 26 1010 76 0 7.26 128 15:58 28.11.2019
3654 Clouds 26 1010 76 0 7.26 128 15:39 28.11.2019
3655 Clouds 26 1010 76 0 7.26 128 15:20 28.11.2019
3656 Clouds 26 1010 76 0 7.26 128 14:58 28.11.2019
3657 Clouds 26 1010 76 0 7.26 128 14:39 28.11.2019
3658 Clear 27 1012 78 0 8.49 135 14:19 28.11.2019
3659 Clear 27 1012 78 0 8.49 135 13:43 28.11.2019
3660 Clear 27 1011 77 0 8.6 132 13:23 28.11.2019
3661 Clear 27 1011 77 0 8.6 132 12:56 28.11.2019
3662 Clear 27 1011 77 0 8.6 132 12:38 28.11.2019
3663 Clear 27 1011 77 0 8.6 132 12:20 28.11.2019
3664 Clear 27 1011 77 0 8.6 132 11:55 28.11.2019
3665 Clear 27 1011 77 0 8.6 132 11:55 28.11.2019
3666 Clear 27 1011 77 0 8.6 132 11:37 28.11.2019
3667 Clear 27 1009 79 0 7.61 145 11:18 28.11.2019
3668 Clear 27 1009 79 0 7.61 145 10:42 28.11.2019
3669 Haze 28 1008 74 10000 5.1 150 10:21 28.11.2019
3670 Haze 28 1008 74 10000 5.1 150 09:56 28.11.2019
3671 Haze 28 1008 74 10000 5.1 150 09:56 28.11.2019
3672 Haze 28 1008 74 10000 5.1 150 09:38 28.11.2019
3673 Haze 28 1008 74 10000 5.1 150 09:18 28.11.2019
3674 Haze 29 1007 66 10000 2.6 140 08:40 28.11.2019
3675 Haze 29 1007 66 10000 2.6 140 08:21 28.11.2019
3676 Haze 30 1007 62 10000 5.1 140 07:43 28.11.2019
3677 Haze 30 1007 62 10000 5.1 140 07:43 28.11.2019
3678 Haze 30 1007 62 10000 5.1 140 07:25 28.11.2019
3679 Haze 31 1007 62 10000 5.1 150 06:58 28.11.2019
3680 Haze 31 1007 62 10000 5.1 150 06:37 28.11.2019
3681 Haze 31 1007 62 10000 5.1 160 05:53 28.11.2019
3682 Haze 31 1007 62 10000 5.1 160 05:33 28.11.2019
3683 Haze 31 1008 58 10000 7.7 160 03:43 28.11.2019
3684 Haze 32 1009 52 10000 7.7 150 02:18 28.11.2019
3685 Clouds 30 1010 62 10000 1.5 0 00:52 28.11.2019
3686 Clouds 30 1010 62 10000 1.5 0 00:26 28.11.2019
3687 Clouds 28 1010 69 10000 1.5 0 23:59 27.11.2019
3688 Clouds 28 1010 69 10000 1.5 0 23:38 27.11.2019
3689 Clouds 28 1010 69 10000 1.5 0 23:19 27.11.2019
3690 Clouds 24 1010 88 10000 1.5 0 22:54 27.11.2019
3691 Clouds 24 1010 88 10000 1.5 0 22:36 27.11.2019
3692 Clouds 24 1010 88 10000 1.5 0 22:18 27.11.2019
3693 Clouds 23 1010 94 10000 1.5 0 21:55 27.11.2019
3694 Clouds 23 1010 94 10000 1.5 0 21:36 27.11.2019
3695 Clouds 23 1009 94 10000 1.5 0 21:18 27.11.2019
3696 Clouds 23 1009 94 10000 1.5 0 21:18 27.11.2019
3697 -273 0 0 0 0 0 20:55 27.11.2019
3698 Clouds 23 1009 94 10000 1.5 0 20:36 27.11.2019
3699 Clouds 23 1009 94 10000 1.5 0 20:36 27.11.2019
3700 Clouds 23 1009 94 10000 1.5 0 20:18 27.11.2019
3701 Clouds 26 1009 74 0 5.5 120 19:54 27.11.2019
3702 Clouds 26 1009 74 0 5.5 120 19:36 27.11.2019
3703 Clouds 23 1008 94 10000 1.5 0 19:18 27.11.2019
3704 Clouds 23 1008 94 10000 1.5 0 18:38 27.11.2019
3705 Clouds 23 1008 94 10000 1.5 0 18:38 27.11.2019
3706 Clouds 23 1008 94 10000 1.5 0 18:19 27.11.2019
3707 Clouds 26 1009 74 0 5.5 120 17:59 27.11.2019
3708 Clouds 26 1009 74 0 5.5 120 17:40 27.11.2019
3709 Clouds 26 1009 78 10000 1.5 0 17:22 27.11.2019
3710 Clouds 26 1009 78 10000 1.5 0 16:57 27.11.2019
3711 Clouds 26 1009 78 10000 1.5 0 16:39 27.11.2019
3712 Clouds 26 1009 78 10000 1.5 0 16:21 27.11.2019
3713 Clouds 26 1009 77 0 6.43 127 15:57 27.11.2019
3714 Clouds 26 1009 77 0 6.43 127 15:39 27.11.2019
3715 Clouds 26 1009 77 0 6.43 127 15:21 27.11.2019
3716 Clouds 26 1009 77 0 6.43 127 14:57 27.11.2019
3717 Clouds 26 1009 77 0 6.43 127 14:39 27.11.2019
3718 Clouds 26 1011 77 0 6.79 134 14:21 27.11.2019
3719 Clouds 26 1011 77 0 6.79 134 13:57 27.11.2019
3720 Clouds 26 1011 77 0 6.79 134 13:38 27.11.2019
3721 Clouds 26 1011 77 0 6.79 134 13:19 27.11.2019
3722 Clouds 26 1010 77 0 6.84 132 12:55 27.11.2019
3723 Clouds 26 1010 77 0 6.84 132 12:37 27.11.2019
3724 Clouds 26 1010 77 0 6.84 132 12:18 27.11.2019
3725 Clouds 26 1010 77 0 6.84 132 11:38 27.11.2019
3726 Clouds 27 1010 78 0 6.43 143 11:19 27.11.2019
3727 Clouds 27 1010 78 0 6.43 143 10:55 27.11.2019
3728 Clouds 27 1010 78 0 6.43 143 10:37 27.11.2019
3729 Haze 27 1009 83 10000 6.7 160 10:19 27.11.2019
3730 Haze 27 1009 83 10000 6.7 160 09:43 27.11.2019
3731 Haze 28 1008 74 10000 8.7 150 09:24 27.11.2019
3732 Haze 28 1008 74 10000 8.7 150 08:43 27.11.2019
3733 Haze 29 1007 70 10000 8.7 160 08:25 27.11.2019
3734 Haze 29 1007 70 10000 8.7 160 07:59 27.11.2019
3735 Haze 29 1007 70 10000 8.7 160 07:40 27.11.2019
3736 Haze 30 1007 62 10000 9.3 140 07:20 27.11.2019
3737 Haze 30 1007 62 10000 9.3 140 06:45 27.11.2019
3738 Haze 30 1007 62 10000 9.3 140 06:25 27.11.2019
3739 Clouds 31 1007 58 10000 9.3 190 05:26 27.11.2019
3740 Clouds 31 1008 58 10000 6.2 170 04:56 27.11.2019
3741 Clouds 31 1008 58 10000 6.2 170 04:36 27.11.2019
3742 Smoke 31 1008 62 10000 6.2 190 03:48 27.11.2019
3743 Smoke 31 1008 62 10000 6.2 190 03:21 27.11.2019
3744 Smoke 31 1010 62 10000 5.1 170 02:48 27.11.2019
3745 Smoke 30 1010 62 10000 2.1 0 01:26 27.11.2019
3746 Smoke 30 1011 62 10000 1.5 0 00:42 27.11.2019
3747 Smoke 30 1011 62 10000 1.5 0 00:23 27.11.2019
3748 Smoke 26 1010 78 10000 1.5 0 23:42 26.11.2019
3749 Smoke 26 1010 78 10000 1.5 0 23:24 26.11.2019
3750 Smoke 24 1010 94 10000 1.5 0 22:55 26.11.2019
3751 Smoke 24 1010 94 10000 1.5 0 22:37 26.11.2019
3752 Smoke 24 1010 94 10000 1.5 0 22:18 26.11.2019
3753 Clouds 21 1008 100 10000 2.6 310 21:39 26.11.2019
3754 Clouds 21 1008 100 10000 2.6 310 21:21 26.11.2019
3755 Clear 25 1011 75 0 3.45 114 20:57 26.11.2019
3756 Clear 25 1011 75 0 3.45 114 20:39 26.11.2019
3757 Clouds 25 1009 77 0 4.29 114 20:19 26.11.2019
3758 Clouds 25 1009 77 0 5.34 119 19:56 26.11.2019
3759 Clouds 25 1009 77 0 5.34 119 19:38 26.11.2019
3760 Clouds 25 1009 77 0 5.34 119 19:19 26.11.2019
3761 Clouds 25 1009 77 0 5.34 119 18:58 26.11.2019
3762 Clouds 25 1009 77 0 5.34 119 18:39 26.11.2019
3763 Clouds 25 1009 77 0 5.34 119 18:21 26.11.2019
3764 Clouds 25 1009 77 0 5.34 119 17:58 26.11.2019
3765 Clouds 25 1009 77 0 5.34 119 17:40 26.11.2019
3766 Clouds 26 1009 78 0 6.81 125 17:21 26.11.2019
3767 Clouds 26 1009 78 0 6.81 125 16:57 26.11.2019
3768 Clouds 26 1009 78 0 6.81 125 16:37 26.11.2019
3769 Clouds 26 1009 78 0 6.81 125 16:19 26.11.2019
3770 Clouds 24 1009 88 10000 2.6 200 15:58 26.11.2019
3771 Clouds 24 1009 88 10000 2.6 200 15:37 26.11.2019
3772 Clouds 24 1009 88 10000 2.6 200 15:37 26.11.2019
3773 Clouds 25 1010 83 10000 3.1 100 15:19 26.11.2019
3774 Clouds 25 1010 83 10000 3.1 100 14:47 26.11.2019
3775 Clouds 25 1010 83 10000 4.1 140 14:25 26.11.2019
3776 Clear 26 1011 78 0 7.79 133 13:56 26.11.2019
3777 Clear 26 1011 78 0 7.79 133 13:38 26.11.2019
3778 Clouds 26 1009 83 10000 7.7 140 13:18 26.11.2019
3779 Clouds 26 1009 83 10000 7.7 140 12:38 26.11.2019
3780 Clouds 26 1009 83 10000 7.7 140 12:20 26.11.2019
3781 Clear 26 1011 77 0 7.72 133 11:58 26.11.2019
3782 Clear 26 1011 77 0 7.72 133 11:38 26.11.2019
3783 Haze 26 1008 83 10000 7.7 160 11:19 26.11.2019
3784 Clear 27 1009 77 0 7.29 143 10:57 26.11.2019
3785 Clear 27 1009 77 0 7.29 143 10:39 26.11.2019
3786 Haze 27 1008 83 10000 7.7 130 10:20 26.11.2019
3787 Haze 27 1008 83 10000 7.7 130 09:55 26.11.2019
3788 Haze 27 1008 83 10000 7.7 130 09:37 26.11.2019
3789 Haze 27 1008 83 10000 7.7 130 09:18 26.11.2019
3790 Haze 28 1007 74 10000 9.3 150 08:42 26.11.2019
3791 Haze 29 1007 70 10000 9.3 150 08:22 26.11.2019
3792 Haze 29 1007 70 10000 9.3 150 07:44 26.11.2019
3793 Haze 29 1007 70 10000 9.3 150 07:25 26.11.2019
3794 Haze 29 1007 70 10000 9.3 120 06:54 26.11.2019
3795 Haze 29 1007 70 10000 9.3 120 06:22 26.11.2019
3796 Haze 32 1007 55 10000 9.3 190 05:39 26.11.2019
3797 Haze 31 1009 58 10000 5.1 220 03:58 26.11.2019
3798 Haze 31 1010 55 10000 5.1 180 01:55 26.11.2019
3799 Haze 31 1010 55 10000 5.1 180 01:29 26.11.2019
3800 Smoke 29 1011 66 10000 2.6 300 00:48 26.11.2019
3801 Smoke 29 1011 66 10000 2.6 300 00:23 26.11.2019
3802 Smoke 28 1011 69 10000 2.6 200 23:39 25.11.2019
3803 Smoke 28 1011 69 10000 2.6 200 23:39 25.11.2019
3804 Smoke 28 1011 69 10000 2.6 200 23:39 25.11.2019
3805 Haze 24 1010 94 10000 1 0 23:20 25.11.2019
3806 Haze 24 1010 94 10000 1 0 22:56 25.11.2019
3807 Haze 24 1010 94 10000 1 0 22:37 25.11.2019
3808 Haze 24 1010 94 10000 1 0 22:18 25.11.2019
3809 Clouds 22 1010 94 10000 2.1 280 21:55 25.11.2019
3810 Clouds 22 1010 94 10000 2.1 280 21:36 25.11.2019
3811 Clouds 22 1010 94 10000 2.1 280 21:18 25.11.2019
3812 Clouds 22 1010 94 10000 2.1 280 21:18 25.11.2019
3813 Clouds 22 1009 100 10000 1.5 0 20:54 25.11.2019
3814 Clouds 22 1009 100 10000 1.5 0 20:36 25.11.2019
3815 Clouds 22 1009 100 10000 1.5 0 20:18 25.11.2019
3816 Clouds 22 1009 100 10000 1.5 0 19:54 25.11.2019
3817 Clouds 22 1009 100 10000 1.5 0 19:36 25.11.2019
3818 Clouds 22 1009 100 10000 1.5 0 19:18 25.11.2019
3819 Clouds 22 1009 100 10000 1.5 0 19:18 25.11.2019
3820 Clouds 22 1009 94 10000 1.5 0 18:54 25.11.2019
3821 Clouds 22 1009 94 10000 1.5 0 18:36 25.11.2019
3822 Clouds 22 1009 94 10000 1.5 0 18:36 25.11.2019
3823 Clouds 22 1009 94 10000 1.5 0 18:18 25.11.2019
3824 Clouds 22 1009 94 10000 1.5 0 17:54 25.11.2019
3825 Clouds 22 1009 94 10000 1.5 0 17:54 25.11.2019
3826 Clouds 22 1009 94 10000 1.5 0 17:36 25.11.2019
3827 Clouds 23 1009 94 10000 1.5 0 17:18 25.11.2019
3828 Clouds 23 1009 94 10000 1.5 0 16:41 25.11.2019
3829 Clouds 23 1009 94 10000 1.5 0 16:23 25.11.2019
3830 Clouds 25 1010 83 10000 4.1 120 15:57 25.11.2019
3831 Clouds 25 1010 83 10000 4.1 120 15:37 25.11.2019
3832 Clouds 25 1010 83 10000 4.1 120 15:19 25.11.2019
3833 Clouds 25 1010 83 10000 4.1 120 15:19 25.11.2019
3834 Clouds 25 1010 88 10000 3.1 150 14:54 25.11.2019
3835 Clouds 25 1010 88 10000 3.1 150 14:36 25.11.2019
3836 Clouds 26 1010 83 10000 5.1 140 14:18 25.11.2019
3837 Clouds 26 1010 83 10000 5.1 140 13:39 25.11.2019
3838 Clouds 26 1010 88 10000 7.7 150 13:20 25.11.2019
3839 Clouds 26 1010 88 10000 7.7 150 12:59 25.11.2019
3840 Clouds 26 1010 88 10000 7.7 150 12:59 25.11.2019
3841 Clouds 26 1010 88 10000 7.7 150 12:39 25.11.2019
3842 Clouds 26 1010 88 10000 7.7 150 12:19 25.11.2019
3843 Clouds 26 1010 83 10000 6.2 160 11:40 25.11.2019
3844 Clouds 26 1010 83 10000 6.2 160 11:21 25.11.2019
3845 Clouds 26 1009 83 10000 5.1 160 10:59 25.11.2019
3846 Clouds 26 1009 83 10000 5.1 160 10:41 25.11.2019
3847 Clouds 26 1009 83 10000 5.1 160 10:20 25.11.2019
3848 Clouds 26 1009 83 10000 5.1 160 10:20 25.11.2019
3849 Clear 27 1009 76 0 6.46 147 09:44 25.11.2019
3850 Haze 28 1007 100 10000 7.7 150 09:26 25.11.2019
3851 Haze 28 1007 100 10000 7.7 150 08:58 25.11.2019
3852 Haze 28 1007 100 10000 7.7 150 08:38 25.11.2019
3853 Haze 28 1007 100 10000 7.7 150 08:19 25.11.2019
3854 Haze 29 1007 66 10000 7.7 150 07:40 25.11.2019
3855 Haze 29 1007 66 10000 7.7 150 07:18 25.11.2019
3856 Clouds 30 1007 58 10000 7.7 130 06:39 25.11.2019
3857 Clouds 30 1007 58 10000 7.7 130 06:19 25.11.2019
3858 Clouds 31 1008 52 10000 7.7 200 05:33 25.11.2019
3859 Haze 31 1008 58 10000 7.7 190 04:50 25.11.2019
3860 Smoke 31 1009 58 10000 5.1 200 02:45 25.11.2019
3861 Smoke 30 1010 58 10000 5.1 150 01:56 25.11.2019
3862 Smoke 30 1010 58 10000 5.1 150 01:36 25.11.2019
3863 Smoke 30 1010 58 10000 5.1 150 01:18 25.11.2019
3864 Smoke 29 1010 62 10000 1.5 0 00:21 25.11.2019
3865 Smoke 27 1011 74 10000 1.5 0 23:45 24.11.2019
3866 Smoke 27 1011 74 10000 1.5 0 23:45 24.11.2019
3867 Smoke 27 1011 74 10000 1.5 0 23:45 24.11.2019
3868 Smoke 27 1011 74 10000 1.5 0 23:21 24.11.2019
3869 Smoke 24 1010 88 10000 2.6 180 22:58 24.11.2019
3870 Smoke 24 1010 88 10000 2.6 180 22:39 24.11.2019
3871 Clouds 21 1010 100 10000 1.5 0 22:20 24.11.2019
3872 Clouds 21 1010 100 10000 1.5 0 21:57 24.11.2019
3873 Clouds 21 1010 100 10000 1.5 0 21:39 24.11.2019
3874 Clouds 21 1010 100 10000 1.5 0 21:20 24.11.2019
3875 Fog 21 1009 100 10000 2.1 0 20:58 24.11.2019
3876 Fog 21 1009 100 10000 2.1 0 20:38 24.11.2019
3877 Fog 21 1009 100 10000 2.1 0 20:18 24.11.2019
3878 Clouds 21 1009 100 10000 1.5 0 19:56 24.11.2019
3879 Clouds 21 1009 100 10000 1.5 0 19:38 24.11.2019
3880 Clouds 21 1009 100 10000 1.5 0 19:20 24.11.2019
3881 Clouds 21 1009 100 10000 2.1 0 18:57 24.11.2019
3882 Clouds 21 1009 100 10000 2.1 0 18:37 24.11.2019
3883 Clouds 21 1009 100 10000 2.1 0 18:19 24.11.2019
3884 Clouds 21 1009 100 10000 1.5 0 17:55 24.11.2019
3885 Clouds 21 1009 100 10000 1.5 0 17:37 24.11.2019
3886 Clouds 21 1009 100 10000 1.5 0 17:37 24.11.2019
3887 Clouds 21 1009 100 10000 1.5 0 17:19 24.11.2019
3888 Clouds 22 1010 94 10000 1.5 0 16:54 24.11.2019
3889 Clouds 22 1010 94 10000 1.5 0 16:36 24.11.2019
3890 Clouds 22 1010 94 10000 1.5 0 16:18 24.11.2019
3891 Clouds 23 1011 94 10000 1.5 0 15:43 24.11.2019
3892 Clouds 24 1011 94 10000 1.5 130 15:25 24.11.2019
3893 Clouds 24 1011 94 10000 1.5 130 14:57 24.11.2019
3894 Clouds 24 1011 94 10000 1.5 130 14:38 24.11.2019
3895 Clouds 24 1011 94 10000 1.5 130 14:38 24.11.2019
3896 Clouds 24 1011 94 10000 1.5 130 14:18 24.11.2019
3897 Clouds 24 1011 94 10000 1.5 130 13:40 24.11.2019
3898 Clouds 24 1011 94 10000 2.6 130 13:22 24.11.2019
3899 Clouds 24 1011 94 10000 2.6 130 12:59 24.11.2019
3900 Clouds 24 1011 94 10000 2.6 130 12:39 24.11.2019
3901 Clouds 24 1011 94 10000 2.6 130 12:18 24.11.2019
3902 Clouds 25 1011 88 10000 2.6 170 11:55 24.11.2019
3903 Clouds 25 1011 88 10000 2.6 170 11:36 24.11.2019
3904 Clouds 27 1010 71 0 4.94 140 11:18 24.11.2019
3905 Clouds 27 1010 71 0 4.94 140 10:46 24.11.2019
3906 Clouds 28 1008 65 10000 7.7 170 10:28 24.11.2019
3907 Clouds 28 1008 65 10000 7.7 170 09:55 24.11.2019
3908 Clouds 28 1008 65 10000 7.7 170 09:36 24.11.2019
3909 Clouds 28 1008 65 10000 7.7 170 09:36 24.11.2019
3910 Clouds 28 1008 65 10000 7.7 170 09:18 24.11.2019
3911 Clouds 29 1008 66 10000 7.7 160 08:43 24.11.2019
3912 Clouds 29 1008 66 10000 7.7 160 08:21 24.11.2019
3913 Clouds 30 1007 58 10000 5.1 160 07:55 24.11.2019
3914 Clouds 30 1007 58 10000 5.1 160 07:36 24.11.2019
3915 Clouds 30 1007 58 10000 5.1 160 07:18 24.11.2019
3916 Clouds 31 1007 55 10000 7.7 140 05:59 24.11.2019
3917 Clouds 31 1007 55 10000 7.7 140 05:59 24.11.2019
3918 Clouds 31 1008 55 10000 7.7 190 04:47 24.11.2019
3919 Clouds 27 1009 69 0 3.33 200 02:50 24.11.2019
3920 Clouds 27 1009 69 0 3.33 200 02:50 24.11.2019
3921 Clouds 26 1011 70 0 1.8 185 01:58 24.11.2019
3922 Clouds 26 1011 70 0 1.8 185 01:39 24.11.2019
3923 Clouds 28 1011 69 10000 1.5 0 01:20 24.11.2019
3924 Clouds 28 1011 69 10000 1.5 0 00:45 24.11.2019
3925 Clouds 28 1011 69 10000 1.5 0 00:22 24.11.2019
3926 Clouds 26 1011 78 10000 1.5 0 23:44 23.11.2019
3927 Clouds 26 1011 78 10000 1.5 0 23:21 23.11.2019
3928 Smoke 24 1011 88 10000 1.5 0 22:57 23.11.2019
3929 Smoke 24 1011 88 10000 1.5 0 22:38 23.11.2019
3930 Smoke 24 1011 88 10000 1.5 0 22:38 23.11.2019
3931 Smoke 24 1011 88 10000 1.5 0 22:38 23.11.2019
3932 Smoke 21 1010 100 10000 1.5 0 22:20 23.11.2019
3933 Smoke 21 1010 100 10000 1.5 0 21:57 23.11.2019
3934 Smoke 21 1010 100 10000 1.5 0 21:39 23.11.2019
3935 Smoke 21 1010 100 10000 1.5 0 21:21 23.11.2019
3936 Smoke 21 1010 100 10000 1.5 0 21:21 23.11.2019
3937 Clear 25 1011 75 0 1.64 79 20:40 23.11.2019
3938 Clear 25 1010 76 0 2.4 81 20:21 23.11.2019
3939 Clear 25 1010 76 0 2.4 81 19:58 23.11.2019
3940 Clear 25 1010 76 0 2.4 81 19:39 23.11.2019
3941 Clear 25 1010 76 0 2.4 81 19:19 23.11.2019
3942 Clear 25 1010 76 0 2.4 81 18:59 23.11.2019
3943 Clear 25 1010 76 0 2.4 81 18:39 23.11.2019
3944 Clear 25 1010 76 0 2.4 81 18:20 23.11.2019
3945 Clear 25 1010 76 0 2.4 81 17:45 23.11.2019
3946 Clear 25 1010 76 0 2.4 81 17:24 23.11.2019
3947 Clear 26 1011 74 0 3.98 117 16:57 23.11.2019
3948 Clear 26 1011 74 0 3.98 117 16:39 23.11.2019
3949 Clear 26 1011 74 0 3.98 117 16:21 23.11.2019
3950 Clear 26 1011 74 0 3.98 117 15:59 23.11.2019
3951 Clear 26 1011 74 0 3.98 117 15:39 23.11.2019
3952 Clear 26 1011 74 0 3.98 117 15:19 23.11.2019
3953 Clear 26 1011 74 0 3.98 117 14:57 23.11.2019
3954 Clear 26 1011 74 0 3.98 117 14:39 23.11.2019
3955 Clouds 26 1013 73 0 5.19 138 14:21 23.11.2019
3956 Clouds 26 1013 73 0 5.19 138 13:54 23.11.2019
3957 Clouds 26 1013 73 0 5.19 138 13:54 23.11.2019
3958 Clouds 26 1013 73 0 5.19 138 13:54 23.11.2019
3959 Clouds 26 1013 73 0 5.19 138 13:36 23.11.2019
3960 Clouds 26 1013 73 0 5.19 138 13:18 23.11.2019
3961 Clouds 26 1013 73 0 5.19 138 13:18 23.11.2019
3962 Clear 26 1013 76 0 5.19 138 12:41 23.11.2019
3963 Clear 26 1013 76 0 5.19 138 12:22 23.11.2019
3964 Clear 26 1013 76 0 5.19 138 11:43 23.11.2019
3965 Clear 27 1011 70 0 3.79 161 11:21 23.11.2019
3966 Clear 27 1011 70 0 3.79 161 10:45 23.11.2019
3967 Haze 27 1010 74 10000 7.7 180 10:22 23.11.2019
3968 Haze 27 1010 74 10000 7.7 180 09:44 23.11.2019
3969 Haze 27 1010 74 10000 7.7 180 09:21 23.11.2019
3970 Haze 28 1009 74 10000 6.2 140 08:56 23.11.2019
3971 Haze 28 1009 74 10000 6.2 140 08:37 23.11.2019
3972 Haze 29 1009 66 10000 6.2 160 08:18 23.11.2019
3973 Haze 29 1009 66 10000 6.2 160 07:39 23.11.2019
3974 Haze 30 1009 55 10000 5.1 160 06:50 23.11.2019
3975 Haze 30 1009 55 10000 5.1 160 06:23 23.11.2019
3976 Haze 30 1009 62 10000 7.7 120 05:53 23.11.2019
3977 Haze 30 1009 62 10000 7.7 120 05:31 23.11.2019
3978 Haze 31 1010 55 10000 5.1 210 04:50 23.11.2019
3979 Haze 31 1010 55 10000 5.1 210 04:29 23.11.2019
3980 Clouds 31 1011 58 10000 2.6 350 03:20 23.11.2019
3981 Clouds 31 1011 58 10000 2.6 350 02:24 23.11.2019
3982 Haze 30 1011 58 10000 2.6 170 01:38 23.11.2019
3983 Haze 29 1012 66 10000 2.1 0 00:43 23.11.2019
3984 Haze 29 1012 66 10000 2.1 0 00:19 23.11.2019
3985 Clouds 26 1012 83 10000 3.1 350 23:42 22.11.2019
3986 Clouds 26 1012 83 10000 3.1 350 23:21 22.11.2019
3987 Clouds 24 1011 94 10000 1.5 0 22:58 22.11.2019
3988 Clouds 24 1011 94 10000 1.5 0 22:38 22.11.2019
3989 Clouds 24 1011 94 10000 1.5 0 22:38 22.11.2019
3990 Clouds 24 1011 94 10000 1.5 0 22:20 22.11.2019
3991 Clouds 22 1011 100 10000 1.5 0 21:59 22.11.2019
3992 Clouds 22 1011 100 10000 1.5 0 21:39 22.11.2019
3993 Clouds 22 1011 100 10000 1.5 0 21:20 22.11.2019
3994 Clouds 22 1010 100 10000 1.5 0 20:43 22.11.2019
3995 Clouds 23 1010 94 10000 1.5 0 20:22 22.11.2019
3996 Clouds 23 1010 94 10000 1.5 0 20:22 22.11.2019
3997 Clouds 23 1010 94 10000 1.5 0 19:57 22.11.2019
3998 Clouds 23 1010 94 10000 1.5 0 19:37 22.11.2019
3999 Clouds 25 1010 76 0 3.26 119 19:19 22.11.2019
4000 Clouds 25 1010 76 0 3.26 119 18:40 22.11.2019
4001 Clouds 25 1010 76 0 3.26 119 18:21 22.11.2019
4002 Clouds 25 1010 76 0 3.26 119 17:58 22.11.2019
4003 Clouds 25 1010 76 0 3.26 119 17:40 22.11.2019
4004 Clouds 25 1011 74 0 3.94 125 17:21 22.11.2019
4005 Clouds 25 1011 74 0 3.94 125 16:42 22.11.2019
4006 Clouds 24 1011 88 10000 1.5 0 16:24 22.11.2019
4007 Clouds 24 1011 88 10000 1.5 0 15:45 22.11.2019
4008 Clouds 24 1011 88 10000 1.5 0 15:24 22.11.2019
4009 Clouds 24 1011 88 10000 1.5 0 15:24 22.11.2019
4010 Clouds 25 1012 83 10000 1.5 0 14:56 22.11.2019
4011 Clouds 25 1012 83 10000 1.5 0 14:56 22.11.2019
4012 Clouds 25 1012 83 10000 1.5 0 14:56 22.11.2019
4013 Clouds 25 1012 83 10000 1.5 0 14:38 22.11.2019
4014 Clouds 25 1012 83 10000 1.5 0 14:19 22.11.2019
4015 Clouds 25 1012 83 10000 5.1 130 13:58 22.11.2019
4016 Clouds 25 1012 83 10000 5.1 130 13:37 22.11.2019
4017 Clouds 25 1012 83 10000 5.1 130 13:18 22.11.2019
4018 Clouds 26 1013 75 0 4.91 137 12:55 22.11.2019
4019 Clouds 26 1013 75 0 4.91 137 12:36 22.11.2019
4020 Clouds 26 1011 78 10000 5.1 160 12:18 22.11.2019
4021 Clouds 26 1011 78 10000 5.1 160 11:40 22.11.2019
4022 Clouds 26 1011 78 10000 5.1 160 11:22 22.11.2019
4023 Clouds 26 1011 78 10000 5.1 160 10:59 22.11.2019
4024 Clouds 26 1011 78 10000 5.1 160 10:40 22.11.2019
4025 Clouds 26 1011 78 10000 5.1 160 10:40 22.11.2019
4026 Clouds 26 1011 78 10000 5.1 160 10:22 22.11.2019
4027 Smoke 27 1010 74 10000 5.1 160 09:56 22.11.2019
4028 Smoke 27 1010 74 10000 5.1 160 09:37 22.11.2019
4029 Smoke 27 1010 74 10000 5.1 160 09:19 22.11.2019
4030 Smoke 28 1009 74 10000 5.1 140 08:45 22.11.2019
4031 Smoke 28 1009 74 10000 5.1 140 08:26 22.11.2019
4032 Smoke 29 1009 70 10000 6.2 130 07:45 22.11.2019
4033 Smoke 29 1009 70 10000 6.2 130 07:23 22.11.2019
4034 Smoke 30 1009 66 10000 6.2 170 06:49 22.11.2019
4035 Smoke 30 1009 66 10000 6.2 170 06:30 22.11.2019
4036 Haze 30 1009 70 10000 7.7 160 05:49 22.11.2019
4037 Haze 31 1010 66 10000 7.7 170 04:50 22.11.2019
4038 Haze 30 1011 66 10000 6.2 200 02:53 22.11.2019
4039 Haze 30 1011 66 10000 6.2 200 02:31 22.11.2019
4040 Haze 30 1011 66 10000 5.1 210 01:45 22.11.2019
4041 Haze 30 1011 66 10000 5.1 210 01:20 22.11.2019
4042 Haze 29 1012 70 10000 4.1 310 00:50 22.11.2019
4043 Haze 29 1012 70 10000 4.1 310 00:24 22.11.2019
4044 Clouds 27 1012 78 10000 4.1 320 23:49 21.11.2019
4045 Haze 25 1012 94 10000 2.6 330 23:30 21.11.2019
4046 Haze 25 1012 94 10000 2.6 330 22:59 21.11.2019
4047 Haze 25 1012 94 10000 2.6 330 22:39 21.11.2019
4048 Clouds 24 1011 100 10000 1.5 0 22:21 21.11.2019
4049 Clouds 24 1011 100 10000 1.5 0 21:57 21.11.2019
4050 Clouds 24 1011 100 10000 1.5 0 21:37 21.11.2019
4051 Clouds 25 1010 94 10000 1.5 0 21:19 21.11.2019
4052 Clouds 25 1010 94 10000 1.5 0 20:58 21.11.2019
4053 Clouds 25 1010 94 10000 1.5 0 20:38 21.11.2019
4054 Clouds 25 1010 94 10000 1.5 0 20:19 21.11.2019
4055 Clouds 24 1009 94 10000 1.5 0 19:59 21.11.2019
4056 Clouds 24 1009 94 10000 1.5 0 19:59 21.11.2019
4057 Clouds 24 1009 94 10000 1.5 0 19:40 21.11.2019
4058 Clouds 24 1009 94 10000 1.5 0 19:21 21.11.2019
4059 Clouds 24 1009 94 10000 1.5 0 18:56 21.11.2019
4060 Clouds 24 1009 94 10000 1.5 0 18:37 21.11.2019
4061 Clouds 25 1009 88 10000 5.1 100 18:18 21.11.2019
4062 Clouds 25 1010 83 0 6.21 124 17:57 21.11.2019
4063 Clouds 25 1010 83 0 6.21 124 17:38 21.11.2019
4064 Clouds 25 1010 83 10000 4.1 130 17:19 21.11.2019
4065 Clouds 25 1010 83 10000 4.1 130 16:41 21.11.2019
4066 Clouds 26 1010 83 10000 5.1 150 16:21 21.11.2019
4067 Clouds 26 1010 83 10000 5.1 150 15:56 21.11.2019
4068 Clouds 26 1010 83 10000 5.1 150 15:38 21.11.2019
4069 Clouds 26 1010 83 10000 5.1 150 15:19 21.11.2019
4070 Clouds 26 1010 84 0 7.85 133 14:42 21.11.2019
4071 Clouds 26 1012 84 0 8.67 137 14:23 21.11.2019
4072 Clouds 26 1012 84 0 8.67 137 13:59 21.11.2019
4073 Clouds 26 1012 84 0 8.67 137 13:38 21.11.2019
4074 Clouds 26 1011 83 0 8.43 136 13:19 21.11.2019
4075 Clouds 26 1011 83 0 8.43 136 12:54 21.11.2019
4076 Clouds 26 1011 83 0 8.43 136 12:54 21.11.2019
4077 Clouds 26 1011 83 0 8.43 136 12:36 21.11.2019
4078 Clouds 26 1011 83 0 8.43 136 12:18 21.11.2019
4079 Clouds 26 1011 83 0 8.43 136 11:40 21.11.2019
4080 Clouds 27 1009 82 0 8.69 141 11:21 21.11.2019
4081 Clouds 27 1009 82 0 8.69 141 10:57 21.11.2019
4082 Clouds 27 1009 82 0 8.69 141 10:39 21.11.2019
4083 Clouds 27 1008 83 10000 7.7 150 10:20 21.11.2019
4084 Clouds 27 1008 83 10000 7.7 150 09:43 21.11.2019
4085 Haze 28 1008 78 10000 10.3 160 09:23 21.11.2019
4086 Haze 28 1008 78 10000 10.3 160 08:59 21.11.2019
4087 Haze 28 1008 78 10000 10.3 160 08:40 21.11.2019
4088 Haze 28 1008 78 10000 10.3 160 08:40 21.11.2019
4089 Haze 28 1007 78 10000 7.7 160 08:18 21.11.2019
4090 Haze 28 1007 78 10000 7.7 160 07:40 21.11.2019
4091 Haze 28 1007 78 10000 7.7 160 07:18 21.11.2019
4092 Clear 27 1008 82 0 8.03 146 06:51 21.11.2019
4093 Clouds 30 1008 74 10000 10.3 160 06:33 21.11.2019
4094 Clouds 30 1008 74 10000 10.3 160 05:31 21.11.2019
4095 Haze 30 1010 74 10000 5.1 180 03:32 21.11.2019
4096 Haze 30 1010 74 10000 5.1 180 02:40 21.11.2019
4097 Haze 28 1011 83 10000 5.1 190 01:53 21.11.2019
4098 Haze 28 1011 83 10000 5.1 190 01:53 21.11.2019
4099 Haze 28 1011 83 10000 5.1 190 01:23 21.11.2019
4100 Clouds 27 1011 88 10000 5.1 100 00:52 21.11.2019
4101 Clouds 27 1011 88 10000 5.1 100 00:20 21.11.2019
4102 Clouds 26 1011 94 10000 2.6 140 23:51 20.11.2019
4103 Clouds 26 1011 94 10000 2.6 140 23:23 20.11.2019
4104 Clouds 26 1011 83 0 1.66 116 22:59 20.11.2019
4105 Clouds 26 1011 83 0 1.66 116 22:41 20.11.2019
4106 Clouds 25 1010 94 10000 2.6 320 22:20 20.11.2019
4107 Clouds 25 1010 94 10000 2.6 320 21:59 20.11.2019
4108 Clouds 25 1010 94 10000 2.6 320 21:59 20.11.2019
4109 Clouds 25 1010 94 10000 2.6 320 21:40 20.11.2019
4110 Clouds 25 1010 94 10000 2.6 320 21:22 20.11.2019
4111 Clouds 25 1009 94 10000 2.6 320 20:58 20.11.2019
4112 Clouds 25 1009 94 10000 2.6 320 20:40 20.11.2019
4113 Clouds 25 1009 94 10000 2.6 320 20:21 20.11.2019
4114 Clouds 25 1009 84 0 2.12 85 19:58 20.11.2019
4115 Clouds 25 1009 84 0 2.12 85 19:58 20.11.2019
4116 Clouds 25 1009 84 0 2.12 85 19:37 20.11.2019
4117 Clouds 25 1009 84 0 2.12 85 19:19 20.11.2019
4118 Clouds 25 1009 84 0 2.12 85 18:59 20.11.2019
4119 Clouds 25 1009 84 0 2.12 85 18:40 20.11.2019
4120 Clouds 25 1009 94 10000 1.5 0 18:21 20.11.2019
4121 Clouds 25 1009 94 10000 1.5 0 17:57 20.11.2019
4122 Clouds 25 1009 94 10000 1.5 0 17:39 20.11.2019
4123 Clouds 25 1009 94 10000 1.5 0 17:20 20.11.2019
4124 Clouds 26 1009 85 0 4.8 122 16:57 20.11.2019
4125 Clouds 26 1009 85 0 4.8 122 16:57 20.11.2019
4126 Clouds 26 1009 85 0 4.8 122 16:39 20.11.2019
4127 Clouds 26 1009 85 0 4.8 122 16:18 20.11.2019
4128 Clouds 26 1009 85 0 4.8 122 15:55 20.11.2019
4129 Clouds 26 1009 85 0 4.8 122 15:36 20.11.2019
4130 Clouds 25 1010 94 10000 1.5 300 15:18 20.11.2019
4131 Clouds 26 1009 85 0 4.8 122 14:40 20.11.2019
4132 Clouds 25 1010 100 10000 2.6 300 14:22 20.11.2019
4133 Clouds 25 1010 100 10000 2.6 300 14:22 20.11.2019
4134 Clouds 25 1010 100 10000 2.6 300 14:22 20.11.2019
4135 Clouds 25 1010 100 10000 2.6 300 14:22 20.11.2019
4136 Clouds 25 1010 100 10000 2.6 300 14:22 20.11.2019
4137 Clouds 26 1010 84 0 6.13 142 13:58 20.11.2019
4138 Clouds 26 1010 84 0 6.13 142 13:39 20.11.2019
4139 Clouds 25 1009 94 10000 2.6 310 13:20 20.11.2019
4140 Clouds 25 1009 94 10000 2.6 310 12:55 20.11.2019
4141 Clouds 25 1009 94 10000 2.6 310 12:36 20.11.2019
4142 Rain 25 1009 100 0 2.6 60 12:18 20.11.2019
4143 Rain 25 1009 100 0 2.6 60 11:45 20.11.2019
4144 Rain 25 1009 100 0 2.6 60 11:22 20.11.2019
4145 Rain 25 1009 94 0 5.1 20 10:56 20.11.2019
4146 Rain 25 1009 94 0 5.1 20 10:56 20.11.2019
4147 Rain 25 1009 94 0 5.1 20 10:37 20.11.2019
4148 Rain 25 1009 94 0 5.1 20 10:19 20.11.2019
4149 Clouds 27 1008 88 10000 5.1 160 09:43 20.11.2019
4150 Clouds 27 1008 88 10000 5.1 160 09:22 20.11.2019
4151 Clouds 27 1008 83 10000 5.1 160 08:56 20.11.2019
4152 Clouds 27 1008 83 10000 5.1 160 08:38 20.11.2019
4153 Clouds 27 1007 88 10000 5.1 140 08:20 20.11.2019
4154 Clouds 27 1007 88 10000 5.1 140 07:45 20.11.2019
4155 Clouds 27 1007 88 10000 5.1 140 07:25 20.11.2019
4156 Clouds 27 1006 88 10000 8.2 190 06:48 20.11.2019
4157 Clouds 27 1006 88 10000 8.2 190 06:22 20.11.2019
4158 Clouds 30 1007 79 10000 5.1 180 05:26 20.11.2019
4159 Clouds 30 1008 74 10000 5.1 215 03:30 20.11.2019
4160 Clouds 30 1009 70 10000 7.7 180 02:21 20.11.2019
4161 Clouds 28 1010 78 10000 2.6 220 01:32 20.11.2019
4162 Clouds 28 1010 78 10000 2.6 220 00:40 20.11.2019
4163 Clouds 27 1010 83 10000 2.6 15 23:52 19.11.2019
4164 Clouds 27 1010 83 10000 2.6 15 23:25 19.11.2019
4165 Clouds 25 1010 94 10000 2.6 350 22:57 19.11.2019
4166 Clouds 25 1010 94 10000 2.6 350 22:57 19.11.2019
4167 Clouds 25 1010 94 10000 2.6 350 22:39 19.11.2019
4168 Clouds 25 1010 94 10000 2.6 350 22:19 19.11.2019
4169 Clouds 25 1010 94 10000 2.6 350 22:19 19.11.2019
4170 Clouds 24 1009 100 10000 2.6 310 21:55 19.11.2019
4171 Clouds 24 1009 100 10000 2.6 310 21:37 19.11.2019
4172 Clouds 24 1009 100 10000 2.6 310 21:37 19.11.2019
4173 Clouds 24 1009 100 10000 2.6 310 21:19 19.11.2019
4174 Clouds 24 1009 100 10000 2.6 310 21:19 19.11.2019
4175 Clouds 24 1008 100 10000 2.6 0 20:55 19.11.2019
4176 Clouds 24 1008 100 10000 2.6 0 20:55 19.11.2019
4177 Clouds 24 1008 100 10000 2.6 0 20:36 19.11.2019
4178 Rain 26 1008 82 0 1.77 93 20:18 19.11.2019
4179 Clouds 24 1007 100 10000 2.1 0 19:55 19.11.2019
4180 Clouds 24 1007 100 10000 2.1 0 19:36 19.11.2019
4181 Clouds 24 1008 53 10000 2.1 0 19:18 19.11.2019
4182 Clouds 24 1008 53 10000 2.1 0 18:41 19.11.2019
4183 Clouds 24 1008 53 10000 2.1 0 18:41 19.11.2019
4184 Clouds 24 1008 53 10000 2.1 0 18:41 19.11.2019
4185 Clouds 24 1008 53 10000 2.1 0 18:21 19.11.2019
4186 Clouds 24 1008 100 10000 1.5 0 17:59 19.11.2019
4187 Clouds 24 1008 100 10000 1.5 0 17:41 19.11.2019
4188 Clouds 24 1008 100 10000 1.5 0 17:41 19.11.2019
4189 Clouds 24 1008 100 10000 1.5 0 17:21 19.11.2019
4190 Clouds 24 1008 100 10000 1.5 0 16:59 19.11.2019
4191 Clouds 24 1008 100 10000 1.5 0 16:40 19.11.2019
4192 Rain 26 1009 83 0 3.37 115 16:20 19.11.2019
4193 Rain 26 1009 83 0 3.37 115 15:47 19.11.2019
4194 Clouds 25 1010 88 10000 1.5 0 15:27 19.11.2019
4195 Clouds 25 1010 88 10000 1.5 0 14:58 19.11.2019
4196 Clouds 25 1010 88 10000 1.5 0 14:39 19.11.2019
4197 Clouds 26 1010 83 10000 5.1 110 14:21 19.11.2019
4198 Clouds 26 1010 83 10000 5.1 110 13:42 19.11.2019
4199 Clouds 26 1010 83 10000 5.1 110 13:42 19.11.2019
4200 Clouds 26 1010 88 10000 5.1 150 13:22 19.11.2019
4201 Clouds 26 1010 88 10000 5.1 150 12:57 19.11.2019
4202 Clouds 26 1010 88 10000 5.1 150 12:39 19.11.2019
4203 Clouds 26 1010 88 10000 5.1 150 12:20 19.11.2019
4204 Clouds 26 1009 88 10000 5.1 130 11:55 19.11.2019
4205 Clouds 26 1009 88 10000 5.1 130 11:36 19.11.2019
4206 Clouds 27 1008 83 10000 7.7 140 11:18 19.11.2019
4207 Clouds 27 1008 83 10000 7.7 140 10:44 19.11.2019
4208 Clouds 27 1007 83 10000 5.1 140 10:20 19.11.2019
4209 Clouds 27 1007 83 10000 5.1 140 09:43 19.11.2019
4210 Clouds 27 1007 83 10000 5.1 140 09:21 19.11.2019
4211 Haze 27 1007 88 10000 7.7 170 08:57 19.11.2019
4212 -273 0 0 0 0 0 08:39 19.11.2019
4213 Haze 27 1007 88 10000 7.7 170 08:20 19.11.2019
4214 Haze 29 1006 79 10000 7.7 120 07:43 19.11.2019
4215 Haze 29 1006 79 10000 7.7 120 07:24 19.11.2019
4216 Clouds 29 1006 74 10000 7.7 170 06:58 19.11.2019
4217 Clouds 29 1006 74 10000 7.7 170 06:37 19.11.2019
4218 Clouds 29 1006 74 10000 7.7 160 05:52 19.11.2019
4219 Clouds 29 1007 79 10000 7.7 210 05:18 19.11.2019
4220 Clouds 30 1007 74 10000 5.1 200 03:39 19.11.2019
4221 Clouds 30 1008 66 10000 5.1 250 03:19 19.11.2019
4222 Clouds 30 1008 66 10000 5.1 250 02:45 19.11.2019
4223 Clouds 28 1010 74 10000 5.1 100 01:48 19.11.2019
4224 Clouds 28 1010 74 10000 2.6 0 00:46 19.11.2019
4225 Clouds 28 1010 74 10000 2.6 0 00:19 19.11.2019
4226 Clouds 26 1011 88 10000 2.6 0 23:38 18.11.2019
4227 Clouds 24 1010 94 10000 2.6 320 23:19 18.11.2019
4228 Clouds 24 1010 94 10000 2.6 320 22:46 18.11.2019
4229 Clouds 24 1010 94 10000 2.6 320 22:46 18.11.2019
4230 Clouds 24 1010 94 10000 2.6 320 22:24 18.11.2019
4231 Clouds 24 1010 94 10000 2.6 320 21:57 18.11.2019
4232 Clouds 24 1010 94 10000 2.6 320 21:39 18.11.2019
4233 Clouds 24 1010 94 10000 2.6 320 21:20 18.11.2019
4234 Clouds 23 1009 100 10000 3.1 320 20:57 18.11.2019
4235 Clouds 23 1009 100 10000 3.1 320 20:39 18.11.2019
4236 Clouds 23 1009 100 10000 3.1 320 20:18 18.11.2019
4237 Clouds 23 1009 100 10000 3.1 320 19:56 18.11.2019
4238 Clouds 23 1009 100 10000 3.1 320 19:37 18.11.2019
4239 Clouds 23 1009 100 10000 3.1 320 19:19 18.11.2019
4240 Clouds 23 1009 100 10000 3.1 320 18:55 18.11.2019
4241 Clouds 23 1009 100 10000 3.1 320 18:37 18.11.2019
4242 Clouds 23 1009 100 10000 3.1 320 18:19 18.11.2019
4243 Clouds 24 1009 100 10000 2.6 330 17:39 18.11.2019
4244 Clouds 24 1009 100 10000 2.6 330 17:39 18.11.2019
4245 Clouds 24 1009 100 10000 2.6 330 17:20 18.11.2019
4246 Clouds 24 1009 100 10000 2.6 330 16:57 18.11.2019
4247 Clouds 24 1009 100 10000 2.6 330 16:39 18.11.2019
4248 Clouds 24 1009 100 10000 2.6 330 16:21 18.11.2019
4249 Clouds 24 1010 100 10000 1.5 0 15:56 18.11.2019
4250 Clouds 24 1010 100 10000 1.5 0 15:56 18.11.2019
4251 Clouds 24 1010 100 10000 1.5 0 15:37 18.11.2019
4252 Clouds 24 1010 100 10000 1.5 0 15:18 18.11.2019
4253 Clouds 25 1010 94 10000 1.5 0 14:42 18.11.2019
4254 Clouds 25 1010 94 10000 1.5 0 14:24 18.11.2019
4255 Clouds 25 1010 94 10000 1.5 0 13:56 18.11.2019
4256 Clouds 25 1010 94 10000 1.5 0 13:37 18.11.2019
4257 Clouds 25 1010 94 10000 1.5 0 13:18 18.11.2019
4258 -273 0 0 0 0 0 12:38 18.11.2019
4259 Clouds 25 1010 94 10000 1.5 0 12:19 18.11.2019
4260 Rain 26 1011 84 0 4.35 106 11:45 18.11.2019
4261 Rain 25 1010 100 10000 1.5 0 11:26 18.11.2019
4262 Rain 25 1010 100 10000 1.5 0 10:58 18.11.2019
4263 Rain 25 1010 100 10000 1.5 0 10:40 18.11.2019
4264 Rain 25 1009 100 10000 2.1 0 10:20 18.11.2019
4265 Rain 25 1009 100 10000 2.1 0 09:55 18.11.2019
4266 Rain 25 1009 100 10000 2.1 0 09:37 18.11.2019
4267 Rain 25 1009 100 10000 2.1 0 09:18 18.11.2019
4268 Rain 25 1009 94 10000 2.6 150 08:44 18.11.2019
4269 Rain 25 1009 94 10000 2.6 150 08:20 18.11.2019
4270 Rain 25 1008 94 10000 7.7 160 07:48 18.11.2019
4271 Rain 25 1008 94 10000 7.7 160 07:29 18.11.2019
4272 Clouds 26 1008 94 10000 5.1 190 06:56 18.11.2019
4273 Clouds 26 1008 94 10000 5.1 190 06:56 18.11.2019
4274 Clouds 26 1008 94 10000 5.1 190 06:32 18.11.2019
4275 Clouds 29 1008 79 10000 7.7 150 05:48 18.11.2019
4276 Clouds 30 1009 74 10000 5.1 190 04:46 18.11.2019
4277 Haze 30 1010 70 10000 5.1 160 02:59 18.11.2019
4278 Clouds 28 1011 78 10000 1.5 0 01:31 18.11.2019
4279 Clouds 28 1011 78 10000 1.5 0 00:24 18.11.2019
4280 Clouds 27 1011 88 10000 1.5 0 23:44 17.11.2019
4281 Clouds 25 1011 94 10000 1.5 0 23:24 17.11.2019
4282 Clouds 25 1011 94 10000 1.5 0 22:58 17.11.2019
4283 Clouds 25 1011 94 10000 1.5 0 22:40 17.11.2019
4284 Clouds 25 1011 94 10000 1.5 0 22:22 17.11.2019
4285 Clouds 23 1010 100 10000 2.6 0 21:57 17.11.2019
4286 Clouds 23 1010 100 10000 2.6 0 21:39 17.11.2019
4287 Clouds 23 1010 100 10000 2.6 0 21:19 17.11.2019
4288 Clouds 27 1011 83 0 6.43 130 20:56 17.11.2019
4289 Clouds 27 1011 83 0 6.43 130 20:37 17.11.2019
4290 Rain 26 1010 84 0 6.85 133 20:19 17.11.2019
4291 Rain 26 1010 84 0 6.85 133 19:56 17.11.2019
4292 Rain 26 1010 84 0 6.85 133 19:37 17.11.2019
4293 Rain 26 1010 84 0 6.85 133 19:19 17.11.2019
4294 Rain 26 1010 84 0 6.85 133 18:55 17.11.2019
4295 Rain 26 1010 84 0 6.85 133 18:36 17.11.2019
4296 Rain 26 1010 84 0 6.85 133 18:18 17.11.2019
4297 Rain 26 1010 84 0 6.85 133 17:57 17.11.2019
4298 Rain 26 1010 84 0 6.85 133 17:38 17.11.2019
4299 Rain 26 1010 86 0 7.55 137 17:19 17.11.2019
4300 Rain 26 1010 86 0 7.55 137 16:55 17.11.2019
4301 Rain 26 1010 86 0 7.55 137 16:37 17.11.2019
4302 Rain 26 1010 86 0 7.55 137 16:37 17.11.2019
4303 Rain 26 1010 86 0 7.55 137 16:19 17.11.2019
4304 Rain 26 1010 86 0 7.55 137 15:41 17.11.2019
4305 Rain 26 1010 86 0 7.55 137 15:41 17.11.2019
4306 Rain 26 1010 86 0 7.55 137 15:41 17.11.2019
4307 Rain 26 1010 86 0 7.55 137 15:19 17.11.2019
4308 Rain 26 1010 86 0 7.55 137 14:58 17.11.2019
4309 Rain 26 1010 86 0 7.55 137 14:58 17.11.2019
4310 Rain 26 1010 86 0 7.55 137 14:40 17.11.2019
4311 Rain 27 1013 84 0 8.3 138 14:21 17.11.2019
4312 Rain 27 1013 84 0 8.3 138 13:59 17.11.2019
4313 Rain 27 1013 84 0 8.3 138 13:40 17.11.2019
4314 Clouds 27 1012 84 0 8.93 137 13:20 17.11.2019
4315 Clouds 27 1012 84 0 8.93 137 12:45 17.11.2019
4316 Clouds 27 1012 84 0 8.93 137 12:25 17.11.2019
4317 Clouds 27 1012 84 0 8.93 137 11:59 17.11.2019
4318 Clouds 27 1012 84 0 8.93 137 11:41 17.11.2019
4319 Clouds 27 1011 84 0 8.16 148 11:21 17.11.2019
4320 Clouds 27 1011 83 10000 7.7 160 10:59 17.11.2019
4321 Clouds 27 1011 83 10000 7.7 160 10:40 17.11.2019
4322 Clouds 27 1011 83 10000 7.7 160 10:21 17.11.2019
4323 Clouds 27 1011 83 10000 7.7 160 10:21 17.11.2019
4324 Haze 27 1010 83 10000 5.1 170 09:42 17.11.2019
4325 Haze 27 1010 83 10000 5.1 170 09:24 17.11.2019
4326 Haze 27 1009 83 10000 7.7 160 08:44 17.11.2019
4327 Haze 27 1009 83 10000 7.7 160 08:26 17.11.2019
4328 Haze 29 1007 74 10000 7.66 149 07:58 17.11.2019
4329 Haze 29 1007 74 10000 7.66 149 07:40 17.11.2019
4330 Haze 29 1008 79 10000 5.1 140 07:20 17.11.2019
4331 Haze 29 1008 79 10000 5.1 140 06:51 17.11.2019
4332 Haze 30 1008 74 10000 8.2 150 06:29 17.11.2019
4333 Haze 30 1008 74 10000 8.2 150 06:29 17.11.2019
4334 Haze 30 1008 74 10000 8.2 150 06:29 17.11.2019
4335 Haze 30 1009 74 10000 5.1 150 04:57 17.11.2019
4336 Haze 31 1010 70 10000 7.7 160 03:59 17.11.2019
4337 Haze 31 1010 70 10000 7.7 160 03:35 17.11.2019
4338 Haze 30 1011 74 10000 7.7 140 02:59 17.11.2019
4339 Haze 30 1012 66 10000 2.6 160 01:50 17.11.2019
4340 Haze 29 1012 74 10000 6.2 140 00:59 17.11.2019
4341 Haze 27 1011 83 10000 5.1 140 00:24 17.11.2019
4342 Haze 27 1011 83 10000 5.1 140 23:59 16.11.2019
4343 Haze 27 1011 83 10000 5.1 140 23:40 16.11.2019
4344 Haze 27 1011 83 10000 5.1 140 23:40 16.11.2019
4345 Haze 27 1011 83 10000 5.1 140 23:18 16.11.2019
4346 Haze 26 1011 88 10000 5.1 150 22:42 16.11.2019
4347 Haze 26 1011 88 10000 5.1 150 22:42 16.11.2019
4348 Haze 26 1011 88 10000 5.1 150 22:20 16.11.2019
4349 Haze 25 1010 88 10000 3.1 160 21:58 16.11.2019
4350 Haze 25 1010 88 10000 3.1 160 21:39 16.11.2019
4351 Haze 25 1010 88 10000 3.1 160 21:21 16.11.2019
4352 Clouds 25 1010 88 10000 4.1 160 20:57 16.11.2019
4353 Clouds 25 1010 88 10000 4.1 160 20:38 16.11.2019
4354 Clouds 25 1010 88 10000 4.1 160 20:19 16.11.2019
4355 Clouds 26 1010 84 0 9.15 132 19:41 16.11.2019
4356 Clouds 26 1010 84 0 9.15 132 19:22 16.11.2019
4357 Clouds 26 1010 84 0 9.15 132 18:56 16.11.2019
4358 Clouds 26 1010 84 0 9.15 132 18:38 16.11.2019
4359 Clouds 26 1010 88 10000 4.1 130 18:20 16.11.2019
4360 Clouds 26 1010 84 0 9.15 132 17:39 16.11.2019
4361 Clouds 26 1010 88 10000 4.1 140 17:21 16.11.2019
4362 Clouds 26 1011 84 0 9.69 130 16:59 16.11.2019
4363 Clouds 26 1011 84 0 9.69 130 16:59 16.11.2019
4364 Clouds 26 1011 84 0 9.69 130 16:41 16.11.2019
4365 Clouds 26 1011 88 10000 5.1 150 16:22 16.11.2019
4366 Clouds 26 1011 88 10000 5.1 150 15:42 16.11.2019
4367 Clouds 26 1011 84 0 9.69 130 15:24 16.11.2019
4368 Clouds 26 1011 84 0 9.69 130 15:24 16.11.2019
4369 Clouds 26 1011 84 0 9.69 130 14:59 16.11.2019
4370 Clouds 26 1011 84 0 9.69 130 14:40 16.11.2019
4371 Clouds 27 1013 83 0 10.42 130 14:21 16.11.2019
4372 Clouds 27 1013 83 0 10.42 130 13:56 16.11.2019
4373 Clouds 27 1013 83 0 10.42 130 13:38 16.11.2019
4374 Clouds 27 1012 84 0 10.08 130 13:19 16.11.2019
4375 Clouds 27 1012 84 0 10.08 130 13:19 16.11.2019
4376 Clouds 27 1012 84 0 10.08 130 12:55 16.11.2019
4377 Clouds 27 1012 84 0 10.08 130 12:36 16.11.2019
4378 Clouds 27 1012 84 0 10.08 130 12:18 16.11.2019
4379 Clouds 27 1012 84 0 10.08 130 11:42 16.11.2019
4380 Clouds 27 1012 84 0 10.08 130 11:23 16.11.2019
4381 Clouds 27 1011 83 0 10.19 139 10:56 16.11.2019
4382 Clouds 27 1011 83 0 10.19 139 10:37 16.11.2019
4383 Haze 27 1009 88 10000 2.6 160 10:18 16.11.2019
4384 Haze 27 1009 88 10000 2.6 160 09:42 16.11.2019
4385 Haze 27 1009 88 10000 2.6 160 09:20 16.11.2019
4386 Haze 28 1008 83 10000 2.6 150 08:57 16.11.2019
4387 Haze 28 1008 83 10000 2.6 150 08:37 16.11.2019
4388 Haze 28 1008 83 10000 2.6 150 08:18 16.11.2019
4389 Haze 28 1008 83 10000 5.1 150 07:41 16.11.2019
4390 Haze 30 1008 79 10000 7.7 160 07:19 16.11.2019
4391 Haze 30 1008 79 10000 7.7 160 06:43 16.11.2019
4392 Haze 30 1008 79 10000 7.7 160 06:23 16.11.2019
4393 Clouds 31 1009 70 10000 6.7 200 04:47 16.11.2019
4394 Haze 31 1010 66 10000 7.7 220 03:26 16.11.2019
4395 Clouds 32 1011 66 10000 3.6 210 02:54 16.11.2019
4396 Clouds 27 1012 85 0 5.32 147 01:43 16.11.2019
4397 Clouds 29 1012 74 10000 2.6 320 00:59 16.11.2019
4398 Clouds 29 1012 74 10000 2.6 320 00:36 16.11.2019
4399 Clouds 29 1012 74 10000 4.1 330 00:18 16.11.2019
4400 Clouds 27 1012 84 0 5.28 145 23:39 15.11.2019
4401 Haze 25 1012 94 10000 4.1 320 23:20 15.11.2019
4402 Haze 25 1012 94 10000 4.1 320 22:42 15.11.2019
4403 Haze 24 1011 94 10000 4.1 340 22:20 15.11.2019
4404 Haze 24 1011 94 10000 4.1 340 21:59 15.11.2019
4405 Haze 24 1011 94 10000 4.1 340 21:40 15.11.2019
4406 Haze 24 1011 100 10000 4.1 330 21:20 15.11.2019
4407 Haze 24 1011 100 10000 4.1 330 20:57 15.11.2019
4408 Haze 24 1011 100 10000 4.1 330 20:39 15.11.2019
4409 Clouds 24 1010 94 10000 1.5 0 20:20 15.11.2019
4410 Clouds 24 1010 94 10000 1.5 0 19:57 15.11.2019
4411 Clouds 24 1010 94 10000 1.5 0 19:38 15.11.2019
4412 Clouds 24 1010 94 10000 1.5 0 19:19 15.11.2019
4413 Clouds 26 1010 87 0 4.59 119 18:55 15.11.2019
4414 Clouds 26 1010 87 0 4.59 119 18:37 15.11.2019
4415 Clouds 25 1009 100 10000 4.1 130 18:19 15.11.2019
4416 Clouds 25 1009 100 10000 4.1 130 17:41 15.11.2019
4417 Clouds 25 1009 100 10000 4.1 130 17:23 15.11.2019
4418 Clouds 25 1009 100 10000 4.1 130 16:56 15.11.2019
4419 Clouds 25 1009 100 10000 4.1 130 16:37 15.11.2019
4420 Clouds 26 1011 87 0 6.91 125 16:19 15.11.2019
4421 Clouds 26 1011 87 0 6.91 125 15:38 15.11.2019
4422 Clouds 26 1011 87 0 6.91 125 15:19 15.11.2019
4423 Clouds 26 1011 87 0 6.91 125 14:57 15.11.2019
4424 Clouds 26 1011 87 0 6.91 125 14:38 15.11.2019
4425 Clouds 27 1012 87 0 8.68 138 14:19 15.11.2019
4426 Clouds 27 1012 87 0 8.68 138 13:57 15.11.2019
4427 Clouds 27 1012 87 0 8.68 138 13:39 15.11.2019
4428 Clouds 27 1012 86 0 9.52 137 13:20 15.11.2019
4429 Clouds 27 1012 86 0 9.52 137 12:57 15.11.2019
4430 Clouds 27 1012 86 0 9.52 137 12:39 15.11.2019
4431 Clouds 27 1012 86 0 9.52 137 12:19 15.11.2019
4432 Clouds 27 1012 86 0 9.52 137 11:56 15.11.2019
4433 Clouds 27 1012 86 0 9.52 137 11:37 15.11.2019
4434 Clouds 27 1010 85 0 7.76 146 11:19 15.11.2019
4435 Clouds 27 1010 85 0 7.76 146 11:19 15.11.2019
4436 Clouds 27 1010 85 0 7.76 146 10:40 15.11.2019
4437 Clouds 27 1010 88 10000 5.1 180 10:22 15.11.2019
4438 Clouds 27 1010 88 10000 5.1 180 09:58 15.11.2019
4439 Clouds 27 1010 88 10000 5.1 180 09:40 15.11.2019
4440 Haze 27 1009 88 10000 5.7 190 09:19 15.11.2019
4441 Clouds 27 1010 85 0 7.76 146 08:42 15.11.2019
4442 Haze 28 1007 78 10000 7.7 150 08:22 15.11.2019
4443 Haze 28 1007 78 10000 7.7 150 07:47 15.11.2019
4444 Haze 29 1007 79 10000 7.7 130 07:27 15.11.2019
4445 Haze 29 1007 79 10000 7.7 130 06:37 15.11.2019
4446 Haze 30 1007 74 10000 6.2 180 05:58 15.11.2019
4447 Haze 30 1007 74 10000 6.2 180 05:39 15.11.2019
4448 Haze 30 1008 74 10000 5.1 180 04:58 15.11.2019
4449 Haze 30 1009 74 10000 5.1 210 03:46 15.11.2019
4450 Haze 31 1010 70 10000 6.2 200 02:44 15.11.2019
4451 Haze 31 1010 74 10000 5.1 190 01:58 15.11.2019
4452 Haze 31 1010 74 10000 5.1 190 01:32 15.11.2019
4453 Haze 31 1010 74 10000 5.1 190 01:32 15.11.2019
4454 Haze 30 1010 70 10000 1.5 0 00:46 15.11.2019
4455 Haze 30 1010 70 10000 1.5 0 00:27 15.11.2019
4456 Haze 29 1010 79 10000 1.5 0 23:49 14.11.2019
4457 Haze 29 1010 79 10000 1.5 0 23:27 14.11.2019
4458 Haze 25 1009 94 10000 1.5 0 22:55 14.11.2019
4459 Haze 25 1009 94 10000 1.5 0 22:37 14.11.2019
4460 Haze 24 1008 100 10000 2.6 260 22:19 14.11.2019
4461 Haze 24 1008 100 10000 2.6 260 21:42 14.11.2019
4462 Clouds 23 1007 100 10000 1.5 0 21:22 14.11.2019
4463 Clouds 23 1007 100 10000 1.5 0 20:55 14.11.2019
4464 Clouds 23 1007 100 10000 1.5 0 20:37 14.11.2019
4465 Clouds 23 1007 100 10000 1.5 0 20:37 14.11.2019
4466 Clouds 23 1007 100 10000 1.5 0 20:19 14.11.2019
4467 Clouds 23 1007 100 10000 2.6 160 19:56 14.11.2019
4468 Clouds 23 1007 100 10000 2.6 160 19:37 14.11.2019
4469 Clouds 24 1007 94 10000 2.6 150 19:18 14.11.2019
4470 Clouds 24 1007 94 10000 2.6 150 18:42 14.11.2019
4471 Clouds 24 1007 94 10000 2.6 150 18:24 14.11.2019
4472 Clouds 24 1008 94 10000 1.5 150 17:58 14.11.2019
4473 Clouds 24 1008 94 10000 1.5 150 17:38 14.11.2019
4474 Clouds 25 1009 94 10000 5.1 160 17:20 14.11.2019
4475 Clouds 25 1009 94 10000 5.1 160 16:58 14.11.2019
4476 Clouds 25 1009 94 10000 5.1 160 16:37 14.11.2019
4477 Clouds 25 1009 94 10000 5.1 160 16:19 14.11.2019
4478 Clouds 25 1009 94 10000 5.1 140 15:58 14.11.2019
4479 Clouds 25 1009 94 10000 5.1 140 15:38 14.11.2019
4480 Clouds 25 1009 94 10000 5.1 140 15:20 14.11.2019
4481 Clouds 25 1009 94 10000 5.1 160 14:55 14.11.2019
4482 Clouds 25 1009 94 10000 5.1 160 14:55 14.11.2019
4483 Clouds 25 1009 94 10000 5.1 160 14:37 14.11.2019
4484 Clouds 26 1009 88 10000 5.1 160 14:18 14.11.2019
4485 Clouds 26 1009 88 10000 5.1 160 13:41 14.11.2019
4486 Clouds 26 1009 88 10000 5.1 160 13:22 14.11.2019
4487 Clouds 25 1008 94 10000 5.1 160 12:57 14.11.2019
4488 Clouds 25 1008 94 10000 5.1 160 12:38 14.11.2019
4489 Clouds 25 1008 94 10000 5.1 160 12:19 14.11.2019
4490 Clouds 26 1008 94 10000 2.6 150 11:54 14.11.2019
4491 Clouds 26 1008 94 10000 2.6 150 11:36 14.11.2019
4492 Clouds 26 1008 94 10000 5.1 160 11:18 14.11.2019
4493 Clouds 26 1008 94 10000 5.1 160 10:41 14.11.2019
4494 Clouds 26 1008 94 10000 5.1 160 10:41 14.11.2019
4495 Clouds 26 1008 94 10000 5.1 160 10:21 14.11.2019
4496 Clouds 26 1008 94 10000 7.7 160 09:59 14.11.2019
4497 Clouds 26 1008 94 10000 7.7 160 09:41 14.11.2019
4498 Clouds 26 1009 86 0 7.8 138 09:22 14.11.2019
4499 Clouds 26 1009 86 0 7.8 138 08:48 14.11.2019
4500 Clouds 28 1007 83 10000 6.2 150 08:26 14.11.2019
4501 Clouds 28 1007 83 10000 6.2 150 07:57 14.11.2019
4502 Clouds 28 1007 83 10000 6.2 150 07:38 14.11.2019
4503 Clouds 28 1007 83 10000 6.2 150 07:20 14.11.2019
4504 Clouds 28 1007 83 10000 6.2 200 06:44 14.11.2019
4505 Clouds 28 1007 83 10000 6.2 200 06:19 14.11.2019
4506 Haze 30 1009 74 10000 5.1 220 04:48 14.11.2019
4507 Haze 30 1009 74 10000 5.1 220 04:26 14.11.2019
4508 Clouds 29 1011 79 10000 1.5 340 02:49 14.11.2019
4509 Clouds 29 1011 79 10000 1.5 340 02:28 14.11.2019
4510 Clouds 27 1012 88 10000 1.5 0 01:33 14.11.2019
4511 Haze 26 1012 88 10000 1.5 0 00:55 14.11.2019
4512 Haze 26 1012 88 10000 1.5 0 00:33 14.11.2019
4513 Haze 26 1012 88 10000 1.5 0 23:44 13.11.2019
4514 Haze 25 1011 94 10000 2.6 340 23:25 13.11.2019
4515 Haze 25 1011 94 10000 2.6 340 22:57 13.11.2019
4516 Haze 25 1011 94 10000 2.6 340 22:39 13.11.2019
4517 Haze 25 1011 94 10000 2.6 340 22:21 13.11.2019
4518 Clouds 24 1010 100 10000 2.6 340 21:56 13.11.2019
4519 Clouds 24 1010 100 10000 2.6 340 21:37 13.11.2019
4520 Clouds 24 1010 100 10000 2.6 340 21:19 13.11.2019
4521 Clouds 24 1010 100 10000 2.6 340 20:56 13.11.2019
4522 Clouds 24 1010 100 10000 2.6 340 20:37 13.11.2019
4523 Clouds 24 1010 100 10000 2.6 340 20:37 13.11.2019
4524 Clouds 25 1010 84 0 1.95 352 20:19 13.11.2019
4525 Clouds 25 1010 84 0 1.95 352 19:56 13.11.2019
4526 Clouds 25 1010 84 0 1.95 352 19:37 13.11.2019
4527 Clouds 25 1010 84 0 1.95 352 19:18 13.11.2019
4528 Clouds 25 1010 84 0 1.95 352 18:54 13.11.2019
4529 Clouds 25 1010 84 0 1.95 352 18:36 13.11.2019
4530 Clouds 25 1010 84 0 1.95 352 18:18 13.11.2019
4531 Clouds 25 1010 84 0 1.95 352 18:18 13.11.2019
4532 Clouds 25 1010 84 0 1.95 352 17:40 13.11.2019
4533 Clouds 26 1011 84 0 2.17 68 17:22 13.11.2019
4534 Clouds 26 1010 81 0 3.11 133 16:59 13.11.2019
4535 Clouds 26 1011 84 0 2.17 68 16:59 13.11.2019
4536 Clouds 26 1010 81 0 3.11 133 16:59 13.11.2019
4537 Clouds 26 1011 84 0 2.17 68 16:40 13.11.2019
4538 Clouds 26 1011 84 0 2.17 68 16:21 13.11.2019
4539 Clouds 26 1011 84 0 2.17 68 15:58 13.11.2019
4540 Clouds 26 1011 84 0 2.17 68 15:39 13.11.2019
4541 Clouds 26 1010 81 0 3.11 133 15:20 13.11.2019
4542 Clouds 26 1011 94 10000 2.6 340 14:43 13.11.2019
4543 Clouds 26 1011 94 10000 2.6 280 14:23 13.11.2019
4544 Clouds 26 1011 94 10000 2.6 280 13:58 13.11.2019
4545 Clouds 26 1011 94 10000 2.6 280 13:37 13.11.2019
4546 Clouds 26 1011 94 10000 2.6 330 13:18 13.11.2019
4547 Clouds 26 1011 94 10000 2.6 330 12:55 13.11.2019
4548 Clouds 26 1011 94 10000 2.6 330 12:37 13.11.2019
4549 Clouds 26 1010 88 10000 1.5 0 12:19 13.11.2019
4550 Clouds 26 1010 88 10000 1.5 0 11:40 13.11.2019
4551 Clouds 26 1010 88 10000 1.5 0 11:21 13.11.2019
4552 Clouds 26 1010 88 10000 1.5 0 10:58 13.11.2019
4553 Clouds 26 1010 88 10000 1.5 0 10:40 13.11.2019
4554 Haze 26 1009 94 10000 6.7 160 10:20 13.11.2019
4555 Haze 26 1009 94 10000 6.7 160 09:56 13.11.2019
4556 Haze 26 1009 94 10000 6.7 160 09:37 13.11.2019
4557 Haze 26 1009 94 10000 6.7 160 09:19 13.11.2019
4558 Haze 27 1008 83 10000 6.7 160 08:39 13.11.2019
4559 Haze 27 1008 83 10000 6.7 160 08:20 13.11.2019
4560 Haze 27 1008 83 10000 6.7 150 07:42 13.11.2019
4561 Haze 27 1008 83 10000 6.7 150 07:21 13.11.2019
4562 Haze 29 1008 74 10000 9.3 150 06:46 13.11.2019
4563 Haze 29 1008 74 10000 9.3 150 06:19 13.11.2019
4564 Haze 29 1008 74 10000 9.3 150 06:19 13.11.2019
4565 Haze 29 1008 74 10000 9.3 150 06:19 13.11.2019
4566 Haze 29 1008 74 10000 9.3 150 06:19 13.11.2019
4567 Clouds 27 1009 79 0 7.26 148 05:53 13.11.2019
4568 Clouds 27 1009 79 0 7.26 148 05:34 13.11.2019
4569 Haze 29 1009 74 10000 9.3 130 04:43 13.11.2019
4570 Haze 31 1011 70 10000 5.1 200 02:19 13.11.2019
4571 Clouds 29 1012 74 10000 5.1 180 01:41 13.11.2019
4572 Clouds 28 1012 74 10000 5.1 180 00:44 13.11.2019
4573 Clouds 28 1012 74 10000 5.1 180 00:21 13.11.2019
4574 Clouds 26 1012 83 10000 1.5 0 23:42 12.11.2019
4575 Clouds 26 1012 83 10000 1.5 0 23:21 12.11.2019
4576 Clouds 24 1012 94 10000 2.1 0 22:54 12.11.2019
4577 Clouds 24 1012 94 10000 2.1 0 22:36 12.11.2019
4578 Clouds 24 1012 94 10000 2.1 0 22:18 12.11.2019
4579 Clouds 24 1012 94 10000 2.1 0 22:18 12.11.2019
4580 Clouds 23 1011 100 10000 2.6 0 21:43 12.11.2019
4581 Clouds 24 1011 94 10000 2.6 0 21:24 12.11.2019
4582 Clouds 24 1011 94 10000 2.6 0 20:57 12.11.2019
4583 Clouds 24 1011 94 10000 2.6 0 20:37 12.11.2019
4584 Clouds 24 1010 94 10000 2.6 0 20:19 12.11.2019
4585 Clouds 24 1010 94 10000 2.6 0 19:57 12.11.2019
4586 Clouds 24 1010 94 10000 2.6 0 19:39 12.11.2019
4587 Clouds 24 1010 94 10000 2.6 0 19:19 12.11.2019
4588 Clouds 24 1010 94 10000 2.6 0 18:58 12.11.2019
4589 Clouds 24 1010 94 10000 2.6 0 18:58 12.11.2019
4590 Clouds 24 1010 94 10000 2.6 0 18:39 12.11.2019
4591 Clouds 24 1010 94 10000 2.6 0 18:21 12.11.2019
4592 Clouds 24 1011 94 10000 2.6 0 17:57 12.11.2019
4593 Clouds 24 1011 94 10000 2.6 0 17:57 12.11.2019
4594 Clouds 24 1011 94 10000 2.6 0 17:39 12.11.2019
4595 Clouds 24 1011 94 10000 2.1 0 17:20 12.11.2019
4596 Clouds 24 1011 94 10000 2.1 0 16:44 12.11.2019
4597 Clouds 24 1011 94 10000 2.1 0 16:26 12.11.2019
4598 Clouds 26 1011 82 0 7.2 123 15:58 12.11.2019
4599 Clouds 26 1011 82 0 7.2 123 15:40 12.11.2019
4600 Clouds 26 1011 82 0 7.2 123 15:21 12.11.2019
4601 Clouds 26 1011 82 0 7.2 123 14:56 12.11.2019
4602 Clouds 26 1011 82 0 7.2 123 14:36 12.11.2019
4603 Clouds 26 1013 80 0 9.36 130 14:18 12.11.2019
4604 Clouds 26 1013 80 0 9.36 130 13:55 12.11.2019
4605 Clouds 26 1013 80 0 9.36 130 13:36 12.11.2019
4606 Clouds 26 1013 80 0 9.36 130 13:36 12.11.2019
4607 Clouds 26 1012 80 0 9.63 130 13:18 12.11.2019
4608 Clouds 26 1012 80 0 9.63 130 13:18 12.11.2019
4609 Clouds 26 1012 80 0 9.76 129 12:40 12.11.2019
4610 Clouds 26 1012 80 0 9.63 130 12:19 12.11.2019
4611 Clouds 26 1012 80 0 9.63 130 11:56 12.11.2019
4612 Clouds 26 1012 80 0 9.63 130 11:38 12.11.2019
4613 Clouds 26 1012 80 0 9.63 130 11:38 12.11.2019
4614 Clouds 26 1011 80 0 10.41 134 11:20 12.11.2019
4615 Clouds 26 1011 79 0 10.53 138 10:55 12.11.2019
4616 Clouds 26 1011 80 0 10.41 134 10:36 12.11.2019
4617 Clouds 27 1010 83 10000 4.1 150 10:18 12.11.2019
4618 Clouds 27 1010 83 10000 4.1 150 09:39 12.11.2019
4619 Clouds 27 1010 83 10000 4.1 150 09:20 12.11.2019
4620 Clouds 28 1009 78 10000 7.7 170 08:49 12.11.2019
4621 Clouds 28 1009 78 10000 7.7 170 08:29 12.11.2019
4622 Clouds 29 1008 74 10000 5.1 150 07:43 12.11.2019
4623 Clouds 29 1008 74 10000 5.1 150 07:25 12.11.2019
4624 Clouds 29 1008 74 10000 5.1 150 06:54 12.11.2019
4625 Clouds 29 1008 74 10000 5.1 150 06:26 12.11.2019
4626 Clouds 29 1009 74 10000 5.1 150 05:54 12.11.2019
4627 Clouds 29 1010 74 10000 5.1 170 04:59 12.11.2019
4628 Clouds 29 1010 74 10000 5.1 170 04:35 12.11.2019
4629 Clouds 29 1011 74 10000 5.1 230 02:39 12.11.2019
4630 Clouds 29 1012 74 10000 2.6 290 01:27 12.11.2019
4631 Clouds 26 1013 78 0 4.83 143 00:56 12.11.2019
4632 Clouds 26 1013 78 0 4.83 143 00:37 12.11.2019
4633 Clouds 27 1012 78 10000 2.6 130 23:55 11.11.2019
4634 Clouds 27 1012 78 10000 2.6 130 23:37 11.11.2019
4635 Clouds 27 1012 78 10000 2.6 130 23:18 11.11.2019
4636 Clouds 25 1011 88 10000 2.1 100 22:39 11.11.2019
4637 Clouds 22 1010 100 10000 1 320 22:20 11.11.2019
4638 Clouds 22 1010 100 10000 1 320 21:58 11.11.2019
4639 Clouds 22 1010 100 10000 1 320 21:39 11.11.2019
4640 Clouds 22 1010 100 10000 1 320 21:20 11.11.2019
4641 Clouds 22 1010 100 10000 1 320 21:20 11.11.2019
4642 Clouds 25 1012 81 0 4.89 109 20:55 11.11.2019
4643 Clouds 25 1012 81 0 4.89 109 20:37 11.11.2019
4644 Clouds 25 1010 82 0 8.39 123 20:19 11.11.2019
4645 Clouds 25 1010 82 0 8.39 123 19:42 11.11.2019
4646 Clouds 25 1010 82 0 8.39 123 19:20 11.11.2019
4647 Clouds 25 1010 82 0 8.39 123 18:58 11.11.2019
4648 Clouds 25 1010 82 0 8.39 123 18:40 11.11.2019
4649 Clouds 25 1010 82 0 8.39 123 18:20 11.11.2019
4650 Clouds 25 1010 82 0 8.39 123 17:45 11.11.2019
4651 Clouds 25 1010 82 0 8.39 123 17:27 11.11.2019
4652 Clouds 25 1012 82 0 8.17 126 16:56 11.11.2019
4653 Clouds 25 1012 82 0 8.17 126 16:38 11.11.2019
4654 Clouds 25 1012 82 0 8.17 126 16:20 11.11.2019
4655 Clouds 24 1011 88 10000 5.1 140 15:41 11.11.2019
4656 Clouds 24 1011 88 10000 5.1 140 15:20 11.11.2019
4657 Clouds 24 1011 88 10000 5.1 140 15:20 11.11.2019
4658 Clouds 24 1011 88 10000 5.1 140 14:55 11.11.2019
4659 Clouds 24 1011 88 10000 5.1 140 14:37 11.11.2019
4660 Clouds 24 1011 88 10000 5.1 140 14:18 11.11.2019
4661 Clouds 24 1011 94 10000 5.1 140 13:39 11.11.2019
4662 Clouds 24 1011 94 10000 5.1 140 13:21 11.11.2019
4663 Clouds 24 1012 94 10000 1.5 0 12:58 11.11.2019
4664 Clouds 24 1012 94 10000 1.5 0 12:58 11.11.2019
4665 Clouds 24 1012 94 10000 1.5 0 12:40 11.11.2019
4666 Clouds 26 1013 79 0 6.03 127 12:22 11.11.2019
4667 Clouds 26 1013 79 0 6.03 127 11:57 11.11.2019
4668 Clouds 26 1013 79 0 6.03 127 11:39 11.11.2019
4669 Rain 26 1012 77 0 6.39 113 11:21 11.11.2019
4670 Rain 26 1012 77 0 6.39 113 10:43 11.11.2019
4671 Clouds 24 1011 100 10000 2.1 43 10:19 11.11.2019
4672 Clouds 24 1011 100 10000 2.1 43 09:58 11.11.2019
4673 Clouds 24 1011 100 10000 2.1 43 09:39 11.11.2019
4674 Clouds 24 1011 100 10000 2.1 43 09:19 11.11.2019
4675 Clouds 26 1010 88 10000 5.1 18 08:41 11.11.2019
4676 Clouds 27 1009 72 0 9.31 139 08:22 11.11.2019
4677 Haze 27 1009 83 10000 7.7 150 07:57 11.11.2019
4678 Haze 27 1009 83 10000 7.7 150 07:37 11.11.2019
4679 Haze 28 1009 78 10000 7.7 140 07:18 11.11.2019
4680 Haze 28 1009 78 10000 7.7 140 06:47 11.11.2019
4681 Haze 28 1009 78 10000 7.7 150 06:22 11.11.2019
4682 Haze 28 1009 78 10000 7.7 150 05:51 11.11.2019
4683 Haze 28 1010 78 10000 7.7 140 04:30 11.11.2019
4684 Clouds 30 1011 70 10000 7.7 150 03:23 11.11.2019
4685 Clouds 30 1011 70 10000 7.7 150 02:24 11.11.2019
4686 Clouds 30 1011 70 10000 7.7 150 02:24 11.11.2019
4687 Clouds 26 1011 79 0 7.69 126 01:55 11.11.2019
4688 Clouds 26 1011 80 0 6.67 122 01:34 11.11.2019
4689 Clouds 28 1011 78 10000 1.5 0 00:48 11.11.2019
4690 Clouds 28 1011 78 10000 1.5 0 00:20 11.11.2019
4691 Clouds 26 1011 88 10000 1.5 0 23:39 10.11.2019
4692 Clouds 26 1011 88 10000 1.5 0 23:20 10.11.2019
4693 Clouds 24 1011 100 10000 1.5 0 22:57 10.11.2019
4694 Clouds 24 1011 100 10000 1.5 0 22:38 10.11.2019
4695 Clouds 24 1011 100 10000 1.5 0 22:20 10.11.2019
4696 Clouds 23 1010 100 10000 1.5 0 21:58 10.11.2019
4697 Clouds 23 1010 100 10000 1.5 0 21:58 10.11.2019
4698 Clouds 23 1010 100 10000 1.5 0 21:39 10.11.2019
4699 Clouds 23 1010 100 10000 1.5 0 21:21 10.11.2019
4700 Clouds 26 1012 83 0 9.27 127 20:56 10.11.2019
4701 Clouds 26 1012 83 0 9.27 127 20:37 10.11.2019
4702 Clouds 26 1010 82 0 6.97 125 20:19 10.11.2019
4703 Clouds 26 1010 82 0 6.97 125 19:54 10.11.2019
4704 Clouds 26 1010 82 0 6.97 125 19:36 10.11.2019
4705 Clouds 26 1010 82 0 6.97 125 19:18 10.11.2019
4706 Clouds 26 1010 82 0 6.97 125 19:18 10.11.2019
4707 Clouds 26 1010 82 0 6.97 125 18:54 10.11.2019
4708 Clouds 26 1010 82 0 6.97 125 18:36 10.11.2019
4709 Clouds 26 1010 82 0 6.97 125 18:18 10.11.2019
4710 Clouds 26 1010 82 0 6.97 125 17:54 10.11.2019
4711 Clouds 26 1010 82 0 6.97 125 17:36 10.11.2019
4712 Clouds 26 1010 81 0 3.33 124 17:18 10.11.2019
4713 Clouds 26 1010 81 0 3.33 124 17:18 10.11.2019
4714 Clouds 26 1010 81 0 3.33 124 16:43 10.11.2019
4715 Clouds 26 1010 81 0 3.33 124 16:24 10.11.2019
4716 Clouds 26 1010 81 0 3.33 124 15:56 10.11.2019
4717 Clouds 26 1010 81 0 3.33 124 15:56 10.11.2019
4718 Clouds 26 1010 81 0 3.33 124 15:37 10.11.2019
4719 Clouds 26 1010 81 0 3.33 124 15:18 10.11.2019
4720 Clouds 26 1010 81 0 3.33 124 14:55 10.11.2019
4721 Clouds 26 1010 81 0 3.33 124 14:37 10.11.2019
4722 Rain 26 1012 82 0 4.21 125 14:18 10.11.2019
4723 Rain 26 1012 82 0 4.21 125 13:43 10.11.2019
4724 Rain 26 1012 82 0 4.21 125 13:21 10.11.2019
4725 Rain 27 1011 84 0 5.71 137 12:58 10.11.2019
4726 Rain 27 1011 84 0 5.71 137 12:40 10.11.2019
4727 Rain 27 1011 84 0 5.71 137 12:18 10.11.2019
4728 Rain 27 1011 84 0 5.71 137 11:55 10.11.2019
4729 Rain 27 1011 84 0 5.71 137 11:36 10.11.2019
4730 Clouds 26 1011 84 0 5.45 144 11:18 10.11.2019
4731 Clouds 26 1011 84 0 5.45 144 11:18 10.11.2019
4732 Clouds 26 1011 84 0 5.45 144 10:42 10.11.2019
4733 Haze 26 1010 88 10000 5.1 170 10:20 10.11.2019
4734 Haze 26 1010 88 10000 5.1 170 09:55 10.11.2019
4735 Haze 26 1010 88 10000 5.1 170 09:37 10.11.2019
4736 Haze 26 1010 88 10000 5.1 170 09:18 10.11.2019
4737 Haze 27 1009 83 10000 5.1 180 08:39 10.11.2019
4738 Haze 27 1009 83 10000 5.1 180 08:19 10.11.2019
4739 Haze 27 1009 83 10000 5.1 180 08:19 10.11.2019
4740 Haze 28 1008 78 10000 5.1 200 07:44 10.11.2019
4741 Haze 28 1008 78 10000 5.1 200 07:25 10.11.2019
4742 Haze 28 1008 78 10000 5.1 200 07:25 10.11.2019
4743 Clouds 29 1008 74 10000 2.6 210 06:33 10.11.2019
4744 Clouds 30 1009 66 10000 5.18 164 05:43 10.11.2019
4745 Clouds 30 1011 74 10000 5.1 180 03:22 10.11.2019
4746 Clouds 28 1012 78 10000 5.1 300 01:55 10.11.2019
4747 Clouds 28 1012 78 10000 5.1 300 01:19 10.11.2019
4748 Clouds 27 1012 83 10000 5.1 350 00:41 10.11.2019
4749 Clouds 25 1012 100 10000 5.1 350 23:58 09.11.2019
4750 Clouds 25 1012 100 10000 5.1 350 23:37 09.11.2019
4751 Clouds 25 1012 100 10000 5.1 350 23:18 09.11.2019
4752 Clouds 24 1011 100 10000 2.6 320 22:41 09.11.2019
4753 Clouds 24 1011 100 10000 2.6 320 22:21 09.11.2019
4754 Rain 25 1012 85 0 5.4 335 21:56 09.11.2019
4755 Rain 25 1012 85 0 5.4 335 21:56 09.11.2019
4756 Rain 25 1012 85 0 5.4 335 21:37 09.11.2019
4757 Rain 25 1012 85 0 5.4 335 21:19 09.11.2019
4758 Rain 25 1012 85 0 5.4 335 20:43 09.11.2019
4759 Clouds 24 1010 100 0 4.1 330 20:22 09.11.2019
4760 Clouds 24 1010 100 0 4.1 330 19:58 09.11.2019
4761 Clouds 24 1010 100 0 4.1 330 19:39 09.11.2019
4762 Rain 24 1010 90 0 3.41 8 19:21 09.11.2019
4763 Rain 24 1010 90 0 3.41 8 18:56 09.11.2019
4764 Rain 24 1010 90 0 3.41 8 18:38 09.11.2019
4765 Clouds 24 1010 100 10000 3.41 8 18:18 09.11.2019
4766 Clouds 24 1010 100 10000 3.41 8 17:41 09.11.2019
4767 Clouds 24 1010 100 10000 2.82 24 17:22 09.11.2019
4768 Clouds 24 1010 100 10000 4.1 330 16:55 09.11.2019
4769 Clouds 24 1010 100 10000 4.1 330 16:36 09.11.2019
4770 Rain 24 1011 93 0 2.82 24 16:18 09.11.2019
4771 Rain 24 1011 93 0 2.82 24 15:41 09.11.2019
4772 Clouds 24 1012 100 10000 5.1 330 15:23 09.11.2019
4773 Clouds 24 1012 100 10000 5.1 330 14:45 09.11.2019
4774 Clouds 24 1013 100 10000 2.6 350 14:22 09.11.2019
4775 Clouds 24 1013 100 10000 2.6 350 13:58 09.11.2019
4776 Clouds 24 1013 100 10000 2.6 350 13:39 09.11.2019
4777 Clouds 24 1012 100 10000 2.6 350 13:21 09.11.2019
4778 Clouds 24 1012 100 10000 2.6 350 12:56 09.11.2019
4779 Clouds 24 1012 100 10000 2.6 350 12:38 09.11.2019
4780 Clouds 24 1012 100 10000 2.6 350 12:20 09.11.2019
4781 Clouds 24 1012 100 10000 2.6 330 11:48 09.11.2019
4782 Clouds 24 1011 100 10000 5.1 350 11:21 09.11.2019
4783 Clouds 24 1011 100 10000 5.1 350 10:57 09.11.2019
4784 Clouds 24 1011 100 10000 5.1 350 10:38 09.11.2019
4785 Rain 25 1010 100 0 5.1 330 10:18 09.11.2019
4786 Rain 25 1010 100 0 5.1 330 09:44 09.11.2019
4787 Rain 25 1010 100 0 5.1 350 09:21 09.11.2019
4788 Rain 25 1010 100 0 5.1 350 08:53 09.11.2019
4789 Rain 25 1010 100 0 5.1 350 08:26 09.11.2019
4790 Clouds 25 1009 100 0 5.1 360 07:57 09.11.2019
4791 Clouds 25 1009 100 0 5.1 360 07:39 09.11.2019
4792 Clouds 25 1009 100 0 6.7 300 07:20 09.11.2019
4793 Clouds 26 1009 94 0 6.7 290 06:46 09.11.2019
4794 Clouds 26 1009 94 0 7.7 300 06:28 09.11.2019
4795 Clouds 26 1009 94 0 6.7 300 05:40 09.11.2019
4796 Clouds 25 1010 100 0 4.1 180 04:30 09.11.2019
4797 Clouds 31 1011 66 10000 2.1 0 02:55 09.11.2019
4798 Clouds 31 1011 66 10000 2.1 0 02:36 09.11.2019
4799 Clouds 28 1012 83 10000 5.1 330 01:18 09.11.2019
4800 Clouds 28 1012 83 10000 5.1 330 00:43 09.11.2019
4801 Haze 28 1012 83 10000 4.1 350 00:25 09.11.2019
4802 Clouds 27 1012 80 0 5.38 302 23:41 08.11.2019
4803 Haze 26 1011 94 10000 4.1 330 23:22 08.11.2019
4804 Haze 26 1011 94 10000 4.1 330 22:59 08.11.2019
4805 Haze 26 1011 94 10000 4.1 330 22:40 08.11.2019
4806 Fog 25 1010 100 0 4.1 320 22:21 08.11.2019
4807 Fog 25 1010 100 0 4.1 320 21:42 08.11.2019
4808 Fog 25 1010 100 0 4.1 320 21:23 08.11.2019
4809 Fog 25 1009 100 0 3.1 330 20:58 08.11.2019
4810 Fog 25 1009 100 0 3.1 330 20:40 08.11.2019
4811 Fog 25 1009 100 0 3.1 330 20:20 08.11.2019
4812 Fog 25 1009 100 0 2.6 330 19:55 08.11.2019
4813 Fog 25 1009 100 0 2.6 330 19:36 08.11.2019
4814 Clouds 25 1008 100 10000 2.6 310 19:18 08.11.2019
4815 Clouds 25 1008 100 10000 2.6 310 19:18 08.11.2019
4816 Clouds 25 1008 100 10000 2.6 310 18:54 08.11.2019
4817 Clouds 25 1008 100 10000 2.6 310 18:36 08.11.2019
4818 Clouds 25 1009 100 10000 1.5 0 18:18 08.11.2019
4819 Clouds 25 1009 100 10000 1.5 0 18:18 08.11.2019
4820 Clouds 25 1009 100 10000 1.5 0 17:54 08.11.2019
4821 Clouds 25 1009 100 10000 1.5 0 17:36 08.11.2019
4822 Clouds 25 1009 100 10000 1.5 0 17:36 08.11.2019
4823 Clouds 25 1009 100 10000 1.5 0 17:18 08.11.2019
4824 Clouds 25 1009 94 10000 1.5 0 16:57 08.11.2019
4825 Clouds 25 1009 94 10000 1.5 0 16:57 08.11.2019
4826 Clouds 25 1009 94 10000 1.5 0 16:38 08.11.2019
4827 Clouds 25 1009 94 10000 1.5 0 16:18 08.11.2019
4828 Clouds 25 1010 94 10000 1 0 15:41 08.11.2019
4829 Clouds 26 1011 84 0 0.52 305 15:23 08.11.2019
4830 Clouds 26 1011 84 0 0.52 305 14:57 08.11.2019
4831 Clouds 26 1011 84 0 0.52 305 14:38 08.11.2019
4832 Clouds 26 1012 86 0 1.27 112 14:20 08.11.2019
4833 Clouds 26 1012 86 0 1.27 112 13:58 08.11.2019
4834 Clouds 26 1012 86 0 1.27 112 13:39 08.11.2019
4835 Clouds 26 1012 88 0 0.64 78 13:21 08.11.2019
4836 Clouds 26 1012 88 0 0.64 78 12:45 08.11.2019
4837 Clouds 26 1012 88 0 0.64 78 12:27 08.11.2019
4838 Clouds 26 1012 88 0 0.64 78 11:58 08.11.2019
4839 Clouds 26 1012 88 0 0.64 78 11:40 08.11.2019
4840 Rain 25 1011 91 0 1.98 31 11:21 08.11.2019
4841 Rain 25 1011 91 0 1.98 31 10:58 08.11.2019
4842 Rain 25 1011 91 0 1.98 31 10:40 08.11.2019
4843 Clouds 27 1008 88 10000 5.1 180 10:21 08.11.2019
4844 Clouds 27 1008 88 10000 5.1 180 09:56 08.11.2019
4845 Clouds 27 1008 88 10000 5.1 180 09:37 08.11.2019
4846 Clouds 27 1008 88 10000 5.1 180 09:18 08.11.2019
4847 Clouds 27 1008 88 10000 5.1 180 09:18 08.11.2019
4848 Rain 25 1011 91 0 1.98 31 08:44 08.11.2019
4849 Clouds 29 1008 83 10000 6.2 240 08:20 08.11.2019
4850 Clouds 29 1008 83 10000 6.2 240 07:43 08.11.2019
4851 Clouds 30 1008 74 10000 5.1 250 07:23 08.11.2019
4852 Clouds 30 1008 74 10000 5.1 250 06:56 08.11.2019
4853 Clouds 30 1008 74 10000 5.1 250 06:56 08.11.2019
4854 Clouds 30 1008 74 10000 5.1 250 06:36 08.11.2019
4855 Clouds 30 1008 74 10000 5.1 250 06:18 08.11.2019
4856 Clouds 30 1008 74 10000 5.1 270 05:25 08.11.2019
4857 Clouds 29 1009 79 10000 5.1 220 04:19 08.11.2019
4858 Haze 30 1010 74 10000 5.1 340 03:42 08.11.2019
4859 Haze 29 1010 79 10000 5.1 350 02:55 08.11.2019
4860 Haze 29 1011 79 10000 5.1 360 01:50 08.11.2019
4861 Haze 29 1011 79 10000 5.1 360 01:32 08.11.2019
4862 Haze 27 1011 88 10000 4.1 320 00:38 08.11.2019
4863 Haze 27 1011 88 10000 4.1 320 00:20 08.11.2019
4864 Haze 27 1011 88 10000 4.1 320 23:44 07.11.2019
4865 Haze 26 1010 94 10000 4.1 360 23:25 07.11.2019
4866 Haze 26 1010 94 10000 4.1 360 22:55 07.11.2019
4867 Haze 26 1010 94 10000 4.1 360 22:37 07.11.2019
4868 Haze 26 1010 94 10000 4.1 360 22:19 07.11.2019
4869 Clouds 26 1009 94 0 2.6 360 21:38 07.11.2019
4870 Clouds 26 1009 94 0 2.6 360 21:20 07.11.2019
4871 Clouds 26 1008 88 10000 2.6 130 20:58 07.11.2019
4872 Clouds 26 1008 88 10000 2.6 130 20:40 07.11.2019
4873 Clouds 26 1008 88 10000 2.6 130 20:40 07.11.2019
4874 Clouds 26 1008 88 10000 2.6 130 20:21 07.11.2019
4875 Clouds 26 1008 88 10000 2.6 130 20:21 07.11.2019
4876 Clouds 26 1008 88 10000 2.6 130 19:56 07.11.2019
4877 Clouds 26 1008 88 10000 2.6 130 19:37 07.11.2019
4878 Clouds 26 1008 88 10000 2.6 130 19:19 07.11.2019
4879 Clouds 26 1008 88 10000 2.6 130 18:56 07.11.2019
4880 Clouds 26 1008 88 10000 2.6 130 18:37 07.11.2019
4881 Clouds 26 1008 88 10000 2.6 130 18:19 07.11.2019
4882 Clouds 26 1008 88 10000 0.5 160 17:41 07.11.2019
4883 Clouds 26 1008 88 10000 0.5 160 17:23 07.11.2019
4884 Clouds 26 1009 88 0 6.64 127 16:59 07.11.2019
4885 Clouds 26 1009 88 0 6.64 127 16:40 07.11.2019
4886 Clouds 26 1009 94 10000 0.5 160 16:22 07.11.2019
4887 Clouds 26 1009 94 10000 0.5 160 15:59 07.11.2019
4888 Clouds 26 1009 94 10000 0.5 160 15:39 07.11.2019
4889 Clouds 26 1010 94 10000 4.6 160 15:19 07.11.2019
4890 Clouds 26 1009 88 0 6.64 127 14:46 07.11.2019
4891 Clouds 26 1009 88 0 6.64 127 14:27 07.11.2019
4892 Clouds 26 1009 88 0 6.64 127 14:27 07.11.2019
4893 Clouds 27 1011 87 0 10 135 13:58 07.11.2019
4894 Clouds 27 1011 87 0 10 135 13:40 07.11.2019
4895 Clouds 27 1011 87 0 9.49 134 13:21 07.11.2019
4896 Clouds 27 1011 87 0 9.49 134 12:59 07.11.2019
4897 Clouds 27 1011 87 0 9.49 134 12:41 07.11.2019
4898 Clouds 27 1011 87 0 9.49 134 12:22 07.11.2019
4899 Clouds 27 1011 87 0 9.49 134 11:59 07.11.2019
4900 Clouds 27 1011 87 0 9.49 134 11:40 07.11.2019
4901 Clouds 26 1008 94 10000 5.7 160 11:22 07.11.2019
4902 Rain 27 1009 85 0 11.14 140 10:42 07.11.2019
4903 Haze 26 1007 88 10000 7.7 160 10:19 07.11.2019
4904 Haze 26 1007 88 10000 7.7 160 09:44 07.11.2019
4905 Haze 26 1007 88 10000 8.2 160 09:24 07.11.2019
4906 -273 0 0 0 0 0 08:58 07.11.2019
4907 Haze 26 1007 88 10000 8.2 160 08:57 07.11.2019
4908 Haze 26 1007 88 10000 8.2 160 08:38 07.11.2019
4909 Haze 26 1007 88 10000 8.2 160 08:19 07.11.2019
4910 Clouds 27 1007 83 10000 9.3 160 07:42 07.11.2019
4911 Clouds 27 1007 83 10000 11.3 150 07:22 07.11.2019
4912 Clouds 27 1007 83 10000 11.3 150 07:00 07.11.2019
4913 Clouds 27 1007 83 10000 11.3 150 06:40 07.11.2019
4914 Clouds 27 1007 83 10000 11.3 150 06:40 07.11.2019
4915 Haze 28 1007 78 10000 9.3 120 06:21 07.11.2019
4916 Haze 28 1007 78 10000 9.3 120 06:21 07.11.2019
4917 Haze 28 1007 78 10000 9.3 120 05:47 07.11.2019
4918 Haze 31 1007 70 10000 7.7 210 05:29 07.11.2019
4919 Haze 31 1007 70 10000 7.7 210 04:49 07.11.2019
4920 Haze 30 1009 70 10000 1.5 0 03:32 07.11.2019
4921 Clouds 26 1010 88 10000 2.6 120 00:58 07.11.2019
4922 Clouds 26 1010 88 10000 2.6 120 00:23 07.11.2019
4923 Clouds 25 1010 94 10000 5.1 160 23:49 06.11.2019
4924 -273 0 0 0 0 0 23:23 06.11.2019
4925 Clouds 25 1009 94 10000 2.6 160 22:58 06.11.2019
4926 Clouds 25 1009 94 10000 2.6 160 22:39 06.11.2019
4927 Clouds 24 1008 94 10000 2.6 150 22:19 06.11.2019
4928 Clouds 24 1008 94 10000 2.6 150 21:57 06.11.2019
4929 Clouds 24 1008 94 10000 2.6 150 21:57 06.11.2019
4930 Clouds 24 1008 94 10000 2.6 150 21:38 06.11.2019
4931 Clouds 24 1008 94 10000 2.6 150 21:19 06.11.2019
4932 Rain 26 1010 84 0 9.49 125 20:55 06.11.2019
4933 Rain 26 1010 84 0 9.49 125 20:36 06.11.2019
4934 Rain 26 1009 85 0 9.39 126 20:18 06.11.2019
4935 Rain 26 1009 85 0 9.37 127 19:40 06.11.2019
4936 Rain 26 1009 85 0 9.37 127 19:40 06.11.2019
4937 Rain 26 1009 85 0 9.37 127 19:22 06.11.2019
4938 Rain 26 1009 85 0 9.37 127 18:59 06.11.2019
4939 Rain 26 1009 85 0 9.37 127 18:39 06.11.2019
4940 Rain 26 1009 85 0 9.37 127 18:19 06.11.2019
4941 Rain 26 1009 85 0 9.37 127 17:58 06.11.2019
4942 Rain 26 1009 85 0 9.37 127 17:40 06.11.2019
4943 Rain 26 1008 84 0 10.46 131 17:21 06.11.2019
4944 Rain 26 1008 84 0 10.46 131 17:21 06.11.2019
4945 Rain 26 1008 84 0 10.46 131 16:55 06.11.2019
4946 Rain 26 1008 84 0 10.46 131 16:37 06.11.2019
4947 Rain 26 1008 84 0 10.46 131 16:18 06.11.2019
4948 Rain 26 1008 84 0 10.46 131 15:56 06.11.2019
4949 Rain 26 1008 84 0 10.46 131 15:37 06.11.2019
4950 Rain 26 1008 84 0 10.46 131 15:18 06.11.2019
4951 Rain 26 1008 84 0 10.46 131 14:56 06.11.2019
4952 Rain 26 1008 84 0 10.46 131 14:56 06.11.2019
4953 Rain 26 1008 84 0 10.46 131 14:37 06.11.2019
4954 Clouds 26 1010 83 10000 6.2 160 14:19 06.11.2019
4955 Clouds 26 1010 83 10000 6.2 160 13:40 06.11.2019
4956 Clouds 26 1010 83 0 9.86 133 13:22 06.11.2019
4957 Clouds 26 1010 83 0 9.86 133 12:58 06.11.2019
4958 Clouds 26 1010 83 0 9.86 133 12:39 06.11.2019
4959 Clouds 26 1010 83 0 9.86 133 12:39 06.11.2019
4960 Clouds 26 1010 83 0 9.86 133 12:21 06.11.2019
4961 Clouds 26 1010 83 0 9.86 133 11:58 06.11.2019
4962 Clouds 26 1010 83 0 9.86 133 11:38 06.11.2019
4963 Clouds 26 1008 83 10000 9.3 160 11:18 06.11.2019
4964 Clouds 26 1008 83 10000 9.3 160 10:56 06.11.2019
4965 Clouds 26 1008 83 10000 9.3 160 10:38 06.11.2019
4966 Haze 26 1007 88 10000 7.7 150 10:19 06.11.2019
4967 Haze 26 1007 88 10000 7.7 150 09:44 06.11.2019
4968 Haze 26 1007 88 10000 7.7 150 09:24 06.11.2019
4969 Smoke 26 1006 88 10000 7.7 140 08:59 06.11.2019
4970 Smoke 26 1006 88 10000 7.7 140 08:39 06.11.2019
4971 Smoke 26 1006 88 10000 7.7 140 08:20 06.11.2019
4972 Smoke 27 1006 83 10000 7.7 140 07:59 06.11.2019
4973 Smoke 27 1006 83 10000 7.7 140 07:40 06.11.2019
4974 Smoke 27 1006 83 10000 7.7 140 07:20 06.11.2019
4975 Clouds 26 1007 81 0 9.39 153 06:44 06.11.2019
4976 Smoke 29 1006 70 10000 7.7 140 06:24 06.11.2019
4977 Haze 30 1007 66 10000 9.3 140 04:32 06.11.2019
4978 Haze 30 1008 62 10000 7.7 140 02:20 06.11.2019
4979 Smoke 28 1009 65 10000 2.6 0 01:31 06.11.2019
4980 Smoke 28 1009 65 10000 2.6 0 00:37 06.11.2019
4981 Haze 27 1009 74 10000 1 0 23:58 05.11.2019
4982 Haze 27 1009 74 10000 1 0 23:38 05.11.2019
4983 Haze 27 1009 74 10000 1 0 23:19 05.11.2019
4984 Haze 26 1008 74 10000 5.1 140 22:43 05.11.2019
4985 Haze 26 1008 74 10000 5.1 140 22:20 05.11.2019
4986 Clouds 24 1008 88 10000 2.6 170 21:58 05.11.2019
4987 Clouds 24 1008 88 10000 2.6 170 21:40 05.11.2019
4988 Clouds 24 1007 88 10000 1.5 130 21:20 05.11.2019
4989 Clouds 24 1007 88 10000 1.5 130 20:57 05.11.2019
4990 Clouds 24 1007 88 10000 1.5 130 20:38 05.11.2019
4991 Clouds 24 1007 88 10000 3.6 100 20:20 05.11.2019
4992 Clouds 24 1007 88 10000 3.6 100 19:55 05.11.2019
4993 Clouds 24 1007 88 10000 3.6 100 19:37 05.11.2019
4994 Clouds 24 1007 88 10000 3.6 100 19:19 05.11.2019
4995 Clouds 24 1007 88 10000 5.1 140 18:56 05.11.2019
4996 Clouds 24 1007 88 10000 5.1 140 18:38 05.11.2019
4997 Clouds 24 1007 88 10000 5.1 140 18:19 05.11.2019
4998 Clouds 25 1007 83 10000 5.1 130 17:55 05.11.2019
4999 Clouds 25 1007 83 10000 5.1 130 17:37 05.11.2019
5000 Clouds 25 1007 83 10000 5.1 130 17:18 05.11.2019
5001 Clouds 25 1008 83 10000 5.1 150 16:41 05.11.2019
5002 Clouds 25 1008 83 10000 5.1 150 16:20 05.11.2019
5003 Clouds 26 1009 83 10000 7.7 130 15:57 05.11.2019
5004 Clouds 26 1009 83 10000 7.7 130 15:36 05.11.2019
5005 Clouds 26 1009 83 10000 7.7 130 15:18 05.11.2019
5006 Clouds 26 1008 81 0 8.1 132 14:54 05.11.2019
5007 Clouds 26 1008 81 0 8.1 132 14:36 05.11.2019
5008 Clouds 26 1009 83 10000 7.7 160 14:18 05.11.2019
5009 Clouds 26 1009 83 10000 7.7 160 13:42 05.11.2019
5010 Clouds 26 1009 83 10000 7.7 160 13:23 05.11.2019
5011 Clouds 26 1010 80 0 8.84 130 12:41 05.11.2019
5012 Clouds 26 1009 83 10000 7.7 160 12:22 05.11.2019
5013 Clouds 26 1009 83 10000 7.7 160 11:58 05.11.2019
5014 Clouds 26 1009 83 10000 7.7 160 11:38 05.11.2019
5015 Clouds 26 1008 83 10000 5.1 160 11:20 05.11.2019
5016 Clouds 26 1008 83 10000 5.1 160 10:48 05.11.2019
5017 Clouds 26 1008 83 10000 5.1 160 10:27 05.11.2019
5018 Haze 26 1008 83 10000 5.1 160 09:59 05.11.2019
5019 Haze 26 1008 83 10000 5.1 160 09:41 05.11.2019
5020 Haze 26 1008 83 10000 5.1 160 09:21 05.11.2019
5021 Haze 26 1008 83 10000 5.1 160 09:21 05.11.2019
5022 Clouds 26 1009 80 0 9.67 140 08:59 05.11.2019
5023 Clouds 26 1009 80 0 9.67 140 08:59 05.11.2019
5024 Clouds 26 1009 80 0 9.67 140 08:37 05.11.2019
5025 Smoke 27 1007 78 10000 7.7 180 08:19 05.11.2019
5026 Smoke 27 1007 78 10000 7.7 180 07:46 05.11.2019
5027 Smoke 27 1007 78 10000 7.7 180 07:26 05.11.2019
5028 Smoke 28 1007 78 10000 7.7 180 06:52 05.11.2019
5029 Smoke 28 1007 78 10000 7.7 180 06:33 05.11.2019
5030 Smoke 28 1007 74 10000 7.7 160 05:49 05.11.2019
5031 Smoke 28 1008 78 10000 7.7 160 05:21 05.11.2019
5032 Clouds 26 1008 82 0 9.23 156 04:22 05.11.2019
5033 Clouds 29 1010 70 10000 5.1 150 03:31 05.11.2019
5034 Clouds 29 1010 70 10000 5.1 150 02:43 05.11.2019
5035 Clouds 28 1010 74 10000 6.7 150 01:55 05.11.2019
5036 Clouds 27 1011 74 10000 5.1 150 00:46 05.11.2019
5037 Clouds 27 1011 74 10000 5.1 150 00:26 05.11.2019
5038 Smoke 25 1011 83 10000 3.6 130 23:42 04.11.2019
5039 Smoke 25 1011 83 10000 3.6 130 23:19 04.11.2019
5040 Clouds 23 1011 94 10000 1 0 22:57 04.11.2019
5041 Clouds 23 1011 94 10000 1 0 22:57 04.11.2019
5042 Clouds 23 1011 94 10000 1 0 22:39 04.11.2019
5043 Clouds 23 1011 94 10000 1 0 22:20 04.11.2019
5044 Clouds 23 1011 94 10000 1 0 22:20 04.11.2019
5045 Clouds 22 1010 94 10000 1 0 21:55 04.11.2019
5046 Clouds 22 1010 94 10000 1 0 21:37 04.11.2019
5047 Clouds 22 1010 94 10000 1 0 21:18 04.11.2019
5048 Clouds 23 1009 88 10000 1 0 20:55 04.11.2019
5049 Clouds 23 1009 88 10000 1 0 20:37 04.11.2019
5050 Clouds 23 1009 88 10000 1 0 20:18 04.11.2019
5051 Rain 26 1009 83 0 7.73 133 19:42 04.11.2019
5052 Rain 26 1009 83 0 7.73 133 19:23 04.11.2019
5053 Rain 26 1009 83 0 7.73 133 18:59 04.11.2019
5054 Rain 26 1009 83 0 7.73 133 18:40 04.11.2019
5055 Rain 26 1009 83 0 7.73 133 18:21 04.11.2019
5056 Rain 26 1009 83 0 7.73 133 17:58 04.11.2019
5057 Rain 26 1009 83 0 7.73 133 17:36 04.11.2019
5058 Clouds 26 1010 81 0 9.1 131 17:18 04.11.2019
5059 Clouds 26 1010 81 0 9.1 131 16:43 04.11.2019
5060 Clouds 26 1010 81 0 9.1 131 16:24 04.11.2019
5061 Clouds 26 1010 81 0 9.1 131 15:59 04.11.2019
5062 Clouds 26 1010 81 0 9.1 131 15:59 04.11.2019
5063 Clouds 26 1010 81 0 9.1 131 15:41 04.11.2019
5064 Clouds 26 1010 81 0 9.1 131 15:21 04.11.2019
5065 Clouds 26 1010 81 0 9.1 131 14:58 04.11.2019
5066 Clouds 26 1010 81 0 9.1 131 14:39 04.11.2019
5067 Clouds 26 1010 78 10000 7.7 150 14:20 04.11.2019
5068 Clouds 26 1010 78 10000 7.7 150 13:57 04.11.2019
5069 Clouds 26 1010 78 10000 7.7 150 13:39 04.11.2019
5070 Clouds 26 1010 78 10000 7.7 150 13:20 04.11.2019
5071 Clouds 27 1012 77 0 9.47 135 12:49 04.11.2019
5072 Clouds 27 1012 77 0 9.47 135 12:49 04.11.2019
5073 Clouds 27 1012 77 0 9.47 135 12:29 04.11.2019
5074 Clouds 27 1012 77 0 9.47 135 11:59 04.11.2019
5075 Clouds 27 1012 77 0 9.47 135 11:41 04.11.2019
5076 Clouds 27 1008 74 10000 7.7 160 11:22 04.11.2019
5077 Clouds 27 1008 74 10000 7.7 160 10:54 04.11.2019
5078 Clouds 27 1008 74 10000 7.7 160 10:36 04.11.2019
5079 Clouds 27 1008 74 10000 7.7 160 10:18 04.11.2019
5080 Clouds 27 1008 78 10000 10.3 170 09:40 04.11.2019
5081 Clouds 29 1007 74 10000 11.44 141 09:19 04.11.2019
5082 Clouds 29 1007 74 10000 11.44 141 08:42 04.11.2019
5083 Clouds 29 1007 74 10000 12 147 08:23 04.11.2019
5084 Clouds 29 1007 74 10000 12 147 08:23 04.11.2019
5085 Clouds 29 1007 74 10000 12 147 08:23 04.11.2019
5086 Smoke 30 1006 70 10000 7.7 160 07:56 04.11.2019
5087 Smoke 30 1006 70 10000 7.7 160 07:38 04.11.2019
5088 Smoke 30 1006 70 10000 7.7 160 07:38 04.11.2019
5089 Smoke 30 1006 70 10000 7.7 160 07:19 04.11.2019
5090 Clouds 30 1006 70 10000 7.7 150 06:40 04.11.2019
5091 Clouds 30 1006 70 10000 7.7 150 06:18 04.11.2019
5092 Clouds 31 1007 66 10000 7.7 160 05:30 04.11.2019
5093 Clouds 31 1008 66 10000 7.7 160 04:26 04.11.2019
5094 Smoke 32 1010 62 10000 10.3 150 03:29 04.11.2019
5095 Smoke 30 1010 70 10000 7.7 160 01:24 04.11.2019
5096 Smoke 29 1011 74 10000 4.6 170 00:54 04.11.2019
5097 Smoke 29 1011 74 10000 4.6 170 00:22 04.11.2019
5098 Smoke 28 1011 78 10000 1.5 0 23:58 03.11.2019
5099 Smoke 28 1011 78 10000 1.5 0 23:37 03.11.2019
5100 Smoke 28 1011 78 10000 1.5 0 23:37 03.11.2019
5101 Smoke 28 1011 78 10000 1.5 0 23:18 03.11.2019
5102 Smoke 28 1011 78 10000 1.5 0 23:18 03.11.2019
5103 Smoke 28 1011 78 10000 1.5 0 23:18 03.11.2019
5104 Smoke 28 1011 78 10000 1.5 0 23:18 03.11.2019
5105 Smoke 28 1011 78 10000 1.5 0 23:18 03.11.2019
5106 Smoke 26 1010 88 10000 1.5 0 22:56 03.11.2019
5107 Smoke 26 1010 88 10000 1.5 0 22:38 03.11.2019
5108 Smoke 26 1010 88 10000 1.5 0 22:18 03.11.2019
5109 Clouds 25 1010 94 10000 1.5 0 21:42 03.11.2019
5110 Clouds 25 1010 94 10000 1.5 0 21:21 03.11.2019
5111 Clouds 25 1010 88 10000 1.5 0 20:57 03.11.2019
5112 Clouds 25 1010 88 10000 1.5 0 20:37 03.11.2019
5113 Clouds 25 1009 88 10000 1.5 0 20:19 03.11.2019
5114 Clouds 25 1009 88 10000 1.5 0 19:57 03.11.2019
5115 Clouds 25 1009 88 10000 1.5 0 19:38 03.11.2019
5116 Clouds 25 1008 88 10000 4.1 130 19:20 03.11.2019
5117 Clouds 25 1008 88 10000 4.1 130 18:39 03.11.2019
5118 Clouds 26 1010 82 0 9.8 126 18:19 03.11.2019
5119 Clouds 26 1010 82 0 9.8 126 17:59 03.11.2019
5120 Clouds 26 1010 82 0 9.8 126 17:41 03.11.2019
5121 Clouds 25 1009 88 10000 4.1 130 17:20 03.11.2019
5122 Clouds 25 1009 88 10000 4.1 130 16:56 03.11.2019
5123 Clouds 25 1009 88 10000 4.1 130 16:38 03.11.2019
5124 Clouds 25 1009 88 10000 4.1 130 16:20 03.11.2019
5125 Clouds 25 1009 88 10000 9.83 130 15:57 03.11.2019
5126 Clouds 25 1009 88 10000 9.83 130 15:39 03.11.2019
5127 Clouds 25 1009 88 10000 9.83 130 15:20 03.11.2019
5128 Clouds 26 1009 83 0 9.83 130 14:42 03.11.2019
5129 Clouds 26 1010 88 10000 10.06 134 14:19 03.11.2019
5130 Clouds 26 1010 88 10000 10.06 134 13:58 03.11.2019
5131 Clouds 26 1010 88 10000 10.06 134 13:40 03.11.2019
5132 Clouds 26 1010 88 10000 10.27 135 13:18 03.11.2019
5133 Clouds 26 1010 88 10000 10.27 135 12:38 03.11.2019
5134 Clouds 26 1010 88 10000 10.27 135 12:20 03.11.2019
5135 Clouds 26 1010 88 10000 10.27 135 12:20 03.11.2019
5136 Clouds 26 1009 88 10000 10.27 135 11:58 03.11.2019
5137 Clouds 26 1009 88 10000 10.27 135 11:40 03.11.2019
5138 Clouds 26 1009 88 10000 11.79 144 11:20 03.11.2019
5139 Clouds 27 1009 83 10000 11.79 144 10:42 03.11.2019
5140 Clouds 27 1009 83 10000 11.79 144 10:22 03.11.2019
5141 Clouds 27 1008 83 10000 10.3 150 09:59 03.11.2019
5142 Clouds 27 1008 83 10000 10.3 150 09:41 03.11.2019
5143 Clouds 27 1008 83 10000 10.3 150 09:23 03.11.2019
5144 Clouds 28 1007 78 10000 12.9 150 08:53 03.11.2019
5145 Clouds 28 1007 78 10000 12.9 150 08:26 03.11.2019
5146 Clouds 29 1007 79 10000 12.9 150 07:55 03.11.2019
5147 Clouds 29 1007 79 10000 12.9 150 07:37 03.11.2019
5148 Clouds 29 1007 79 10000 12.9 150 07:18 03.11.2019
5149 Clouds 29 1007 74 10000 12.9 160 06:38 03.11.2019
5150 Clouds 30 1008 70 10000 11.3 160 05:41 03.11.2019
5151 Clouds 30 1008 70 10000 11.3 160 05:18 03.11.2019
5152 Clouds 30 1009 70 10000 8.2 150 04:47 03.11.2019
5153 Clouds 27 1009 77 0 10.76 154 03:40 03.11.2019
5154 Haze 32 1010 59 10000 7.7 160 02:46 03.11.2019
5155 Haze 30 1011 66 10000 3.6 180 02:21 03.11.2019
5156 Haze 30 1011 66 10000 3.6 180 01:44 03.11.2019
5157 Haze 30 1011 66 10000 3.6 180 01:21 03.11.2019
5158 Haze 29 1011 70 10000 2.6 150 00:46 03.11.2019
5159 Haze 29 1011 70 10000 2.6 150 00:28 03.11.2019
5160 Haze 29 1011 70 10000 2.6 120 23:58 02.11.2019
5161 Haze 29 1011 70 10000 2.6 120 23:39 02.11.2019
5162 Clouds 26 1010 83 10000 2.6 140 23:19 02.11.2019
5163 Clouds 26 1010 83 10000 2.6 140 22:56 02.11.2019
5164 Clouds 26 1010 83 10000 2.6 140 22:37 02.11.2019
5165 Clouds 25 1010 88 10000 2.6 130 22:19 02.11.2019
5166 Clouds 25 1010 88 10000 2.6 130 21:56 02.11.2019
5167 Clouds 25 1010 88 10000 2.6 130 21:38 02.11.2019
5168 Clouds 25 1010 88 10000 2.6 130 21:18 02.11.2019
5169 Clouds 25 1010 88 10000 2.6 130 21:18 02.11.2019
5170 Clouds 25 1010 88 10000 2.6 130 21:18 02.11.2019
5171 Clouds 24 1009 94 10000 3.1 130 20:58 02.11.2019
5172 Clouds 24 1009 94 10000 3.1 130 20:39 02.11.2019
5173 Clouds 24 1009 94 10000 3.1 130 20:20 02.11.2019
5174 Clouds 24 1008 94 10000 5.1 130 19:42 02.11.2019
5175 Clouds 25 1008 88 10000 6.2 120 19:24 02.11.2019
5176 Clouds 25 1008 88 10000 6.2 120 18:57 02.11.2019
5177 Clouds 25 1008 88 10000 6.2 120 18:38 02.11.2019
5178 Clouds 25 1008 88 10000 5.1 140 18:20 02.11.2019
5179 Clouds 25 1008 88 10000 5.1 140 17:57 02.11.2019
5180 Clouds 25 1008 88 10000 5.1 140 17:38 02.11.2019
5181 Clouds 26 1009 82 0 9.84 128 17:20 02.11.2019
5182 Clouds 26 1009 82 0 9.84 128 16:57 02.11.2019
5183 Clouds 26 1009 82 0 9.84 128 16:36 02.11.2019
5184 Clouds 26 1009 82 0 9.84 128 16:18 02.11.2019
5185 Clouds 26 1009 82 0 9.84 128 16:18 02.11.2019
5186 Clouds 26 1009 82 0 9.84 128 15:41 02.11.2019
5187 Clouds 26 1009 82 0 9.84 128 15:41 02.11.2019
5188 Clouds 26 1009 82 0 9.84 128 15:20 02.11.2019
5189 Clouds 26 1009 82 0 9.84 128 14:43 02.11.2019
5190 Clouds 26 1011 80 0 11.03 131 14:23 02.11.2019
5191 Clouds 26 1011 80 0 11.03 131 13:57 02.11.2019
5192 Clouds 26 1011 80 0 11.03 131 13:38 02.11.2019
5193 Clouds 26 1011 80 0 10.78 133 13:19 02.11.2019
5194 Clouds 26 1011 80 0 10.78 133 12:41 02.11.2019
5195 Clouds 26 1011 80 0 10.78 133 12:23 02.11.2019
5196 Clouds 26 1011 80 0 10.78 133 12:23 02.11.2019
5197 Clouds 26 1011 80 0 10.78 133 11:57 02.11.2019
5198 Clouds 26 1011 80 0 10.78 133 11:39 02.11.2019
5199 Clouds 27 1009 80 0 12.15 142 11:20 02.11.2019
5200 Clouds 27 1009 80 0 12.15 142 10:48 02.11.2019
5201 Haze 27 1006 83 10000 7.7 160 10:28 02.11.2019
5202 Haze 27 1006 83 10000 7.7 160 09:57 02.11.2019
5203 Haze 27 1006 83 10000 7.7 160 09:39 02.11.2019
5204 Haze 27 1006 83 10000 7.7 160 09:19 02.11.2019
5205 Haze 28 1006 78 10000 7.7 160 08:45 02.11.2019
5206 Haze 29 1006 74 10000 7.7 160 08:22 02.11.2019
5207 Haze 29 1006 74 10000 7.7 160 07:47 02.11.2019
5208 Clouds 27 1007 81 0 10.88 147 07:28 02.11.2019
5209 Clouds 27 1007 81 0 10.88 147 07:28 02.11.2019
5210 Clouds 27 1007 81 0 10.88 147 06:54 02.11.2019
5211 Haze 31 1007 70 10000 5.1 130 06:29 02.11.2019
5212 Haze 31 1007 70 10000 5.1 130 05:56 02.11.2019
5213 Haze 31 1007 70 10000 5.1 130 05:20 02.11.2019
5214 Haze 30 1008 74 10000 5.1 150 04:21 02.11.2019
5215 Clouds 31 1008 62 10000 9.3 130 03:47 02.11.2019
5216 Clouds 31 1009 62 10000 7.7 160 02:40 02.11.2019
5217 Clouds 30 1010 62 10000 5.1 160 01:42 02.11.2019
5218 Clouds 30 1010 62 10000 5.1 160 01:21 02.11.2019
5219 Clouds 29 1010 66 10000 5.1 160 00:43 02.11.2019
5220 Clouds 29 1010 66 10000 5.1 160 00:25 02.11.2019
5221 Clouds 27 1010 74 10000 6.2 130 23:45 01.11.2019
5222 Clouds 27 1010 74 10000 6.2 130 23:20 01.11.2019
5223 Clouds 25 1009 83 10000 3.1 140 22:55 01.11.2019
5224 Clouds 25 1009 83 10000 3.1 140 22:37 01.11.2019
5225 Clouds 25 1009 83 10000 3.1 140 22:18 01.11.2019
5226 Clouds 24 1009 83 10000 5.1 110 21:38 01.11.2019
5227 Clouds 25 1008 78 10000 5.1 110 21:20 01.11.2019
5228 Clouds 25 1008 78 10000 5.1 110 20:55 01.11.2019
5229 Clouds 25 1008 78 10000 5.1 110 20:36 01.11.2019
5230 Clouds 25 1008 78 10000 5.1 110 20:18 01.11.2019
5231 Clouds 25 1008 78 10000 5.1 130 19:41 01.11.2019
5232 Clouds 25 1008 78 10000 5.1 130 19:22 01.11.2019
5233 Clouds 25 1008 78 10000 5.1 130 19:22 01.11.2019
5234 Clouds 25 1008 78 10000 5.1 130 18:57 01.11.2019
5235 Clouds 25 1008 78 10000 5.1 130 18:38 01.11.2019
5236 Clouds 25 1008 78 10000 5.1 130 18:18 01.11.2019
5237 Clouds 25 1008 78 10000 5.1 130 17:41 01.11.2019
5238 Clouds 25 1008 78 10000 5.1 130 17:41 01.11.2019
5239 Clouds 25 1008 78 10000 5.1 130 17:23 01.11.2019
5240 Clouds 25 1008 78 10000 5.1 130 16:58 01.11.2019
5241 Clouds 25 1008 78 10000 5.1 130 16:36 01.11.2019
5242 Clouds 25 1008 78 10000 5.1 130 16:36 01.11.2019
5243 Clouds 26 1009 79 0 11.42 128 16:18 01.11.2019
5244 Clouds 26 1009 79 0 11.42 128 16:18 01.11.2019
5245 Clouds 26 1009 79 0 11.42 128 15:40 01.11.2019
5246 Clouds 26 1009 79 0 11.42 128 15:22 01.11.2019
5247 Clouds 26 1009 79 0 11.42 128 14:55 01.11.2019
5248 Clouds 26 1009 79 0 11.42 128 14:36 01.11.2019
5249 Clouds 26 1011 79 0 11.55 131 14:18 01.11.2019
5250 Clouds 26 1011 79 0 11.55 131 13:41 01.11.2019
5251 Clouds 26 1011 79 0 11.55 131 13:22 01.11.2019
5252 Clouds 26 1010 79 0 11.53 131 12:56 01.11.2019
5253 Clouds 26 1010 79 0 11.53 131 12:56 01.11.2019
5254 Clouds 26 1010 79 0 11.53 131 12:37 01.11.2019
5255 Clouds 26 1010 79 0 11.53 131 12:19 01.11.2019
5256 Clouds 26 1010 79 0 11.53 131 11:42 01.11.2019
5257 Clouds 26 1010 79 0 11.53 131 11:24 01.11.2019
5258 Clouds 27 1008 79 0 12.88 139 10:44 01.11.2019
5259 Clouds 27 1008 79 0 12.88 139 10:44 01.11.2019
5260 Haze 27 1005 83 10000 7.7 150 10:25 01.11.2019
5261 Haze 27 1005 83 10000 7.7 150 09:59 01.11.2019
5262 Haze 27 1005 83 10000 7.7 150 09:59 01.11.2019
5263 Haze 27 1005 83 10000 7.7 150 09:41 01.11.2019
5264 Haze 27 1005 83 10000 7.7 150 09:22 01.11.2019
5265 Haze 28 1005 78 10000 7.7 160 08:54 01.11.2019
5266 Haze 28 1005 78 10000 7.7 160 08:54 01.11.2019
5267 Haze 28 1005 78 10000 7.7 160 08:36 01.11.2019
5268 Haze 29 1005 74 10000 7.7 160 08:18 01.11.2019
5269 Haze 29 1005 74 10000 7.7 160 07:44 01.11.2019
5270 Haze 30 1005 70 10000 10.3 160 07:22 01.11.2019
5271 Haze 30 1005 70 10000 10.3 160 06:53 01.11.2019
5272 Haze 30 1005 70 10000 10.3 160 06:22 01.11.2019
5273 Haze 30 1005 70 10000 10.3 160 06:22 01.11.2019
5274 Haze 30 1005 70 10000 10.3 150 05:44 01.11.2019
5275 Haze 31 1006 66 10000 8.7 150 04:39 01.11.2019
5276 Clouds 30 1008 70 10000 7.7 130 03:32 01.11.2019
5277 Clouds 30 1009 66 10000 5.1 150 01:43 01.11.2019
5278 Clouds 29 1009 74 10000 5.1 120 00:43 01.11.2019
5279 Clouds 29 1009 74 10000 5.1 120 00:19 01.11.2019
5280 Clouds 28 1009 78 10000 1.5 0 23:44 31.10.2019
5281 Clouds 28 1009 78 10000 1.5 0 23:44 31.10.2019
5282 Clouds 28 1009 78 10000 1.5 0 23:23 31.10.2019
5283 Clouds 25 1008 94 10000 1.5 0 22:57 31.10.2019
5284 Clouds 25 1008 94 10000 1.5 0 22:39 31.10.2019
5285 Clouds 25 1008 94 10000 1.5 0 22:21 31.10.2019
5286 Clouds 24 1008 94 10000 1.5 0 21:44 31.10.2019
5287 Clouds 24 1008 94 10000 1.5 0 21:21 31.10.2019
5288 Clouds 24 1007 94 10000 1.5 0 20:57 31.10.2019
5289 Clouds 24 1007 94 10000 1.5 0 20:39 31.10.2019
5290 Clouds 24 1006 94 10000 1.5 0 20:21 31.10.2019
5291 Clouds 24 1006 94 10000 1.5 0 19:42 31.10.2019
5292 Clouds 24 1006 94 10000 1.5 0 19:22 31.10.2019
5293 Clouds 24 1006 94 10000 1.5 0 18:57 31.10.2019
5294 Clouds 24 1006 94 10000 1.5 0 18:57 31.10.2019
5295 Clouds 24 1006 94 10000 1.5 0 18:39 31.10.2019
5296 Clouds 24 1006 94 10000 1.5 0 18:20 31.10.2019
5297 Clouds 25 1006 88 10000 1.5 0 17:42 31.10.2019
5298 Clouds 25 1006 88 10000 1.5 0 17:22 31.10.2019
5299 Clouds 25 1007 88 10000 1.5 0 16:58 31.10.2019
5300 Clouds 25 1007 88 10000 1.5 0 16:40 31.10.2019
5301 Clouds 26 1008 83 10000 3.1 150 16:20 31.10.2019
5302 Clouds 26 1008 83 10000 3.1 150 15:56 31.10.2019
5303 Clouds 26 1008 83 10000 3.1 150 15:37 31.10.2019
5304 Clouds 26 1008 83 10000 3.1 150 15:19 31.10.2019
5305 Clouds 26 1008 83 10000 3.1 150 15:19 31.10.2019
5306 Clouds 26 1008 81 0 5.59 116 14:54 31.10.2019
5307 Clouds 26 1008 81 0 5.59 116 14:36 31.10.2019
5308 Clouds 26 1008 88 10000 6.2 160 14:18 31.10.2019
5309 Clouds 26 1008 88 10000 6.2 160 13:40 31.10.2019
5310 Clouds 26 1008 88 10000 6.2 160 13:40 31.10.2019
5311 Clouds 26 1008 88 10000 6.2 160 13:20 31.10.2019
5312 Clouds 26 1010 80 0 9.68 118 12:58 31.10.2019
5313 Clouds 26 1010 80 0 9.68 118 12:40 31.10.2019
5314 Clouds 26 1010 80 0 9.68 118 12:22 31.10.2019
5315 Clouds 26 1010 80 0 9.68 118 11:47 31.10.2019
5316 Clouds 27 1007 83 0 7.7 140 11:21 31.10.2019
5317 Rain 26 1008 83 0 10.97 141 10:59 31.10.2019
5318 Rain 26 1008 83 0 10.97 141 10:59 31.10.2019
5319 Rain 26 1008 83 0 10.97 141 10:40 31.10.2019
5320 Clouds 27 1007 88 10000 7.7 150 10:21 31.10.2019
5321 Clouds 27 1007 88 10000 7.7 150 09:56 31.10.2019
5322 Clouds 27 1007 88 10000 7.7 150 09:38 31.10.2019
5323 Clouds 27 1006 88 10000 5.1 130 09:18 31.10.2019
5324 Clouds 27 1006 88 10000 5.1 130 08:46 31.10.2019
5325 Clouds 27 1006 88 10000 5.1 130 08:46 31.10.2019
5326 Clouds 27 1006 88 10000 5.1 130 08:26 31.10.2019
5327 Rain 29 1005 79 10000 7.7 160 07:48 31.10.2019
5328 Rain 29 1005 79 10000 7.7 160 07:28 31.10.2019
5329 Clouds 30 1005 74 10000 5.1 150 06:55 31.10.2019
5330 Clouds 30 1005 74 10000 5.1 150 06:32 31.10.2019
5331 Clouds 30 1006 74 10000 5.1 150 05:28 31.10.2019
5332 Clouds 30 1008 74 10000 5.1 180 03:20 31.10.2019
5333 Clouds 28 1009 78 10000 5.1 160 02:30 31.10.2019
5334 Clouds 28 1009 78 10000 5.1 160 01:24 31.10.2019
5335 Clouds 27 1010 83 10000 2.6 0 00:27 31.10.2019
5336 Clouds 26 1010 83 10000 1 0 23:52 30.10.2019
5337 Clouds 25 1009 94 10000 1.5 0 23:27 30.10.2019
5338 Clouds 25 1009 94 10000 1.5 0 22:43 30.10.2019
5339 Clouds 25 1009 94 10000 1.5 0 22:20 30.10.2019
5340 Clouds 25 1009 94 10000 1.5 0 22:20 30.10.2019
5341 Clouds 24 1008 94 10000 1.5 0 21:55 30.10.2019
5342 Clouds 24 1008 94 10000 1.5 0 21:37 30.10.2019
5343 Clouds 24 1008 94 10000 1.5 0 21:37 30.10.2019
5344 Clouds 24 1008 94 10000 1.5 0 21:37 30.10.2019
5345 Clouds 24 1008 94 10000 1.5 0 21:37 30.10.2019
5346 Clouds 24 1008 94 10000 1.5 0 21:18 30.10.2019
5347 Clouds 24 1008 100 10000 2.6 0 20:58 30.10.2019
5348 Clouds 24 1008 100 10000 2.6 0 20:58 30.10.2019
5349 Clouds 24 1008 100 10000 2.6 0 20:39 30.10.2019
5350 Clouds 26 1008 87 0 7.02 124 20:21 30.10.2019
5351 Clouds 26 1008 87 0 7.02 124 19:54 30.10.2019
5352 Clouds 26 1008 87 0 7.02 124 19:36 30.10.2019
5353 Clouds 24 1007 100 10000 7.02 124 19:18 30.10.2019
5354 Clouds 24 1007 100 10000 7.02 124 18:39 30.10.2019
5355 Clouds 24 1007 100 10000 7.02 124 18:19 30.10.2019
5356 Clouds 24 1007 100 10000 7.02 124 18:19 30.10.2019
5357 Clouds 25 1008 88 10000 1.5 0 17:57 30.10.2019
5358 Clouds 25 1008 88 10000 1.5 0 17:38 30.10.2019
5359 Clouds 25 1008 88 10000 1.5 0 17:18 30.10.2019
5360 Clouds 25 1009 88 0 8.18 128 16:55 30.10.2019
5361 Clouds 25 1009 88 0 8.18 128 16:37 30.10.2019
5362 Rain 25 1009 94 10000 3.1 120 16:18 30.10.2019
5363 Rain 25 1009 94 10000 3.1 120 15:41 30.10.2019
5364 Rain 25 1009 94 10000 3.1 120 15:41 30.10.2019
5365 Rain 25 1009 94 10000 3.1 130 15:21 30.10.2019
5366 Rain 25 1009 94 10000 3.1 130 15:21 30.10.2019
5367 Rain 25 1009 94 10000 3.1 130 14:59 30.10.2019
5368 Rain 25 1009 94 10000 3.1 130 14:41 30.10.2019
5369 Rain 25 1009 94 0 7.7 140 14:22 30.10.2019
5370 Rain 25 1009 94 0 7.7 140 13:57 30.10.2019
5371 Rain 25 1009 94 0 7.7 140 13:39 30.10.2019
5372 Rain 25 1009 94 0 7.7 140 13:19 30.10.2019
5373 Rain 26 1011 86 0 8.22 132 12:54 30.10.2019
5374 Rain 26 1011 86 0 8.22 132 12:36 30.10.2019
5375 Rain 26 1011 86 0 8.22 132 12:36 30.10.2019
5376 Rain 25 1008 94 10000 1.5 0 12:18 30.10.2019
5377 Rain 25 1008 94 10000 1.5 0 11:41 30.10.2019
5378 Rain 25 1009 94 0 1.5 0 11:21 30.10.2019
5379 Rain 25 1009 94 0 1.5 0 10:44 30.10.2019
5380 Clouds 26 1008 88 10000 2.6 150 10:23 30.10.2019
5381 Clouds 26 1008 88 10000 2.6 150 09:57 30.10.2019
5382 Clouds 26 1008 88 10000 2.6 150 09:38 30.10.2019
5383 Clouds 26 1008 88 10000 2.6 150 09:19 30.10.2019
5384 Clouds 27 1007 88 10000 2.6 150 08:40 30.10.2019
5385 Clouds 27 1007 88 10000 2.6 150 08:20 30.10.2019
5386 Clouds 29 1006 79 10000 5.1 180 07:46 30.10.2019
5387 Clouds 29 1006 79 10000 5.1 170 07:24 30.10.2019
5388 Clouds 29 1006 79 10000 5.1 170 06:42 30.10.2019
5389 Clouds 29 1006 79 10000 5.1 170 06:21 30.10.2019
5390 Clouds 29 1007 79 10000 5.1 160 05:42 30.10.2019
5391 Clouds 29 1008 79 10000 5.1 160 04:55 30.10.2019
5392 Clouds 29 1009 74 10000 3.6 200 03:43 30.10.2019
5393 Clouds 30 1010 74 10000 1.5 0 02:52 30.10.2019
5394 Clouds 29 1010 79 10000 1 0 01:58 30.10.2019
5395 Clouds 27 1011 83 10000 2.6 170 00:58 30.10.2019
5396 Clouds 26 1011 80 0 4.12 135 00:28 30.10.2019
5397 Clouds 26 1011 80 0 4.12 135 23:43 29.10.2019
5398 Clouds 25 1010 94 10000 2.1 0 23:23 29.10.2019
5399 Clouds 25 1010 94 10000 2.1 0 22:48 29.10.2019
5400 Rain 24 1009 100 0 1.5 0 22:20 29.10.2019
5401 Rain 24 1009 100 0 1.5 0 21:58 29.10.2019
5402 Rain 24 1009 100 0 1.5 0 21:40 29.10.2019
5403 Rain 24 1009 100 0 1.5 0 21:20 29.10.2019
5404 Clouds 26 1011 84 0 5.88 125 20:56 29.10.2019
5405 Clouds 26 1011 84 0 5.88 125 20:37 29.10.2019
5406 Clouds 26 1011 84 0 5.88 125 20:37 29.10.2019
5407 Rain 26 1009 85 0 7.35 123 20:19 29.10.2019
5408 Rain 26 1009 85 0 7.35 123 19:55 29.10.2019
5409 Rain 26 1009 85 0 7.35 123 19:37 29.10.2019
5410 Rain 26 1009 85 0 7.35 123 19:18 29.10.2019
5411 Rain 26 1009 85 0 7.35 123 18:55 29.10.2019
5412 Rain 26 1009 85 0 7.35 123 18:36 29.10.2019
5413 Rain 26 1009 85 0 7.35 123 18:18 29.10.2019
5414 Rain 26 1009 85 0 7.35 123 17:40 29.10.2019
5415 Rain 26 1010 85 0 8.48 125 17:21 29.10.2019
5416 Rain 26 1010 85 0 8.48 125 16:58 29.10.2019
5417 Rain 26 1010 85 0 8.48 125 16:38 29.10.2019
5418 Clouds 25 1010 94 10000 5.1 130 16:19 29.10.2019
5419 Clouds 25 1010 94 10000 5.1 130 15:54 29.10.2019
5420 Clouds 25 1010 94 10000 5.1 130 15:36 29.10.2019
5421 Clouds 25 1010 94 10000 5.1 130 15:18 29.10.2019
5422 Clouds 25 1010 94 10000 5.1 130 14:42 29.10.2019
5423 Clouds 25 1010 94 10000 5.1 130 14:42 29.10.2019
5424 Clouds 25 1010 94 10000 5.1 130 14:23 29.10.2019
5425 Clouds 25 1010 94 10000 5.1 130 13:58 29.10.2019
5426 Clouds 25 1010 94 10000 5.1 130 13:39 29.10.2019
5427 Clouds 26 1012 83 0 8.4 134 13:21 29.10.2019
5428 Clouds 26 1012 83 0 8.4 134 13:21 29.10.2019
5429 Clouds 26 1012 83 0 8.4 134 12:43 29.10.2019
5430 Clouds 26 1012 83 0 8.4 134 12:43 29.10.2019
5431 Clouds 26 1012 83 0 8.4 134 12:43 29.10.2019
5432 Clouds 25 1009 94 10000 3.1 230 12:25 29.10.2019
5433 Clouds 25 1009 94 10000 3.1 230 11:55 29.10.2019
5434 Clouds 25 1009 94 10000 3.1 230 11:37 29.10.2019
5435 Clouds 25 1009 94 10000 3.1 230 11:18 29.10.2019
5436 Clouds 27 1009 81 0 5.73 140 10:57 29.10.2019
5437 Clouds 27 1009 81 0 5.73 140 10:38 29.10.2019
5438 Rain 25 1008 100 10000 2.1 10 10:19 29.10.2019
5439 Rain 25 1008 100 10000 2.1 10 09:42 29.10.2019
5440 Rain 25 1008 100 10000 3.6 320 09:23 29.10.2019
5441 Rain 25 1008 100 10000 3.6 320 08:57 29.10.2019
5442 Rain 25 1008 100 10000 3.6 320 08:39 29.10.2019
5443 Clouds 27 1007 94 10000 5.1 130 08:20 29.10.2019
5444 Clouds 27 1007 94 10000 5.1 130 07:48 29.10.2019
5445 Clouds 27 1007 94 10000 5.1 130 07:20 29.10.2019
5446 Clouds 29 1007 79 10000 7.7 170 06:53 29.10.2019
5447 Clouds 30 1007 74 10000 5.1 170 06:29 29.10.2019
5448 Clouds 30 1007 74 10000 5.1 170 05:54 29.10.2019
5449 Clouds 30 1007 74 10000 5.1 170 05:36 29.10.2019
5450 Clouds 31 1008 70 10000 7.7 160 04:39 29.10.2019
5451 Clouds 30 1010 74 10000 5.1 150 02:34 29.10.2019
5452 Clouds 29 1010 79 10000 5.1 180 01:56 29.10.2019
5453 Clouds 29 1010 79 10000 5.1 180 01:34 29.10.2019
5454 Clouds 28 1010 83 10000 1.5 0 00:52 29.10.2019
5455 Clouds 28 1010 83 10000 1.5 0 00:52 29.10.2019
5456 Clouds 27 1010 88 10000 1.5 0 23:58 28.10.2019
5457 Clouds 27 1010 88 10000 1.5 0 23:37 28.10.2019
5458 Clouds 27 1010 88 10000 1.5 0 23:19 28.10.2019
5459 Clouds 25 1010 94 10000 1.5 0 22:39 28.10.2019
5460 Clouds 25 1010 94 10000 1.5 0 22:20 28.10.2019
5461 Clouds 24 1009 94 10000 1.5 0 21:56 28.10.2019
5462 Clouds 24 1009 94 10000 1.5 0 21:38 28.10.2019
5463 Clouds 24 1009 94 10000 1.5 0 21:20 28.10.2019
5464 Rain 25 1011 85 0 1.96 353 20:57 28.10.2019
5465 Rain 25 1011 85 0 1.96 353 20:38 28.10.2019
5466 Rain 25 1009 88 0 3.24 72 20:20 28.10.2019
5467 Rain 25 1009 88 0 3.24 72 19:54 28.10.2019
5468 Rain 25 1009 88 0 3.24 72 19:54 28.10.2019
5469 Rain 25 1009 88 0 3.24 72 19:36 28.10.2019
5470 Rain 25 1009 88 0 3.24 72 19:18 28.10.2019
5471 Rain 25 1009 88 0 3.24 72 19:18 28.10.2019
5472 Rain 25 1009 88 0 3.24 72 18:42 28.10.2019
5473 Rain 25 1009 88 0 3.24 72 18:22 28.10.2019
5474 Rain 25 1009 88 0 3.24 72 17:57 28.10.2019
5475 Rain 25 1009 88 0 3.24 72 17:39 28.10.2019
5476 Clouds 25 1009 89 0 4.96 121 17:20 28.10.2019
5477 Clouds 25 1009 89 0 4.96 121 16:58 28.10.2019
5478 Clouds 25 1009 89 0 4.96 121 16:40 28.10.2019
5479 Clouds 24 1010 100 10000 2.1 0 16:21 28.10.2019
5480 Clouds 24 1010 100 10000 2.1 0 15:59 28.10.2019
5481 Clouds 24 1010 100 10000 2.1 0 15:40 28.10.2019
5482 Clouds 25 1009 89 0 4.96 121 15:21 28.10.2019
5483 Clouds 24 1010 100 10000 2.1 0 14:57 28.10.2019
5484 Clouds 24 1010 100 10000 2.1 0 14:57 28.10.2019
5485 Clouds 24 1010 100 10000 2.1 0 14:39 28.10.2019
5486 Clouds 24 1010 100 10000 2.1 0 14:19 28.10.2019
5487 Clouds 25 1010 94 10000 2.1 0 13:57 28.10.2019
5488 Clouds 25 1010 94 10000 2.1 0 13:38 28.10.2019
5489 Clouds 25 1009 100 10000 3.1 150 13:18 28.10.2019
5490 Clouds 25 1009 100 10000 3.1 150 12:42 28.10.2019
5491 Clouds 25 1009 100 10000 3.1 150 12:21 28.10.2019
5492 Haze 25 1009 94 10000 1.5 0 11:40 28.10.2019
5493 Haze 25 1009 94 10000 1.5 0 11:22 28.10.2019
5494 Haze 25 1008 94 10000 2.1 0 10:58 28.10.2019
5495 Haze 25 1008 94 10000 2.1 0 10:38 28.10.2019
5496 Haze 25 1008 94 10000 2.1 0 10:20 28.10.2019
5497 Haze 25 1008 94 10000 3.1 9 09:56 28.10.2019
5498 Haze 25 1008 94 10000 3.1 9 09:37 28.10.2019
5499 Clouds 25 1008 94 10000 5.7 20 09:18 28.10.2019
5500 Clouds 25 1008 94 10000 5.7 20 08:56 28.10.2019
5501 Clouds 25 1008 94 10000 5.7 20 08:37 28.10.2019
5502 Rain 26 1007 100 10000 3.1 150 08:18 28.10.2019
5503 Rain 26 1007 100 10000 3.1 150 07:47 28.10.2019
5504 Rain 26 1007 100 10000 3.1 150 07:23 28.10.2019
5505 Rain 26 1007 100 10000 3.1 150 07:23 28.10.2019
5506 Rain 26 1007 100 10000 3.1 150 07:23 28.10.2019
5507 Clouds 26 1007 100 10000 5.1 150 06:59 28.10.2019
5508 Clouds 26 1007 100 10000 5.1 150 06:39 28.10.2019
5509 Haze 30 1006 74 10000 10.32 144 05:29 28.10.2019
5510 Clouds 31 1007 74 10000 5.1 180 03:44 28.10.2019
5511 Haze 30 1009 79 10000 5.1 210 02:46 28.10.2019
5512 Clouds 29 1009 79 10000 5.1 200 01:52 28.10.2019
5513 Clouds 28 1010 83 10000 2.6 340 00:47 28.10.2019
5514 Clouds 28 1010 83 10000 2.6 340 00:26 28.10.2019
5515 Clouds 27 1009 88 10000 2.1 0 23:44 27.10.2019
5516 Clouds 26 1009 100 10000 1.5 0 23:22 27.10.2019
5517 Clouds 26 1009 100 10000 1.5 0 22:57 27.10.2019
5518 Clouds 26 1009 100 10000 1.5 0 22:37 27.10.2019
5519 Clouds 26 1009 100 10000 1.5 0 22:19 27.10.2019
5520 Clouds 26 1008 94 10000 1.5 0 21:55 27.10.2019
5521 Clouds 26 1008 94 10000 1.5 0 21:37 27.10.2019
5522 Clouds 26 1008 94 10000 1.5 0 21:18 27.10.2019
5523 Clouds 26 1008 94 10000 2.6 200 20:41 27.10.2019
5524 Rain 26 1009 89 0 3.9 103 20:23 27.10.2019
5525 Rain 26 1009 89 0 3.9 103 19:58 27.10.2019
5526 Rain 26 1009 89 0 3.9 103 19:37 27.10.2019
5527 Rain 26 1009 89 0 3.9 103 19:19 27.10.2019
5528 Rain 26 1009 89 0 3.9 103 18:56 27.10.2019
5529 Rain 26 1009 89 0 3.9 103 18:38 27.10.2019
5530 Rain 26 1009 89 0 3.9 103 18:38 27.10.2019
5531 Clouds 26 1007 94 10000 4.1 140 18:20 27.10.2019
5532 Rain 26 1009 89 0 3.9 103 17:55 27.10.2019
5533 Rain 26 1009 89 0 3.9 103 17:36 27.10.2019
5534 Clouds 27 1008 88 10000 4.1 140 17:18 27.10.2019
5535 Clouds 26 1009 90 0 5.41 119 16:55 27.10.2019
5536 Clouds 26 1009 90 0 5.41 119 16:55 27.10.2019
5537 Clouds 26 1009 90 0 5.41 119 16:37 27.10.2019
5538 Clouds 26 1009 94 10000 5.1 150 16:18 27.10.2019
5539 Clouds 26 1009 94 10000 5.1 150 15:54 27.10.2019
5540 Clouds 26 1009 94 10000 5.1 150 15:36 27.10.2019
5541 Clouds 26 1009 94 10000 5.1 150 15:18 27.10.2019
5542 Clouds 26 1009 94 10000 5.41 119 14:41 27.10.2019
5543 Clouds 26 1009 94 10000 8.27 137 14:19 27.10.2019
5544 Clouds 27 1009 88 10000 8.27 137 13:55 27.10.2019
5545 Clouds 27 1009 88 10000 8.65 139 13:36 27.10.2019
5546 Clouds 27 1008 88 10000 8.65 139 13:18 27.10.2019
5547 Clouds 27 1008 88 10000 8.65 139 12:42 27.10.2019
5548 Clouds 27 1008 88 10000 8.65 139 12:23 27.10.2019
5549 Clouds 27 1008 88 10000 5.1 160 11:43 27.10.2019
5550 Clouds 27 1008 88 10000 5.1 160 11:25 27.10.2019
5551 Clouds 27 1008 88 10000 5.1 160 11:25 27.10.2019
5552 Clouds 27 1008 88 10000 5.1 160 11:25 27.10.2019
5553 Clouds 26 1009 86 0 9.65 146 10:57 27.10.2019
5554 Clouds 26 1009 86 0 9.65 146 10:57 27.10.2019
5555 Clouds 26 1009 86 0 9.65 146 10:39 27.10.2019
5556 Clouds 26 1009 86 0 9.65 146 10:38 27.10.2019
5557 Clouds 27 1007 88 10000 6.2 160 10:20 27.10.2019
5558 Clouds 27 1007 88 10000 6.2 160 09:43 27.10.2019
5559 Clouds 27 1007 88 10000 6.2 160 09:19 27.10.2019
5560 Clouds 27 1007 88 10000 6.2 160 09:19 27.10.2019
5561 Clouds 28 1006 78 10000 8.2 150 08:57 27.10.2019
5562 Clouds 28 1006 78 10000 8.2 150 08:37 27.10.2019
5563 Clouds 28 1006 78 10000 8.2 150 08:19 27.10.2019
5564 Clouds 29 1005 74 10000 8.2 160 07:46 27.10.2019
5565 Clouds 29 1005 74 10000 8.2 160 07:46 27.10.2019
5566 Clouds 30 1005 70 10000 7.7 160 07:27 27.10.2019
5567 Clouds 30 1005 70 10000 7.7 160 06:55 27.10.2019
5568 Haze 31 1006 70 10000 7.7 140 06:29 27.10.2019
5569 Haze 31 1006 70 10000 7.7 140 05:54 27.10.2019
5570 Haze 31 1006 70 10000 7.7 140 05:34 27.10.2019
5571 Haze 31 1008 70 10000 5.1 200 03:35 27.10.2019
5572 Haze 30 1009 66 10000 3.6 130 02:28 27.10.2019
5573 Haze 29 1010 66 10000 2.6 300 01:25 27.10.2019
5574 Haze 25 1010 88 10000 2.6 310 00:52 27.10.2019
5575 Haze 25 1010 88 10000 2.6 310 00:33 27.10.2019
5576 Haze 25 1009 88 10000 2.6 310 23:57 26.10.2019
5577 Haze 25 1009 88 10000 2.6 310 23:39 26.10.2019
5578 Clouds 23 1009 94 10000 2.6 320 23:21 26.10.2019
5579 Clouds 23 1009 94 10000 2.6 320 22:57 26.10.2019
5580 Clouds 23 1009 94 10000 2.6 320 22:38 26.10.2019
5581 Clouds 23 1009 94 10000 2.6 320 22:19 26.10.2019
5582 Clouds 26 1010 88 0 5.38 132 21:44 26.10.2019
5583 Clouds 23 1008 94 10000 4.1 320 21:23 26.10.2019
5584 Clouds 23 1008 94 10000 4.1 320 20:59 26.10.2019
5585 Clouds 23 1008 94 10000 4.1 320 20:40 26.10.2019
5586 Clouds 24 1007 94 10000 5.1 340 20:19 26.10.2019
5587 Clouds 24 1007 94 10000 5.1 340 19:42 26.10.2019
5588 Clouds 26 1008 89 0 4.7 136 19:21 26.10.2019
5589 Clouds 26 1008 89 0 4.7 136 18:57 26.10.2019
5590 Clouds 26 1008 89 0 4.7 136 18:39 26.10.2019
5591 Clouds 25 1008 94 10000 2.6 30 18:20 26.10.2019
5592 Clouds 25 1008 94 10000 2.6 30 17:57 26.10.2019
5593 Clouds 25 1008 94 10000 2.6 30 17:38 26.10.2019
5594 Clouds 26 1009 88 0 4.78 140 17:20 26.10.2019
5595 Clouds 26 1009 88 0 4.78 140 16:45 26.10.2019
5596 Clouds 26 1009 88 0 4.78 140 16:25 26.10.2019
5597 Clouds 26 1009 88 0 4.78 140 15:59 26.10.2019
5598 Clouds 26 1009 88 0 4.78 140 15:37 26.10.2019
5599 Clouds 26 1011 88 0 4.85 139 15:18 26.10.2019
5600 Clouds 26 1011 88 0 4.85 139 14:39 26.10.2019
5601 Clouds 26 1011 87 0 5.86 140 14:19 26.10.2019
5602 Clouds 26 1011 87 0 5.86 140 13:55 26.10.2019
5603 Clouds 26 1011 87 0 5.86 140 13:36 26.10.2019
5604 Clouds 26 1011 87 0 5.86 140 13:18 26.10.2019
5605 Clouds 26 1011 87 0 5.86 140 13:18 26.10.2019
5606 Clouds 26 1011 87 0 5.86 140 12:42 26.10.2019
5607 Clouds 27 1009 88 10000 3.6 140 12:18 26.10.2019
5608 Clouds 27 1009 88 10000 3.6 140 11:45 26.10.2019
5609 Clouds 27 1009 88 10000 3.6 140 11:24 26.10.2019
5610 Clouds 26 1009 89 0 4.4 133 10:46 26.10.2019
5611 Haze 28 1007 83 10000 5.1 140 10:25 26.10.2019
5612 Haze 28 1007 83 10000 5.1 140 09:49 26.10.2019
5613 Haze 28 1007 78 10000 5.1 140 09:30 26.10.2019
5614 Haze 28 1007 78 10000 5.1 140 08:50 26.10.2019
5615 Haze 29 1007 74 10000 5.1 200 08:28 26.10.2019
5616 Haze 29 1007 74 10000 5.1 200 07:57 26.10.2019
5617 Haze 29 1007 74 10000 5.1 200 07:39 26.10.2019
5618 Haze 30 1007 74 10000 7.7 210 07:19 26.10.2019
5619 Haze 30 1007 74 10000 7.7 210 06:39 26.10.2019
5620 Haze 30 1009 74 10000 7.7 210 05:24 26.10.2019
5621 Haze 30 1009 74 10000 7.7 210 04:59 26.10.2019
5622 Haze 30 1010 74 10000 7.7 210 03:31 26.10.2019
5623 Clouds 29 1011 74 10000 5.7 210 02:28 26.10.2019
5624 Clouds 30 1011 70 10000 2.6 310 01:45 26.10.2019
5625 Clouds 28 1011 83 10000 3.6 310 00:50 26.10.2019
5626 Clouds 26 1010 94 10000 2.6 310 23:48 25.10.2019
5627 Clouds 26 1010 94 10000 2.6 310 23:22 25.10.2019
5628 Clouds 25 1009 94 10000 1.5 0 22:56 25.10.2019
5629 Clouds 25 1009 94 10000 1.5 0 22:56 25.10.2019
5630 Clouds 25 1009 94 10000 1.5 0 22:38 25.10.2019
5631 Clouds 25 1008 94 10000 2.6 340 22:20 25.10.2019
5632 Clouds 25 1008 94 10000 2.6 340 21:55 25.10.2019
5633 Clouds 25 1008 94 10000 2.6 340 21:37 25.10.2019
5634 Clouds 25 1008 94 10000 1.5 0 21:18 25.10.2019
5635 Rain 25 1009 92 0 1.27 133 20:42 25.10.2019
5636 Clouds 25 1008 94 10000 1.5 0 20:19 25.10.2019
5637 Clouds 25 1008 94 10000 1.5 0 19:47 25.10.2019
5638 Clouds 25 1008 94 10000 1.5 0 19:27 25.10.2019
5639 Clouds 25 1009 94 10000 1.5 0 18:48 25.10.2019
5640 Clouds 25 1009 94 10000 1.5 0 18:48 25.10.2019
5641 Clouds 25 1009 94 10000 1.5 0 18:29 25.10.2019
5642 Clouds 25 1009 94 10000 1.5 0 17:59 25.10.2019
5643 Clouds 25 1009 94 10000 1.5 0 17:36 25.10.2019
5644 Clouds 25 1009 94 10000 1.5 0 17:36 25.10.2019
5645 Clouds 25 1010 94 10000 1.5 0 17:18 25.10.2019
5646 Clouds 25 1010 94 10000 1.5 0 16:46 25.10.2019
5647 Clouds 25 1010 94 10000 1.5 0 16:22 25.10.2019
5648 Clouds 25 1010 94 10000 1.5 0 15:55 25.10.2019
5649 Clouds 25 1010 94 10000 1.5 0 15:37 25.10.2019
5650 Rain 25 1011 92 0 4.65 140 15:18 25.10.2019
5651 Rain 25 1011 93 0 4.83 144 14:42 25.10.2019
5652 Clouds 26 1010 94 10000 1.5 0 14:23 25.10.2019
5653 Clouds 26 1010 94 10000 1.5 0 13:44 25.10.2019
5654 Clouds 26 1010 94 10000 1.5 0 13:25 25.10.2019
5655 Clouds 26 1010 94 10000 2.1 150 12:59 25.10.2019
5656 Clouds 26 1010 94 10000 2.1 150 12:41 25.10.2019
5657 Clouds 25 1009 92 0 4.31 150 12:21 25.10.2019
5658 Clouds 25 1009 92 0 4.31 150 11:57 25.10.2019
5659 Clouds 25 1009 92 0 4.31 150 11:38 25.10.2019
5660 Haze 26 1008 88 10000 6.2 160 11:18 25.10.2019
5661 Haze 26 1008 88 10000 6.2 160 10:40 25.10.2019
5662 Haze 26 1008 88 10000 6.2 160 10:21 25.10.2019
5663 Haze 27 1007 83 10000 7.7 160 09:57 25.10.2019
5664 Haze 27 1007 83 10000 7.7 160 09:38 25.10.2019
5665 Haze 29 1007 79 10000 7.7 140 09:19 25.10.2019
5666 Haze 29 1007 79 10000 7.7 140 09:19 25.10.2019
5667 Haze 29 1007 79 10000 7.7 140 08:45 25.10.2019
5668 Haze 29 1007 79 10000 7.7 140 08:26 25.10.2019
5669 Haze 30 1007 70 10000 7.7 180 07:53 25.10.2019
5670 Clouds 26 1007 90 0 5.89 156 07:34 25.10.2019
5671 Haze 31 1007 70 10000 7.7 170 06:41 25.10.2019
5672 Haze 31 1008 66 10000 7.7 200 05:51 25.10.2019
5673 Haze 31 1008 66 10000 7.7 200 05:33 25.10.2019
5674 Haze 31 1009 66 10000 2.6 210 04:52 25.10.2019
5675 Haze 30 1010 70 10000 5.1 340 03:30 25.10.2019
5676 Haze 30 1011 70 10000 5.1 340 01:54 25.10.2019
5677 Clouds 28 1011 74 10000 3.6 10 00:50 25.10.2019
5678 Clouds 28 1011 74 10000 3.6 10 00:20 25.10.2019
5679 Clouds 25 1010 88 10000 1.5 0 23:40 24.10.2019
5680 Clouds 25 1010 88 10000 1.5 0 23:22 24.10.2019
5681 Clouds 24 1009 94 10000 1 0 22:54 24.10.2019
5682 Clouds 24 1009 94 10000 1 0 22:36 24.10.2019
5683 Clouds 24 1009 94 10000 1 0 22:36 24.10.2019
5684 Clouds 25 1011 91 0 2.25 110 22:18 24.10.2019
5685 Clouds 25 1011 91 0 2.25 110 21:54 24.10.2019
5686 Clouds 25 1011 90 0 2.33 109 21:36 24.10.2019
5687 Clouds 24 1008 94 10000 2.1 0 21:18 24.10.2019
5688 Clouds 24 1008 94 10000 2.1 0 20:54 24.10.2019
5689 Clouds 24 1008 94 10000 2.1 0 20:36 24.10.2019
5690 Clouds 24 1008 94 10000 2.1 0 20:18 24.10.2019
5691 Clouds 24 1008 100 10000 1.5 0 19:41 24.10.2019
5692 Clouds 24 1008 100 10000 1.5 0 19:22 24.10.2019
5693 Clouds 24 1009 94 10000 2.1 0 18:58 24.10.2019
5694 Clouds 24 1009 94 10000 2.1 0 18:58 24.10.2019
5695 Clouds 24 1009 94 10000 2.1 0 18:38 24.10.2019
5696 Rain 25 1010 91 0 6.79 126 18:20 24.10.2019
5697 Clouds 24 1009 94 10000 1 0 17:42 24.10.2019
5698 Clouds 24 1009 94 10000 1 0 17:21 24.10.2019
5699 Clouds 24 1010 94 10000 1 0 16:58 24.10.2019
5700 Clouds 24 1010 94 10000 1 0 16:40 24.10.2019
5701 Clouds 24 1010 94 10000 1 0 16:22 24.10.2019
5702 Rain 25 1010 91 0 6.79 126 15:58 24.10.2019
5703 Rain 25 1010 91 0 6.79 126 15:58 24.10.2019
5704 Rain 25 1010 91 0 6.79 126 15:40 24.10.2019
5705 Clouds 26 1012 89 0 8.14 132 15:22 24.10.2019
5706 Clouds 26 1012 89 0 8.14 132 15:22 24.10.2019
5707 Clouds 26 1012 89 0 8.14 132 14:58 24.10.2019
5708 Clouds 26 1012 89 0 8.14 132 14:58 24.10.2019
5709 Clouds 26 1012 89 0 8.42 136 14:40 24.10.2019
5710 Clouds 26 1010 88 10000 6.2 150 14:20 24.10.2019
5711 Clouds 26 1012 89 0 8.42 136 13:42 24.10.2019
5712 Clouds 26 1009 94 10000 6.2 140 13:20 24.10.2019
5713 Clouds 26 1009 94 10000 6.2 140 12:58 24.10.2019
5714 Clouds 26 1009 94 10000 6.2 140 12:39 24.10.2019
5715 Clouds 26 1009 94 10000 6.2 140 12:19 24.10.2019
5716 Clouds 26 1009 94 10000 6.2 140 11:57 24.10.2019
5717 Clouds 26 1009 94 10000 6.2 140 11:38 24.10.2019
5718 Clouds 27 1008 88 10000 5.7 150 11:19 24.10.2019
5719 Clouds 27 1008 88 10000 5.7 150 10:57 24.10.2019
5720 Clouds 27 1008 88 10000 5.7 150 10:38 24.10.2019
5721 Clouds 28 1007 83 10000 9.3 160 10:20 24.10.2019
5722 Clouds 28 1007 83 10000 9.3 160 09:38 24.10.2019
5723 Clouds 28 1007 83 10000 9.3 160 09:38 24.10.2019
5724 Clouds 28 1007 83 10000 9.3 160 09:18 24.10.2019
5725 Haze 29 1007 79 10000 9.3 160 08:44 24.10.2019
5726 Haze 29 1007 79 10000 9.3 160 08:22 24.10.2019
5727 Haze 31 1007 70 10000 9.3 160 08:00 24.10.2019
5728 Haze 31 1007 70 10000 9.3 160 07:41 24.10.2019
5729 Haze 31 1007 70 10000 9.3 160 07:21 24.10.2019
5730 Haze 30 1007 74 10000 7.7 210 06:39 24.10.2019
5731 Haze 30 1007 74 10000 7.7 210 06:20 24.10.2019
5732 Clouds 32 1008 66 10000 4.6 220 05:42 24.10.2019
5733 Clouds 31 1009 70 10000 5.7 140 04:49 24.10.2019
5734 Haze 30 1010 74 10000 5.1 160 03:36 24.10.2019
5735 Haze 29 1010 79 10000 5.1 190 02:51 24.10.2019
5736 Haze 29 1011 74 10000 2.1 0 02:22 24.10.2019
5737 Haze 29 1011 74 10000 2.1 0 01:33 24.10.2019
5738 Haze 27 1010 83 10000 2.6 180 00:57 24.10.2019
5739 Haze 27 1010 83 10000 2.6 180 00:37 24.10.2019
5740 Haze 27 1010 83 10000 2.6 180 00:18 24.10.2019
5741 Clouds 26 1009 88 10000 2.6 160 23:42 23.10.2019
5742 Clouds 26 1009 88 10000 2.6 160 23:21 23.10.2019
5743 Clouds 25 1009 94 10000 5.1 160 22:57 23.10.2019
5744 Clouds 25 1009 94 10000 5.1 160 22:37 23.10.2019
5745 Clouds 25 1009 94 10000 5.1 160 22:18 23.10.2019
5746 Clouds 25 1009 94 10000 5.1 160 22:18 23.10.2019
5747 Clouds 25 1009 94 10000 5.1 160 22:18 23.10.2019
5748 Clouds 25 1008 94 10000 3.6 130 21:57 23.10.2019
5749 Clouds 25 1008 94 10000 3.6 130 21:37 23.10.2019
5750 Clouds 25 1008 94 10000 3.6 130 21:19 23.10.2019
5751 Clouds 25 1008 94 10000 4.1 150 20:55 23.10.2019
5752 Clouds 25 1008 94 10000 4.1 150 20:36 23.10.2019
5753 Clouds 25 1008 94 10000 4.1 150 20:18 23.10.2019
5754 Clouds 25 1008 100 10000 6.2 150 19:44 23.10.2019
5755 Clouds 25 1008 100 10000 6.2 150 19:20 23.10.2019
5756 Clouds 25 1009 100 10000 6.2 130 18:58 23.10.2019
5757 Clouds 25 1009 100 10000 6.2 130 18:39 23.10.2019
5758 Clouds 25 1009 100 10000 6.2 130 18:19 23.10.2019
5759 Clouds 25 1009 100 10000 6.2 140 17:55 23.10.2019
5760 Clouds 25 1009 100 10000 6.2 140 17:37 23.10.2019
5761 Clouds 25 1009 100 10000 6.2 140 17:18 23.10.2019
5762 Clouds 26 1009 88 10000 7.7 130 16:41 23.10.2019
5763 Clouds 26 1009 88 10000 7.7 130 16:21 23.10.2019
5764 Clouds 26 1010 88 10000 5.1 130 15:57 23.10.2019
5765 Clouds 26 1010 88 10000 5.1 130 15:39 23.10.2019
5766 Clouds 26 1010 88 10000 5.1 130 15:20 23.10.2019
5767 Clouds 26 1010 88 10000 5.1 130 14:56 23.10.2019
5768 Clouds 26 1010 88 10000 5.1 130 14:37 23.10.2019
5769 Haze 27 1009 83 10000 5.1 130 14:18 23.10.2019
5770 Haze 27 1009 83 10000 5.1 130 14:18 23.10.2019
5771 Haze 27 1009 83 10000 5.1 130 13:43 23.10.2019
5772 Haze 27 1009 83 10000 5.1 130 13:25 23.10.2019
5773 Haze 27 1009 83 10000 5.1 130 12:57 23.10.2019
5774 Haze 27 1009 83 10000 5.1 130 12:38 23.10.2019
5775 Haze 27 1009 83 10000 5.1 130 12:19 23.10.2019
5776 Haze 27 1008 83 10000 5.1 150 11:58 23.10.2019
5777 Haze 27 1008 83 10000 5.1 150 11:39 23.10.2019
5778 Haze 27 1008 83 10000 5.1 150 11:20 23.10.2019
5779 Haze 26 1008 88 10000 7.7 170 10:46 23.10.2019
5780 Haze 26 1008 88 10000 7.7 170 10:26 23.10.2019
5781 Haze 26 1007 88 10000 5.1 170 09:58 23.10.2019
5782 Haze 26 1007 88 10000 5.1 170 09:39 23.10.2019
5783 Haze 28 1007 78 10000 5.1 160 09:21 23.10.2019
5784 Haze 28 1007 78 10000 5.1 160 08:43 23.10.2019
5785 Haze 28 1007 78 10000 5.1 160 08:25 23.10.2019
5786 Haze 30 1007 70 10000 5.1 170 07:47 23.10.2019
5787 Haze 30 1007 70 10000 5.1 170 07:26 23.10.2019
5788 Haze 30 1007 74 10000 5.1 170 06:48 23.10.2019
5789 Haze 30 1007 74 10000 5.1 170 06:23 23.10.2019
5790 Haze 30 1008 74 10000 5.1 160 05:55 23.10.2019
5791 Haze 30 1009 74 10000 8.7 130 05:18 23.10.2019
5792 Haze 30 1010 74 10000 5.1 150 03:37 23.10.2019
5793 Haze 29 1011 74 10000 3.6 170 02:42 23.10.2019
5794 Haze 29 1011 74 10000 3.6 170 02:41 23.10.2019
5795 Haze 28 1012 78 10000 2.6 100 01:34 23.10.2019
5796 Clouds 27 1012 83 10000 2.6 140 00:58 23.10.2019
5797 Clouds 27 1012 83 10000 2.6 140 00:32 23.10.2019
5798 Clouds 26 1011 88 10000 2.6 140 23:42 22.10.2019
5799 Clouds 26 1011 88 10000 2.6 140 23:19 22.10.2019
5800 Clouds 25 1010 94 10000 2.6 145 22:58 22.10.2019
5801 Clouds 25 1010 94 10000 2.6 145 22:40 22.10.2019
5802 Clouds 25 1010 94 10000 2.6 145 22:40 22.10.2019
5803 Clouds 25 1011 87 0 7.32 118 22:21 22.10.2019
5804 Clouds 25 1011 87 0 7.32 118 21:56 22.10.2019
5805 Clouds 25 1011 87 0 7.32 118 21:38 22.10.2019
5806 Clouds 25 1010 87 0 7.22 127 21:18 22.10.2019
5807 Clouds 25 1010 87 0 7.22 127 20:57 22.10.2019
5808 Clouds 25 1010 87 0 7.22 127 20:39 22.10.2019
5809 Clouds 25 1010 87 0 7.22 127 20:20 22.10.2019
5810 Clouds 25 1010 87 0 7.22 127 19:55 22.10.2019
5811 Clouds 25 1010 87 0 7.22 127 19:37 22.10.2019
5812 Clouds 25 1010 87 0 7.22 127 19:19 22.10.2019
5813 Clouds 25 1010 87 0 7.22 127 18:41 22.10.2019
5814 Clouds 25 1010 86 0 9.32 130 18:22 22.10.2019
5815 Clouds 25 1010 86 0 9.32 130 17:58 22.10.2019
5816 Clouds 25 1010 86 0 9.32 130 17:39 22.10.2019
5817 Clouds 25 1010 86 0 9.32 130 17:20 22.10.2019
5818 Clouds 25 1010 86 0 9.32 130 16:57 22.10.2019
5819 Clouds 25 1010 86 0 9.32 130 16:38 22.10.2019
5820 Clouds 26 1010 88 10000 7.7 160 16:19 22.10.2019
5821 Clouds 26 1010 88 10000 7.7 160 15:56 22.10.2019
5822 Clouds 26 1010 88 10000 7.7 160 15:38 22.10.2019
5823 Clouds 26 1010 88 10000 10.3 170 15:18 22.10.2019
5824 Clouds 26 1010 88 10000 10.3 170 14:43 22.10.2019
5825 Clouds 26 1010 88 10000 10.3 170 14:20 22.10.2019
5826 Clouds 26 1010 88 10000 10.3 170 13:42 22.10.2019
5827 Haze 27 1009 78 10000 10.3 160 13:22 22.10.2019
5828 Haze 27 1009 78 10000 10.3 160 12:58 22.10.2019
5829 Haze 27 1009 78 10000 10.3 160 12:40 22.10.2019
5830 Haze 27 1009 78 10000 10.3 160 12:21 22.10.2019
5831 Haze 27 1009 78 10000 10.3 160 11:54 22.10.2019
5832 Haze 27 1009 78 10000 10.3 160 11:36 22.10.2019
5833 Rain 26 1010 86 0 13.25 145 11:18 22.10.2019
5834 Rain 26 1010 86 0 13.25 145 10:38 22.10.2019
5835 Clouds 28 1007 78 10000 7.7 150 10:20 22.10.2019
5836 Clouds 28 1007 78 10000 7.7 150 10:00 22.10.2019
5837 Clouds 28 1007 78 10000 7.7 150 09:59 22.10.2019
5838 Clouds 28 1007 78 10000 7.7 150 09:41 22.10.2019
5839 Smoke 29 1006 74 10000 12.55 151 09:21 22.10.2019
5840 Smoke 29 1006 74 10000 12.55 151 08:57 22.10.2019
5841 Smoke 29 1006 74 10000 12.55 151 08:57 22.10.2019
5842 Smoke 29 1006 74 10000 12.55 151 08:39 22.10.2019
5843 Smoke 29 1006 74 10000 12.55 151 08:19 22.10.2019
5844 Haze 29 1006 74 10000 12.9 160 07:44 22.10.2019
5845 Haze 29 1006 74 10000 12.9 160 07:44 22.10.2019
5846 Haze 30 1006 74 10000 12.55 151 07:24 22.10.2019
5847 Haze 30 1006 74 10000 12.55 151 06:44 22.10.2019
5848 Haze 30 1006 74 10000 12.55 151 06:25 22.10.2019
5849 Haze 30 1007 70 10000 8.7 150 05:40 22.10.2019
5850 Haze 30 1009 74 10000 8.7 160 04:22 22.10.2019
5851 Clouds 28 1012 78 10000 5.7 140 02:31 22.10.2019
5852 Clouds 28 1012 78 10000 5.7 140 01:38 22.10.2019
5853 Clouds 28 1012 78 10000 5.7 140 01:18 22.10.2019
5854 Haze 28 1011 78 10000 5.1 160 00:42 22.10.2019
5855 Haze 28 1011 78 10000 5.1 160 00:24 22.10.2019
5856 Clouds 26 1011 88 10000 5.1 140 23:59 21.10.2019
5857 Clouds 26 1011 88 10000 5.1 140 23:38 21.10.2019
5858 Clouds 26 1011 88 10000 5.1 140 23:19 21.10.2019
5859 Clouds 25 1010 94 10000 2.6 140 22:58 21.10.2019
5860 Clouds 25 1010 94 10000 2.6 140 22:39 21.10.2019
5861 Clouds 25 1010 94 10000 2.6 140 22:39 21.10.2019
5862 Clouds 25 1010 94 10000 7.7 140 22:20 21.10.2019
5863 Clouds 25 1010 94 10000 7.7 140 22:20 21.10.2019
5864 Clouds 25 1010 94 10000 7.7 140 21:56 21.10.2019
5865 Clouds 25 1010 94 10000 7.7 140 21:38 21.10.2019
5866 Clouds 25 1009 94 10000 7.7 150 21:19 21.10.2019
5867 Clouds 25 1011 86 0 8.96 127 20:57 21.10.2019
5868 Clouds 25 1011 86 0 8.96 127 20:57 21.10.2019
5869 Clouds 25 1011 86 0 8.96 127 20:38 21.10.2019
5870 Clouds 26 1009 88 10000 7.7 160 20:19 21.10.2019
5871 Clouds 26 1009 88 10000 7.7 160 19:55 21.10.2019
5872 Clouds 26 1009 88 10000 7.7 160 19:36 21.10.2019
5873 Clouds 25 1011 86 0 8.96 127 19:18 21.10.2019
5874 Clouds 25 1011 86 0 8.96 127 18:54 21.10.2019
5875 Clouds 25 1011 86 0 8.96 127 18:54 21.10.2019
5876 Clouds 25 1011 86 0 8.96 127 18:54 21.10.2019
5877 Clouds 25 1011 86 0 8.96 127 18:36 21.10.2019
5878 Clouds 25 1011 87 0 9.81 136 18:18 21.10.2019
5879 Clouds 25 1011 87 0 9.81 136 17:38 21.10.2019
5880 Clouds 26 1011 88 10000 3.6 150 17:19 21.10.2019
5881 Clouds 26 1011 88 10000 3.6 150 16:58 21.10.2019
5882 Clouds 26 1011 88 10000 3.6 150 16:40 21.10.2019
5883 Clouds 26 1011 88 10000 3.6 150 16:21 21.10.2019
5884 Clouds 26 1011 88 10000 6.2 170 15:49 21.10.2019
5885 Clouds 26 1011 88 10000 4.6 150 15:27 21.10.2019
5886 Clouds 26 1011 88 10000 4.6 150 15:00 21.10.2019
5887 Clouds 26 1011 88 10000 4.6 150 15:00 21.10.2019
5888 Clouds 26 1011 88 10000 4.6 150 14:40 21.10.2019
5889 Clouds 26 1011 88 10000 5.7 160 14:21 21.10.2019
5890 Clouds 26 1011 88 10000 5.7 160 14:21 21.10.2019
5891 Clouds 26 1011 88 10000 5.7 160 13:57 21.10.2019
5892 Clouds 26 1011 88 10000 5.7 160 13:39 21.10.2019
5893 Clouds 26 1011 88 10000 5.7 160 13:20 21.10.2019
5894 Clear 26 1013 87 0 10.73 138 12:42 21.10.2019
5895 Clouds 27 1010 83 10000 2.6 150 12:23 21.10.2019
5896 Clouds 27 1010 83 10000 2.6 150 11:58 21.10.2019
5897 Clouds 27 1010 83 10000 2.6 150 11:39 21.10.2019
5898 Smoke 27 1009 83 10000 7.7 160 11:21 21.10.2019
5899 Smoke 27 1009 83 10000 7.7 160 10:57 21.10.2019
5900 Smoke 27 1009 83 10000 7.7 160 10:57 21.10.2019
5901 Smoke 27 1009 83 10000 7.7 160 10:38 21.10.2019
5902 Smoke 27 1009 83 10000 7.7 160 10:19 21.10.2019
5903 Haze 28 1008 78 10000 7.7 160 09:51 21.10.2019
5904 Haze 28 1008 78 10000 7.7 160 09:26 21.10.2019
5905 Haze 28 1007 74 10000 7.7 160 08:59 21.10.2019
5906 Haze 28 1007 74 10000 7.7 160 08:40 21.10.2019
5907 Haze 28 1007 74 10000 7.7 160 08:22 21.10.2019
5908 Haze 29 1008 74 10000 7.7 160 07:44 21.10.2019
5909 Haze 29 1008 74 10000 7.7 160 07:21 21.10.2019
5910 Haze 29 1008 74 10000 7.7 150 06:57 21.10.2019
5911 Haze 29 1008 74 10000 7.7 150 06:39 21.10.2019
5912 Haze 29 1009 74 10000 5.1 160 05:57 21.10.2019
5913 Haze 29 1009 74 10000 5.1 160 05:57 21.10.2019
5914 Haze 29 1009 74 10000 5.1 160 05:57 21.10.2019
5915 Haze 30 1010 74 10000 7.7 150 04:49 21.10.2019
5916 Haze 30 1011 70 10000 9.3 150 03:38 21.10.2019
5917 Haze 29 1012 70 10000 1.5 0 02:25 21.10.2019
5918 Haze 29 1012 70 10000 1.5 0 01:59 21.10.2019
5919 Haze 29 1012 70 10000 1.5 0 01:37 21.10.2019
5920 Haze 27 1012 78 10000 1.5 0 00:51 21.10.2019
5921 Haze 27 1012 78 10000 1.5 0 00:27 21.10.2019
5922 Haze 24 1012 94 10000 1.5 0 23:43 20.10.2019
5923 Haze 24 1012 94 10000 1.5 0 23:22 20.10.2019
5924 Smoke 23 1011 94 10000 1.5 0 22:57 20.10.2019
5925 Smoke 23 1011 94 10000 1.5 0 22:39 20.10.2019
5926 Clouds 23 1010 94 10000 1.5 0 22:19 20.10.2019
5927 Clouds 23 1010 94 10000 1.5 0 21:59 20.10.2019
5928 Clouds 23 1010 94 10000 1.5 0 21:39 20.10.2019
5929 Clouds 23 1010 94 10000 1.5 0 21:21 20.10.2019
5930 Clouds 24 1011 85 0 6.58 124.091 20:42 20.10.2019
5931 Clouds 24 1011 85 0 6.58 124.091 20:20 20.10.2019
5932 Clouds 24 1011 85 0 6.58 124.091 19:57 20.10.2019
5933 Clouds 24 1011 85 0 6.58 124.091 19:57 20.10.2019
5934 Clouds 24 1011 85 0 6.58 124.091 19:39 20.10.2019
5935 Clouds 24 1011 85 0 6.58 124.091 19:20 20.10.2019
5936 Clouds 24 1011 85 0 6.58 124.091 18:56 20.10.2019
5937 Clouds 24 1011 85 0 6.58 124.091 18:56 20.10.2019
5938 Clouds 24 1011 85 0 6.58 124.091 18:38 20.10.2019
5939 Clouds 25 1012 83 0 8.37 130.597 18:20 20.10.2019
5940 Clouds 25 1012 83 0 8.37 130.597 17:54 20.10.2019
5941 Clouds 25 1012 83 0 8.37 130.597 17:36 20.10.2019
5942 Clouds 25 1012 83 0 8.37 130.597 17:18 20.10.2019
5943 Clouds 25 1012 83 0 8.37 130.597 16:41 20.10.2019
5944 Clouds 25 1012 83 0 8.37 130.597 16:23 20.10.2019
5945 Clouds 25 1012 83 0 8.37 130.597 15:57 20.10.2019
5946 Clouds 25 1012 83 0 8.37 130.597 15:38 20.10.2019
5947 Clouds 25 1014 83 0 9.78 133.446 15:19 20.10.2019
5948 Clouds 25 1014 83 0 9.78 133.446 14:57 20.10.2019
5949 Clouds 25 1014 83 0 9.78 133.446 14:37 20.10.2019
5950 Clouds 25 1014 83 0 9.78 133.446 14:19 20.10.2019
5951 Clouds 25 1014 83 0 9.78 133.446 13:55 20.10.2019
5952 Clouds 25 1014 83 0 9.78 133.446 13:36 20.10.2019
5953 Clouds 25 1014 84 0 9.82 134.583 13:18 20.10.2019
5954 Clouds 25 1014 84 0 9.82 134.583 12:55 20.10.2019
5955 Clouds 25 1014 84 0 9.82 134.583 12:37 20.10.2019
5956 Clouds 25 1014 84 0 9.82 134.583 12:37 20.10.2019
5957 Clear 25 1012 83 0 9.96 149.92 12:19 20.10.2019
5958 Clear 25 1012 83 0 9.96 149.92 11:41 20.10.2019
5959 Haze 26 1010 83 10000 10.3 160 11:23 20.10.2019
5960 Haze 26 1010 83 10000 10.3 160 10:59 20.10.2019
5961 Haze 26 1010 83 10000 10.3 160 10:39 20.10.2019
5962 Haze 26 1010 83 10000 10.3 160 10:21 20.10.2019
5963 Haze 27 1009 74 10000 10.3 150 09:56 20.10.2019
5964 Haze 27 1009 74 10000 10.3 150 09:38 20.10.2019
5965 Haze 28 1009 69 10000 5.1 160 09:20 20.10.2019
5966 Haze 28 1009 69 10000 5.1 160 08:44 20.10.2019
5967 Haze 28 1009 69 10000 5.1 160 08:22 20.10.2019
5968 Haze 28 1009 69 10000 5.1 160 07:49 20.10.2019
5969 Haze 28 1009 69 10000 5.1 160 07:28 20.10.2019
5970 Haze 29 1010 74 10000 5.1 140 06:31 20.10.2019
5971 Haze 30 1011 66 10000 2.6 203 04:34 20.10.2019
5972 Haze 30 1012 66 10000 8.2 200 03:52 20.10.2019
5973 Haze 31 1012 62 10000 4.1 190 03:22 20.10.2019
5974 Haze 31 1012 62 10000 4.1 190 02:49 20.10.2019
5975 Haze 29 1013 70 10000 2.6 280 02:22 20.10.2019
5976 Haze 29 1013 70 10000 2.6 280 01:50 20.10.2019
5977 Haze 29 1013 70 10000 2.6 280 01:22 20.10.2019
5978 Haze 27 1013 78 10000 4.1 60 00:49 20.10.2019
5979 Haze 27 1013 78 10000 4.1 60 00:21 20.10.2019
5980 Haze 27 1013 78 10000 4.1 60 00:21 20.10.2019
5981 Haze 24 1012 94 10000 3.1 150 23:54 19.10.2019
5982 Haze 24 1012 94 10000 3.1 150 23:36 19.10.2019
5983 Haze 24 1012 94 10000 3.1 150 23:18 19.10.2019
5984 Haze 23 1012 94 10000 3.1 140 22:40 19.10.2019
5985 Haze 23 1012 94 10000 3.1 140 22:22 19.10.2019
5986 Clouds 22 1011 94 10000 2.6 150 21:57 19.10.2019
5987 Clouds 22 1011 94 10000 2.6 150 21:39 19.10.2019
5988 Clouds 22 1011 94 10000 2.6 150 21:20 19.10.2019
5989 Clouds 23 1011 94 10000 2.6 120 20:42 19.10.2019
5990 Clouds 23 1011 94 10000 2.6 120 20:42 19.10.2019
5991 Clouds 23 1011 94 10000 2.6 140 20:21 19.10.2019
5992 Clouds 23 1011 94 10000 2.6 140 19:42 19.10.2019
5993 Clouds 23 1011 94 10000 2.6 140 19:24 19.10.2019
5994 Clouds 25 1011 83 10000 5.1 140 18:56 19.10.2019
5995 Clouds 25 1011 83 10000 5.1 140 18:37 19.10.2019
5996 Clouds 25 1011 83 10000 5.1 140 18:37 19.10.2019
5997 Clouds 25 1011 83 10000 5.1 140 18:37 19.10.2019
5998 Clouds 25 1011 83 10000 5.1 140 18:19 19.10.2019
5999 Clouds 25 1012 83 10000 5.1 140 17:41 19.10.2019
6000 Clouds 24 1013 87 0 8.06 130.837 17:21 19.10.2019
6001 Clouds 24 1013 87 0 8.06 130.837 16:57 19.10.2019
6002 Clouds 24 1013 87 0 8.06 130.837 16:37 19.10.2019
6003 Clouds 25 1013 88 10000 10.3 160 16:18 19.10.2019
6004 Clouds 25 1013 88 10000 10.3 160 15:41 19.10.2019
6005 Clear 25 1015 86 0 9.55 129.611 15:23 19.10.2019
6006 Clear 25 1015 86 0 9.55 129.611 14:39 19.10.2019
6007 Clouds 26 1013 83 10000 7.7 140 14:20 19.10.2019
6008 Clouds 26 1013 83 10000 7.7 140 13:58 19.10.2019
6009 Clouds 26 1013 83 10000 7.7 140 13:39 19.10.2019
6010 Clouds 26 1013 83 10000 7.7 160 13:19 19.10.2019
6011 Clouds 26 1013 83 10000 7.7 160 12:56 19.10.2019
6012 Clouds 26 1013 83 10000 7.7 160 12:37 19.10.2019
6013 Clouds 25 1013 85 0 10.58 144.171 12:18 19.10.2019
6014 Clouds 25 1013 85 0 10.58 144.171 11:41 19.10.2019
6015 Clouds 25 1013 85 0 10.58 144.171 11:23 19.10.2019
6016 Clouds 25 1013 85 0 10.58 144.171 10:56 19.10.2019
6017 Clouds 25 1013 85 0 10.58 144.171 10:38 19.10.2019
6018 Smoke 27 1010 83 10000 5.1 150 10:19 19.10.2019
6019 Smoke 27 1010 83 10000 5.1 150 09:42 19.10.2019
6020 Smoke 27 1010 83 10000 5.1 150 09:24 19.10.2019
6021 Smoke 29 1010 70 10000 5.1 170 08:59 19.10.2019
6022 Smoke 29 1010 70 10000 5.1 170 08:39 19.10.2019
6023 Smoke 29 1010 70 10000 5.1 170 08:21 19.10.2019
6024 Smoke 30 1010 66 10000 2.6 150 07:44 19.10.2019
6025 Smoke 30 1010 66 10000 2.6 150 07:24 19.10.2019
6026 Smoke 30 1010 66 10000 2.6 150 07:24 19.10.2019
6027 Smoke 30 1010 66 10000 2.6 150 07:24 19.10.2019
6028 Smoke 31 1010 66 10000 2.6 150 06:46 19.10.2019
6029 Smoke 31 1011 66 10000 2.6 150 05:57 19.10.2019
6030 Clouds 30 1012 70 10000 6.58 150.841 05:28 19.10.2019
6031 Haze 30 1012 70 10000 5.1 200 03:59 19.10.2019
6032 Clouds 31 1013 62 10000 3.6 200 02:40 19.10.2019
6033 Clouds 28 1013 74 10000 1.5 0 01:51 19.10.2019
6034 Clouds 28 1013 74 10000 1.5 0 01:19 19.10.2019
6035 Clouds 27 1013 78 10000 1.5 0 00:45 19.10.2019
6036 Clouds 27 1013 78 10000 1.5 0 00:23 19.10.2019
6037 Clouds 25 1013 88 10000 2.6 0 23:41 18.10.2019
6038 Clouds 25 1013 88 10000 2.6 0 23:23 18.10.2019
6039 Clouds 24 1012 88 10000 1.5 0 22:55 18.10.2019
6040 Clouds 24 1012 88 10000 1.5 0 22:37 18.10.2019
6041 Clouds 24 1012 88 10000 1.5 0 22:19 18.10.2019
6042 Clouds 24 1011 88 10000 1 0 21:56 18.10.2019
6043 Clouds 24 1011 88 10000 1 0 21:56 18.10.2019
6044 Clouds 24 1011 88 10000 1 0 21:38 18.10.2019
6045 Clouds 24 1011 88 10000 1 0 21:19 18.10.2019
6046 Clouds 23 1011 94 10000 1 0 20:43 18.10.2019
6047 Clouds 23 1011 94 10000 1 0 20:24 18.10.2019
6048 Clouds 23 1011 94 10000 2.1 0 19:59 18.10.2019
6049 Clouds 23 1011 94 10000 2.1 0 19:41 18.10.2019
6050 Clouds 23 1011 94 10000 1.5 0 19:22 18.10.2019
6051 Clouds 23 1011 94 10000 1.5 0 19:22 18.10.2019
6052 Clouds 23 1011 94 10000 1.5 0 18:59 18.10.2019
6053 Clouds 23 1011 94 10000 1.5 0 18:41 18.10.2019
6054 Clouds 23 1011 94 10000 1.5 0 18:23 18.10.2019
6055 Clouds 24 1011 88 10000 5.1 150 17:57 18.10.2019
6056 Clouds 24 1011 88 10000 5.1 150 17:37 18.10.2019
6057 Clouds 24 1011 88 10000 5.1 150 17:19 18.10.2019
6058 -273 0 0 0 0 0 16:43 18.10.2019
6059 Clouds 24 1012 94 10000 5.1 160 16:43 18.10.2019
6060 Clouds 24 1012 94 10000 5.1 160 16:21 18.10.2019
6061 Clouds 24 1012 88 10000 4.1 160 15:58 18.10.2019
6062 Clouds 24 1012 88 10000 4.1 160 15:39 18.10.2019
6063 Clouds 25 1014 82 0 9.43 129.939 15:20 18.10.2019
6064 Clouds 25 1014 82 0 9.43 129.939 14:57 18.10.2019
6065 Clouds 25 1014 82 0 9.43 129.939 14:38 18.10.2019
6066 Clouds 25 1012 83 10000 7.7 150 14:19 18.10.2019
6067 Clouds 25 1012 83 10000 7.7 150 13:57 18.10.2019
6068 Clouds 25 1012 83 10000 7.7 150 13:38 18.10.2019
6069 Clouds 26 1011 78 10000 6.2 150 13:19 18.10.2019
6070 Clouds 26 1011 78 10000 6.2 150 12:55 18.10.2019
6071 Clouds 26 1011 78 10000 6.2 150 12:37 18.10.2019
6072 Clouds 25 1012 80 0 12.58 143.136 12:18 18.10.2019
6073 Clouds 25 1012 80 0 12.58 143.136 11:41 18.10.2019
6074 Clouds 24 1011 88 10000 6.2 160 11:21 18.10.2019
6075 Clouds 25 1012 80 0 12.58 143.136 10:58 18.10.2019
6076 Clouds 25 1012 80 0 12.58 143.136 10:40 18.10.2019
6077 Smoke 28 1010 74 10000 2.6 190 10:20 18.10.2019
6078 Smoke 28 1010 74 10000 2.6 190 09:57 18.10.2019
6079 Smoke 28 1010 74 10000 2.6 190 09:39 18.10.2019
6080 Smoke 28 1010 74 10000 2.6 190 09:19 18.10.2019
6081 Smoke 30 1009 70 10000 2.6 190 08:44 18.10.2019
6082 Smoke 30 1009 70 10000 2.6 190 08:25 18.10.2019
6083 Smoke 30 1009 66 10000 2.6 150 07:53 18.10.2019
6084 Smoke 30 1009 66 10000 2.6 150 07:35 18.10.2019
6085 Haze 30 1009 70 10000 2.6 150 06:55 18.10.2019
6086 Haze 30 1009 70 10000 2.6 150 06:55 18.10.2019
6087 Clouds 25 1010 80 0 9.96 148.06 06:35 18.10.2019
6088 Haze 30 1010 66 10000 2.6 150 05:59 18.10.2019
6089 Haze 30 1010 66 10000 2.6 150 05:41 18.10.2019
6090 Clouds 30 1012 70 10000 5.1 180 05:18 18.10.2019
6091 Clouds 25 1012 83 0 7.6 146.178 03:35 18.10.2019
6092 Haze 28 1013 69 10000 2.6 150 02:51 18.10.2019
6093 Haze 28 1013 69 10000 2.6 150 02:32 18.10.2019
6094 Smoke 27 1013 74 10000 2.6 130 01:39 18.10.2019
6095 Clouds 25 1013 88 10000 5.1 150 01:18 18.10.2019
6096 Clouds 25 1013 88 10000 5.1 150 00:40 18.10.2019
6097 Clouds 24 1013 94 10000 1.5 0 00:19 18.10.2019
6098 Clouds 24 1013 94 10000 1.5 0 23:38 17.10.2019
6099 Fog 21 1012 100 10000 1.5 0 23:19 17.10.2019
6100 Fog 21 1012 100 10000 1.5 0 22:56 17.10.2019
6101 Fog 21 1012 100 10000 1.5 0 22:38 17.10.2019
6102 Fog 21 1012 100 10000 1.5 0 22:19 17.10.2019
6103 Fog 21 1012 100 10000 1 0 21:56 17.10.2019
6104 Fog 21 1012 100 10000 1 0 21:38 17.10.2019
6105 Fog 21 1011 100 10000 1 0 21:20 17.10.2019
6106 Fog 21 1011 100 10000 1 0 20:57 17.10.2019
6107 Fog 21 1011 100 10000 1 0 20:39 17.10.2019
6108 Fog 21 1011 100 10000 1 0 20:19 17.10.2019
6109 Fog 21 1011 100 10000 1 0 19:56 17.10.2019
6110 Fog 21 1011 100 10000 1 0 19:38 17.10.2019
6111 Fog 21 1011 100 10000 1 0 19:18 17.10.2019
6112 Clouds 23 1011 94 10000 1 0 18:43 17.10.2019
6113 Clouds 23 1011 94 10000 1 0 18:21 17.10.2019
6114 Clouds 23 1012 94 10000 1.5 0 17:58 17.10.2019
6115 Clouds 23 1012 94 10000 1.5 0 17:40 17.10.2019
6116 Clouds 23 1012 94 10000 1.5 0 17:22 17.10.2019
6117 Clouds 22 1012 100 10000 1.5 0 16:55 17.10.2019
6118 Clouds 22 1012 100 10000 1.5 0 16:36 17.10.2019
6119 Clouds 22 1012 100 10000 1.5 0 16:18 17.10.2019
6120 Clouds 24 1013 87 0 6.635 119 15:41 17.10.2019
6121 Clouds 24 1013 94 10000 2.6 150 15:21 17.10.2019
6122 Clouds 24 1013 94 10000 2.6 150 14:58 17.10.2019
6123 Clouds 24 1013 94 10000 2.6 150 14:39 17.10.2019
6124 Clouds 25 1014 85 0 9.816 132 14:21 17.10.2019
6125 Clouds 25 1014 85 0 9.816 132 13:42 17.10.2019
6126 Clouds 25 1012 94 10000 2.6 140 13:21 17.10.2019
6127 Clouds 25 1012 94 10000 2.6 140 12:58 17.10.2019
6128 Clouds 25 1012 94 10000 2.6 140 12:40 17.10.2019
6129 Haze 26 1011 83 10000 5.1 160 12:20 17.10.2019
6130 Haze 26 1011 83 10000 5.1 160 12:20 17.10.2019
6131 Haze 26 1011 83 10000 5.1 160 11:57 17.10.2019
6132 Haze 26 1011 83 10000 5.1 160 11:38 17.10.2019
6133 Haze 26 1011 83 10000 5.1 160 11:18 17.10.2019
6134 Smoke 27 1010 78 10000 7.7 150 10:42 17.10.2019
6135 Smoke 27 1010 78 10000 7.7 150 10:20 17.10.2019
6136 Smoke 29 1010 66 10000 5.1 200 09:58 17.10.2019
6137 Smoke 29 1010 66 10000 5.1 200 09:39 17.10.2019
6138 Smoke 29 1010 66 10000 5.1 200 09:20 17.10.2019
6139 Smoke 30 1009 66 10000 5.1 200 08:58 17.10.2019
6140 Smoke 30 1009 66 10000 5.1 200 08:38 17.10.2019
6141 Smoke 30 1009 66 10000 5.1 200 08:18 17.10.2019
6142 Smoke 30 1010 66 10000 5.1 200 07:48 17.10.2019
6143 Smoke 30 1010 66 10000 5.1 200 07:21 17.10.2019
6144 Smoke 30 1010 66 10000 5.1 200 07:21 17.10.2019
6145 Clouds 25 1010 81 0 6.513 147 06:58 17.10.2019
6146 -273 0 0 0 0 0 06:39 17.10.2019
6147 Smoke 30 1010 66 10000 5.1 200 06:19 17.10.2019
6148 Smoke 30 1010 66 10000 5.1 200 05:41 17.10.2019
6149 Smoke 30 1012 66 10000 5.1 200 05:21 17.10.2019
6150 Smoke 30 1012 66 10000 5.1 200 04:50 17.10.2019
6151 Smoke 30 1012 66 10000 5.1 200 03:50 17.10.2019
6152 Smoke 29 1013 70 10000 5.1 180 02:35 17.10.2019
6153 Smoke 26 1012 88 10000 1.5 0 00:44 17.10.2019
6154 Smoke 26 1012 88 10000 1.5 0 00:22 17.10.2019
6155 Smoke 23 1012 100 10000 2.6 150 23:59 16.10.2019
6156 Smoke 23 1012 100 10000 2.6 150 23:41 16.10.2019
6157 Smoke 23 1012 100 10000 2.6 150 23:19 16.10.2019
6158 Smoke 23 1012 100 10000 2.6 150 23:19 16.10.2019
6159 Smoke 21 1012 100 10000 2.6 140 22:55 16.10.2019
6160 Smoke 21 1012 100 10000 2.6 140 22:36 16.10.2019
6161 Smoke 21 1012 100 10000 2.6 140 22:36 16.10.2019
6162 Clear 24 1013 85 0 1.534 63 22:18 16.10.2019
6163 Clear 24 1013 85 0 1.534 63 21:55 16.10.2019
6164 Clouds 24 1013 85 0 1.609 80 21:37 16.10.2019
6165 Clear 24 1012 87 0 4.314 108 21:18 16.10.2019
6166 Clear 24 1012 87 0 4.314 108 20:56 16.10.2019
6167 Clear 24 1012 87 0 4.314 108 20:37 16.10.2019
6168 Clear 24 1012 87 0 4.314 108 20:19 16.10.2019
6169 Clear 24 1012 87 0 4.314 108 19:41 16.10.2019
6170 Clear 24 1012 87 0 4.314 108 19:40 16.10.2019
6171 Clear 24 1012 87 0 4.314 108 19:21 16.10.2019
6172 Clear 24 1012 87 0 4.314 108 18:58 16.10.2019
6173 Clear 24 1012 87 0 4.314 108 18:38 16.10.2019
6174 Clear 24 1012 88 0 7.579 124 18:18 16.10.2019
6175 Clear 24 1012 88 0 7.579 124 17:56 16.10.2019
6176 Clear 24 1012 88 0 7.579 124 17:37 16.10.2019
6177 Clouds 24 1012 88 10000 1.5 140 17:19 16.10.2019
6178 Clouds 24 1012 88 10000 1.5 140 16:56 16.10.2019
6179 Clouds 24 1012 88 10000 1.5 140 16:38 16.10.2019
6180 Clouds 24 1012 88 10000 1.5 140 16:19 16.10.2019
6181 -273 0 0 0 0 0 15:41 16.10.2019
6182 Clouds 24 1012 88 10000 5.1 160 15:19 16.10.2019
6183 Clouds 24 1012 88 10000 5.1 160 14:59 16.10.2019
6184 Clouds 24 1012 88 10000 5.1 160 14:40 16.10.2019
6185 Clouds 24 1012 88 10000 5.1 160 14:21 16.10.2019
6186 Clouds 25 1011 88 10000 5.1 130 13:58 16.10.2019
6187 Clouds 25 1011 88 10000 5.1 130 13:58 16.10.2019
6188 Clouds 25 1011 88 10000 5.1 130 13:40 16.10.2019
6189 Clouds 25 1011 88 10000 5.1 130 13:22 16.10.2019
6190 Clouds 25 1011 88 10000 5.1 130 12:44 16.10.2019
6191 Clear 25 1012 82 0 9.949 148 12:20 16.10.2019
6192 Clear 25 1012 82 0 9.949 148 11:55 16.10.2019
6193 Clear 25 1012 82 0 9.949 148 11:37 16.10.2019
6194 Clear 25 1012 82 0 9.949 148 11:18 16.10.2019
6195 Clear 25 1012 82 0 9.949 148 11:18 16.10.2019
6196 Clear 25 1012 82 0 9.949 148 10:37 16.10.2019
6197 Clouds 27 1008 74 10000 7.7 160 10:18 16.10.2019
6198 Clouds 27 1008 74 10000 7.7 160 09:41 16.10.2019
6199 Clouds 27 1008 74 10000 7.7 160 09:40 16.10.2019
6200 Clouds 27 1008 74 10000 7.7 160 09:40 16.10.2019
6201 Clouds 27 1008 74 10000 7.7 160 09:22 16.10.2019
6202 Clouds 27 1008 74 10000 7.7 150 08:57 16.10.2019
6203 Clouds 27 1008 74 10000 7.7 150 08:38 16.10.2019
6204 Clouds 28 1008 69 10000 7.7 160 08:20 16.10.2019
6205 Clouds 28 1008 69 10000 7.7 160 07:42 16.10.2019
6206 Clear 25 1010 80 0 8.596 148 07:23 16.10.2019
6207 Clear 25 1010 80 0 8.596 148 06:48 16.10.2019
6208 Haze 30 1010 70 10000 7.7 140 06:29 16.10.2019
6209 Clouds 30 1010 70 10000 6.2 160 04:48 16.10.2019
6210 Smoke 29 1012 74 10000 4.1 150 02:51 16.10.2019
6211 Clear 25 1013 86 0 4.225 161 01:21 16.10.2019
6212 Clear 25 1013 86 0 4.225 161 00:59 16.10.2019
6213 Clear 25 1013 86 0 4.225 161 00:40 16.10.2019
6214 Clouds 22 1012 100 10000 1.5 0 23:59 15.10.2019
6215 Clouds 22 1012 100 10000 1.5 0 23:38 15.10.2019
6216 Clouds 22 1012 100 10000 1.5 0 23:20 15.10.2019
6217 Clouds 22 1011 100 10000 1.5 0 22:55 15.10.2019
6218 Clouds 22 1011 100 10000 1.5 0 22:55 15.10.2019
6219 Clouds 22 1011 100 10000 1.5 0 22:37 15.10.2019
6220 Clouds 22 1011 100 10000 1.5 0 22:18 15.10.2019
6221 Clouds 22 1011 100 10000 1.5 0 21:54 15.10.2019
6222 Clouds 22 1011 100 10000 1.5 0 21:36 15.10.2019
6223 Clouds 23 1011 94 10000 1.5 0 21:18 15.10.2019
6224 Clouds 23 1011 94 10000 1.5 0 20:54 15.10.2019
6225 Clouds 23 1011 94 10000 1.5 0 20:54 15.10.2019
6226 Clouds 23 1011 94 10000 1.5 0 20:54 15.10.2019
6227 Clouds 23 1011 94 10000 1.5 0 20:54 15.10.2019
6228 Clouds 23 1011 94 10000 1.5 0 20:36 15.10.2019
6229 Clouds 23 1011 94 10000 1.5 0 20:18 15.10.2019
6230 Clouds 23 1011 100 10000 1.5 0 19:41 15.10.2019
6231 Clouds 23 1011 94 10000 2.6 140 19:20 15.10.2019
6232 Clouds 23 1011 94 10000 2.6 140 19:20 15.10.2019
6233 Clouds 24 1012 88 0 5.897 121 18:57 15.10.2019
6234 Clouds 24 1012 88 0 5.897 121 18:57 15.10.2019
6235 Clouds 24 1012 88 0 5.897 121 18:39 15.10.2019
6236 Clouds 24 1012 88 0 7.902 131 18:20 15.10.2019
6237 Clouds 24 1012 88 0 7.902 131 17:42 15.10.2019
6238 Clouds 24 1012 88 0 7.902 131 17:42 15.10.2019
6239 Clouds 24 1012 94 10000 5.1 170 17:21 15.10.2019
6240 Clouds 24 1012 94 10000 5.1 170 16:59 15.10.2019
6241 Clouds 24 1012 94 10000 5.1 170 16:41 15.10.2019
6242 Clouds 24 1012 88 0 7.902 131 16:21 15.10.2019
6243 Clouds 24 1012 88 0 7.902 131 15:55 15.10.2019
6244 Clouds 24 1012 88 0 7.902 131 15:55 15.10.2019
6245 Clouds 24 1012 88 0 7.902 131 15:37 15.10.2019
6246 Clouds 25 1012 88 10000 2.6 150 15:19 15.10.2019
6247 Clouds 25 1012 88 10000 2.6 150 14:38 15.10.2019
6248 Clouds 25 1013 85 0 8.452 131 14:20 15.10.2019
6249 Clouds 25 1013 85 0 8.452 131 13:59 15.10.2019
6250 Clouds 25 1013 85 0 8.452 131 13:40 15.10.2019
6251 Clouds 25 1013 85 0 8.452 131 13:20 15.10.2019
6252 Clouds 25 1013 85 0 8.452 131 12:44 15.10.2019
6253 Clouds 26 1010 88 10000 5.1 140 12:22 15.10.2019
6254 Clouds 26 1010 88 10000 5.1 140 11:58 15.10.2019
6255 Clouds 26 1010 88 10000 5.1 140 11:40 15.10.2019
6256 Clouds 26 1010 88 10000 5.1 140 11:19 15.10.2019
6257 Clouds 27 1009 83 10000 10.3 140 10:45 15.10.2019
6258 Clouds 27 1009 83 10000 10.3 140 10:22 15.10.2019
6259 Smoke 27 1009 83 10000 10.3 140 09:59 15.10.2019
6260 Smoke 27 1009 83 10000 10.3 140 09:39 15.10.2019
6261 Smoke 28 1009 78 10000 10.3 140 09:20 15.10.2019
6262 -273 0 0 0 0 0 08:57 15.10.2019
6263 Smoke 28 1009 78 10000 10.3 140 08:37 15.10.2019
6264 Smoke 28 1009 78 10000 10.3 140 08:18 15.10.2019
6265 Clouds 29 1009 74 10000 10.3 160 07:42 15.10.2019
6266 Clouds 29 1009 74 10000 10.3 160 07:21 15.10.2019
6267 Clouds 31 1009 66 10000 5.1 150 06:54 15.10.2019
6268 Clouds 31 1009 66 10000 5.1 150 06:36 15.10.2019
6269 Clouds 31 1010 66 10000 2.6 150 05:54 15.10.2019
6270 Clouds 31 1010 66 10000 2.6 150 05:35 15.10.2019
6271 Smoke 31 1011 62 10000 2.6 160 04:39 15.10.2019
6272 Clouds 25 1011 83 0 9.95 152.842 03:57 15.10.2019
6273 Smoke 29 1012 70 10000 6.2 150 03:27 15.10.2019
6274 Clouds 28 1013 74 10000 4.1 160 01:51 15.10.2019
6275 Smoke 26 1013 83 10000 3.6 150 01:23 15.10.2019
6276 Smoke 26 1013 83 10000 3.6 150 00:52 15.10.2019
6277 Smoke 26 1013 83 10000 3.6 150 00:22 15.10.2019
6278 Smoke 24 1012 94 10000 2.6 140 23:46 14.10.2019
6279 Smoke 24 1012 94 10000 2.6 140 23:21 14.10.2019
6280 Smoke 23 1011 94 10000 2.1 0 22:59 14.10.2019
6281 Smoke 23 1011 94 10000 2.1 0 22:38 14.10.2019
6282 Smoke 23 1011 94 10000 2.1 0 22:19 14.10.2019
6283 Smoke 23 1011 94 10000 2.1 0 22:19 14.10.2019
6284 Clouds 23 1011 94 10000 1.5 0 21:56 14.10.2019
6285 Clouds 23 1011 94 10000 1.5 0 21:56 14.10.2019
6286 Clouds 23 1011 94 10000 1.5 0 21:37 14.10.2019
6287 Clouds 23 1011 94 10000 1.5 0 21:19 14.10.2019
6288 Clouds 23 1011 94 10000 1.5 0 20:55 14.10.2019
6289 -273 0 0 0 0 0 20:55 14.10.2019
6290 Clouds 23 1011 94 10000 1.5 0 20:36 14.10.2019
6291 Clouds 23 1011 94 10000 1.5 0 20:18 14.10.2019
6292 Clouds 23 1011 94 10000 1.5 0 20:18 14.10.2019
6293 Clouds 23 1011 94 10000 1.5 0 19:42 14.10.2019
6294 Clouds 24 1011 88 10000 4.1 140 19:23 14.10.2019
6295 Clouds 24 1011 88 10000 4.1 140 18:59 14.10.2019
6296 Clouds 24 1011 88 10000 4.1 140 18:39 14.10.2019
6297 Clouds 24 1011 88 10000 4.1 140 18:39 14.10.2019
6298 Clouds 25 1011 88 10000 4.1 150 18:19 14.10.2019
6299 Clouds 25 1011 88 10000 4.1 150 18:19 14.10.2019
6300 Clouds 25 1011 88 10000 4.1 150 17:57 14.10.2019
6301 Clouds 25 1011 88 10000 4.1 150 17:57 14.10.2019
6302 Clouds 25 1011 88 10000 4.1 150 17:38 14.10.2019
6303 Clouds 25 1011 88 10000 4.1 150 17:38 14.10.2019
6304 Clouds 25 1012 88 10000 5.1 150 17:19 14.10.2019
6305 Clouds 25 1012 88 10000 5.1 150 16:44 14.10.2019
6306 Clouds 25 1012 88 10000 5.1 150 16:21 14.10.2019
6307 Clouds 26 1012 83 10000 5.1 150 15:43 14.10.2019
6308 -273 0 0 0 0 0 15:24 14.10.2019
6309 Clouds 26 1012 83 10000 5.1 150 14:57 14.10.2019
6310 Clouds 26 1012 83 10000 5.1 150 14:57 14.10.2019
6311 Clouds 26 1012 83 10000 5.1 150 14:39 14.10.2019
6312 Clouds 26 1012 83 10000 5.1 150 14:19 14.10.2019
6313 Clouds 26 1012 83 10000 5.1 150 13:44 14.10.2019
6314 Clouds 26 1012 83 10000 5.1 150 13:21 14.10.2019
6315 Clouds 26 1012 83 10000 5.1 150 12:55 14.10.2019
6316 Clouds 26 1012 83 10000 5.1 150 12:37 14.10.2019
6317 Clouds 26 1012 83 10000 5.1 150 12:18 14.10.2019
6318 Clouds 26 1012 83 10000 5.1 150 12:18 14.10.2019
6319 Clouds 26 1012 83 10000 5.1 150 12:18 14.10.2019
6320 Rain 25 1012 83 0 12.24 142.245 11:44 14.10.2019
6321 Rain 25 1012 83 0 12.24 142.245 11:26 14.10.2019
6322 Rain 25 1012 83 0 12.24 142.245 10:57 14.10.2019
6323 Rain 25 1012 83 0 12.24 142.245 10:37 14.10.2019
6324 Clouds 27 1010 78 10000 5.1 150 10:18 14.10.2019
6325 Clouds 27 1010 78 10000 5.1 150 10:18 14.10.2019
6326 Clouds 27 1010 78 10000 5.1 150 09:41 14.10.2019
6327 -273 0 0 0 0 0 09:41 14.10.2019
6328 Clouds 27 1010 78 10000 5.1 150 09:41 14.10.2019
6329 Clouds 28 1009 78 10000 5.1 140 09:21 14.10.2019
6330 Clouds 28 1009 78 10000 5.1 140 08:50 14.10.2019
6331 Clouds 28 1009 78 10000 5.1 140 08:50 14.10.2019
6332 Clouds 29 1010 74 10000 5.1 150 08:23 14.10.2019
6333 Clouds 29 1010 74 10000 5.1 150 07:47 14.10.2019
6334 Clouds 29 1010 74 10000 5.1 150 07:25 14.10.2019
6335 Clear 25 1010 82 0 11.68 146.296 06:58 14.10.2019
6336 Clear 25 1010 82 0 11.68 146.296 06:28 14.10.2019
6337 Clear 25 1011 82 0 11.02 149.795 05:57 14.10.2019
6338 Haze 31 1012 66 10000 2.6 170 05:26 14.10.2019
6339 Haze 29 1013 74 10000 4.1 160 03:50 14.10.2019
6340 Haze 29 1013 74 10000 4.1 160 03:25 14.10.2019
6341 Clouds 25 1014 83 0 7.98 140.199 02:31 14.10.2019
6342 Haze 27 1013 78 10000 2.6 150 01:21 14.10.2019
6343 Haze 27 1013 78 10000 2.6 150 00:42 14.10.2019
6344 Clouds 26 1012 83 10000 1.5 0 00:18 14.10.2019
6345 Clouds 26 1012 83 10000 1.5 0 23:40 13.10.2019
6346 Clouds 26 1012 83 10000 1.5 0 23:19 13.10.2019
6347 Clouds 25 1011 88 10000 1.5 0 22:57 13.10.2019
6348 Clouds 25 1011 88 10000 1.5 0 22:38 13.10.2019
6349 Clouds 25 1011 88 10000 1.5 0 22:19 13.10.2019
6350 Clouds 24 1011 94 10000 1.5 0 21:56 13.10.2019
6351 Clouds 24 1011 94 10000 1.5 0 21:36 13.10.2019
6352 Clouds 24 1011 94 10000 1.5 0 21:36 13.10.2019
6353 Clouds 25 1010 88 10000 1.5 0 21:18 13.10.2019
6354 Clouds 25 1010 88 10000 1.5 0 21:18 13.10.2019
6355 Clouds 25 1010 88 10000 1.5 0 20:55 13.10.2019
6356 Clouds 25 1010 88 10000 1.5 0 20:37 13.10.2019
6357 Clouds 24 1012 86 0 7.75 124.235 20:18 13.10.2019
6358 Clouds 24 1012 86 0 7.75 124.235 19:54 13.10.2019
6359 Clouds 24 1012 86 0 7.75 124.235 19:36 13.10.2019
6360 Clouds 24 1012 86 0 7.75 124.235 19:36 13.10.2019
6361 Clouds 24 1012 86 0 7.75 124.235 19:36 13.10.2019
6362 Clouds 24 1012 86 0 7.75 124.235 19:36 13.10.2019
6363 Clouds 24 1012 86 0 7.75 124.235 19:18 13.10.2019
6364 Clouds 24 1012 86 0 7.75 124.235 18:40 13.10.2019
6365 Clouds 25 1012 84 0 8.41 128.48 18:21 13.10.2019
6366 Clouds 25 1012 84 0 8.41 128.48 17:59 13.10.2019
6367 Clouds 25 1012 84 0 8.41 128.48 17:59 13.10.2019
6368 Clouds 25 1012 84 0 8.41 128.48 17:41 13.10.2019
6369 Clouds 25 1012 84 0 8.41 128.48 17:23 13.10.2019
6370 Clouds 25 1012 84 0 8.41 128.48 16:43 13.10.2019
6371 Clouds 25 1012 84 0 8.41 128.48 16:20 13.10.2019
6372 -273 0 0 0 0 0 15:58 13.10.2019
6373 Clouds 25 1012 84 0 8.41 128.48 15:39 13.10.2019
6374 Clouds 25 1014 83 0 9.6 136.498 15:20 13.10.2019
6375 Clouds 25 1014 83 0 9.6 136.498 15:20 13.10.2019
6376 Clouds 25 1014 83 0 9.6 136.498 14:58 13.10.2019
6377 Clouds 25 1014 83 0 9.6 136.498 14:39 13.10.2019
6378 Clouds 25 1014 83 0 9.6 136.498 14:20 13.10.2019
6379 Clouds 25 1014 83 0 9.6 136.498 13:55 13.10.2019
6380 Clouds 25 1014 83 0 9.6 136.498 13:37 13.10.2019
6381 Clouds 25 1014 83 0 9.6 136.498 13:37 13.10.2019
6382 Clouds 25 1014 83 0 9.7 136.353 13:18 13.10.2019
6383 Clouds 25 1014 83 0 9.7 136.353 13:18 13.10.2019
6384 Clouds 25 1014 83 0 9.7 136.353 12:55 13.10.2019
6385 Clouds 25 1014 83 0 9.7 136.353 12:55 13.10.2019
6386 Clouds 25 1014 83 0 9.7 136.353 12:55 13.10.2019
6387 Clouds 25 1014 83 0 9.7 136.353 12:36 13.10.2019
6388 Clouds 25 1014 83 0 9.7 136.353 12:36 13.10.2019
6389 Clouds 25 1013 80 0 11.77 144.24 12:18 13.10.2019
6390 Clouds 25 1013 80 0 11.77 144.24 11:54 13.10.2019
6391 Clouds 25 1013 80 0 11.77 144.24 11:36 13.10.2019
6392 Haze 26 1010 83 10000 5.1 160 11:18 13.10.2019
6393 Haze 26 1010 83 10000 5.1 160 10:40 13.10.2019
6394 Haze 28 1009 74 10000 6.7 140 10:22 13.10.2019
6395 Haze 28 1009 74 10000 6.7 140 10:22 13.10.2019
6396 Haze 28 1009 74 10000 6.7 140 09:40 13.10.2019
6397 Haze 28 1009 74 10000 6.7 140 09:21 13.10.2019
6398 Haze 29 1009 70 10000 7.7 160 08:55 13.10.2019
6399 Haze 29 1009 70 10000 7.7 160 08:27 13.10.2019
6400 Haze 29 1009 70 10000 7.7 160 08:27 13.10.2019
6401 Haze 29 1009 74 10000 7.7 140 07:56 13.10.2019
6402 Haze 29 1009 74 10000 7.7 140 07:38 13.10.2019
6403 Haze 30 1009 74 10000 5.1 140 06:54 13.10.2019
6404 Haze 30 1010 70 10000 2.6 140 06:26 13.10.2019
6405 Haze 30 1010 70 10000 2.6 140 05:29 13.10.2019
6406 Haze 30 1011 70 10000 7.7 130 04:35 13.10.2019
6407 Clouds 25 1011 84 0 6.79 154.451 03:35 13.10.2019
6408 Clouds 29 1013 70 10000 2.6 200 02:32 13.10.2019
6409 Clouds 29 1013 70 10000 2.6 200 01:37 13.10.2019
6410 Clouds 27 1013 78 10000 1.5 0 01:18 13.10.2019
6411 Clouds 27 1013 78 10000 1.5 0 00:42 13.10.2019
6412 Clouds 27 1013 78 10000 1.5 0 00:42 13.10.2019
6413 Clouds 25 1013 88 10000 1.5 0 00:19 13.10.2019
6414 Clouds 25 1013 88 10000 1.5 0 23:42 12.10.2019
6415 Clouds 22 1012 100 10000 1.5 0 23:23 12.10.2019
6416 Clouds 22 1012 100 10000 1.5 0 22:59 12.10.2019
6417 Clouds 22 1012 100 10000 1.5 0 22:40 12.10.2019
6418 Clouds 24 1011 94 10000 5.1 160 22:22 12.10.2019
6419 Clouds 24 1011 94 10000 5.1 160 21:58 12.10.2019
6420 Clouds 24 1011 94 10000 5.1 160 21:40 12.10.2019
6421 Clouds 24 1011 94 10000 5.1 160 21:40 12.10.2019
6422 Clouds 24 1011 94 10000 5.1 160 21:21 12.10.2019
6423 Clouds 24 1011 88 0 6.66 124.962 20:54 12.10.2019
6424 Clouds 24 1011 88 0 6.66 124.962 20:54 12.10.2019
6425 Clouds 24 1011 88 0 6.66 124.962 20:54 12.10.2019
6426 Clouds 24 1011 88 0 6.66 124.962 20:36 12.10.2019
6427 Clouds 24 1011 88 0 6.66 124.962 20:18 12.10.2019
6428 Clouds 24 1011 88 0 6.66 124.962 19:36 12.10.2019
6429 Clouds 24 1010 94 10000 5.1 160 19:18 12.10.2019
6430 Clouds 24 1010 94 10000 5.1 160 18:42 12.10.2019
6431 Clouds 24 1010 94 10000 5.1 160 18:24 12.10.2019
6432 Clouds 24 1010 94 10000 5.1 160 17:46 12.10.2019
6433 Clouds 24 1010 94 10000 5.1 160 17:21 12.10.2019
6434 Clouds 24 1011 87 0 7.25 131.521 16:58 12.10.2019
6435 Clouds 24 1011 87 0 7.25 131.521 16:58 12.10.2019
6436 Clouds 24 1011 87 0 7.25 131.521 16:40 12.10.2019
6437 Clouds 24 1011 87 0 7.25 131.521 16:20 12.10.2019
6438 Clouds 24 1011 87 0 7.25 131.521 15:46 12.10.2019
6439 Clouds 24 1011 87 0 7.25 131.521 15:27 12.10.2019
6440 Clouds 25 1014 87 0 7.51 136.192 14:59 12.10.2019
6441 Clouds 25 1014 87 0 7.51 136.192 14:38 12.10.2019
6442 -273 0 0 0 0 0 14:20 12.10.2019
6443 Clouds 25 1014 87 0 7.51 136.192 13:49 12.10.2019
6444 Clouds 25 1014 87 0 7.76 136.702 13:31 12.10.2019
6445 Clouds 25 1014 87 0 7.76 136.702 12:55 12.10.2019
6446 Clouds 25 1014 87 0 7.76 136.702 12:37 12.10.2019
6447 Clouds 25 1011 88 0 6.74 145.516 12:18 12.10.2019
6448 Clouds 25 1011 88 0 6.74 145.516 11:41 12.10.2019
6449 Haze 26 1009 83 10000 2.6 160 11:22 12.10.2019
6450 Haze 26 1009 83 10000 2.6 160 10:57 12.10.2019
6451 Haze 26 1009 83 10000 2.6 160 10:37 12.10.2019
6452 Haze 26 1009 83 10000 2.6 160 10:19 12.10.2019
6453 Haze 27 1008 78 10000 2.6 140 09:56 12.10.2019
6454 Haze 27 1008 78 10000 2.6 140 09:56 12.10.2019
6455 Haze 27 1008 78 10000 2.6 140 09:37 12.10.2019
6456 Haze 29 1008 70 10000 2.6 160 09:19 12.10.2019
6457 Haze 29 1008 70 10000 2.6 160 08:42 12.10.2019
6458 Haze 29 1008 70 10000 2.6 160 08:22 12.10.2019
6459 Haze 29 1008 70 10000 2.6 190 07:37 12.10.2019
6460 Haze 31 1008 66 10000 2.6 190 07:18 12.10.2019
6461 Haze 31 1009 66 10000 2.6 140 05:53 12.10.2019
6462 Haze 31 1009 66 10000 2.6 140 05:24 12.10.2019
6463 Haze 31 1010 66 10000 6.2 190 04:26 12.10.2019
6464 Haze 29 1011 74 10000 5.1 100 03:42 12.10.2019
6465 Haze 29 1011 74 10000 3.1 130 02:28 12.10.2019
6466 Haze 26 1012 83 10000 3.1 160 01:30 12.10.2019
6467 Haze 26 1012 83 10000 3.1 160 00:43 12.10.2019
6468 Clouds 25 1011 88 10000 2.6 160 00:19 12.10.2019
6469 Clouds 25 1011 88 10000 2.6 160 00:19 12.10.2019
6470 Clouds 25 1011 88 10000 2.6 160 23:40 11.10.2019
6471 Clouds 25 1011 88 10000 2.6 160 23:20 11.10.2019
6472 Clouds 24 1010 94 10000 2.6 130 22:56 11.10.2019
6473 Clouds 24 1010 94 10000 2.6 130 22:37 11.10.2019
6474 Clouds 24 1010 94 10000 2.6 130 22:18 11.10.2019
6475 Clouds 24 1010 94 10000 2.6 170 21:40 11.10.2019
6476 Clouds 24 1010 94 10000 2.6 170 21:21 11.10.2019
6477 Clouds 25 1009 88 10000 2.6 150 20:45 11.10.2019
6478 Clouds 24 1011 88 0 6.04 127.031 20:27 11.10.2019
6479 Clouds 24 1009 94 10000 2.6 180 19:59 11.10.2019
6480 Clouds 24 1009 94 10000 2.6 180 19:39 11.10.2019
6481 Clouds 24 1009 94 10000 2.6 180 19:18 11.10.2019
6482 Clouds 24 1009 94 10000 2.6 180 19:18 11.10.2019
6483 Clouds 24 1009 94 10000 2.6 180 19:18 11.10.2019
6484 Clouds 24 1010 94 10000 2.6 150 18:59 11.10.2019
6485 Clouds 24 1010 94 10000 2.6 150 18:38 11.10.2019
6486 Clouds 24 1010 94 10000 2.6 150 18:19 11.10.2019
6487 Clouds 25 1010 88 10000 5.1 180 17:59 11.10.2019
6488 Clouds 25 1010 88 10000 5.1 180 17:59 11.10.2019
6489 Clouds 25 1010 88 10000 5.1 180 17:38 11.10.2019
6490 Clouds 25 1010 88 10000 5.1 180 17:19 11.10.2019
6491 Clouds 24 1011 94 10000 2.6 140 16:58 11.10.2019
6492 Clouds 24 1011 94 10000 2.6 140 16:39 11.10.2019
6493 Clouds 24 1011 94 10000 2.6 140 16:19 11.10.2019
6494 Clouds 25 1011 88 10000 4.1 160 15:41 11.10.2019
6495 Clouds 25 1011 88 10000 6.2 160 15:20 11.10.2019
6496 Clouds 25 1011 88 10000 6.2 160 14:58 11.10.2019
6497 Clouds 25 1011 88 10000 6.2 160 14:58 11.10.2019
6498 Clouds 25 1011 88 10000 6.2 160 14:39 11.10.2019
6499 Clouds 25 1013 86 0 8.11 137.342 14:19 11.10.2019
6500 Clouds 25 1013 86 0 8.11 137.342 13:45 11.10.2019
6501 Clouds 25 1010 88 10000 6.7 160 13:25 11.10.2019
6502 Clouds 25 1010 88 10000 6.7 160 12:57 11.10.2019
6503 Clouds 25 1010 88 10000 6.7 160 12:38 11.10.2019
6504 Clouds 25 1009 94 10000 5.1 160 12:20 11.10.2019
6505 Clouds 25 1009 94 10000 5.1 160 11:57 11.10.2019
6506 Clouds 25 1009 94 10000 5.1 160 11:38 11.10.2019
6507 Clouds 25 1011 88 0 7.85 142.765 11:20 11.10.2019
6508 Clouds 25 1011 88 0 7.85 142.765 10:42 11.10.2019
6509 Clouds 27 1008 78 10000 10.3 150 10:23 11.10.2019
6510 Clouds 27 1008 78 10000 10.3 150 09:59 11.10.2019
6511 Clouds 27 1008 78 10000 10.3 150 09:40 11.10.2019
6512 Clouds 28 1008 74 10000 9.3 150 09:20 11.10.2019
6513 Clouds 28 1008 74 10000 9.3 150 08:56 11.10.2019
6514 Clouds 28 1008 74 10000 9.3 150 08:37 11.10.2019
6515 -273 0 0 0 0 0 08:19 11.10.2019
6516 Clouds 29 1008 70 10000 9.3 150 07:46 11.10.2019
6517 Clouds 30 1008 70 10000 7.7 140 07:27 11.10.2019
6518 Clouds 30 1008 70 10000 7.7 140 06:49 11.10.2019
6519 Clouds 30 1008 70 10000 7.7 140 06:24 11.10.2019
6520 Clouds 29 1009 74 10000 7.7 150 05:41 11.10.2019
6521 Clouds 29 1010 74 10000 5.1 170 05:20 11.10.2019
6522 Clouds 29 1010 74 10000 5.1 170 04:28 11.10.2019
6523 Clouds 28 1012 78 10000 5.1 170 02:41 11.10.2019
6524 Clouds 26 1012 88 10000 7.7 170 00:52 11.10.2019
6525 Clouds 25 1012 94 10000 5.1 160 00:29 11.10.2019
6526 Clouds 25 1012 94 10000 5.1 160 23:46 10.10.2019
6527 Clouds 25 1011 94 10000 5.1 160 23:23 10.10.2019
6528 Clouds 25 1011 94 10000 5.1 160 22:58 10.10.2019
6529 Clouds 25 1011 94 10000 5.1 160 22:39 10.10.2019
6530 Clouds 25 1010 94 10000 1.5 0 22:21 10.10.2019
6531 Clouds 25 1010 94 10000 1.5 0 21:58 10.10.2019
6532 Clouds 25 1010 94 10000 1.5 0 21:39 10.10.2019
6533 Clouds 25 1010 94 10000 4.1 150 21:21 10.10.2019
6534 Clouds 25 1010 94 10000 4.1 150 20:46 10.10.2019
6535 Clouds 24 1010 89 0 4.88 121.222 20:22 10.10.2019
6536 Clouds 24 1010 89 0 4.88 121.222 19:59 10.10.2019
6537 Clouds 24 1010 89 0 4.88 121.222 19:59 10.10.2019
6538 Clouds 24 1010 89 0 4.88 121.222 19:41 10.10.2019
6539 Clouds 25 1010 94 10000 3.1 160 19:21 10.10.2019
6540 Clouds 25 1010 94 10000 3.1 160 18:59 10.10.2019
6541 Clouds 25 1010 94 10000 3.1 160 18:40 10.10.2019
6542 Clouds 25 1011 89 0 7.41 131.488 18:20 10.10.2019
6543 Clouds 25 1011 89 0 7.41 131.488 17:55 10.10.2019
6544 Clouds 25 1011 89 0 7.41 131.488 17:55 10.10.2019
6545 Clouds 25 1011 89 0 7.41 131.488 17:37 10.10.2019
6546 Clouds 25 1011 89 0 7.41 131.488 17:18 10.10.2019
6547 Clouds 25 1011 89 0 7.41 131.488 16:46 10.10.2019
6548 Clouds 25 1011 94 10000 4.1 160 16:26 10.10.2019
6549 Clouds 25 1011 94 10000 4.1 160 15:57 10.10.2019
6550 Clouds 25 1011 94 10000 4.1 160 15:37 10.10.2019
6551 Clouds 25 1013 90 0 8.93 142.877 15:19 10.10.2019
6552 Clouds 25 1013 90 0 8.93 142.877 14:54 10.10.2019
6553 Clouds 25 1013 90 0 8.93 142.877 14:36 10.10.2019
6554 Clouds 25 1013 90 0 8.93 142.877 14:18 10.10.2019
6555 Clouds 25 1013 90 0 8.93 142.877 13:41 10.10.2019
6556 Clouds 25 1013 90 0 8.57 142.895 13:23 10.10.2019
6557 Clouds 25 1013 90 0 8.57 142.895 12:57 10.10.2019
6558 Clouds 25 1013 90 0 8.57 142.895 12:39 10.10.2019
6559 Clear 25 1011 90 0 8.96 155.269 12:20 10.10.2019
6560 Clear 25 1011 90 0 8.96 155.269 11:56 10.10.2019
6561 Clear 25 1011 90 0 8.96 155.269 11:37 10.10.2019
6562 Clouds 27 1009 83 10000 5.1 180 11:18 10.10.2019
6563 Clouds 27 1009 83 10000 5.1 180 10:44 10.10.2019
6564 Clouds 29 1009 74 10000 7.7 180 10:26 10.10.2019
6565 Clouds 29 1009 74 10000 7.7 180 09:56 10.10.2019
6566 Clouds 29 1009 74 10000 7.7 180 09:38 10.10.2019
6567 Clouds 29 1009 74 10000 7.7 180 09:19 10.10.2019
6568 Clouds 25 1009 89 0 6.87 149.739 08:41 10.10.2019
6569 Clouds 27 1008 83 10000 10.3 160 08:23 10.10.2019
6570 Clouds 27 1008 83 10000 10.3 160 07:58 10.10.2019
6571 Clouds 27 1008 83 10000 10.3 160 07:40 10.10.2019
6572 Clouds 25 1009 89 0 6.87 149.739 07:20 10.10.2019
6573 Clouds 25 1009 89 0 6.87 149.739 06:45 10.10.2019
6574 Clouds 28 1010 83 10000 10.3 180 06:22 10.10.2019
6575 Clouds 28 1010 83 10000 10.3 180 05:24 10.10.2019
6576 Clouds 29 1011 79 10000 7.7 140 04:37 10.10.2019
6577 Clouds 27 1011 83 10000 7.7 160 03:27 10.10.2019
6578 Clouds 27 1012 83 10000 3.6 130 01:42 10.10.2019
6579 Clouds 27 1012 83 10000 3.6 130 01:42 10.10.2019
6580 Clouds 27 1012 83 10000 3.6 130 01:24 10.10.2019
6581 Rain 25 1012 94 10000 3.6 140 00:45 10.10.2019
6582 Rain 25 1012 94 10000 3.6 140 00:20 10.10.2019
6583 Clouds 25 1011 94 10000 2.1 140 23:39 09.10.2019
6584 Clouds 25 1011 94 10000 2.1 140 23:19 09.10.2019
6585 Clouds 25 1011 94 10000 2.1 140 22:43 09.10.2019
6586 Clouds 25 1011 94 10000 2.1 140 22:24 09.10.2019
6587 Clouds 24 1012 88 0 5.84 125.66 21:59 09.10.2019
6588 Clouds 24 1012 88 0 5.84 125.66 21:39 09.10.2019
6589 Clouds 24 1011 88 0 5.7 133.833 21:20 09.10.2019
6590 Clouds 24 1011 89 0 5.98 128.823 20:56 09.10.2019
6591 Clouds 24 1011 89 0 5.98 128.823 20:56 09.10.2019
6592 Clouds 24 1011 89 0 5.98 128.823 20:37 09.10.2019
6593 Clouds 24 1011 89 0 5.98 128.823 20:18 09.10.2019
6594 Clouds 24 1011 89 0 5.98 128.823 19:45 09.10.2019
6595 Clouds 24 1011 89 0 5.98 128.823 19:23 09.10.2019
6596 Clouds 24 1011 89 0 5.98 128.823 18:58 09.10.2019
6597 Clouds 24 1011 89 0 5.98 128.823 18:37 09.10.2019
6598 Clouds 25 1011 94 10000 4.1 150 18:18 09.10.2019
6599 Clouds 25 1011 94 10000 4.1 150 17:54 09.10.2019
6600 Clouds 25 1011 94 10000 4.1 150 17:36 09.10.2019
6601 Rain 24 1011 89 0 7.72 134.208 17:18 09.10.2019
6602 Rain 24 1011 89 0 7.72 134.208 16:40 09.10.2019
6603 Rain 24 1011 89 0 7.72 134.208 16:22 09.10.2019
6604 Rain 24 1011 89 0 7.72 134.208 15:58 09.10.2019
6605 Rain 24 1011 89 0 7.72 134.208 15:39 09.10.2019
6606 Rain 24 1013 87 0 7.75 129.919 15:19 09.10.2019
6607 Rain 24 1013 87 0 7.75 129.919 14:56 09.10.2019
6608 Rain 24 1013 87 0 7.75 129.919 14:37 09.10.2019
6609 Rain 24 1013 87 0 7.75 129.919 14:18 09.10.2019
6610 Rain 24 1013 87 0 7.75 129.919 13:39 09.10.2019
6611 Rain 24 1013 87 0 7.75 129.919 13:39 09.10.2019
6612 Clouds 25 1013 86 0 7.86 128.338 13:20 09.10.2019
6613 Clouds 25 1013 86 0 7.86 128.338 12:57 09.10.2019
6614 Clouds 25 1013 86 0 7.86 128.338 12:38 09.10.2019
6615 Clouds 25 1011 84 0 9.35 144.305 12:20 09.10.2019
6616 Clouds 25 1011 84 0 9.35 144.305 11:54 09.10.2019
6617 Clouds 25 1011 84 0 9.35 144.305 11:36 09.10.2019
6618 Clouds 25 1011 84 0 9.35 144.305 11:36 09.10.2019
6619 Haze 26 1009 88 10000 7.7 150 11:18 09.10.2019
6620 Haze 26 1009 88 10000 7.7 150 10:42 09.10.2019
6621 -273 0 0 0 0 0 10:20 09.10.2019
6622 Haze 27 1008 83 10000 6.7 150 09:56 09.10.2019
6623 Haze 27 1008 83 10000 6.7 150 09:38 09.10.2019
6624 Haze 27 1008 83 10000 6.7 150 09:38 09.10.2019
6625 Haze 27 1008 83 10000 6.7 150 09:18 09.10.2019
6626 Haze 27 1008 83 10000 7.7 160 08:39 09.10.2019
6627 Haze 29 1008 74 10000 7.7 150 08:20 09.10.2019
6628 Haze 29 1008 74 10000 7.7 150 08:20 09.10.2019
6629 Haze 29 1008 74 10000 7.7 150 07:47 09.10.2019
6630 Haze 29 1008 74 10000 7.7 150 07:47 09.10.2019
6631 Haze 29 1008 74 10000 7.7 150 07:25 09.10.2019
6632 Haze 30 1008 74 10000 2.6 160 06:58 09.10.2019
6633 Haze 30 1008 74 10000 2.6 160 06:40 09.10.2019
6634 Haze 29 1011 74 10000 2.6 140 05:53 09.10.2019
6635 Haze 28 1011 78 10000 2.6 150 04:56 09.10.2019
6636 Haze 28 1011 78 10000 6.2 150 03:48 09.10.2019
6637 Haze 28 1012 74 10000 2.1 0 02:27 09.10.2019
6638 Haze 28 1012 74 10000 2.1 0 01:39 09.10.2019
6639 Haze 26 1012 83 10000 2.1 0 01:18 09.10.2019
6640 Haze 26 1012 83 10000 2.1 0 00:41 09.10.2019
6641 Haze 26 1012 83 10000 2.1 0 00:23 09.10.2019
6642 Clouds 25 1011 88 10000 2.1 0 23:58 08.10.2019
6643 Clouds 25 1011 88 10000 2.1 0 23:38 08.10.2019
6644 Clouds 24 1010 94 10000 2.6 150 23:18 08.10.2019
6645 Clouds 24 1010 94 10000 2.6 150 23:18 08.10.2019
6646 Clouds 24 1010 94 10000 2.6 150 22:41 08.10.2019
6647 Clouds 24 1010 94 10000 2.6 150 22:22 08.10.2019
6648 Clouds 24 1010 94 10000 3.1 140 21:58 08.10.2019
6649 Clouds 24 1010 94 10000 3.1 140 21:39 08.10.2019
6650 Clouds 24 1011 86 0 8.28 122.692 21:20 08.10.2019
6651 Clouds 24 1011 86 0 8.28 122.692 20:58 08.10.2019
6652 Clouds 24 1011 86 0 8.28 122.692 20:58 08.10.2019
6653 Clouds 24 1011 85 0 8.38 123.322 20:39 08.10.2019
6654 Clouds 24 1011 85 0 8.38 123.322 20:21 08.10.2019
6655 Clouds 24 1011 85 0 8.38 123.322 20:21 08.10.2019
6656 Clouds 24 1011 85 0 8.38 123.322 19:59 08.10.2019
6657 Clouds 24 1011 85 0 8.38 123.322 19:41 08.10.2019
6658 Clouds 24 1011 85 0 8.38 123.322 19:23 08.10.2019
6659 Clouds 24 1011 85 0 8.38 123.322 18:57 08.10.2019
6660 Clouds 24 1011 85 0 8.38 123.322 18:39 08.10.2019
6661 Clouds 24 1011 84 0 9.52 128.905 18:19 08.10.2019
6662 Clouds 24 1011 84 0 9.52 128.905 17:55 08.10.2019
6663 Clouds 24 1011 84 0 9.52 128.905 17:36 08.10.2019
6664 Clouds 24 1011 84 0 9.52 128.905 17:18 08.10.2019
6665 Clouds 24 1011 84 0 9.52 128.905 16:40 08.10.2019
6666 Clouds 24 1011 94 10000 5.1 150 16:22 08.10.2019
6667 Clouds 24 1011 94 10000 5.1 150 15:56 08.10.2019
6668 Clouds 24 1011 94 10000 5.1 150 15:37 08.10.2019
6669 Clouds 25 1011 88 10000 10.3 160 15:19 08.10.2019
6670 Clouds 25 1011 88 10000 10.3 160 14:42 08.10.2019
6671 Clouds 25 1011 88 10000 10.3 160 14:21 08.10.2019
6672 Clouds 24 1013 81 0 10.57 132.052 13:57 08.10.2019
6673 Clouds 24 1013 81 0 10.57 132.052 13:39 08.10.2019
6674 Clouds 25 1010 88 10000 10.3 150 13:20 08.10.2019
6675 Clouds 25 1010 88 10000 10.3 150 12:59 08.10.2019
6676 Clouds 25 1010 88 10000 10.3 150 12:38 08.10.2019
6677 Haze 26 1009 83 10000 10.3 150 12:18 08.10.2019
6678 Haze 26 1009 83 10000 10.3 150 11:43 08.10.2019
6679 Haze 26 1009 83 10000 10.3 150 11:24 08.10.2019
6680 Haze 27 1008 78 10000 10.3 150 10:58 08.10.2019
6681 Haze 27 1008 78 10000 10.3 150 10:38 08.10.2019
6682 Haze 29 1008 70 10000 7.7 150 10:19 08.10.2019
6683 Haze 29 1008 70 10000 7.7 150 09:56 08.10.2019
6684 Haze 29 1008 70 10000 7.7 150 09:56 08.10.2019
6685 Haze 29 1008 70 10000 7.7 150 09:37 08.10.2019
6686 Haze 29 1008 70 10000 7.7 150 09:19 08.10.2019
6687 Haze 29 1007 70 10000 7.7 150 08:42 08.10.2019
6688 Haze 29 1007 70 10000 7.7 150 08:23 08.10.2019
6689 Haze 29 1007 70 10000 7.7 150 08:23 08.10.2019
6690 Haze 30 1007 66 10000 7.7 150 07:44 08.10.2019
6691 Haze 30 1007 66 10000 7.7 150 07:21 08.10.2019
6692 Haze 30 1008 66 10000 7.7 140 06:51 08.10.2019
6693 Haze 30 1008 66 10000 7.7 140 06:28 08.10.2019
6694 Haze 29 1009 70 10000 7.7 140 05:46 08.10.2019
6695 Haze 29 1009 70 10000 7.7 140 05:46 08.10.2019
6696 Haze 30 1010 70 10000 5.1 150 05:25 08.10.2019
6697 Clouds 28 1011 78 10000 6.7 160 03:57 08.10.2019
6698 Clouds 28 1012 78 10000 5.1 140 03:24 08.10.2019
6699 Clouds 28 1012 78 10000 5.1 140 02:35 08.10.2019
6700 Clouds 28 1014 78 10000 5.1 140 01:45 08.10.2019
6701 Clouds 26 1012 88 10000 5.1 150 01:26 08.10.2019
6702 Clouds 26 1012 88 10000 5.1 150 00:45 08.10.2019
6703 Clouds 25 1012 94 0 4.6 140 00:20 08.10.2019
6704 Clouds 25 1012 94 0 4.6 140 23:39 07.10.2019
6705 Clouds 25 1012 94 0 4.6 140 23:20 07.10.2019
6706 Clouds 24 1011 100 0 5.1 150 22:56 07.10.2019
6707 Clouds 24 1011 100 0 5.1 150 22:37 07.10.2019
6708 Clouds 24 1011 100 0 5.1 150 22:19 07.10.2019<